<?xml version="1.0" encoding="UTF-8" standalone="no"?>
<gpx xmlns="http://www.topografix.com/GPX/1/1" creator="Elektrobit Street Director (R)" version="1.1" xmlns:xsi="http://www.w3.org/2001/XMLSchema-instance" xsi:schemaLocation="http://www.topografix.com/GPX/1/1 http://www.topografix.com/GPX/1/1/gpx.xsd http://www.gpstrailmaps.com/map3d/map3d http://www.gpstrailmaps.com/map3d/map3d.xsd http://www.topografix.com/GPX/gpx_style/0/2 http://www.topografix.com/GPX/gpx_style/0/2/gpx_style.xsd">
<metadata>
<name>                                                                                                                               </name>
<desc>                                                                                                                               </desc>
<author>
<name>                                                                                                                               </name>
<email domain="                               " id="                               "/>
<link href="                                                                                                                               ">
<text>                                                                                                                               </text>
<type>text/html</type>
</link>
</author>
<copyright author="                                                                                                                               ">
<year>                               </year>
<license>                                                                                                                               </license>
</copyright>
<time>                               </time>
<bounds minlat="38.135765                      " minlon="14.935975                      " maxlat="38.177345                      " maxlon="15.043023                      "/>
</metadata>
<wpt lat="38.172209                      " lon="14.938993                      ">
<name>                               </name>
<cmt>                               </cmt>
<desc>                                                                                                                               </desc>
<sym>                               </sym>
</wpt>
<trk>
<name>                               </name>
<cmt>                               </cmt>
<desc>                                                                                                                               </desc>
<number>                               </number>
<trkseg>
<trkpt lat="38.172209" lon="14.938993">
<ele>85.500000</ele>
<time>2009-10-22T13:09:17Z</time>
</trkpt>
<trkpt lat="38.172252" lon="14.938915">
<ele>84.400000</ele>
<time>2009-10-22T13:09:18Z</time>
</trkpt>
<trkpt lat="38.172296" lon="14.938830">
<ele>83.300000</ele>
<time>2009-10-22T13:09:19Z</time>
</trkpt>
<trkpt lat="38.172342" lon="14.938750">
<ele>81.600000</ele>
<time>2009-10-22T13:09:20Z</time>
</trkpt>
<trkpt lat="38.172390" lon="14.938669">
<ele>80.400000</ele>
<time>2009-10-22T13:09:21Z</time>
</trkpt>
<trkpt lat="38.172441" lon="14.938590">
<ele>79.500000</ele>
<time>2009-10-22T13:09:22Z</time>
</trkpt>
<trkpt lat="38.172488" lon="14.938510">
<ele>78.500000</ele>
<time>2009-10-22T13:09:23Z</time>
</trkpt>
<trkpt lat="38.172562" lon="14.938394">
<ele>76.400000</ele>
<time>2009-10-22T13:09:25Z</time>
</trkpt>
<trkpt lat="38.172636" lon="14.938342">
<ele>76.100000</ele>
<time>2009-10-22T13:09:27Z</time>
</trkpt>
<trkpt lat="38.172709" lon="14.938362">
<ele>75.200000</ele>
<time>2009-10-22T13:09:30Z</time>
</trkpt>
<trkpt lat="38.172752" lon="14.938464">
<ele>76.800000</ele>
<time>2009-10-22T13:09:33Z</time>
</trkpt>
<trkpt lat="38.172702" lon="14.938572">
<ele>76.800000</ele>
<time>2009-10-22T13:09:35Z</time>
</trkpt>
<trkpt lat="38.172640" lon="14.938698">
<ele>75.800000</ele>
<time>2009-10-22T13:09:37Z</time>
</trkpt>
<trkpt lat="38.172591" lon="14.938769">
<ele>74.800000</ele>
<time>2009-10-22T13:09:39Z</time>
</trkpt>
<trkpt lat="38.172577" lon="14.938853">
<ele>73.600000</ele>
<time>2009-10-22T13:09:48Z</time>
</trkpt>
<trkpt lat="38.172545" lon="14.938945">
<ele>73.400000</ele>
<time>2009-10-22T13:09:50Z</time>
</trkpt>
<trkpt lat="38.172493" lon="14.939052">
<ele>73.400000</ele>
<time>2009-10-22T13:09:52Z</time>
</trkpt>
<trkpt lat="38.172452" lon="14.939160">
<ele>72.400000</ele>
<time>2009-10-22T13:09:54Z</time>
</trkpt>
<trkpt lat="38.172413" lon="14.939251">
<ele>70.900000</ele>
<time>2009-10-22T13:09:56Z</time>
</trkpt>
<trkpt lat="38.172355" lon="14.939338">
<ele>69.600000</ele>
<time>2009-10-22T13:09:58Z</time>
</trkpt>
<trkpt lat="38.172294" lon="14.939424">
<ele>68.100000</ele>
<time>2009-10-22T13:10:00Z</time>
</trkpt>
<trkpt lat="38.172216" lon="14.939491">
<ele>66.800000</ele>
<time>2009-10-22T13:10:02Z</time>
</trkpt>
<trkpt lat="38.172136" lon="14.939538">
<ele>66.300000</ele>
<time>2009-10-22T13:10:04Z</time>
</trkpt>
<trkpt lat="38.172054" lon="14.939583">
<ele>66.000000</ele>
<time>2009-10-22T13:10:06Z</time>
</trkpt>
<trkpt lat="38.171981" lon="14.939636">
<ele>64.400000</ele>
<time>2009-10-22T13:10:08Z</time>
</trkpt>
<trkpt lat="38.171931" lon="14.939725">
<ele>61.800000</ele>
<time>2009-10-22T13:10:10Z</time>
</trkpt>
<trkpt lat="38.171890" lon="14.939826">
<ele>60.200000</ele>
<time>2009-10-22T13:10:12Z</time>
</trkpt>
<trkpt lat="38.171897" lon="14.939953">
<ele>59.700000</ele>
<time>2009-10-22T13:10:15Z</time>
</trkpt>
<trkpt lat="38.171977" lon="14.939998">
<ele>58.800000</ele>
<time>2009-10-22T13:10:17Z</time>
</trkpt>
<trkpt lat="38.172059" lon="14.939969">
<ele>57.400000</ele>
<time>2009-10-22T13:10:19Z</time>
</trkpt>
<trkpt lat="38.172163" lon="14.939913">
<ele>55.500000</ele>
<time>2009-10-22T13:10:21Z</time>
</trkpt>
<trkpt lat="38.172264" lon="14.939854">
<ele>55.200000</ele>
<time>2009-10-22T13:10:23Z</time>
</trkpt>
<trkpt lat="38.172336" lon="14.939807">
<ele>55.200000</ele>
<time>2009-10-22T13:10:25Z</time>
</trkpt>
<trkpt lat="38.172408" lon="14.939836">
<ele>57.400000</ele>
<time>2009-10-22T13:10:29Z</time>
</trkpt>
<trkpt lat="38.172405" lon="14.939964">
<ele>58.200000</ele>
<time>2009-10-22T13:10:39Z</time>
</trkpt>
<trkpt lat="38.172336" lon="14.940007">
<ele>56.800000</ele>
<time>2009-10-22T13:10:41Z</time>
</trkpt>
<trkpt lat="38.172222" lon="14.940027">
<ele>54.000000</ele>
<time>2009-10-22T13:10:43Z</time>
</trkpt>
<trkpt lat="38.172152" lon="14.940070">
<ele>54.100000</ele>
<time>2009-10-22T13:10:44Z</time>
</trkpt>
<trkpt lat="38.172071" lon="14.940111">
<ele>54.300000</ele>
<time>2009-10-22T13:10:45Z</time>
</trkpt>
<trkpt lat="38.171979" lon="14.940169">
<ele>54.600000</ele>
<time>2009-10-22T13:10:46Z</time>
</trkpt>
<trkpt lat="38.171896" lon="14.940232">
<ele>54.800000</ele>
<time>2009-10-22T13:10:47Z</time>
</trkpt>
<trkpt lat="38.171800" lon="14.940292">
<ele>54.800000</ele>
<time>2009-10-22T13:10:48Z</time>
</trkpt>
<trkpt lat="38.171696" lon="14.940351">
<ele>54.800000</ele>
<time>2009-10-22T13:10:49Z</time>
</trkpt>
<trkpt lat="38.171582" lon="14.940399">
<ele>55.500000</ele>
<time>2009-10-22T13:10:50Z</time>
</trkpt>
<trkpt lat="38.171489" lon="14.940457">
<ele>56.600000</ele>
<time>2009-10-22T13:10:51Z</time>
</trkpt>
<trkpt lat="38.171392" lon="14.940502">
<ele>56.000000</ele>
<time>2009-10-22T13:10:52Z</time>
</trkpt>
<trkpt lat="38.171320" lon="14.940581">
<ele>57.100000</ele>
<time>2009-10-22T13:10:53Z</time>
</trkpt>
<trkpt lat="38.171245" lon="14.940647">
<ele>56.800000</ele>
<time>2009-10-22T13:10:54Z</time>
</trkpt>
<trkpt lat="38.171182" lon="14.940778">
<ele>57.800000</ele>
<time>2009-10-22T13:10:55Z</time>
</trkpt>
<trkpt lat="38.171141" lon="14.940915">
<ele>57.600000</ele>
<time>2009-10-22T13:10:56Z</time>
</trkpt>
<trkpt lat="38.171073" lon="14.941027">
<ele>58.100000</ele>
<time>2009-10-22T13:10:57Z</time>
</trkpt>
<trkpt lat="38.171000" lon="14.941135">
<ele>59.300000</ele>
<time>2009-10-22T13:10:58Z</time>
</trkpt>
<trkpt lat="38.170898" lon="14.941236">
<ele>60.700000</ele>
<time>2009-10-22T13:10:59Z</time>
</trkpt>
<trkpt lat="38.170801" lon="14.941284">
<ele>62.500000</ele>
<time>2009-10-22T13:11:00Z</time>
</trkpt>
<trkpt lat="38.170694" lon="14.941285">
<ele>62.300000</ele>
<time>2009-10-22T13:11:01Z</time>
</trkpt>
<trkpt lat="38.170599" lon="14.941339">
<ele>62.600000</ele>
<time>2009-10-22T13:11:02Z</time>
</trkpt>
<trkpt lat="38.170533" lon="14.941423">
<ele>61.900000</ele>
<time>2009-10-22T13:11:03Z</time>
</trkpt>
<trkpt lat="38.170497" lon="14.941531">
<ele>60.800000</ele>
<time>2009-10-22T13:11:04Z</time>
</trkpt>
<trkpt lat="38.170490" lon="14.941635">
<ele>59.800000</ele>
<time>2009-10-22T13:11:05Z</time>
</trkpt>
<trkpt lat="38.170446" lon="14.941760">
<ele>60.300000</ele>
<time>2009-10-22T13:11:06Z</time>
</trkpt>
<trkpt lat="38.170426" lon="14.941940">
<ele>59.500000</ele>
<time>2009-10-22T13:11:07Z</time>
</trkpt>
<trkpt lat="38.170399" lon="14.942059">
<ele>60.200000</ele>
<time>2009-10-22T13:11:08Z</time>
</trkpt>
<trkpt lat="38.170355" lon="14.942161">
<ele>61.900000</ele>
<time>2009-10-22T13:11:09Z</time>
</trkpt>
<trkpt lat="38.170283" lon="14.942234">
<ele>60.600000</ele>
<time>2009-10-22T13:11:10Z</time>
</trkpt>
<trkpt lat="38.170215" lon="14.942330">
<ele>58.700000</ele>
<time>2009-10-22T13:11:11Z</time>
</trkpt>
<trkpt lat="38.170189" lon="14.942416">
<ele>56.500000</ele>
<time>2009-10-22T13:11:12Z</time>
</trkpt>
<trkpt lat="38.170185" lon="14.942511">
<ele>54.500000</ele>
<time>2009-10-22T13:11:13Z</time>
</trkpt>
<trkpt lat="38.170151" lon="14.942672">
<ele>54.300000</ele>
<time>2009-10-22T13:11:14Z</time>
</trkpt>
<trkpt lat="38.170172" lon="14.942814">
<ele>52.300000</ele>
<time>2009-10-22T13:11:15Z</time>
</trkpt>
<trkpt lat="38.170174" lon="14.942971">
<ele>50.500000</ele>
<time>2009-10-22T13:11:16Z</time>
</trkpt>
<trkpt lat="38.170157" lon="14.943113">
<ele>49.700000</ele>
<time>2009-10-22T13:11:17Z</time>
</trkpt>
<trkpt lat="38.170120" lon="14.943249">
<ele>49.600000</ele>
<time>2009-10-22T13:11:18Z</time>
</trkpt>
<trkpt lat="38.170061" lon="14.943384">
<ele>49.200000</ele>
<time>2009-10-22T13:11:19Z</time>
</trkpt>
<trkpt lat="38.169981" lon="14.943504">
<ele>49.300000</ele>
<time>2009-10-22T13:11:20Z</time>
</trkpt>
<trkpt lat="38.169855" lon="14.943630">
<ele>48.800000</ele>
<time>2009-10-22T13:11:21Z</time>
</trkpt>
<trkpt lat="38.169748" lon="14.943750">
<ele>48.900000</ele>
<time>2009-10-22T13:11:22Z</time>
</trkpt>
<trkpt lat="38.169634" lon="14.943829">
<ele>48.400000</ele>
<time>2009-10-22T13:11:23Z</time>
</trkpt>
<trkpt lat="38.169534" lon="14.943950">
<ele>48.800000</ele>
<time>2009-10-22T13:11:24Z</time>
</trkpt>
<trkpt lat="38.169445" lon="14.944077">
<ele>48.700000</ele>
<time>2009-10-22T13:11:25Z</time>
</trkpt>
<trkpt lat="38.169376" lon="14.944215">
<ele>49.200000</ele>
<time>2009-10-22T13:11:26Z</time>
</trkpt>
<trkpt lat="38.169312" lon="14.944367">
<ele>49.200000</ele>
<time>2009-10-22T13:11:27Z</time>
</trkpt>
<trkpt lat="38.169248" lon="14.944495">
<ele>47.900000</ele>
<time>2009-10-22T13:11:28Z</time>
</trkpt>
<trkpt lat="38.169174" lon="14.944621">
<ele>47.100000</ele>
<time>2009-10-22T13:11:29Z</time>
</trkpt>
<trkpt lat="38.169085" lon="14.944742">
<ele>48.000000</ele>
<time>2009-10-22T13:11:30Z</time>
</trkpt>
<trkpt lat="38.168991" lon="14.944881">
<ele>48.500000</ele>
<time>2009-10-22T13:11:31Z</time>
</trkpt>
<trkpt lat="38.168901" lon="14.945000">
<ele>48.800000</ele>
<time>2009-10-22T13:11:32Z</time>
</trkpt>
<trkpt lat="38.168815" lon="14.945136">
<ele>49.400000</ele>
<time>2009-10-22T13:11:33Z</time>
</trkpt>
<trkpt lat="38.168754" lon="14.945263">
<ele>49.600000</ele>
<time>2009-10-22T13:11:34Z</time>
</trkpt>
<trkpt lat="38.168704" lon="14.945361">
<ele>47.900000</ele>
<time>2009-10-22T13:11:35Z</time>
</trkpt>
<trkpt lat="38.168669" lon="14.945461">
<ele>46.000000</ele>
<time>2009-10-22T13:11:36Z</time>
</trkpt>
<trkpt lat="38.168635" lon="14.945603">
<ele>44.000000</ele>
<time>2009-10-22T13:11:37Z</time>
</trkpt>
<trkpt lat="38.168594" lon="14.945746">
<ele>42.900000</ele>
<time>2009-10-22T13:11:38Z</time>
</trkpt>
<trkpt lat="38.168550" lon="14.945902">
<ele>40.700000</ele>
<time>2009-10-22T13:11:39Z</time>
</trkpt>
<trkpt lat="38.168539" lon="14.946052">
<ele>40.000000</ele>
<time>2009-10-22T13:11:40Z</time>
</trkpt>
<trkpt lat="38.168528" lon="14.946218">
<ele>39.700000</ele>
<time>2009-10-22T13:11:41Z</time>
</trkpt>
<trkpt lat="38.168517" lon="14.946386">
<ele>39.200000</ele>
<time>2009-10-22T13:11:42Z</time>
</trkpt>
<trkpt lat="38.168496" lon="14.946538">
<ele>38.900000</ele>
<time>2009-10-22T13:11:43Z</time>
</trkpt>
<trkpt lat="38.168460" lon="14.946674">
<ele>37.600000</ele>
<time>2009-10-22T13:11:44Z</time>
</trkpt>
<trkpt lat="38.168416" lon="14.946806">
<ele>35.800000</ele>
<time>2009-10-22T13:11:45Z</time>
</trkpt>
<trkpt lat="38.168410" lon="14.946943">
<ele>35.600000</ele>
<time>2009-10-22T13:11:46Z</time>
</trkpt>
<trkpt lat="38.168377" lon="14.947075">
<ele>35.000000</ele>
<time>2009-10-22T13:11:47Z</time>
</trkpt>
<trkpt lat="38.168324" lon="14.947204">
<ele>34.900000</ele>
<time>2009-10-22T13:11:48Z</time>
</trkpt>
<trkpt lat="38.168250" lon="14.947314">
<ele>35.200000</ele>
<time>2009-10-22T13:11:49Z</time>
</trkpt>
<trkpt lat="38.168153" lon="14.947399">
<ele>35.600000</ele>
<time>2009-10-22T13:11:50Z</time>
</trkpt>
<trkpt lat="38.168033" lon="14.947471">
<ele>35.800000</ele>
<time>2009-10-22T13:11:51Z</time>
</trkpt>
<trkpt lat="38.167945" lon="14.947563">
<ele>35.200000</ele>
<time>2009-10-22T13:11:52Z</time>
</trkpt>
<trkpt lat="38.167863" lon="14.947652">
<ele>35.700000</ele>
<time>2009-10-22T13:11:53Z</time>
</trkpt>
<trkpt lat="38.167780" lon="14.947803">
<ele>35.400000</ele>
<time>2009-10-22T13:11:54Z</time>
</trkpt>
<trkpt lat="38.167704" lon="14.947966">
<ele>35.500000</ele>
<time>2009-10-22T13:11:55Z</time>
</trkpt>
<trkpt lat="38.167646" lon="14.948120">
<ele>35.100000</ele>
<time>2009-10-22T13:11:56Z</time>
</trkpt>
<trkpt lat="38.167580" lon="14.948317">
<ele>35.300000</ele>
<time>2009-10-22T13:11:57Z</time>
</trkpt>
<trkpt lat="38.167529" lon="14.948501">
<ele>35.700000</ele>
<time>2009-10-22T13:11:58Z</time>
</trkpt>
<trkpt lat="38.167461" lon="14.948680">
<ele>36.300000</ele>
<time>2009-10-22T13:11:59Z</time>
</trkpt>
<trkpt lat="38.167390" lon="14.948853">
<ele>36.600000</ele>
<time>2009-10-22T13:12:00Z</time>
</trkpt>
<trkpt lat="38.167308" lon="14.949008">
<ele>36.100000</ele>
<time>2009-10-22T13:12:01Z</time>
</trkpt>
<trkpt lat="38.167237" lon="14.949159">
<ele>35.400000</ele>
<time>2009-10-22T13:12:02Z</time>
</trkpt>
<trkpt lat="38.167143" lon="14.949310">
<ele>35.500000</ele>
<time>2009-10-22T13:12:03Z</time>
</trkpt>
<trkpt lat="38.167064" lon="14.949445">
<ele>36.000000</ele>
<time>2009-10-22T13:12:04Z</time>
</trkpt>
<trkpt lat="38.167006" lon="14.949579">
<ele>37.000000</ele>
<time>2009-10-22T13:12:05Z</time>
</trkpt>
<trkpt lat="38.166964" lon="14.949719">
<ele>37.800000</ele>
<time>2009-10-22T13:12:06Z</time>
</trkpt>
<trkpt lat="38.166910" lon="14.949885">
<ele>38.500000</ele>
<time>2009-10-22T13:12:07Z</time>
</trkpt>
<trkpt lat="38.166865" lon="14.950044">
<ele>38.900000</ele>
<time>2009-10-22T13:12:08Z</time>
</trkpt>
<trkpt lat="38.166842" lon="14.950281">
<ele>39.100000</ele>
<time>2009-10-22T13:12:09Z</time>
</trkpt>
<trkpt lat="38.166803" lon="14.950491">
<ele>38.600000</ele>
<time>2009-10-22T13:12:10Z</time>
</trkpt>
<trkpt lat="38.166822" lon="14.950704">
<ele>39.900000</ele>
<time>2009-10-22T13:12:11Z</time>
</trkpt>
<trkpt lat="38.166780" lon="14.950897">
<ele>39.200000</ele>
<time>2009-10-22T13:12:12Z</time>
</trkpt>
<trkpt lat="38.166750" lon="14.951045">
<ele>34.700000</ele>
<time>2009-10-22T13:12:13Z</time>
</trkpt>
<trkpt lat="38.166719" lon="14.951196">
<ele>31.700000</ele>
<time>2009-10-22T13:12:14Z</time>
</trkpt>
<trkpt lat="38.166697" lon="14.951366">
<ele>29.400000</ele>
<time>2009-10-22T13:12:15Z</time>
</trkpt>
<trkpt lat="38.166661" lon="14.951541">
<ele>27.300000</ele>
<time>2009-10-22T13:12:16Z</time>
</trkpt>
<trkpt lat="38.166625" lon="14.951690">
<ele>25.200000</ele>
<time>2009-10-22T13:12:17Z</time>
</trkpt>
<trkpt lat="38.166605" lon="14.951835">
<ele>23.600000</ele>
<time>2009-10-22T13:12:18Z</time>
</trkpt>
<trkpt lat="38.166576" lon="14.951990">
<ele>22.500000</ele>
<time>2009-10-22T13:12:19Z</time>
</trkpt>
<trkpt lat="38.166541" lon="14.952154">
<ele>22.200000</ele>
<time>2009-10-22T13:12:20Z</time>
</trkpt>
<trkpt lat="38.166484" lon="14.952294">
<ele>22.800000</ele>
<time>2009-10-22T13:12:21Z</time>
</trkpt>
<trkpt lat="38.166415" lon="14.952420">
<ele>23.100000</ele>
<time>2009-10-22T13:12:22Z</time>
</trkpt>
<trkpt lat="38.166356" lon="14.952534">
<ele>22.500000</ele>
<time>2009-10-22T13:12:23Z</time>
</trkpt>
<trkpt lat="38.166231" lon="14.952634">
<ele>23.600000</ele>
<time>2009-10-22T13:12:24Z</time>
</trkpt>
<trkpt lat="38.166113" lon="14.952708">
<ele>24.200000</ele>
<time>2009-10-22T13:12:25Z</time>
</trkpt>
<trkpt lat="38.166054" lon="14.952796">
<ele>23.300000</ele>
<time>2009-10-22T13:12:26Z</time>
</trkpt>
<trkpt lat="38.166036" lon="14.952950">
<ele>20.000000</ele>
<time>2009-10-22T13:12:29Z</time>
</trkpt>
<trkpt lat="38.166090" lon="14.953010">
<ele>20.400000</ele>
<time>2009-10-22T13:12:30Z</time>
</trkpt>
<trkpt lat="38.166167" lon="14.953121">
<ele>20.600000</ele>
<time>2009-10-22T13:12:32Z</time>
</trkpt>
<trkpt lat="38.166236" lon="14.953234">
<ele>19.800000</ele>
<time>2009-10-22T13:12:33Z</time>
</trkpt>
<trkpt lat="38.166133" lon="14.953257">
<ele>15.400000</ele>
<time>2009-10-22T13:12:36Z</time>
</trkpt>
<trkpt lat="38.166055" lon="14.953315">
<ele>13.400000</ele>
<time>2009-10-22T13:12:37Z</time>
</trkpt>
<trkpt lat="38.165966" lon="14.953387">
<ele>15.600000</ele>
<time>2009-10-22T13:12:38Z</time>
</trkpt>
<trkpt lat="38.165895" lon="14.953465">
<ele>14.200000</ele>
<time>2009-10-22T13:12:39Z</time>
</trkpt>
<trkpt lat="38.165824" lon="14.953570">
<ele>13.100000</ele>
<time>2009-10-22T13:12:40Z</time>
</trkpt>
<trkpt lat="38.165763" lon="14.953684">
<ele>11.800000</ele>
<time>2009-10-22T13:12:41Z</time>
</trkpt>
<trkpt lat="38.165701" lon="14.953801">
<ele>11.000000</ele>
<time>2009-10-22T13:12:42Z</time>
</trkpt>
<trkpt lat="38.165634" lon="14.953937">
<ele>10.100000</ele>
<time>2009-10-22T13:12:43Z</time>
</trkpt>
<trkpt lat="38.165572" lon="14.954068">
<ele>9.300000</ele>
<time>2009-10-22T13:12:44Z</time>
</trkpt>
<trkpt lat="38.165501" lon="14.954206">
<ele>8.500000</ele>
<time>2009-10-22T13:12:45Z</time>
</trkpt>
<trkpt lat="38.165420" lon="14.954346">
<ele>7.400000</ele>
<time>2009-10-22T13:12:46Z</time>
</trkpt>
<trkpt lat="38.165327" lon="14.954476">
<ele>6.700000</ele>
<time>2009-10-22T13:12:47Z</time>
</trkpt>
<trkpt lat="38.165217" lon="14.954610">
<ele>6.200000</ele>
<time>2009-10-22T13:12:48Z</time>
</trkpt>
<trkpt lat="38.165112" lon="14.954742">
<ele>5.500000</ele>
<time>2009-10-22T13:12:49Z</time>
</trkpt>
<trkpt lat="38.164985" lon="14.954881">
<ele>6.400000</ele>
<time>2009-10-22T13:12:50Z</time>
</trkpt>
<trkpt lat="38.164883" lon="14.955013">
<ele>6.000000</ele>
<time>2009-10-22T13:12:51Z</time>
</trkpt>
<trkpt lat="38.164778" lon="14.955147">
<ele>5.100000</ele>
<time>2009-10-22T13:12:52Z</time>
</trkpt>
<trkpt lat="38.164670" lon="14.955272">
<ele>4.400000</ele>
<time>2009-10-22T13:12:53Z</time>
</trkpt>
<trkpt lat="38.164575" lon="14.955387">
<ele>3.800000</ele>
<time>2009-10-22T13:12:54Z</time>
</trkpt>
<trkpt lat="38.164468" lon="14.955501">
<ele>4.900000</ele>
<time>2009-10-22T13:12:55Z</time>
</trkpt>
<trkpt lat="38.164398" lon="14.955591">
<ele>4.200000</ele>
<time>2009-10-22T13:12:56Z</time>
</trkpt>
<trkpt lat="38.164305" lon="14.955675">
<ele>4.400000</ele>
<time>2009-10-22T13:12:57Z</time>
</trkpt>
<trkpt lat="38.164198" lon="14.955751">
<ele>6.100000</ele>
<time>2009-10-22T13:12:58Z</time>
</trkpt>
<trkpt lat="38.164084" lon="14.955787">
<ele>5.600000</ele>
<time>2009-10-22T13:12:59Z</time>
</trkpt>
<trkpt lat="38.163958" lon="14.955829">
<ele>5.100000</ele>
<time>2009-10-22T13:13:00Z</time>
</trkpt>
<trkpt lat="38.163818" lon="14.955890">
<ele>6.800000</ele>
<time>2009-10-22T13:13:01Z</time>
</trkpt>
<trkpt lat="38.163675" lon="14.955957">
<ele>8.700000</ele>
<time>2009-10-22T13:13:02Z</time>
</trkpt>
<trkpt lat="38.163540" lon="14.956017">
<ele>10.000000</ele>
<time>2009-10-22T13:13:03Z</time>
</trkpt>
<trkpt lat="38.163398" lon="14.956081">
<ele>10.900000</ele>
<time>2009-10-22T13:13:04Z</time>
</trkpt>
<trkpt lat="38.163268" lon="14.956133">
<ele>12.000000</ele>
<time>2009-10-22T13:13:05Z</time>
</trkpt>
<trkpt lat="38.163136" lon="14.956193">
<ele>12.800000</ele>
<time>2009-10-22T13:13:06Z</time>
</trkpt>
<trkpt lat="38.163017" lon="14.956254">
<ele>13.900000</ele>
<time>2009-10-22T13:13:07Z</time>
</trkpt>
<trkpt lat="38.162891" lon="14.956307">
<ele>15.000000</ele>
<time>2009-10-22T13:13:08Z</time>
</trkpt>
<trkpt lat="38.162768" lon="14.956363">
<ele>16.400000</ele>
<time>2009-10-22T13:13:09Z</time>
</trkpt>
<trkpt lat="38.162657" lon="14.956412">
<ele>17.900000</ele>
<time>2009-10-22T13:13:10Z</time>
</trkpt>
<trkpt lat="38.162541" lon="14.956461">
<ele>18.700000</ele>
<time>2009-10-22T13:13:11Z</time>
</trkpt>
<trkpt lat="38.162427" lon="14.956521">
<ele>19.500000</ele>
<time>2009-10-22T13:13:12Z</time>
</trkpt>
<trkpt lat="38.162309" lon="14.956594">
<ele>20.100000</ele>
<time>2009-10-22T13:13:13Z</time>
</trkpt>
<trkpt lat="38.162208" lon="14.956684">
<ele>19.900000</ele>
<time>2009-10-22T13:13:14Z</time>
</trkpt>
<trkpt lat="38.162109" lon="14.956782">
<ele>20.000000</ele>
<time>2009-10-22T13:13:15Z</time>
</trkpt>
<trkpt lat="38.162000" lon="14.956890">
<ele>19.600000</ele>
<time>2009-10-22T13:13:16Z</time>
</trkpt>
<trkpt lat="38.161894" lon="14.957001">
<ele>20.400000</ele>
<time>2009-10-22T13:13:17Z</time>
</trkpt>
<trkpt lat="38.161791" lon="14.957108">
<ele>20.200000</ele>
<time>2009-10-22T13:13:18Z</time>
</trkpt>
<trkpt lat="38.161685" lon="14.957212">
<ele>19.600000</ele>
<time>2009-10-22T13:13:19Z</time>
</trkpt>
<trkpt lat="38.161579" lon="14.957320">
<ele>18.600000</ele>
<time>2009-10-22T13:13:20Z</time>
</trkpt>
<trkpt lat="38.161471" lon="14.957430">
<ele>18.000000</ele>
<time>2009-10-22T13:13:21Z</time>
</trkpt>
<trkpt lat="38.161358" lon="14.957563">
<ele>17.800000</ele>
<time>2009-10-22T13:13:22Z</time>
</trkpt>
<trkpt lat="38.161245" lon="14.957681">
<ele>18.200000</ele>
<time>2009-10-22T13:13:23Z</time>
</trkpt>
<trkpt lat="38.161132" lon="14.957778">
<ele>17.900000</ele>
<time>2009-10-22T13:13:24Z</time>
</trkpt>
<trkpt lat="38.161030" lon="14.957873">
<ele>17.800000</ele>
<time>2009-10-22T13:13:25Z</time>
</trkpt>
<trkpt lat="38.160926" lon="14.957989">
<ele>18.100000</ele>
<time>2009-10-22T13:13:26Z</time>
</trkpt>
<trkpt lat="38.160835" lon="14.958094">
<ele>17.800000</ele>
<time>2009-10-22T13:13:27Z</time>
</trkpt>
<trkpt lat="38.160736" lon="14.958194">
<ele>17.400000</ele>
<time>2009-10-22T13:13:28Z</time>
</trkpt>
<trkpt lat="38.160640" lon="14.958302">
<ele>17.500000</ele>
<time>2009-10-22T13:13:29Z</time>
</trkpt>
<trkpt lat="38.160553" lon="14.958395">
<ele>17.300000</ele>
<time>2009-10-22T13:13:30Z</time>
</trkpt>
<trkpt lat="38.160472" lon="14.958481">
<ele>16.700000</ele>
<time>2009-10-22T13:13:31Z</time>
</trkpt>
<trkpt lat="38.160392" lon="14.958574">
<ele>16.300000</ele>
<time>2009-10-22T13:13:32Z</time>
</trkpt>
<trkpt lat="38.160307" lon="14.958653">
<ele>15.500000</ele>
<time>2009-10-22T13:13:33Z</time>
</trkpt>
<trkpt lat="38.160227" lon="14.958746">
<ele>15.300000</ele>
<time>2009-10-22T13:13:34Z</time>
</trkpt>
<trkpt lat="38.160146" lon="14.958839">
<ele>15.100000</ele>
<time>2009-10-22T13:13:35Z</time>
</trkpt>
<trkpt lat="38.160060" lon="14.958947">
<ele>15.600000</ele>
<time>2009-10-22T13:13:36Z</time>
</trkpt>
<trkpt lat="38.159978" lon="14.959072">
<ele>15.700000</ele>
<time>2009-10-22T13:13:37Z</time>
</trkpt>
<trkpt lat="38.159901" lon="14.959200">
<ele>16.200000</ele>
<time>2009-10-22T13:13:38Z</time>
</trkpt>
<trkpt lat="38.159821" lon="14.959341">
<ele>16.100000</ele>
<time>2009-10-22T13:13:39Z</time>
</trkpt>
<trkpt lat="38.159737" lon="14.959498">
<ele>18.100000</ele>
<time>2009-10-22T13:13:40Z</time>
</trkpt>
<trkpt lat="38.159654" lon="14.959648">
<ele>19.600000</ele>
<time>2009-10-22T13:13:41Z</time>
</trkpt>
<trkpt lat="38.159573" lon="14.959794">
<ele>20.800000</ele>
<time>2009-10-22T13:13:42Z</time>
</trkpt>
<trkpt lat="38.159494" lon="14.959933">
<ele>21.800000</ele>
<time>2009-10-22T13:13:43Z</time>
</trkpt>
<trkpt lat="38.159427" lon="14.960048">
<ele>21.300000</ele>
<time>2009-10-22T13:13:44Z</time>
</trkpt>
<trkpt lat="38.159348" lon="14.960180">
<ele>22.300000</ele>
<time>2009-10-22T13:13:45Z</time>
</trkpt>
<trkpt lat="38.159266" lon="14.960297">
<ele>22.600000</ele>
<time>2009-10-22T13:13:46Z</time>
</trkpt>
<trkpt lat="38.159187" lon="14.960416">
<ele>23.100000</ele>
<time>2009-10-22T13:13:47Z</time>
</trkpt>
<trkpt lat="38.159102" lon="14.960535">
<ele>24.500000</ele>
<time>2009-10-22T13:13:48Z</time>
</trkpt>
<trkpt lat="38.159013" lon="14.960646">
<ele>25.700000</ele>
<time>2009-10-22T13:13:49Z</time>
</trkpt>
<trkpt lat="38.158927" lon="14.960763">
<ele>26.800000</ele>
<time>2009-10-22T13:13:50Z</time>
</trkpt>
<trkpt lat="38.158849" lon="14.960884">
<ele>26.500000</ele>
<time>2009-10-22T13:13:51Z</time>
</trkpt>
<trkpt lat="38.158756" lon="14.960999">
<ele>27.500000</ele>
<time>2009-10-22T13:13:52Z</time>
</trkpt>
<trkpt lat="38.158653" lon="14.961114">
<ele>28.600000</ele>
<time>2009-10-22T13:13:53Z</time>
</trkpt>
<trkpt lat="38.158553" lon="14.961220">
<ele>29.000000</ele>
<time>2009-10-22T13:13:54Z</time>
</trkpt>
<trkpt lat="38.158451" lon="14.961323">
<ele>29.300000</ele>
<time>2009-10-22T13:13:55Z</time>
</trkpt>
<trkpt lat="38.158359" lon="14.961426">
<ele>28.200000</ele>
<time>2009-10-22T13:13:56Z</time>
</trkpt>
<trkpt lat="38.158272" lon="14.961505">
<ele>26.100000</ele>
<time>2009-10-22T13:13:57Z</time>
</trkpt>
<trkpt lat="38.158177" lon="14.961595">
<ele>24.700000</ele>
<time>2009-10-22T13:13:58Z</time>
</trkpt>
<trkpt lat="38.158070" lon="14.961684">
<ele>23.300000</ele>
<time>2009-10-22T13:13:59Z</time>
</trkpt>
<trkpt lat="38.157984" lon="14.961773">
<ele>21.900000</ele>
<time>2009-10-22T13:14:00Z</time>
</trkpt>
<trkpt lat="38.157889" lon="14.961885">
<ele>21.100000</ele>
<time>2009-10-22T13:14:01Z</time>
</trkpt>
<trkpt lat="38.157797" lon="14.961997">
<ele>20.600000</ele>
<time>2009-10-22T13:14:02Z</time>
</trkpt>
<trkpt lat="38.157708" lon="14.962106">
<ele>20.100000</ele>
<time>2009-10-22T13:14:03Z</time>
</trkpt>
<trkpt lat="38.157617" lon="14.962218">
<ele>20.400000</ele>
<time>2009-10-22T13:14:04Z</time>
</trkpt>
<trkpt lat="38.157524" lon="14.962329">
<ele>20.700000</ele>
<time>2009-10-22T13:14:05Z</time>
</trkpt>
<trkpt lat="38.157435" lon="14.962441">
<ele>20.600000</ele>
<time>2009-10-22T13:14:06Z</time>
</trkpt>
<trkpt lat="38.157347" lon="14.962551">
<ele>20.700000</ele>
<time>2009-10-22T13:14:07Z</time>
</trkpt>
<trkpt lat="38.157264" lon="14.962656">
<ele>21.100000</ele>
<time>2009-10-22T13:14:08Z</time>
</trkpt>
<trkpt lat="38.157159" lon="14.962781">
<ele>22.300000</ele>
<time>2009-10-22T13:14:09Z</time>
</trkpt>
<trkpt lat="38.157071" lon="14.962889">
<ele>22.500000</ele>
<time>2009-10-22T13:14:10Z</time>
</trkpt>
<trkpt lat="38.156980" lon="14.963000">
<ele>23.000000</ele>
<time>2009-10-22T13:14:11Z</time>
</trkpt>
<trkpt lat="38.156888" lon="14.963121">
<ele>23.500000</ele>
<time>2009-10-22T13:14:12Z</time>
</trkpt>
<trkpt lat="38.156807" lon="14.963224">
<ele>23.600000</ele>
<time>2009-10-22T13:14:13Z</time>
</trkpt>
<trkpt lat="38.156717" lon="14.963327">
<ele>23.900000</ele>
<time>2009-10-22T13:14:14Z</time>
</trkpt>
<trkpt lat="38.156637" lon="14.963419">
<ele>23.800000</ele>
<time>2009-10-22T13:14:15Z</time>
</trkpt>
<trkpt lat="38.156545" lon="14.963525">
<ele>23.900000</ele>
<time>2009-10-22T13:14:16Z</time>
</trkpt>
<trkpt lat="38.156461" lon="14.963626">
<ele>23.300000</ele>
<time>2009-10-22T13:14:17Z</time>
</trkpt>
<trkpt lat="38.156369" lon="14.963736">
<ele>24.100000</ele>
<time>2009-10-22T13:14:18Z</time>
</trkpt>
<trkpt lat="38.156278" lon="14.963843">
<ele>23.900000</ele>
<time>2009-10-22T13:14:19Z</time>
</trkpt>
<trkpt lat="38.156187" lon="14.963958">
<ele>23.800000</ele>
<time>2009-10-22T13:14:20Z</time>
</trkpt>
<trkpt lat="38.156093" lon="14.964075">
<ele>24.500000</ele>
<time>2009-10-22T13:14:21Z</time>
</trkpt>
<trkpt lat="38.156001" lon="14.964195">
<ele>24.300000</ele>
<time>2009-10-22T13:14:22Z</time>
</trkpt>
<trkpt lat="38.155911" lon="14.964298">
<ele>23.700000</ele>
<time>2009-10-22T13:14:23Z</time>
</trkpt>
<trkpt lat="38.155816" lon="14.964403">
<ele>23.200000</ele>
<time>2009-10-22T13:14:24Z</time>
</trkpt>
<trkpt lat="38.155719" lon="14.964507">
<ele>23.000000</ele>
<time>2009-10-22T13:14:25Z</time>
</trkpt>
<trkpt lat="38.155624" lon="14.964611">
<ele>23.200000</ele>
<time>2009-10-22T13:14:26Z</time>
</trkpt>
<trkpt lat="38.155539" lon="14.964705">
<ele>23.700000</ele>
<time>2009-10-22T13:14:27Z</time>
</trkpt>
<trkpt lat="38.155444" lon="14.964802">
<ele>24.500000</ele>
<time>2009-10-22T13:14:28Z</time>
</trkpt>
<trkpt lat="38.155374" lon="14.964883">
<ele>24.000000</ele>
<time>2009-10-22T13:14:29Z</time>
</trkpt>
<trkpt lat="38.155287" lon="14.964964">
<ele>24.700000</ele>
<time>2009-10-22T13:14:30Z</time>
</trkpt>
<trkpt lat="38.155217" lon="14.965006">
<ele>23.900000</ele>
<time>2009-10-22T13:14:31Z</time>
</trkpt>
<trkpt lat="38.155101" lon="14.964986">
<ele>23.100000</ele>
<time>2009-10-22T13:14:32Z</time>
</trkpt>
<trkpt lat="38.154985" lon="14.964982">
<ele>23.800000</ele>
<time>2009-10-22T13:14:33Z</time>
</trkpt>
<trkpt lat="38.154908" lon="14.965028">
<ele>24.400000</ele>
<time>2009-10-22T13:14:34Z</time>
</trkpt>
<trkpt lat="38.154846" lon="14.965098">
<ele>22.300000</ele>
<time>2009-10-22T13:14:35Z</time>
</trkpt>
<trkpt lat="38.154780" lon="14.965162">
<ele>20.800000</ele>
<time>2009-10-22T13:14:36Z</time>
</trkpt>
<trkpt lat="38.154666" lon="14.965227">
<ele>21.200000</ele>
<time>2009-10-22T13:14:37Z</time>
</trkpt>
<trkpt lat="38.154570" lon="14.965290">
<ele>22.800000</ele>
<time>2009-10-22T13:14:38Z</time>
</trkpt>
<trkpt lat="38.154475" lon="14.965363">
<ele>25.300000</ele>
<time>2009-10-22T13:14:39Z</time>
</trkpt>
<trkpt lat="38.154351" lon="14.965412">
<ele>26.600000</ele>
<time>2009-10-22T13:14:40Z</time>
</trkpt>
<trkpt lat="38.154253" lon="14.965451">
<ele>27.800000</ele>
<time>2009-10-22T13:14:41Z</time>
</trkpt>
<trkpt lat="38.154179" lon="14.965503">
<ele>28.100000</ele>
<time>2009-10-22T13:14:42Z</time>
</trkpt>
<trkpt lat="38.154067" lon="14.965604">
<ele>27.800000</ele>
<time>2009-10-22T13:14:44Z</time>
</trkpt>
<trkpt lat="38.153991" lon="14.965701">
<ele>26.900000</ele>
<time>2009-10-22T13:14:46Z</time>
</trkpt>
<trkpt lat="38.153936" lon="14.965770">
<ele>25.800000</ele>
<time>2009-10-22T13:14:47Z</time>
</trkpt>
<trkpt lat="38.153877" lon="14.965827">
<ele>25.500000</ele>
<time>2009-10-22T13:14:48Z</time>
</trkpt>
<trkpt lat="38.153804" lon="14.965888">
<ele>24.500000</ele>
<time>2009-10-22T13:14:49Z</time>
</trkpt>
<trkpt lat="38.153738" lon="14.965956">
<ele>23.900000</ele>
<time>2009-10-22T13:14:50Z</time>
</trkpt>
<trkpt lat="38.153671" lon="14.966026">
<ele>23.700000</ele>
<time>2009-10-22T13:14:51Z</time>
</trkpt>
<trkpt lat="38.153595" lon="14.966106">
<ele>24.900000</ele>
<time>2009-10-22T13:14:52Z</time>
</trkpt>
<trkpt lat="38.153553" lon="14.966193">
<ele>25.300000</ele>
<time>2009-10-22T13:14:53Z</time>
</trkpt>
<trkpt lat="38.153460" lon="14.966324">
<ele>26.000000</ele>
<time>2009-10-22T13:14:55Z</time>
</trkpt>
<trkpt lat="38.153384" lon="14.966438">
<ele>25.500000</ele>
<time>2009-10-22T13:14:57Z</time>
</trkpt>
<trkpt lat="38.153323" lon="14.966520">
<ele>25.500000</ele>
<time>2009-10-22T13:14:58Z</time>
</trkpt>
<trkpt lat="38.153268" lon="14.966591">
<ele>25.500000</ele>
<time>2009-10-22T13:14:59Z</time>
</trkpt>
<trkpt lat="38.153212" lon="14.966654">
<ele>24.700000</ele>
<time>2009-10-22T13:15:00Z</time>
</trkpt>
<trkpt lat="38.153150" lon="14.966732">
<ele>25.300000</ele>
<time>2009-10-22T13:15:01Z</time>
</trkpt>
<trkpt lat="38.153096" lon="14.966813">
<ele>25.600000</ele>
<time>2009-10-22T13:15:02Z</time>
</trkpt>
<trkpt lat="38.153048" lon="14.966898">
<ele>25.800000</ele>
<time>2009-10-22T13:15:03Z</time>
</trkpt>
<trkpt lat="38.153004" lon="14.966973">
<ele>25.000000</ele>
<time>2009-10-22T13:15:04Z</time>
</trkpt>
<trkpt lat="38.152959" lon="14.967047">
<ele>24.300000</ele>
<time>2009-10-22T13:15:05Z</time>
</trkpt>
<trkpt lat="38.152907" lon="14.967127">
<ele>24.300000</ele>
<time>2009-10-22T13:15:06Z</time>
</trkpt>
<trkpt lat="38.152859" lon="14.967211">
<ele>25.000000</ele>
<time>2009-10-22T13:15:07Z</time>
</trkpt>
<trkpt lat="38.152821" lon="14.967296">
<ele>25.800000</ele>
<time>2009-10-22T13:15:08Z</time>
</trkpt>
<trkpt lat="38.152760" lon="14.967421">
<ele>27.200000</ele>
<time>2009-10-22T13:15:10Z</time>
</trkpt>
<trkpt lat="38.152712" lon="14.967523">
<ele>28.800000</ele>
<time>2009-10-22T13:15:12Z</time>
</trkpt>
<trkpt lat="38.152650" lon="14.967587">
<ele>30.800000</ele>
<time>2009-10-22T13:15:14Z</time>
</trkpt>
<trkpt lat="38.152590" lon="14.967662">
<ele>32.800000</ele>
<time>2009-10-22T13:15:15Z</time>
</trkpt>
<trkpt lat="38.152516" lon="14.967686">
<ele>34.100000</ele>
<time>2009-10-22T13:15:16Z</time>
</trkpt>
<trkpt lat="38.152405" lon="14.967630">
<ele>33.100000</ele>
<time>2009-10-22T13:15:18Z</time>
</trkpt>
<trkpt lat="38.152306" lon="14.967542">
<ele>32.100000</ele>
<time>2009-10-22T13:15:19Z</time>
</trkpt>
<trkpt lat="38.152237" lon="14.967474">
<ele>31.400000</ele>
<time>2009-10-22T13:15:20Z</time>
</trkpt>
<trkpt lat="38.152184" lon="14.967396">
<ele>31.900000</ele>
<time>2009-10-22T13:15:21Z</time>
</trkpt>
<trkpt lat="38.152092" lon="14.967348">
<ele>31.400000</ele>
<time>2009-10-22T13:15:22Z</time>
</trkpt>
<trkpt lat="38.152042" lon="14.967244">
<ele>32.200000</ele>
<time>2009-10-22T13:15:23Z</time>
</trkpt>
<trkpt lat="38.151953" lon="14.967217">
<ele>31.900000</ele>
<time>2009-10-22T13:15:24Z</time>
</trkpt>
<trkpt lat="38.151902" lon="14.967147">
<ele>31.300000</ele>
<time>2009-10-22T13:15:25Z</time>
</trkpt>
<trkpt lat="38.151876" lon="14.967058">
<ele>31.500000</ele>
<time>2009-10-22T13:15:28Z</time>
</trkpt>
<trkpt lat="38.151817" lon="14.967113">
<ele>32.000000</ele>
<time>2009-10-22T13:15:30Z</time>
</trkpt>
<trkpt lat="38.151719" lon="14.967187">
<ele>30.400000</ele>
<time>2009-10-22T13:15:32Z</time>
</trkpt>
<trkpt lat="38.151665" lon="14.967273">
<ele>29.200000</ele>
<time>2009-10-22T13:15:33Z</time>
</trkpt>
<trkpt lat="38.151628" lon="14.967368">
<ele>27.900000</ele>
<time>2009-10-22T13:15:34Z</time>
</trkpt>
<trkpt lat="38.151567" lon="14.967491">
<ele>27.300000</ele>
<time>2009-10-22T13:15:35Z</time>
</trkpt>
<trkpt lat="38.151515" lon="14.967603">
<ele>27.700000</ele>
<time>2009-10-22T13:15:36Z</time>
</trkpt>
<trkpt lat="38.151463" lon="14.967710">
<ele>27.400000</ele>
<time>2009-10-22T13:15:37Z</time>
</trkpt>
<trkpt lat="38.151410" lon="14.967817">
<ele>27.200000</ele>
<time>2009-10-22T13:15:38Z</time>
</trkpt>
<trkpt lat="38.151354" lon="14.967918">
<ele>27.000000</ele>
<time>2009-10-22T13:15:39Z</time>
</trkpt>
<trkpt lat="38.151297" lon="14.968017">
<ele>26.700000</ele>
<time>2009-10-22T13:15:40Z</time>
</trkpt>
<trkpt lat="38.151241" lon="14.968122">
<ele>27.200000</ele>
<time>2009-10-22T13:15:41Z</time>
</trkpt>
<trkpt lat="38.151180" lon="14.968219">
<ele>27.400000</ele>
<time>2009-10-22T13:15:42Z</time>
</trkpt>
<trkpt lat="38.151127" lon="14.968299">
<ele>27.300000</ele>
<time>2009-10-22T13:15:43Z</time>
</trkpt>
<trkpt lat="38.151095" lon="14.968381">
<ele>27.100000</ele>
<time>2009-10-22T13:15:44Z</time>
</trkpt>
<trkpt lat="38.151084" lon="14.968475">
<ele>26.500000</ele>
<time>2009-10-22T13:15:45Z</time>
</trkpt>
<trkpt lat="38.151111" lon="14.968580">
<ele>26.300000</ele>
<time>2009-10-22T13:15:46Z</time>
</trkpt>
<trkpt lat="38.151151" lon="14.968690">
<ele>26.500000</ele>
<time>2009-10-22T13:15:47Z</time>
</trkpt>
<trkpt lat="38.151154" lon="14.968809">
<ele>26.400000</ele>
<time>2009-10-22T13:15:48Z</time>
</trkpt>
<trkpt lat="38.151132" lon="14.968918">
<ele>26.400000</ele>
<time>2009-10-22T13:15:49Z</time>
</trkpt>
<trkpt lat="38.151092" lon="14.969017">
<ele>25.700000</ele>
<time>2009-10-22T13:15:50Z</time>
</trkpt>
<trkpt lat="38.151031" lon="14.969129">
<ele>27.200000</ele>
<time>2009-10-22T13:15:51Z</time>
</trkpt>
<trkpt lat="38.150981" lon="14.969248">
<ele>28.100000</ele>
<time>2009-10-22T13:15:52Z</time>
</trkpt>
<trkpt lat="38.150948" lon="14.969365">
<ele>27.900000</ele>
<time>2009-10-22T13:15:53Z</time>
</trkpt>
<trkpt lat="38.150906" lon="14.969469">
<ele>28.600000</ele>
<time>2009-10-22T13:15:54Z</time>
</trkpt>
<trkpt lat="38.150861" lon="14.969562">
<ele>29.200000</ele>
<time>2009-10-22T13:15:55Z</time>
</trkpt>
<trkpt lat="38.150804" lon="14.969640">
<ele>29.900000</ele>
<time>2009-10-22T13:15:56Z</time>
</trkpt>
<trkpt lat="38.150751" lon="14.969709">
<ele>30.900000</ele>
<time>2009-10-22T13:15:57Z</time>
</trkpt>
<trkpt lat="38.150689" lon="14.969780">
<ele>31.900000</ele>
<time>2009-10-22T13:15:58Z</time>
</trkpt>
<trkpt lat="38.150619" lon="14.969846">
<ele>32.600000</ele>
<time>2009-10-22T13:15:59Z</time>
</trkpt>
<trkpt lat="38.150543" lon="14.969911">
<ele>33.700000</ele>
<time>2009-10-22T13:16:00Z</time>
</trkpt>
<trkpt lat="38.150463" lon="14.969975">
<ele>34.500000</ele>
<time>2009-10-22T13:16:01Z</time>
</trkpt>
<trkpt lat="38.150369" lon="14.970043">
<ele>35.600000</ele>
<time>2009-10-22T13:16:02Z</time>
</trkpt>
<trkpt lat="38.150284" lon="14.970102">
<ele>35.100000</ele>
<time>2009-10-22T13:16:03Z</time>
</trkpt>
<trkpt lat="38.150208" lon="14.970143">
<ele>35.300000</ele>
<time>2009-10-22T13:16:04Z</time>
</trkpt>
<trkpt lat="38.150114" lon="14.970156">
<ele>36.600000</ele>
<time>2009-10-22T13:16:05Z</time>
</trkpt>
<trkpt lat="38.150047" lon="14.970218">
<ele>36.400000</ele>
<time>2009-10-22T13:16:06Z</time>
</trkpt>
<trkpt lat="38.149961" lon="14.970229">
<ele>37.400000</ele>
<time>2009-10-22T13:16:07Z</time>
</trkpt>
<trkpt lat="38.149855" lon="14.970235">
<ele>39.600000</ele>
<time>2009-10-22T13:16:09Z</time>
</trkpt>
<trkpt lat="38.149705" lon="14.970271">
<ele>41.900000</ele>
<time>2009-10-22T13:16:11Z</time>
</trkpt>
<trkpt lat="38.149622" lon="14.970293">
<ele>43.600000</ele>
<time>2009-10-22T13:16:12Z</time>
</trkpt>
<trkpt lat="38.149545" lon="14.970292">
<ele>42.400000</ele>
<time>2009-10-22T13:16:13Z</time>
</trkpt>
<trkpt lat="38.149471" lon="14.970326">
<ele>43.800000</ele>
<time>2009-10-22T13:16:14Z</time>
</trkpt>
<trkpt lat="38.149350" lon="14.970339">
<ele>45.400000</ele>
<time>2009-10-22T13:16:15Z</time>
</trkpt>
<trkpt lat="38.149241" lon="14.970322">
<ele>46.100000</ele>
<time>2009-10-22T13:16:16Z</time>
</trkpt>
<trkpt lat="38.149109" lon="14.970313">
<ele>48.200000</ele>
<time>2009-10-22T13:16:17Z</time>
</trkpt>
<trkpt lat="38.148985" lon="14.970307">
<ele>50.100000</ele>
<time>2009-10-22T13:16:18Z</time>
</trkpt>
<trkpt lat="38.148864" lon="14.970302">
<ele>52.000000</ele>
<time>2009-10-22T13:16:19Z</time>
</trkpt>
<trkpt lat="38.148765" lon="14.970293">
<ele>54.000000</ele>
<time>2009-10-22T13:16:20Z</time>
</trkpt>
<trkpt lat="38.148690" lon="14.970275">
<ele>56.300000</ele>
<time>2009-10-22T13:16:21Z</time>
</trkpt>
<trkpt lat="38.148592" lon="14.970182">
<ele>61.400000</ele>
<time>2009-10-22T13:16:23Z</time>
</trkpt>
<trkpt lat="38.148613" lon="14.970072">
<ele>59.900000</ele>
<time>2009-10-22T13:16:24Z</time>
</trkpt>
<trkpt lat="38.148628" lon="14.969963">
<ele>57.800000</ele>
<time>2009-10-22T13:16:25Z</time>
</trkpt>
<trkpt lat="38.148673" lon="14.969854">
<ele>57.800000</ele>
<time>2009-10-22T13:16:26Z</time>
</trkpt>
<trkpt lat="38.148736" lon="14.969770">
<ele>57.000000</ele>
<time>2009-10-22T13:16:27Z</time>
</trkpt>
<trkpt lat="38.148822" lon="14.969732">
<ele>55.600000</ele>
<time>2009-10-22T13:16:28Z</time>
</trkpt>
<trkpt lat="38.148895" lon="14.969700">
<ele>53.400000</ele>
<time>2009-10-22T13:16:29Z</time>
</trkpt>
<trkpt lat="38.149024" lon="14.969714">
<ele>51.500000</ele>
<time>2009-10-22T13:16:30Z</time>
</trkpt>
<trkpt lat="38.149110" lon="14.969698">
<ele>50.300000</ele>
<time>2009-10-22T13:16:31Z</time>
</trkpt>
<trkpt lat="38.149222" lon="14.969615">
<ele>49.200000</ele>
<time>2009-10-22T13:16:33Z</time>
</trkpt>
<trkpt lat="38.149258" lon="14.969543">
<ele>49.700000</ele>
<time>2009-10-22T13:16:34Z</time>
</trkpt>
<trkpt lat="38.149247" lon="14.969380">
<ele>50.600000</ele>
<time>2009-10-22T13:16:36Z</time>
</trkpt>
<trkpt lat="38.149211" lon="14.969301">
<ele>51.000000</ele>
<time>2009-10-22T13:16:37Z</time>
</trkpt>
<trkpt lat="38.149131" lon="14.969228">
<ele>51.500000</ele>
<time>2009-10-22T13:16:38Z</time>
</trkpt>
<trkpt lat="38.149062" lon="14.969186">
<ele>50.900000</ele>
<time>2009-10-22T13:16:39Z</time>
</trkpt>
<trkpt lat="38.148948" lon="14.969150">
<ele>50.900000</ele>
<time>2009-10-22T13:16:40Z</time>
</trkpt>
<trkpt lat="38.148843" lon="14.969134">
<ele>48.200000</ele>
<time>2009-10-22T13:16:41Z</time>
</trkpt>
<trkpt lat="38.148752" lon="14.969116">
<ele>45.200000</ele>
<time>2009-10-22T13:16:42Z</time>
</trkpt>
<trkpt lat="38.148669" lon="14.969095">
<ele>41.900000</ele>
<time>2009-10-22T13:16:43Z</time>
</trkpt>
<trkpt lat="38.148581" lon="14.969059">
<ele>41.600000</ele>
<time>2009-10-22T13:16:44Z</time>
</trkpt>
<trkpt lat="38.148487" lon="14.969005">
<ele>41.300000</ele>
<time>2009-10-22T13:16:45Z</time>
</trkpt>
<trkpt lat="38.148392" lon="14.968947">
<ele>40.900000</ele>
<time>2009-10-22T13:16:46Z</time>
</trkpt>
<trkpt lat="38.148329" lon="14.968878">
<ele>40.500000</ele>
<time>2009-10-22T13:16:47Z</time>
</trkpt>
<trkpt lat="38.148277" lon="14.968796">
<ele>40.300000</ele>
<time>2009-10-22T13:16:48Z</time>
</trkpt>
<trkpt lat="38.148214" lon="14.968694">
<ele>40.400000</ele>
<time>2009-10-22T13:16:49Z</time>
</trkpt>
<trkpt lat="38.148168" lon="14.968583">
<ele>40.600000</ele>
<time>2009-10-22T13:16:50Z</time>
</trkpt>
<trkpt lat="38.148141" lon="14.968460">
<ele>40.500000</ele>
<time>2009-10-22T13:16:51Z</time>
</trkpt>
<trkpt lat="38.148099" lon="14.968344">
<ele>40.600000</ele>
<time>2009-10-22T13:16:52Z</time>
</trkpt>
<trkpt lat="38.148058" lon="14.968234">
<ele>40.900000</ele>
<time>2009-10-22T13:16:53Z</time>
</trkpt>
<trkpt lat="38.148033" lon="14.968121">
<ele>40.800000</ele>
<time>2009-10-22T13:16:54Z</time>
</trkpt>
<trkpt lat="38.148009" lon="14.968007">
<ele>43.400000</ele>
<time>2009-10-22T13:16:55Z</time>
</trkpt>
<trkpt lat="38.147952" lon="14.967832">
<ele>45.700000</ele>
<time>2009-10-22T13:16:57Z</time>
</trkpt>
<trkpt lat="38.147904" lon="14.967745">
<ele>45.600000</ele>
<time>2009-10-22T13:16:58Z</time>
</trkpt>
<trkpt lat="38.147836" lon="14.967678">
<ele>44.600000</ele>
<time>2009-10-22T13:16:59Z</time>
</trkpt>
<trkpt lat="38.147722" lon="14.967625">
<ele>45.500000</ele>
<time>2009-10-22T13:17:00Z</time>
</trkpt>
<trkpt lat="38.147629" lon="14.967567">
<ele>47.000000</ele>
<time>2009-10-22T13:17:01Z</time>
</trkpt>
<trkpt lat="38.147564" lon="14.967495">
<ele>47.800000</ele>
<time>2009-10-22T13:17:02Z</time>
</trkpt>
<trkpt lat="38.147506" lon="14.967412">
<ele>48.400000</ele>
<time>2009-10-22T13:17:03Z</time>
</trkpt>
<trkpt lat="38.147451" lon="14.967320">
<ele>49.700000</ele>
<time>2009-10-22T13:17:04Z</time>
</trkpt>
<trkpt lat="38.147401" lon="14.967229">
<ele>52.800000</ele>
<time>2009-10-22T13:17:05Z</time>
</trkpt>
<trkpt lat="38.147358" lon="14.967115">
<ele>55.000000</ele>
<time>2009-10-22T13:17:06Z</time>
</trkpt>
<trkpt lat="38.147311" lon="14.966995">
<ele>55.400000</ele>
<time>2009-10-22T13:17:07Z</time>
</trkpt>
<trkpt lat="38.147262" lon="14.966882">
<ele>55.500000</ele>
<time>2009-10-22T13:17:08Z</time>
</trkpt>
<trkpt lat="38.147188" lon="14.966767">
<ele>57.700000</ele>
<time>2009-10-22T13:17:09Z</time>
</trkpt>
<trkpt lat="38.147164" lon="14.966622">
<ele>57.400000</ele>
<time>2009-10-22T13:17:10Z</time>
</trkpt>
<trkpt lat="38.147118" lon="14.966483">
<ele>57.000000</ele>
<time>2009-10-22T13:17:11Z</time>
</trkpt>
<trkpt lat="38.147054" lon="14.966345">
<ele>57.100000</ele>
<time>2009-10-22T13:17:12Z</time>
</trkpt>
<trkpt lat="38.146980" lon="14.966229">
<ele>57.400000</ele>
<time>2009-10-22T13:17:13Z</time>
</trkpt>
<trkpt lat="38.146914" lon="14.966108">
<ele>57.900000</ele>
<time>2009-10-22T13:17:14Z</time>
</trkpt>
<trkpt lat="38.146841" lon="14.965995">
<ele>60.100000</ele>
<time>2009-10-22T13:17:15Z</time>
</trkpt>
<trkpt lat="38.146771" lon="14.965884">
<ele>62.000000</ele>
<time>2009-10-22T13:17:16Z</time>
</trkpt>
<trkpt lat="38.146700" lon="14.965773">
<ele>63.400000</ele>
<time>2009-10-22T13:17:17Z</time>
</trkpt>
<trkpt lat="38.146631" lon="14.965632">
<ele>63.100000</ele>
<time>2009-10-22T13:17:18Z</time>
</trkpt>
<trkpt lat="38.146557" lon="14.965517">
<ele>65.500000</ele>
<time>2009-10-22T13:17:19Z</time>
</trkpt>
<trkpt lat="38.146485" lon="14.965393">
<ele>67.900000</ele>
<time>2009-10-22T13:17:20Z</time>
</trkpt>
<trkpt lat="38.146418" lon="14.965268">
<ele>69.800000</ele>
<time>2009-10-22T13:17:21Z</time>
</trkpt>
<trkpt lat="38.146351" lon="14.965143">
<ele>71.400000</ele>
<time>2009-10-22T13:17:22Z</time>
</trkpt>
<trkpt lat="38.146282" lon="14.965017">
<ele>73.000000</ele>
<time>2009-10-22T13:17:23Z</time>
</trkpt>
<trkpt lat="38.146216" lon="14.964891">
<ele>74.600000</ele>
<time>2009-10-22T13:17:24Z</time>
</trkpt>
<trkpt lat="38.146160" lon="14.964769">
<ele>74.500000</ele>
<time>2009-10-22T13:17:25Z</time>
</trkpt>
<trkpt lat="38.146101" lon="14.964654">
<ele>73.600000</ele>
<time>2009-10-22T13:17:26Z</time>
</trkpt>
<trkpt lat="38.146049" lon="14.964536">
<ele>73.000000</ele>
<time>2009-10-22T13:17:27Z</time>
</trkpt>
<trkpt lat="38.145994" lon="14.964407">
<ele>74.000000</ele>
<time>2009-10-22T13:17:28Z</time>
</trkpt>
<trkpt lat="38.145927" lon="14.964289">
<ele>75.400000</ele>
<time>2009-10-22T13:17:29Z</time>
</trkpt>
<trkpt lat="38.145863" lon="14.964171">
<ele>76.500000</ele>
<time>2009-10-22T13:17:30Z</time>
</trkpt>
<trkpt lat="38.145796" lon="14.964057">
<ele>78.200000</ele>
<time>2009-10-22T13:17:31Z</time>
</trkpt>
<trkpt lat="38.145735" lon="14.963961">
<ele>79.600000</ele>
<time>2009-10-22T13:17:32Z</time>
</trkpt>
<trkpt lat="38.145653" lon="14.963915">
<ele>80.300000</ele>
<time>2009-10-22T13:17:33Z</time>
</trkpt>
<trkpt lat="38.145559" lon="14.963862">
<ele>82.300000</ele>
<time>2009-10-22T13:17:34Z</time>
</trkpt>
<trkpt lat="38.145457" lon="14.963842">
<ele>83.900000</ele>
<time>2009-10-22T13:17:35Z</time>
</trkpt>
<trkpt lat="38.145359" lon="14.963780">
<ele>83.400000</ele>
<time>2009-10-22T13:17:36Z</time>
</trkpt>
<trkpt lat="38.145261" lon="14.963707">
<ele>82.600000</ele>
<time>2009-10-22T13:17:37Z</time>
</trkpt>
<trkpt lat="38.145140" lon="14.963657">
<ele>84.200000</ele>
<time>2009-10-22T13:17:38Z</time>
</trkpt>
<trkpt lat="38.145037" lon="14.963598">
<ele>83.500000</ele>
<time>2009-10-22T13:17:39Z</time>
</trkpt>
<trkpt lat="38.144936" lon="14.963542">
<ele>83.000000</ele>
<time>2009-10-22T13:17:40Z</time>
</trkpt>
<trkpt lat="38.144834" lon="14.963480">
<ele>84.200000</ele>
<time>2009-10-22T13:17:41Z</time>
</trkpt>
<trkpt lat="38.144716" lon="14.963409">
<ele>85.500000</ele>
<time>2009-10-22T13:17:42Z</time>
</trkpt>
<trkpt lat="38.144602" lon="14.963341">
<ele>87.500000</ele>
<time>2009-10-22T13:17:43Z</time>
</trkpt>
<trkpt lat="38.144490" lon="14.963278">
<ele>88.200000</ele>
<time>2009-10-22T13:17:44Z</time>
</trkpt>
<trkpt lat="38.144377" lon="14.963216">
<ele>90.000000</ele>
<time>2009-10-22T13:17:45Z</time>
</trkpt>
<trkpt lat="38.144264" lon="14.963147">
<ele>92.000000</ele>
<time>2009-10-22T13:17:46Z</time>
</trkpt>
<trkpt lat="38.144163" lon="14.963063">
<ele>93.800000</ele>
<time>2009-10-22T13:17:47Z</time>
</trkpt>
<trkpt lat="38.144071" lon="14.962964">
<ele>95.700000</ele>
<time>2009-10-22T13:17:48Z</time>
</trkpt>
<trkpt lat="38.143994" lon="14.962854">
<ele>95.100000</ele>
<time>2009-10-22T13:17:49Z</time>
</trkpt>
<trkpt lat="38.143912" lon="14.962742">
<ele>94.800000</ele>
<time>2009-10-22T13:17:50Z</time>
</trkpt>
<trkpt lat="38.143832" lon="14.962626">
<ele>96.300000</ele>
<time>2009-10-22T13:17:51Z</time>
</trkpt>
<trkpt lat="38.143752" lon="14.962508">
<ele>98.100000</ele>
<time>2009-10-22T13:17:52Z</time>
</trkpt>
<trkpt lat="38.143683" lon="14.962398">
<ele>99.600000</ele>
<time>2009-10-22T13:17:53Z</time>
</trkpt>
<trkpt lat="38.143607" lon="14.962287">
<ele>101.200000</ele>
<time>2009-10-22T13:17:54Z</time>
</trkpt>
<trkpt lat="38.143533" lon="14.962181">
<ele>102.700000</ele>
<time>2009-10-22T13:17:55Z</time>
</trkpt>
<trkpt lat="38.143467" lon="14.962086">
<ele>104.200000</ele>
<time>2009-10-22T13:17:56Z</time>
</trkpt>
<trkpt lat="38.143404" lon="14.962004">
<ele>105.600000</ele>
<time>2009-10-22T13:17:57Z</time>
</trkpt>
<trkpt lat="38.143322" lon="14.961937">
<ele>107.100000</ele>
<time>2009-10-22T13:17:58Z</time>
</trkpt>
<trkpt lat="38.143238" lon="14.961894">
<ele>105.500000</ele>
<time>2009-10-22T13:17:59Z</time>
</trkpt>
<trkpt lat="38.143153" lon="14.961860">
<ele>103.800000</ele>
<time>2009-10-22T13:18:00Z</time>
</trkpt>
<trkpt lat="38.143071" lon="14.961842">
<ele>103.200000</ele>
<time>2009-10-22T13:18:01Z</time>
</trkpt>
<trkpt lat="38.142982" lon="14.961848">
<ele>103.100000</ele>
<time>2009-10-22T13:18:02Z</time>
</trkpt>
<trkpt lat="38.142911" lon="14.961886">
<ele>102.900000</ele>
<time>2009-10-22T13:18:03Z</time>
</trkpt>
<trkpt lat="38.142859" lon="14.961990">
<ele>101.500000</ele>
<time>2009-10-22T13:18:04Z</time>
</trkpt>
<trkpt lat="38.142806" lon="14.962102">
<ele>99.900000</ele>
<time>2009-10-22T13:18:05Z</time>
</trkpt>
<trkpt lat="38.142752" lon="14.962225">
<ele>99.700000</ele>
<time>2009-10-22T13:18:06Z</time>
</trkpt>
<trkpt lat="38.142687" lon="14.962340">
<ele>99.200000</ele>
<time>2009-10-22T13:18:07Z</time>
</trkpt>
<trkpt lat="38.142624" lon="14.962455">
<ele>99.000000</ele>
<time>2009-10-22T13:18:08Z</time>
</trkpt>
<trkpt lat="38.142563" lon="14.962573">
<ele>98.600000</ele>
<time>2009-10-22T13:18:09Z</time>
</trkpt>
<trkpt lat="38.142500" lon="14.962690">
<ele>98.200000</ele>
<time>2009-10-22T13:18:10Z</time>
</trkpt>
<trkpt lat="38.142441" lon="14.962806">
<ele>97.700000</ele>
<time>2009-10-22T13:18:11Z</time>
</trkpt>
<trkpt lat="38.142380" lon="14.962919">
<ele>97.400000</ele>
<time>2009-10-22T13:18:12Z</time>
</trkpt>
<trkpt lat="38.142328" lon="14.963018">
<ele>96.900000</ele>
<time>2009-10-22T13:18:13Z</time>
</trkpt>
<trkpt lat="38.142286" lon="14.963099">
<ele>96.600000</ele>
<time>2009-10-22T13:18:14Z</time>
</trkpt>
<trkpt lat="38.142244" lon="14.963178">
<ele>96.300000</ele>
<time>2009-10-22T13:18:15Z</time>
</trkpt>
<trkpt lat="38.142195" lon="14.963279">
<ele>95.800000</ele>
<time>2009-10-22T13:18:17Z</time>
</trkpt>
<trkpt lat="38.142176" lon="14.963379">
<ele>87.000000</ele>
<time>2009-10-22T13:19:14Z</time>
</trkpt>
<trkpt lat="38.142092" lon="14.963518">
<ele>87.100000</ele>
<time>2009-10-22T13:19:16Z</time>
</trkpt>
<trkpt lat="38.142043" lon="14.963594">
<ele>86.800000</ele>
<time>2009-10-22T13:19:17Z</time>
</trkpt>
<trkpt lat="38.141994" lon="14.963672">
<ele>86.700000</ele>
<time>2009-10-22T13:19:18Z</time>
</trkpt>
<trkpt lat="38.141936" lon="14.963765">
<ele>86.700000</ele>
<time>2009-10-22T13:19:19Z</time>
</trkpt>
<trkpt lat="38.141892" lon="14.963849">
<ele>87.000000</ele>
<time>2009-10-22T13:19:20Z</time>
</trkpt>
<trkpt lat="38.141849" lon="14.963940">
<ele>87.300000</ele>
<time>2009-10-22T13:19:21Z</time>
</trkpt>
<trkpt lat="38.141808" lon="14.964046">
<ele>86.600000</ele>
<time>2009-10-22T13:19:23Z</time>
</trkpt>
<trkpt lat="38.141787" lon="14.964214">
<ele>84.700000</ele>
<time>2009-10-22T13:19:25Z</time>
</trkpt>
<trkpt lat="38.141784" lon="14.964311">
<ele>83.600000</ele>
<time>2009-10-22T13:19:26Z</time>
</trkpt>
<trkpt lat="38.141786" lon="14.964411">
<ele>83.000000</ele>
<time>2009-10-22T13:19:27Z</time>
</trkpt>
<trkpt lat="38.141788" lon="14.964503">
<ele>82.000000</ele>
<time>2009-10-22T13:19:28Z</time>
</trkpt>
<trkpt lat="38.141760" lon="14.964613">
<ele>82.400000</ele>
<time>2009-10-22T13:19:29Z</time>
</trkpt>
<trkpt lat="38.141705" lon="14.964707">
<ele>84.500000</ele>
<time>2009-10-22T13:19:30Z</time>
</trkpt>
<trkpt lat="38.141646" lon="14.964835">
<ele>86.900000</ele>
<time>2009-10-22T13:19:31Z</time>
</trkpt>
<trkpt lat="38.141585" lon="14.964934">
<ele>87.700000</ele>
<time>2009-10-22T13:19:32Z</time>
</trkpt>
<trkpt lat="38.141506" lon="14.965034">
<ele>86.900000</ele>
<time>2009-10-22T13:19:33Z</time>
</trkpt>
<trkpt lat="38.141430" lon="14.965102">
<ele>86.600000</ele>
<time>2009-10-22T13:19:34Z</time>
</trkpt>
<trkpt lat="38.141350" lon="14.965157">
<ele>87.500000</ele>
<time>2009-10-22T13:19:35Z</time>
</trkpt>
<trkpt lat="38.141285" lon="14.965202">
<ele>89.500000</ele>
<time>2009-10-22T13:19:36Z</time>
</trkpt>
<trkpt lat="38.141205" lon="14.965240">
<ele>91.000000</ele>
<time>2009-10-22T13:19:37Z</time>
</trkpt>
<trkpt lat="38.141133" lon="14.965272">
<ele>89.800000</ele>
<time>2009-10-22T13:19:38Z</time>
</trkpt>
<trkpt lat="38.141043" lon="14.965311">
<ele>89.500000</ele>
<time>2009-10-22T13:19:39Z</time>
</trkpt>
<trkpt lat="38.140967" lon="14.965368">
<ele>89.400000</ele>
<time>2009-10-22T13:19:40Z</time>
</trkpt>
<trkpt lat="38.140887" lon="14.965414">
<ele>88.900000</ele>
<time>2009-10-22T13:19:41Z</time>
</trkpt>
<trkpt lat="38.140788" lon="14.965429">
<ele>90.800000</ele>
<time>2009-10-22T13:19:42Z</time>
</trkpt>
<trkpt lat="38.140701" lon="14.965456">
<ele>92.800000</ele>
<time>2009-10-22T13:19:43Z</time>
</trkpt>
<trkpt lat="38.140609" lon="14.965451">
<ele>94.700000</ele>
<time>2009-10-22T13:19:44Z</time>
</trkpt>
<trkpt lat="38.140535" lon="14.965434">
<ele>94.800000</ele>
<time>2009-10-22T13:19:45Z</time>
</trkpt>
<trkpt lat="38.140391" lon="14.965368">
<ele>90.900000</ele>
<time>2009-10-22T13:19:47Z</time>
</trkpt>
<trkpt lat="38.140318" lon="14.965337">
<ele>91.500000</ele>
<time>2009-10-22T13:19:48Z</time>
</trkpt>
<trkpt lat="38.140240" lon="14.965305">
<ele>90.800000</ele>
<time>2009-10-22T13:19:49Z</time>
</trkpt>
<trkpt lat="38.140087" lon="14.965221">
<ele>88.200000</ele>
<time>2009-10-22T13:19:51Z</time>
</trkpt>
<trkpt lat="38.139996" lon="14.965187">
<ele>89.000000</ele>
<time>2009-10-22T13:19:52Z</time>
</trkpt>
<trkpt lat="38.139903" lon="14.965162">
<ele>90.500000</ele>
<time>2009-10-22T13:19:53Z</time>
</trkpt>
<trkpt lat="38.139824" lon="14.965133">
<ele>89.600000</ele>
<time>2009-10-22T13:19:54Z</time>
</trkpt>
<trkpt lat="38.139740" lon="14.965111">
<ele>88.700000</ele>
<time>2009-10-22T13:19:55Z</time>
</trkpt>
<trkpt lat="38.139603" lon="14.965053">
<ele>89.100000</ele>
<time>2009-10-22T13:19:57Z</time>
</trkpt>
<trkpt lat="38.139496" lon="14.965051">
<ele>90.200000</ele>
<time>2009-10-22T13:19:58Z</time>
</trkpt>
<trkpt lat="38.139398" lon="14.965082">
<ele>90.800000</ele>
<time>2009-10-22T13:19:59Z</time>
</trkpt>
<trkpt lat="38.139311" lon="14.965111">
<ele>90.800000</ele>
<time>2009-10-22T13:20:00Z</time>
</trkpt>
<trkpt lat="38.139211" lon="14.965112">
<ele>91.600000</ele>
<time>2009-10-22T13:20:01Z</time>
</trkpt>
<trkpt lat="38.139134" lon="14.965124">
<ele>92.600000</ele>
<time>2009-10-22T13:20:02Z</time>
</trkpt>
<trkpt lat="38.139028" lon="14.965184">
<ele>95.100000</ele>
<time>2009-10-22T13:20:04Z</time>
</trkpt>
<trkpt lat="38.138955" lon="14.965157">
<ele>94.500000</ele>
<time>2009-10-22T13:20:05Z</time>
</trkpt>
<trkpt lat="38.138837" lon="14.965211">
<ele>94.300000</ele>
<time>2009-10-22T13:20:07Z</time>
</trkpt>
<trkpt lat="38.138746" lon="14.965220">
<ele>91.400000</ele>
<time>2009-10-22T13:20:08Z</time>
</trkpt>
<trkpt lat="38.138666" lon="14.965263">
<ele>91.000000</ele>
<time>2009-10-22T13:20:09Z</time>
</trkpt>
<trkpt lat="38.138576" lon="14.965275">
<ele>91.300000</ele>
<time>2009-10-22T13:20:10Z</time>
</trkpt>
<trkpt lat="38.138522" lon="14.965355">
<ele>93.000000</ele>
<time>2009-10-22T13:20:11Z</time>
</trkpt>
<trkpt lat="38.138471" lon="14.965446">
<ele>94.100000</ele>
<time>2009-10-22T13:20:12Z</time>
</trkpt>
<trkpt lat="38.138441" lon="14.965544">
<ele>92.100000</ele>
<time>2009-10-22T13:20:13Z</time>
</trkpt>
<trkpt lat="38.138485" lon="14.965647">
<ele>91.300000</ele>
<time>2009-10-22T13:20:15Z</time>
</trkpt>
<trkpt lat="38.138515" lon="14.965735">
<ele>92.500000</ele>
<time>2009-10-22T13:20:16Z</time>
</trkpt>
<trkpt lat="38.138550" lon="14.965823">
<ele>93.400000</ele>
<time>2009-10-22T13:20:17Z</time>
</trkpt>
<trkpt lat="38.138489" lon="14.965898">
<ele>92.600000</ele>
<time>2009-10-22T13:20:18Z</time>
</trkpt>
<trkpt lat="38.138478" lon="14.966125">
<ele>94.400000</ele>
<time>2009-10-22T13:20:20Z</time>
</trkpt>
<trkpt lat="38.138445" lon="14.966219">
<ele>95.300000</ele>
<time>2009-10-22T13:20:21Z</time>
</trkpt>
<trkpt lat="38.138444" lon="14.966377">
<ele>91.300000</ele>
<time>2009-10-22T13:20:23Z</time>
</trkpt>
<trkpt lat="38.138483" lon="14.966530">
<ele>93.300000</ele>
<time>2009-10-22T13:20:25Z</time>
</trkpt>
<trkpt lat="38.138483" lon="14.966663">
<ele>93.400000</ele>
<time>2009-10-22T13:20:27Z</time>
</trkpt>
<trkpt lat="38.138509" lon="14.966790">
<ele>96.000000</ele>
<time>2009-10-22T13:20:29Z</time>
</trkpt>
<trkpt lat="38.138515" lon="14.966890">
<ele>99.300000</ele>
<time>2009-10-22T13:20:30Z</time>
</trkpt>
<trkpt lat="38.138541" lon="14.966990">
<ele>100.800000</ele>
<time>2009-10-22T13:20:32Z</time>
</trkpt>
<trkpt lat="38.138485" lon="14.967108">
<ele>105.000000</ele>
<time>2009-10-22T13:20:34Z</time>
</trkpt>
<trkpt lat="38.138489" lon="14.967194">
<ele>109.400000</ele>
<time>2009-10-22T13:20:36Z</time>
</trkpt>
<trkpt lat="38.138574" lon="14.967220">
<ele>111.900000</ele>
<time>2009-10-22T13:20:37Z</time>
</trkpt>
<trkpt lat="38.138688" lon="14.967305">
<ele>115.200000</ele>
<time>2009-10-22T13:20:39Z</time>
</trkpt>
<trkpt lat="38.138758" lon="14.967431">
<ele>114.300000</ele>
<time>2009-10-22T13:20:41Z</time>
</trkpt>
<trkpt lat="38.138794" lon="14.967511">
<ele>114.800000</ele>
<time>2009-10-22T13:20:43Z</time>
</trkpt>
<trkpt lat="38.138859" lon="14.967589">
<ele>115.900000</ele>
<time>2009-10-22T13:20:45Z</time>
</trkpt>
<trkpt lat="38.138899" lon="14.967665">
<ele>115.300000</ele>
<time>2009-10-22T13:20:48Z</time>
</trkpt>
<trkpt lat="38.138989" lon="14.967743">
<ele>112.400000</ele>
<time>2009-10-22T13:20:50Z</time>
</trkpt>
<trkpt lat="38.139043" lon="14.967829">
<ele>111.600000</ele>
<time>2009-10-22T13:20:51Z</time>
</trkpt>
<trkpt lat="38.139144" lon="14.967983">
<ele>109.600000</ele>
<time>2009-10-22T13:20:53Z</time>
</trkpt>
<trkpt lat="38.139227" lon="14.968104">
<ele>108.700000</ele>
<time>2009-10-22T13:20:55Z</time>
</trkpt>
<trkpt lat="38.139288" lon="14.968210">
<ele>109.100000</ele>
<time>2009-10-22T13:20:56Z</time>
</trkpt>
<trkpt lat="38.139409" lon="14.968421">
<ele>110.200000</ele>
<time>2009-10-22T13:20:58Z</time>
</trkpt>
<trkpt lat="38.139472" lon="14.968554">
<ele>114.200000</ele>
<time>2009-10-22T13:20:59Z</time>
</trkpt>
<trkpt lat="38.139592" lon="14.968666">
<ele>116.100000</ele>
<time>2009-10-22T13:21:01Z</time>
</trkpt>
<trkpt lat="38.139639" lon="14.968744">
<ele>117.000000</ele>
<time>2009-10-22T13:21:02Z</time>
</trkpt>
<trkpt lat="38.139680" lon="14.968893">
<ele>118.800000</ele>
<time>2009-10-22T13:21:04Z</time>
</trkpt>
<trkpt lat="38.139741" lon="14.969010">
<ele>118.700000</ele>
<time>2009-10-22T13:21:06Z</time>
</trkpt>
<trkpt lat="38.139809" lon="14.969149">
<ele>119.300000</ele>
<time>2009-10-22T13:21:08Z</time>
</trkpt>
<trkpt lat="38.139856" lon="14.969289">
<ele>121.100000</ele>
<time>2009-10-22T13:21:10Z</time>
</trkpt>
<trkpt lat="38.139906" lon="14.969432">
<ele>124.000000</ele>
<time>2009-10-22T13:21:12Z</time>
</trkpt>
<trkpt lat="38.140034" lon="14.969531">
<ele>126.300000</ele>
<time>2009-10-22T13:21:14Z</time>
</trkpt>
<trkpt lat="38.140129" lon="14.969679">
<ele>127.600000</ele>
<time>2009-10-22T13:21:16Z</time>
</trkpt>
<trkpt lat="38.140204" lon="14.969881">
<ele>125.100000</ele>
<time>2009-10-22T13:21:18Z</time>
</trkpt>
<trkpt lat="38.140241" lon="14.969974">
<ele>124.600000</ele>
<time>2009-10-22T13:21:19Z</time>
</trkpt>
<trkpt lat="38.140312" lon="14.970092">
<ele>121.800000</ele>
<time>2009-10-22T13:21:21Z</time>
</trkpt>
<trkpt lat="38.140371" lon="14.970146">
<ele>120.700000</ele>
<time>2009-10-22T13:21:22Z</time>
</trkpt>
<trkpt lat="38.140451" lon="14.970284">
<ele>118.600000</ele>
<time>2009-10-22T13:21:24Z</time>
</trkpt>
<trkpt lat="38.140490" lon="14.970361">
<ele>117.300000</ele>
<time>2009-10-22T13:21:25Z</time>
</trkpt>
<trkpt lat="38.140538" lon="14.970441">
<ele>116.600000</ele>
<time>2009-10-22T13:21:26Z</time>
</trkpt>
<trkpt lat="38.140584" lon="14.970527">
<ele>116.400000</ele>
<time>2009-10-22T13:21:27Z</time>
</trkpt>
<trkpt lat="38.140631" lon="14.970613">
<ele>116.400000</ele>
<time>2009-10-22T13:21:28Z</time>
</trkpt>
<trkpt lat="38.140678" lon="14.970705">
<ele>116.900000</ele>
<time>2009-10-22T13:21:29Z</time>
</trkpt>
<trkpt lat="38.140727" lon="14.970779">
<ele>116.700000</ele>
<time>2009-10-22T13:21:30Z</time>
</trkpt>
<trkpt lat="38.140768" lon="14.970864">
<ele>116.100000</ele>
<time>2009-10-22T13:21:31Z</time>
</trkpt>
<trkpt lat="38.140805" lon="14.970948">
<ele>115.200000</ele>
<time>2009-10-22T13:21:32Z</time>
</trkpt>
<trkpt lat="38.140836" lon="14.971021">
<ele>113.900000</ele>
<time>2009-10-22T13:21:33Z</time>
</trkpt>
<trkpt lat="38.140888" lon="14.971158">
<ele>113.200000</ele>
<time>2009-10-22T13:21:35Z</time>
</trkpt>
<trkpt lat="38.140966" lon="14.971287">
<ele>110.500000</ele>
<time>2009-10-22T13:21:37Z</time>
</trkpt>
<trkpt lat="38.141006" lon="14.971361">
<ele>110.400000</ele>
<time>2009-10-22T13:21:38Z</time>
</trkpt>
<trkpt lat="38.141069" lon="14.971428">
<ele>111.900000</ele>
<time>2009-10-22T13:21:39Z</time>
</trkpt>
<trkpt lat="38.141129" lon="14.971491">
<ele>112.500000</ele>
<time>2009-10-22T13:21:40Z</time>
</trkpt>
<trkpt lat="38.141164" lon="14.971626">
<ele>108.300000</ele>
<time>2009-10-22T13:21:42Z</time>
</trkpt>
<trkpt lat="38.141211" lon="14.971703">
<ele>107.600000</ele>
<time>2009-10-22T13:21:43Z</time>
</trkpt>
<trkpt lat="38.141262" lon="14.971790">
<ele>107.400000</ele>
<time>2009-10-22T13:21:44Z</time>
</trkpt>
<trkpt lat="38.141335" lon="14.971869">
<ele>106.900000</ele>
<time>2009-10-22T13:21:45Z</time>
</trkpt>
<trkpt lat="38.141422" lon="14.971965">
<ele>107.100000</ele>
<time>2009-10-22T13:21:46Z</time>
</trkpt>
<trkpt lat="38.141501" lon="14.972034">
<ele>106.500000</ele>
<time>2009-10-22T13:21:47Z</time>
</trkpt>
<trkpt lat="38.141608" lon="14.972044">
<ele>106.700000</ele>
<time>2009-10-22T13:21:48Z</time>
</trkpt>
<trkpt lat="38.141710" lon="14.972050">
<ele>106.500000</ele>
<time>2009-10-22T13:21:49Z</time>
</trkpt>
<trkpt lat="38.141803" lon="14.972069">
<ele>106.500000</ele>
<time>2009-10-22T13:21:50Z</time>
</trkpt>
<trkpt lat="38.141882" lon="14.972092">
<ele>105.200000</ele>
<time>2009-10-22T13:21:51Z</time>
</trkpt>
<trkpt lat="38.141955" lon="14.972123">
<ele>104.800000</ele>
<time>2009-10-22T13:21:52Z</time>
</trkpt>
<trkpt lat="38.142050" lon="14.972224">
<ele>103.900000</ele>
<time>2009-10-22T13:21:54Z</time>
</trkpt>
<trkpt lat="38.142082" lon="14.972393">
<ele>100.800000</ele>
<time>2009-10-22T13:21:56Z</time>
</trkpt>
<trkpt lat="38.142064" lon="14.972490">
<ele>99.600000</ele>
<time>2009-10-22T13:21:57Z</time>
</trkpt>
<trkpt lat="38.142047" lon="14.972589">
<ele>97.200000</ele>
<time>2009-10-22T13:21:58Z</time>
</trkpt>
<trkpt lat="38.142038" lon="14.972689">
<ele>95.400000</ele>
<time>2009-10-22T13:21:59Z</time>
</trkpt>
<trkpt lat="38.142034" lon="14.972793">
<ele>93.800000</ele>
<time>2009-10-22T13:22:00Z</time>
</trkpt>
<trkpt lat="38.142029" lon="14.972899">
<ele>92.200000</ele>
<time>2009-10-22T13:22:01Z</time>
</trkpt>
<trkpt lat="38.142028" lon="14.973009">
<ele>90.500000</ele>
<time>2009-10-22T13:22:02Z</time>
</trkpt>
<trkpt lat="38.142024" lon="14.973130">
<ele>89.200000</ele>
<time>2009-10-22T13:22:03Z</time>
</trkpt>
<trkpt lat="38.142024" lon="14.973247">
<ele>88.000000</ele>
<time>2009-10-22T13:22:04Z</time>
</trkpt>
<trkpt lat="38.142028" lon="14.973367">
<ele>86.700000</ele>
<time>2009-10-22T13:22:05Z</time>
</trkpt>
<trkpt lat="38.142035" lon="14.973490">
<ele>85.300000</ele>
<time>2009-10-22T13:22:06Z</time>
</trkpt>
<trkpt lat="38.142042" lon="14.973613">
<ele>84.100000</ele>
<time>2009-10-22T13:22:07Z</time>
</trkpt>
<trkpt lat="38.142052" lon="14.973736">
<ele>82.700000</ele>
<time>2009-10-22T13:22:08Z</time>
</trkpt>
<trkpt lat="38.142064" lon="14.973861">
<ele>81.400000</ele>
<time>2009-10-22T13:22:09Z</time>
</trkpt>
<trkpt lat="38.142078" lon="14.973998">
<ele>80.400000</ele>
<time>2009-10-22T13:22:10Z</time>
</trkpt>
<trkpt lat="38.142093" lon="14.974128">
<ele>79.400000</ele>
<time>2009-10-22T13:22:11Z</time>
</trkpt>
<trkpt lat="38.142105" lon="14.974260">
<ele>78.600000</ele>
<time>2009-10-22T13:22:12Z</time>
</trkpt>
<trkpt lat="38.142116" lon="14.974392">
<ele>77.900000</ele>
<time>2009-10-22T13:22:13Z</time>
</trkpt>
<trkpt lat="38.142129" lon="14.974525">
<ele>77.300000</ele>
<time>2009-10-22T13:22:14Z</time>
</trkpt>
<trkpt lat="38.142142" lon="14.974658">
<ele>76.800000</ele>
<time>2009-10-22T13:22:15Z</time>
</trkpt>
<trkpt lat="38.142156" lon="14.974791">
<ele>76.400000</ele>
<time>2009-10-22T13:22:16Z</time>
</trkpt>
<trkpt lat="38.142172" lon="14.974921">
<ele>75.800000</ele>
<time>2009-10-22T13:22:17Z</time>
</trkpt>
<trkpt lat="38.142188" lon="14.975053">
<ele>75.200000</ele>
<time>2009-10-22T13:22:18Z</time>
</trkpt>
<trkpt lat="38.142206" lon="14.975184">
<ele>74.700000</ele>
<time>2009-10-22T13:22:19Z</time>
</trkpt>
<trkpt lat="38.142223" lon="14.975313">
<ele>74.200000</ele>
<time>2009-10-22T13:22:20Z</time>
</trkpt>
<trkpt lat="38.142242" lon="14.975442">
<ele>73.800000</ele>
<time>2009-10-22T13:22:21Z</time>
</trkpt>
<trkpt lat="38.142264" lon="14.975569">
<ele>73.200000</ele>
<time>2009-10-22T13:22:22Z</time>
</trkpt>
<trkpt lat="38.142285" lon="14.975681">
<ele>72.800000</ele>
<time>2009-10-22T13:22:23Z</time>
</trkpt>
<trkpt lat="38.142314" lon="14.975798">
<ele>72.500000</ele>
<time>2009-10-22T13:22:24Z</time>
</trkpt>
<trkpt lat="38.142344" lon="14.975920">
<ele>73.900000</ele>
<time>2009-10-22T13:22:25Z</time>
</trkpt>
<trkpt lat="38.142381" lon="14.976038">
<ele>75.800000</ele>
<time>2009-10-22T13:22:26Z</time>
</trkpt>
<trkpt lat="38.142417" lon="14.976137">
<ele>76.400000</ele>
<time>2009-10-22T13:22:27Z</time>
</trkpt>
<trkpt lat="38.142459" lon="14.976241">
<ele>76.200000</ele>
<time>2009-10-22T13:22:28Z</time>
</trkpt>
<trkpt lat="38.142505" lon="14.976334">
<ele>75.200000</ele>
<time>2009-10-22T13:22:29Z</time>
</trkpt>
<trkpt lat="38.142557" lon="14.976419">
<ele>74.300000</ele>
<time>2009-10-22T13:22:30Z</time>
</trkpt>
<trkpt lat="38.142602" lon="14.976508">
<ele>74.000000</ele>
<time>2009-10-22T13:22:31Z</time>
</trkpt>
<trkpt lat="38.142642" lon="14.976611">
<ele>75.000000</ele>
<time>2009-10-22T13:22:32Z</time>
</trkpt>
<trkpt lat="38.142691" lon="14.976721">
<ele>76.600000</ele>
<time>2009-10-22T13:22:33Z</time>
</trkpt>
<trkpt lat="38.142740" lon="14.976830">
<ele>77.400000</ele>
<time>2009-10-22T13:22:34Z</time>
</trkpt>
<trkpt lat="38.142787" lon="14.976942">
<ele>77.900000</ele>
<time>2009-10-22T13:22:35Z</time>
</trkpt>
<trkpt lat="38.142837" lon="14.977050">
<ele>78.700000</ele>
<time>2009-10-22T13:22:36Z</time>
</trkpt>
<trkpt lat="38.142893" lon="14.977154">
<ele>79.500000</ele>
<time>2009-10-22T13:22:37Z</time>
</trkpt>
<trkpt lat="38.142938" lon="14.977251">
<ele>80.400000</ele>
<time>2009-10-22T13:22:38Z</time>
</trkpt>
<trkpt lat="38.142986" lon="14.977351">
<ele>81.000000</ele>
<time>2009-10-22T13:22:39Z</time>
</trkpt>
<trkpt lat="38.143015" lon="14.977501">
<ele>81.300000</ele>
<time>2009-10-22T13:22:40Z</time>
</trkpt>
<trkpt lat="38.143061" lon="14.977597">
<ele>81.400000</ele>
<time>2009-10-22T13:22:41Z</time>
</trkpt>
<trkpt lat="38.143105" lon="14.977672">
<ele>82.200000</ele>
<time>2009-10-22T13:22:42Z</time>
</trkpt>
<trkpt lat="38.143131" lon="14.977757">
<ele>82.100000</ele>
<time>2009-10-22T13:22:43Z</time>
</trkpt>
<trkpt lat="38.143153" lon="14.977851">
<ele>81.800000</ele>
<time>2009-10-22T13:22:44Z</time>
</trkpt>
<trkpt lat="38.143165" lon="14.977949">
<ele>81.300000</ele>
<time>2009-10-22T13:22:45Z</time>
</trkpt>
<trkpt lat="38.143170" lon="14.978053">
<ele>80.300000</ele>
<time>2009-10-22T13:22:46Z</time>
</trkpt>
<trkpt lat="38.143158" lon="14.978145">
<ele>80.200000</ele>
<time>2009-10-22T13:22:47Z</time>
</trkpt>
<trkpt lat="38.143116" lon="14.978217">
<ele>78.800000</ele>
<time>2009-10-22T13:22:48Z</time>
</trkpt>
<trkpt lat="38.143069" lon="14.978308">
<ele>78.100000</ele>
<time>2009-10-22T13:22:49Z</time>
</trkpt>
<trkpt lat="38.143024" lon="14.978391">
<ele>78.000000</ele>
<time>2009-10-22T13:22:50Z</time>
</trkpt>
<trkpt lat="38.142982" lon="14.978488">
<ele>78.400000</ele>
<time>2009-10-22T13:22:51Z</time>
</trkpt>
<trkpt lat="38.142914" lon="14.978582">
<ele>78.400000</ele>
<time>2009-10-22T13:22:52Z</time>
</trkpt>
<trkpt lat="38.142874" lon="14.978670">
<ele>78.000000</ele>
<time>2009-10-22T13:22:53Z</time>
</trkpt>
<trkpt lat="38.142829" lon="14.978766">
<ele>77.500000</ele>
<time>2009-10-22T13:22:54Z</time>
</trkpt>
<trkpt lat="38.142792" lon="14.978850">
<ele>76.800000</ele>
<time>2009-10-22T13:22:55Z</time>
</trkpt>
<trkpt lat="38.142744" lon="14.978934">
<ele>76.200000</ele>
<time>2009-10-22T13:22:56Z</time>
</trkpt>
<trkpt lat="38.142683" lon="14.979004">
<ele>75.900000</ele>
<time>2009-10-22T13:22:57Z</time>
</trkpt>
<trkpt lat="38.142616" lon="14.979064">
<ele>75.500000</ele>
<time>2009-10-22T13:22:58Z</time>
</trkpt>
<trkpt lat="38.142542" lon="14.979109">
<ele>75.000000</ele>
<time>2009-10-22T13:22:59Z</time>
</trkpt>
<trkpt lat="38.142462" lon="14.979152">
<ele>75.500000</ele>
<time>2009-10-22T13:23:00Z</time>
</trkpt>
<trkpt lat="38.142381" lon="14.979200">
<ele>76.600000</ele>
<time>2009-10-22T13:23:01Z</time>
</trkpt>
<trkpt lat="38.142317" lon="14.979255">
<ele>76.400000</ele>
<time>2009-10-22T13:23:02Z</time>
</trkpt>
<trkpt lat="38.142276" lon="14.979334">
<ele>76.400000</ele>
<time>2009-10-22T13:23:03Z</time>
</trkpt>
<trkpt lat="38.142246" lon="14.979513">
<ele>74.000000</ele>
<time>2009-10-22T13:23:05Z</time>
</trkpt>
<trkpt lat="38.142231" lon="14.979610">
<ele>72.600000</ele>
<time>2009-10-22T13:23:06Z</time>
</trkpt>
<trkpt lat="38.142213" lon="14.979721">
<ele>71.400000</ele>
<time>2009-10-22T13:23:07Z</time>
</trkpt>
<trkpt lat="38.142181" lon="14.979825">
<ele>70.900000</ele>
<time>2009-10-22T13:23:08Z</time>
</trkpt>
<trkpt lat="38.142132" lon="14.979936">
<ele>70.300000</ele>
<time>2009-10-22T13:23:09Z</time>
</trkpt>
<trkpt lat="38.142073" lon="14.980030">
<ele>69.900000</ele>
<time>2009-10-22T13:23:10Z</time>
</trkpt>
<trkpt lat="38.142015" lon="14.980124">
<ele>69.500000</ele>
<time>2009-10-22T13:23:11Z</time>
</trkpt>
<trkpt lat="38.141968" lon="14.980208">
<ele>69.400000</ele>
<time>2009-10-22T13:23:12Z</time>
</trkpt>
<trkpt lat="38.141913" lon="14.980296">
<ele>69.400000</ele>
<time>2009-10-22T13:23:13Z</time>
</trkpt>
<trkpt lat="38.141853" lon="14.980385">
<ele>69.800000</ele>
<time>2009-10-22T13:23:14Z</time>
</trkpt>
<trkpt lat="38.141796" lon="14.980470">
<ele>69.800000</ele>
<time>2009-10-22T13:23:15Z</time>
</trkpt>
<trkpt lat="38.141740" lon="14.980552">
<ele>69.600000</ele>
<time>2009-10-22T13:23:16Z</time>
</trkpt>
<trkpt lat="38.141681" lon="14.980632">
<ele>69.600000</ele>
<time>2009-10-22T13:23:17Z</time>
</trkpt>
<trkpt lat="38.141612" lon="14.980721">
<ele>69.800000</ele>
<time>2009-10-22T13:23:18Z</time>
</trkpt>
<trkpt lat="38.141544" lon="14.980806">
<ele>69.700000</ele>
<time>2009-10-22T13:23:19Z</time>
</trkpt>
<trkpt lat="38.141466" lon="14.980898">
<ele>69.300000</ele>
<time>2009-10-22T13:23:20Z</time>
</trkpt>
<trkpt lat="38.141392" lon="14.980986">
<ele>68.900000</ele>
<time>2009-10-22T13:23:21Z</time>
</trkpt>
<trkpt lat="38.141316" lon="14.981073">
<ele>68.600000</ele>
<time>2009-10-22T13:23:22Z</time>
</trkpt>
<trkpt lat="38.141241" lon="14.981161">
<ele>68.200000</ele>
<time>2009-10-22T13:23:23Z</time>
</trkpt>
<trkpt lat="38.141167" lon="14.981244">
<ele>67.500000</ele>
<time>2009-10-22T13:23:24Z</time>
</trkpt>
<trkpt lat="38.141100" lon="14.981321">
<ele>67.200000</ele>
<time>2009-10-22T13:23:25Z</time>
</trkpt>
<trkpt lat="38.141033" lon="14.981403">
<ele>66.600000</ele>
<time>2009-10-22T13:23:26Z</time>
</trkpt>
<trkpt lat="38.140971" lon="14.981477">
<ele>66.000000</ele>
<time>2009-10-22T13:23:27Z</time>
</trkpt>
<trkpt lat="38.140902" lon="14.981553">
<ele>65.800000</ele>
<time>2009-10-22T13:23:28Z</time>
</trkpt>
<trkpt lat="38.140837" lon="14.981630">
<ele>65.400000</ele>
<time>2009-10-22T13:23:29Z</time>
</trkpt>
<trkpt lat="38.140775" lon="14.981704">
<ele>64.800000</ele>
<time>2009-10-22T13:23:30Z</time>
</trkpt>
<trkpt lat="38.140720" lon="14.981772">
<ele>64.400000</ele>
<time>2009-10-22T13:23:31Z</time>
</trkpt>
<trkpt lat="38.140667" lon="14.981850">
<ele>63.900000</ele>
<time>2009-10-22T13:23:32Z</time>
</trkpt>
<trkpt lat="38.140614" lon="14.981943">
<ele>63.500000</ele>
<time>2009-10-22T13:23:33Z</time>
</trkpt>
<trkpt lat="38.140572" lon="14.982058">
<ele>62.900000</ele>
<time>2009-10-22T13:23:34Z</time>
</trkpt>
<trkpt lat="38.140546" lon="14.982168">
<ele>62.400000</ele>
<time>2009-10-22T13:23:35Z</time>
</trkpt>
<trkpt lat="38.140515" lon="14.982288">
<ele>61.800000</ele>
<time>2009-10-22T13:23:36Z</time>
</trkpt>
<trkpt lat="38.140506" lon="14.982387">
<ele>62.300000</ele>
<time>2009-10-22T13:23:37Z</time>
</trkpt>
<trkpt lat="38.140475" lon="14.982495">
<ele>61.900000</ele>
<time>2009-10-22T13:23:38Z</time>
</trkpt>
<trkpt lat="38.140449" lon="14.982616">
<ele>62.000000</ele>
<time>2009-10-22T13:23:39Z</time>
</trkpt>
<trkpt lat="38.140416" lon="14.982726">
<ele>61.300000</ele>
<time>2009-10-22T13:23:40Z</time>
</trkpt>
<trkpt lat="38.140390" lon="14.982821">
<ele>61.400000</ele>
<time>2009-10-22T13:23:41Z</time>
</trkpt>
<trkpt lat="38.140367" lon="14.982925">
<ele>61.400000</ele>
<time>2009-10-22T13:23:42Z</time>
</trkpt>
<trkpt lat="38.140350" lon="14.983013">
<ele>61.400000</ele>
<time>2009-10-22T13:23:43Z</time>
</trkpt>
<trkpt lat="38.140327" lon="14.983117">
<ele>61.300000</ele>
<time>2009-10-22T13:23:44Z</time>
</trkpt>
<trkpt lat="38.140323" lon="14.983217">
<ele>61.400000</ele>
<time>2009-10-22T13:23:45Z</time>
</trkpt>
<trkpt lat="38.140330" lon="14.983315">
<ele>61.800000</ele>
<time>2009-10-22T13:23:46Z</time>
</trkpt>
<trkpt lat="38.140343" lon="14.983410">
<ele>60.100000</ele>
<time>2009-10-22T13:23:47Z</time>
</trkpt>
<trkpt lat="38.140361" lon="14.983510">
<ele>59.400000</ele>
<time>2009-10-22T13:23:48Z</time>
</trkpt>
<trkpt lat="38.140375" lon="14.983633">
<ele>60.800000</ele>
<time>2009-10-22T13:23:49Z</time>
</trkpt>
<trkpt lat="38.140396" lon="14.983745">
<ele>60.100000</ele>
<time>2009-10-22T13:23:50Z</time>
</trkpt>
<trkpt lat="38.140415" lon="14.983856">
<ele>59.700000</ele>
<time>2009-10-22T13:23:51Z</time>
</trkpt>
<trkpt lat="38.140435" lon="14.983980">
<ele>59.000000</ele>
<time>2009-10-22T13:23:52Z</time>
</trkpt>
<trkpt lat="38.140453" lon="14.984097">
<ele>58.500000</ele>
<time>2009-10-22T13:23:53Z</time>
</trkpt>
<trkpt lat="38.140476" lon="14.984202">
<ele>57.300000</ele>
<time>2009-10-22T13:23:54Z</time>
</trkpt>
<trkpt lat="38.140481" lon="14.984329">
<ele>56.500000</ele>
<time>2009-10-22T13:23:55Z</time>
</trkpt>
<trkpt lat="38.140492" lon="14.984481">
<ele>57.400000</ele>
<time>2009-10-22T13:23:56Z</time>
</trkpt>
<trkpt lat="38.140504" lon="14.984601">
<ele>56.500000</ele>
<time>2009-10-22T13:23:57Z</time>
</trkpt>
<trkpt lat="38.140525" lon="14.984717">
<ele>55.900000</ele>
<time>2009-10-22T13:23:58Z</time>
</trkpt>
<trkpt lat="38.140542" lon="14.984842">
<ele>56.100000</ele>
<time>2009-10-22T13:23:59Z</time>
</trkpt>
<trkpt lat="38.140568" lon="14.984960">
<ele>55.500000</ele>
<time>2009-10-22T13:24:00Z</time>
</trkpt>
<trkpt lat="38.140594" lon="14.985078">
<ele>55.500000</ele>
<time>2009-10-22T13:24:01Z</time>
</trkpt>
<trkpt lat="38.140620" lon="14.985192">
<ele>55.200000</ele>
<time>2009-10-22T13:24:02Z</time>
</trkpt>
<trkpt lat="38.140652" lon="14.985303">
<ele>54.900000</ele>
<time>2009-10-22T13:24:03Z</time>
</trkpt>
<trkpt lat="38.140685" lon="14.985414">
<ele>54.500000</ele>
<time>2009-10-22T13:24:04Z</time>
</trkpt>
<trkpt lat="38.140709" lon="14.985514">
<ele>54.100000</ele>
<time>2009-10-22T13:24:05Z</time>
</trkpt>
<trkpt lat="38.140742" lon="14.985633">
<ele>53.600000</ele>
<time>2009-10-22T13:24:06Z</time>
</trkpt>
<trkpt lat="38.140769" lon="14.985744">
<ele>52.900000</ele>
<time>2009-10-22T13:24:07Z</time>
</trkpt>
<trkpt lat="38.140800" lon="14.985859">
<ele>52.100000</ele>
<time>2009-10-22T13:24:08Z</time>
</trkpt>
<trkpt lat="38.140833" lon="14.985986">
<ele>51.400000</ele>
<time>2009-10-22T13:24:09Z</time>
</trkpt>
<trkpt lat="38.140861" lon="14.986110">
<ele>51.200000</ele>
<time>2009-10-22T13:24:10Z</time>
</trkpt>
<trkpt lat="38.140882" lon="14.986220">
<ele>51.200000</ele>
<time>2009-10-22T13:24:11Z</time>
</trkpt>
<trkpt lat="38.140900" lon="14.986338">
<ele>50.500000</ele>
<time>2009-10-22T13:24:12Z</time>
</trkpt>
<trkpt lat="38.140898" lon="14.986455">
<ele>50.000000</ele>
<time>2009-10-22T13:24:13Z</time>
</trkpt>
<trkpt lat="38.140876" lon="14.986563">
<ele>48.900000</ele>
<time>2009-10-22T13:24:14Z</time>
</trkpt>
<trkpt lat="38.140853" lon="14.986670">
<ele>48.100000</ele>
<time>2009-10-22T13:24:15Z</time>
</trkpt>
<trkpt lat="38.140813" lon="14.986763">
<ele>47.900000</ele>
<time>2009-10-22T13:24:16Z</time>
</trkpt>
<trkpt lat="38.140794" lon="14.986856">
<ele>47.800000</ele>
<time>2009-10-22T13:24:17Z</time>
</trkpt>
<trkpt lat="38.140770" lon="14.986985">
<ele>48.200000</ele>
<time>2009-10-22T13:24:18Z</time>
</trkpt>
<trkpt lat="38.140751" lon="14.987087">
<ele>49.400000</ele>
<time>2009-10-22T13:24:19Z</time>
</trkpt>
<trkpt lat="38.140736" lon="14.987190">
<ele>49.000000</ele>
<time>2009-10-22T13:24:20Z</time>
</trkpt>
<trkpt lat="38.140685" lon="14.987386">
<ele>47.700000</ele>
<time>2009-10-22T13:24:22Z</time>
</trkpt>
<trkpt lat="38.140663" lon="14.987486">
<ele>47.200000</ele>
<time>2009-10-22T13:24:23Z</time>
</trkpt>
<trkpt lat="38.140643" lon="14.987589">
<ele>46.300000</ele>
<time>2009-10-22T13:24:24Z</time>
</trkpt>
<trkpt lat="38.140605" lon="14.987687">
<ele>45.800000</ele>
<time>2009-10-22T13:24:25Z</time>
</trkpt>
<trkpt lat="38.140548" lon="14.987771">
<ele>45.300000</ele>
<time>2009-10-22T13:24:26Z</time>
</trkpt>
<trkpt lat="38.140492" lon="14.987839">
<ele>44.700000</ele>
<time>2009-10-22T13:24:27Z</time>
</trkpt>
<trkpt lat="38.140428" lon="14.987909">
<ele>44.300000</ele>
<time>2009-10-22T13:24:28Z</time>
</trkpt>
<trkpt lat="38.140359" lon="14.987961">
<ele>43.700000</ele>
<time>2009-10-22T13:24:29Z</time>
</trkpt>
<trkpt lat="38.140265" lon="14.988016">
<ele>41.700000</ele>
<time>2009-10-22T13:24:30Z</time>
</trkpt>
<trkpt lat="38.140184" lon="14.988075">
<ele>40.900000</ele>
<time>2009-10-22T13:24:31Z</time>
</trkpt>
<trkpt lat="38.140111" lon="14.988147">
<ele>40.300000</ele>
<time>2009-10-22T13:24:32Z</time>
</trkpt>
<trkpt lat="38.140042" lon="14.988219">
<ele>40.000000</ele>
<time>2009-10-22T13:24:33Z</time>
</trkpt>
<trkpt lat="38.139981" lon="14.988301">
<ele>39.800000</ele>
<time>2009-10-22T13:24:34Z</time>
</trkpt>
<trkpt lat="38.139923" lon="14.988367">
<ele>39.500000</ele>
<time>2009-10-22T13:24:35Z</time>
</trkpt>
<trkpt lat="38.139874" lon="14.988442">
<ele>39.300000</ele>
<time>2009-10-22T13:24:36Z</time>
</trkpt>
<trkpt lat="38.139819" lon="14.988536">
<ele>38.200000</ele>
<time>2009-10-22T13:24:37Z</time>
</trkpt>
<trkpt lat="38.139767" lon="14.988602">
<ele>37.800000</ele>
<time>2009-10-22T13:24:38Z</time>
</trkpt>
<trkpt lat="38.139696" lon="14.988669">
<ele>37.500000</ele>
<time>2009-10-22T13:24:39Z</time>
</trkpt>
<trkpt lat="38.139592" lon="14.988762">
<ele>36.800000</ele>
<time>2009-10-22T13:24:41Z</time>
</trkpt>
<trkpt lat="38.139533" lon="14.988830">
<ele>35.700000</ele>
<time>2009-10-22T13:24:42Z</time>
</trkpt>
<trkpt lat="38.139479" lon="14.988893">
<ele>35.600000</ele>
<time>2009-10-22T13:24:43Z</time>
</trkpt>
<trkpt lat="38.139423" lon="14.988949">
<ele>34.900000</ele>
<time>2009-10-22T13:24:44Z</time>
</trkpt>
<trkpt lat="38.139314" lon="14.989072">
<ele>33.700000</ele>
<time>2009-10-22T13:24:46Z</time>
</trkpt>
<trkpt lat="38.139271" lon="14.989146">
<ele>33.200000</ele>
<time>2009-10-22T13:24:47Z</time>
</trkpt>
<trkpt lat="38.139198" lon="14.989303">
<ele>32.300000</ele>
<time>2009-10-22T13:24:49Z</time>
</trkpt>
<trkpt lat="38.139162" lon="14.989376">
<ele>34.300000</ele>
<time>2009-10-22T13:24:50Z</time>
</trkpt>
<trkpt lat="38.139129" lon="14.989464">
<ele>35.700000</ele>
<time>2009-10-22T13:24:51Z</time>
</trkpt>
<trkpt lat="38.139094" lon="14.989549">
<ele>35.000000</ele>
<time>2009-10-22T13:24:52Z</time>
</trkpt>
<trkpt lat="38.139049" lon="14.989642">
<ele>36.300000</ele>
<time>2009-10-22T13:24:53Z</time>
</trkpt>
<trkpt lat="38.139000" lon="14.989725">
<ele>37.200000</ele>
<time>2009-10-22T13:24:54Z</time>
</trkpt>
<trkpt lat="38.138958" lon="14.989823">
<ele>38.600000</ele>
<time>2009-10-22T13:24:55Z</time>
</trkpt>
<trkpt lat="38.138921" lon="14.989905">
<ele>39.200000</ele>
<time>2009-10-22T13:24:56Z</time>
</trkpt>
<trkpt lat="38.138882" lon="14.990001">
<ele>38.100000</ele>
<time>2009-10-22T13:24:57Z</time>
</trkpt>
<trkpt lat="38.138843" lon="14.990075">
<ele>36.100000</ele>
<time>2009-10-22T13:24:58Z</time>
</trkpt>
<trkpt lat="38.138798" lon="14.990288">
<ele>34.700000</ele>
<time>2009-10-22T13:25:00Z</time>
</trkpt>
<trkpt lat="38.138810" lon="14.990382">
<ele>33.600000</ele>
<time>2009-10-22T13:25:01Z</time>
</trkpt>
<trkpt lat="38.138861" lon="14.990478">
<ele>30.500000</ele>
<time>2009-10-22T13:25:02Z</time>
</trkpt>
<trkpt lat="38.138880" lon="14.990606">
<ele>26.000000</ele>
<time>2009-10-22T13:25:04Z</time>
</trkpt>
<trkpt lat="38.138857" lon="14.990698">
<ele>24.400000</ele>
<time>2009-10-22T13:25:05Z</time>
</trkpt>
<trkpt lat="38.138883" lon="14.990853">
<ele>23.500000</ele>
<time>2009-10-22T13:25:07Z</time>
</trkpt>
<trkpt lat="38.138893" lon="14.990980">
<ele>21.600000</ele>
<time>2009-10-22T13:25:09Z</time>
</trkpt>
<trkpt lat="38.138792" lon="14.991040">
<ele>19.300000</ele>
<time>2009-10-22T13:25:11Z</time>
</trkpt>
<trkpt lat="38.138740" lon="14.991115">
<ele>19.400000</ele>
<time>2009-10-22T13:25:12Z</time>
</trkpt>
<trkpt lat="38.138699" lon="14.991212">
<ele>19.500000</ele>
<time>2009-10-22T13:25:13Z</time>
</trkpt>
<trkpt lat="38.138673" lon="14.991318">
<ele>18.600000</ele>
<time>2009-10-22T13:25:14Z</time>
</trkpt>
<trkpt lat="38.138673" lon="14.991416">
<ele>18.300000</ele>
<time>2009-10-22T13:25:15Z</time>
</trkpt>
<trkpt lat="38.138678" lon="14.991501">
<ele>17.600000</ele>
<time>2009-10-22T13:25:16Z</time>
</trkpt>
<trkpt lat="38.138704" lon="14.991684">
<ele>19.300000</ele>
<time>2009-10-22T13:25:17Z</time>
</trkpt>
<trkpt lat="38.138791" lon="14.991743">
<ele>13.400000</ele>
<time>2009-10-22T13:25:18Z</time>
</trkpt>
<trkpt lat="38.138867" lon="14.991868">
<ele>11.300000</ele>
<time>2009-10-22T13:25:19Z</time>
</trkpt>
<trkpt lat="38.138923" lon="14.991993">
<ele>11.100000</ele>
<time>2009-10-22T13:25:20Z</time>
</trkpt>
<trkpt lat="38.138987" lon="14.992115">
<ele>11.800000</ele>
<time>2009-10-22T13:25:21Z</time>
</trkpt>
<trkpt lat="38.139025" lon="14.992206">
<ele>11.400000</ele>
<time>2009-10-22T13:25:22Z</time>
</trkpt>
<trkpt lat="38.139050" lon="14.992317">
<ele>10.500000</ele>
<time>2009-10-22T13:25:23Z</time>
</trkpt>
<trkpt lat="38.139094" lon="14.992420">
<ele>9.400000</ele>
<time>2009-10-22T13:25:24Z</time>
</trkpt>
<trkpt lat="38.139124" lon="14.992521">
<ele>8.700000</ele>
<time>2009-10-22T13:25:25Z</time>
</trkpt>
<trkpt lat="38.139162" lon="14.992622">
<ele>8.200000</ele>
<time>2009-10-22T13:25:26Z</time>
</trkpt>
<trkpt lat="38.139190" lon="14.992716">
<ele>6.900000</ele>
<time>2009-10-22T13:25:27Z</time>
</trkpt>
<trkpt lat="38.139217" lon="14.992821">
<ele>6.000000</ele>
<time>2009-10-22T13:25:28Z</time>
</trkpt>
<trkpt lat="38.139255" lon="14.992939">
<ele>6.200000</ele>
<time>2009-10-22T13:25:29Z</time>
</trkpt>
<trkpt lat="38.139276" lon="14.993042">
<ele>5.600000</ele>
<time>2009-10-22T13:25:30Z</time>
</trkpt>
<trkpt lat="38.139291" lon="14.993151">
<ele>5.400000</ele>
<time>2009-10-22T13:25:31Z</time>
</trkpt>
<trkpt lat="38.139312" lon="14.993278">
<ele>4.700000</ele>
<time>2009-10-22T13:25:32Z</time>
</trkpt>
<trkpt lat="38.139333" lon="14.993490">
<ele>9.000000</ele>
<time>2009-10-22T13:25:33Z</time>
</trkpt>
<trkpt lat="38.139322" lon="14.993618">
<ele>7.400000</ele>
<time>2009-10-22T13:25:34Z</time>
</trkpt>
<trkpt lat="38.139355" lon="14.993762">
<ele>8.700000</ele>
<time>2009-10-22T13:25:35Z</time>
</trkpt>
<trkpt lat="38.139318" lon="14.993897">
<ele>8.000000</ele>
<time>2009-10-22T13:25:36Z</time>
</trkpt>
<trkpt lat="38.139256" lon="14.994021">
<ele>7.800000</ele>
<time>2009-10-22T13:25:37Z</time>
</trkpt>
<trkpt lat="38.139195" lon="14.994120">
<ele>8.500000</ele>
<time>2009-10-22T13:25:38Z</time>
</trkpt>
<trkpt lat="38.139102" lon="14.994218">
<ele>8.700000</ele>
<time>2009-10-22T13:25:39Z</time>
</trkpt>
<trkpt lat="38.138906" lon="14.994309">
<ele>10.800000</ele>
<time>2009-10-22T13:25:40Z</time>
</trkpt>
<trkpt lat="38.138773" lon="14.994327">
<ele>10.900000</ele>
<time>2009-10-22T13:25:41Z</time>
</trkpt>
<trkpt lat="38.138633" lon="14.994344">
<ele>10.600000</ele>
<time>2009-10-22T13:25:42Z</time>
</trkpt>
<trkpt lat="38.138536" lon="14.994388">
<ele>10.900000</ele>
<time>2009-10-22T13:25:43Z</time>
</trkpt>
<trkpt lat="38.138456" lon="14.994445">
<ele>11.100000</ele>
<time>2009-10-22T13:25:44Z</time>
</trkpt>
<trkpt lat="38.138409" lon="14.994532">
<ele>12.000000</ele>
<time>2009-10-22T13:25:45Z</time>
</trkpt>
<trkpt lat="38.138381" lon="14.994676">
<ele>12.800000</ele>
<time>2009-10-22T13:25:46Z</time>
</trkpt>
<trkpt lat="38.138409" lon="14.994812">
<ele>13.500000</ele>
<time>2009-10-22T13:25:47Z</time>
</trkpt>
<trkpt lat="38.138448" lon="14.994987">
<ele>16.500000</ele>
<time>2009-10-22T13:25:48Z</time>
</trkpt>
<trkpt lat="38.138489" lon="14.995169">
<ele>18.300000</ele>
<time>2009-10-22T13:25:49Z</time>
</trkpt>
<trkpt lat="38.138521" lon="14.995357">
<ele>19.500000</ele>
<time>2009-10-22T13:25:50Z</time>
</trkpt>
<trkpt lat="38.138542" lon="14.995529">
<ele>19.900000</ele>
<time>2009-10-22T13:25:51Z</time>
</trkpt>
<trkpt lat="38.138563" lon="14.995697">
<ele>20.300000</ele>
<time>2009-10-22T13:25:52Z</time>
</trkpt>
<trkpt lat="38.138584" lon="14.995863">
<ele>20.600000</ele>
<time>2009-10-22T13:25:53Z</time>
</trkpt>
<trkpt lat="38.138599" lon="14.996016">
<ele>21.700000</ele>
<time>2009-10-22T13:25:54Z</time>
</trkpt>
<trkpt lat="38.138616" lon="14.996168">
<ele>21.900000</ele>
<time>2009-10-22T13:25:55Z</time>
</trkpt>
<trkpt lat="38.138632" lon="14.996307">
<ele>22.100000</ele>
<time>2009-10-22T13:25:56Z</time>
</trkpt>
<trkpt lat="38.138648" lon="14.996447">
<ele>22.200000</ele>
<time>2009-10-22T13:25:57Z</time>
</trkpt>
<trkpt lat="38.138662" lon="14.996572">
<ele>22.200000</ele>
<time>2009-10-22T13:25:58Z</time>
</trkpt>
<trkpt lat="38.138678" lon="14.996698">
<ele>22.200000</ele>
<time>2009-10-22T13:25:59Z</time>
</trkpt>
<trkpt lat="38.138689" lon="14.996811">
<ele>22.100000</ele>
<time>2009-10-22T13:26:00Z</time>
</trkpt>
<trkpt lat="38.138703" lon="14.996915">
<ele>22.200000</ele>
<time>2009-10-22T13:26:01Z</time>
</trkpt>
<trkpt lat="38.138731" lon="14.997023">
<ele>22.200000</ele>
<time>2009-10-22T13:26:02Z</time>
</trkpt>
<trkpt lat="38.138776" lon="14.997135">
<ele>22.500000</ele>
<time>2009-10-22T13:26:03Z</time>
</trkpt>
<trkpt lat="38.138842" lon="14.997229">
<ele>22.700000</ele>
<time>2009-10-22T13:26:04Z</time>
</trkpt>
<trkpt lat="38.138940" lon="14.997329">
<ele>23.900000</ele>
<time>2009-10-22T13:26:05Z</time>
</trkpt>
<trkpt lat="38.139025" lon="14.997430">
<ele>24.000000</ele>
<time>2009-10-22T13:26:06Z</time>
</trkpt>
<trkpt lat="38.139109" lon="14.997556">
<ele>25.100000</ele>
<time>2009-10-22T13:26:07Z</time>
</trkpt>
<trkpt lat="38.139174" lon="14.997687">
<ele>25.400000</ele>
<time>2009-10-22T13:26:08Z</time>
</trkpt>
<trkpt lat="38.139227" lon="14.997828">
<ele>26.200000</ele>
<time>2009-10-22T13:26:09Z</time>
</trkpt>
<trkpt lat="38.139266" lon="14.997975">
<ele>27.400000</ele>
<time>2009-10-22T13:26:10Z</time>
</trkpt>
<trkpt lat="38.139311" lon="14.998132">
<ele>27.800000</ele>
<time>2009-10-22T13:26:11Z</time>
</trkpt>
<trkpt lat="38.139346" lon="14.998303">
<ele>28.100000</ele>
<time>2009-10-22T13:26:12Z</time>
</trkpt>
<trkpt lat="38.139391" lon="14.998463">
<ele>28.300000</ele>
<time>2009-10-22T13:26:13Z</time>
</trkpt>
<trkpt lat="38.139434" lon="14.998623">
<ele>28.400000</ele>
<time>2009-10-22T13:26:14Z</time>
</trkpt>
<trkpt lat="38.139477" lon="14.998784">
<ele>28.600000</ele>
<time>2009-10-22T13:26:15Z</time>
</trkpt>
<trkpt lat="38.139521" lon="14.998944">
<ele>28.800000</ele>
<time>2009-10-22T13:26:16Z</time>
</trkpt>
<trkpt lat="38.139564" lon="14.999104">
<ele>29.000000</ele>
<time>2009-10-22T13:26:17Z</time>
</trkpt>
<trkpt lat="38.139609" lon="14.999264">
<ele>29.200000</ele>
<time>2009-10-22T13:26:18Z</time>
</trkpt>
<trkpt lat="38.139652" lon="14.999424">
<ele>29.400000</ele>
<time>2009-10-22T13:26:19Z</time>
</trkpt>
<trkpt lat="38.139696" lon="14.999584">
<ele>29.500000</ele>
<time>2009-10-22T13:26:20Z</time>
</trkpt>
<trkpt lat="38.139739" lon="14.999744">
<ele>29.700000</ele>
<time>2009-10-22T13:26:21Z</time>
</trkpt>
<trkpt lat="38.139782" lon="14.999906">
<ele>29.900000</ele>
<time>2009-10-22T13:26:22Z</time>
</trkpt>
<trkpt lat="38.139827" lon="15.000066">
<ele>30.100000</ele>
<time>2009-10-22T13:26:23Z</time>
</trkpt>
<trkpt lat="38.138494" lon="14.999684">
<ele>28.300000</ele>
<time>2009-10-22T13:26:24Z</time>
</trkpt>
<trkpt lat="38.138259" lon="15.000105">
<ele>26.900000</ele>
<time>2009-10-22T13:26:25Z</time>
</trkpt>
<trkpt lat="38.138140" lon="15.000325">
<ele>29.300000</ele>
<time>2009-10-22T13:26:26Z</time>
</trkpt>
<trkpt lat="38.138049" lon="15.000537">
<ele>27.100000</ele>
<time>2009-10-22T13:26:27Z</time>
</trkpt>
<trkpt lat="38.138007" lon="15.000736">
<ele>27.000000</ele>
<time>2009-10-22T13:26:28Z</time>
</trkpt>
<trkpt lat="38.137985" lon="15.000912">
<ele>26.400000</ele>
<time>2009-10-22T13:26:29Z</time>
</trkpt>
<trkpt lat="38.138003" lon="15.001116">
<ele>27.100000</ele>
<time>2009-10-22T13:26:30Z</time>
</trkpt>
<trkpt lat="38.138040" lon="15.001313">
<ele>26.500000</ele>
<time>2009-10-22T13:26:31Z</time>
</trkpt>
<trkpt lat="38.138096" lon="15.001493">
<ele>24.400000</ele>
<time>2009-10-22T13:26:32Z</time>
</trkpt>
<trkpt lat="38.138176" lon="15.001666">
<ele>24.200000</ele>
<time>2009-10-22T13:26:33Z</time>
</trkpt>
<trkpt lat="38.138275" lon="15.001821">
<ele>25.200000</ele>
<time>2009-10-22T13:26:34Z</time>
</trkpt>
<trkpt lat="38.138401" lon="15.001951">
<ele>27.200000</ele>
<time>2009-10-22T13:26:35Z</time>
</trkpt>
<trkpt lat="38.138518" lon="15.002073">
<ele>27.700000</ele>
<time>2009-10-22T13:26:36Z</time>
</trkpt>
<trkpt lat="38.138611" lon="15.002198">
<ele>28.600000</ele>
<time>2009-10-22T13:26:37Z</time>
</trkpt>
<trkpt lat="38.138682" lon="15.002347">
<ele>28.700000</ele>
<time>2009-10-22T13:26:38Z</time>
</trkpt>
<trkpt lat="38.138726" lon="15.002495">
<ele>28.500000</ele>
<time>2009-10-22T13:26:39Z</time>
</trkpt>
<trkpt lat="38.138765" lon="15.002656">
<ele>29.200000</ele>
<time>2009-10-22T13:26:40Z</time>
</trkpt>
<trkpt lat="38.138807" lon="15.002813">
<ele>29.900000</ele>
<time>2009-10-22T13:26:41Z</time>
</trkpt>
<trkpt lat="38.138853" lon="15.002963">
<ele>29.500000</ele>
<time>2009-10-22T13:26:42Z</time>
</trkpt>
<trkpt lat="38.138902" lon="15.003114">
<ele>30.000000</ele>
<time>2009-10-22T13:26:43Z</time>
</trkpt>
<trkpt lat="38.138944" lon="15.003253">
<ele>29.500000</ele>
<time>2009-10-22T13:26:44Z</time>
</trkpt>
<trkpt lat="38.138989" lon="15.003410">
<ele>28.900000</ele>
<time>2009-10-22T13:26:45Z</time>
</trkpt>
<trkpt lat="38.139037" lon="15.003544">
<ele>28.300000</ele>
<time>2009-10-22T13:26:46Z</time>
</trkpt>
<trkpt lat="38.139085" lon="15.003688">
<ele>27.800000</ele>
<time>2009-10-22T13:26:47Z</time>
</trkpt>
<trkpt lat="38.139132" lon="15.003833">
<ele>26.900000</ele>
<time>2009-10-22T13:26:48Z</time>
</trkpt>
<trkpt lat="38.139174" lon="15.003979">
<ele>26.000000</ele>
<time>2009-10-22T13:26:49Z</time>
</trkpt>
<trkpt lat="38.139218" lon="15.004126">
<ele>25.900000</ele>
<time>2009-10-22T13:26:50Z</time>
</trkpt>
<trkpt lat="38.139263" lon="15.004273">
<ele>25.800000</ele>
<time>2009-10-22T13:26:51Z</time>
</trkpt>
<trkpt lat="38.139304" lon="15.004405">
<ele>27.800000</ele>
<time>2009-10-22T13:26:52Z</time>
</trkpt>
<trkpt lat="38.139342" lon="15.004543">
<ele>27.100000</ele>
<time>2009-10-22T13:26:53Z</time>
</trkpt>
<trkpt lat="38.139380" lon="15.004688">
<ele>27.700000</ele>
<time>2009-10-22T13:26:54Z</time>
</trkpt>
<trkpt lat="38.139374" lon="15.004821">
<ele>27.800000</ele>
<time>2009-10-22T13:26:55Z</time>
</trkpt>
<trkpt lat="38.139341" lon="15.004951">
<ele>28.200000</ele>
<time>2009-10-22T13:26:56Z</time>
</trkpt>
<trkpt lat="38.139294" lon="15.005081">
<ele>28.300000</ele>
<time>2009-10-22T13:26:57Z</time>
</trkpt>
<trkpt lat="38.139258" lon="15.005206">
<ele>29.200000</ele>
<time>2009-10-22T13:26:58Z</time>
</trkpt>
<trkpt lat="38.139208" lon="15.005333">
<ele>29.700000</ele>
<time>2009-10-22T13:26:59Z</time>
</trkpt>
<trkpt lat="38.139115" lon="15.005434">
<ele>30.000000</ele>
<time>2009-10-22T13:27:00Z</time>
</trkpt>
<trkpt lat="38.138991" lon="15.005516">
<ele>29.800000</ele>
<time>2009-10-22T13:27:01Z</time>
</trkpt>
<trkpt lat="38.138867" lon="15.005591">
<ele>29.900000</ele>
<time>2009-10-22T13:27:02Z</time>
</trkpt>
<trkpt lat="38.138777" lon="15.005688">
<ele>29.700000</ele>
<time>2009-10-22T13:27:03Z</time>
</trkpt>
<trkpt lat="38.138682" lon="15.005777">
<ele>29.800000</ele>
<time>2009-10-22T13:27:04Z</time>
</trkpt>
<trkpt lat="38.138584" lon="15.005860">
<ele>29.800000</ele>
<time>2009-10-22T13:27:05Z</time>
</trkpt>
<trkpt lat="38.138480" lon="15.005939">
<ele>28.200000</ele>
<time>2009-10-22T13:27:06Z</time>
</trkpt>
<trkpt lat="38.138381" lon="15.006022">
<ele>27.000000</ele>
<time>2009-10-22T13:27:07Z</time>
</trkpt>
<trkpt lat="38.138312" lon="15.006098">
<ele>27.200000</ele>
<time>2009-10-22T13:27:08Z</time>
</trkpt>
<trkpt lat="38.138264" lon="15.006185">
<ele>26.800000</ele>
<time>2009-10-22T13:27:09Z</time>
</trkpt>
<trkpt lat="38.138248" lon="15.006274">
<ele>29.000000</ele>
<time>2009-10-22T13:27:10Z</time>
</trkpt>
<trkpt lat="38.138262" lon="15.006371">
<ele>29.100000</ele>
<time>2009-10-22T13:27:11Z</time>
</trkpt>
<trkpt lat="38.138329" lon="15.006502">
<ele>31.900000</ele>
<time>2009-10-22T13:27:12Z</time>
</trkpt>
<trkpt lat="38.138403" lon="15.006595">
<ele>31.000000</ele>
<time>2009-10-22T13:27:13Z</time>
</trkpt>
<trkpt lat="38.138461" lon="15.006716">
<ele>30.500000</ele>
<time>2009-10-22T13:27:14Z</time>
</trkpt>
<trkpt lat="38.138510" lon="15.006818">
<ele>29.600000</ele>
<time>2009-10-22T13:27:15Z</time>
</trkpt>
<trkpt lat="38.138565" lon="15.006939">
<ele>29.100000</ele>
<time>2009-10-22T13:27:16Z</time>
</trkpt>
<trkpt lat="38.138611" lon="15.007068">
<ele>29.100000</ele>
<time>2009-10-22T13:27:17Z</time>
</trkpt>
<trkpt lat="38.138668" lon="15.007201">
<ele>28.700000</ele>
<time>2009-10-22T13:27:18Z</time>
</trkpt>
<trkpt lat="38.138698" lon="15.007334">
<ele>28.200000</ele>
<time>2009-10-22T13:27:19Z</time>
</trkpt>
<trkpt lat="38.138729" lon="15.007466">
<ele>28.000000</ele>
<time>2009-10-22T13:27:20Z</time>
</trkpt>
<trkpt lat="38.138774" lon="15.007594">
<ele>27.400000</ele>
<time>2009-10-22T13:27:21Z</time>
</trkpt>
<trkpt lat="38.138818" lon="15.007722">
<ele>26.300000</ele>
<time>2009-10-22T13:27:22Z</time>
</trkpt>
<trkpt lat="38.138854" lon="15.007852">
<ele>25.600000</ele>
<time>2009-10-22T13:27:23Z</time>
</trkpt>
<trkpt lat="38.138883" lon="15.007980">
<ele>25.300000</ele>
<time>2009-10-22T13:27:24Z</time>
</trkpt>
<trkpt lat="38.138911" lon="15.008099">
<ele>24.600000</ele>
<time>2009-10-22T13:27:25Z</time>
</trkpt>
<trkpt lat="38.138945" lon="15.008222">
<ele>25.000000</ele>
<time>2009-10-22T13:27:26Z</time>
</trkpt>
<trkpt lat="38.138989" lon="15.008316">
<ele>27.900000</ele>
<time>2009-10-22T13:27:27Z</time>
</trkpt>
<trkpt lat="38.139052" lon="15.008396">
<ele>28.900000</ele>
<time>2009-10-22T13:27:28Z</time>
</trkpt>
<trkpt lat="38.139146" lon="15.008467">
<ele>30.900000</ele>
<time>2009-10-22T13:27:29Z</time>
</trkpt>
<trkpt lat="38.139258" lon="15.008542">
<ele>33.100000</ele>
<time>2009-10-22T13:27:30Z</time>
</trkpt>
<trkpt lat="38.139363" lon="15.008606">
<ele>35.200000</ele>
<time>2009-10-22T13:27:31Z</time>
</trkpt>
<trkpt lat="38.139472" lon="15.008673">
<ele>37.100000</ele>
<time>2009-10-22T13:27:32Z</time>
</trkpt>
<trkpt lat="38.139601" lon="15.008735">
<ele>39.300000</ele>
<time>2009-10-22T13:27:33Z</time>
</trkpt>
<trkpt lat="38.139732" lon="15.008808">
<ele>40.400000</ele>
<time>2009-10-22T13:27:34Z</time>
</trkpt>
<trkpt lat="38.139848" lon="15.008883">
<ele>41.600000</ele>
<time>2009-10-22T13:27:35Z</time>
</trkpt>
<trkpt lat="38.139960" lon="15.008953">
<ele>42.700000</ele>
<time>2009-10-22T13:27:36Z</time>
</trkpt>
<trkpt lat="38.140070" lon="15.009023">
<ele>43.800000</ele>
<time>2009-10-22T13:27:37Z</time>
</trkpt>
<trkpt lat="38.140165" lon="15.009089">
<ele>44.600000</ele>
<time>2009-10-22T13:27:38Z</time>
</trkpt>
<trkpt lat="38.140274" lon="15.009130">
<ele>45.600000</ele>
<time>2009-10-22T13:27:39Z</time>
</trkpt>
<trkpt lat="38.140387" lon="15.009148">
<ele>46.200000</ele>
<time>2009-10-22T13:27:40Z</time>
</trkpt>
<trkpt lat="38.140500" lon="15.009135">
<ele>46.500000</ele>
<time>2009-10-22T13:27:41Z</time>
</trkpt>
<trkpt lat="38.140616" lon="15.009106">
<ele>47.800000</ele>
<time>2009-10-22T13:27:42Z</time>
</trkpt>
<trkpt lat="38.140736" lon="15.009108">
<ele>47.800000</ele>
<time>2009-10-22T13:27:43Z</time>
</trkpt>
<trkpt lat="38.140853" lon="15.009132">
<ele>47.900000</ele>
<time>2009-10-22T13:27:44Z</time>
</trkpt>
<trkpt lat="38.140962" lon="15.009178">
<ele>48.700000</ele>
<time>2009-10-22T13:27:45Z</time>
</trkpt>
<trkpt lat="38.141033" lon="15.009279">
<ele>49.300000</ele>
<time>2009-10-22T13:27:46Z</time>
</trkpt>
<trkpt lat="38.141081" lon="15.009390">
<ele>50.300000</ele>
<time>2009-10-22T13:27:47Z</time>
</trkpt>
<trkpt lat="38.141110" lon="15.009545">
<ele>52.000000</ele>
<time>2009-10-22T13:27:48Z</time>
</trkpt>
<trkpt lat="38.141106" lon="15.009663">
<ele>51.000000</ele>
<time>2009-10-22T13:27:49Z</time>
</trkpt>
<trkpt lat="38.141095" lon="15.009794">
<ele>50.700000</ele>
<time>2009-10-22T13:27:50Z</time>
</trkpt>
<trkpt lat="38.141133" lon="15.009935">
<ele>50.500000</ele>
<time>2009-10-22T13:27:51Z</time>
</trkpt>
<trkpt lat="38.141169" lon="15.010069">
<ele>50.700000</ele>
<time>2009-10-22T13:27:52Z</time>
</trkpt>
<trkpt lat="38.141209" lon="15.010230">
<ele>52.000000</ele>
<time>2009-10-22T13:27:53Z</time>
</trkpt>
<trkpt lat="38.141258" lon="15.010383">
<ele>52.500000</ele>
<time>2009-10-22T13:27:54Z</time>
</trkpt>
<trkpt lat="38.141305" lon="15.010535">
<ele>52.900000</ele>
<time>2009-10-22T13:27:55Z</time>
</trkpt>
<trkpt lat="38.141359" lon="15.010698">
<ele>53.000000</ele>
<time>2009-10-22T13:27:56Z</time>
</trkpt>
<trkpt lat="38.141413" lon="15.010858">
<ele>53.200000</ele>
<time>2009-10-22T13:27:57Z</time>
</trkpt>
<trkpt lat="38.141467" lon="15.011033">
<ele>53.400000</ele>
<time>2009-10-22T13:27:58Z</time>
</trkpt>
<trkpt lat="38.141521" lon="15.011203">
<ele>54.800000</ele>
<time>2009-10-22T13:27:59Z</time>
</trkpt>
<trkpt lat="38.141574" lon="15.011362">
<ele>58.000000</ele>
<time>2009-10-22T13:28:00Z</time>
</trkpt>
<trkpt lat="38.141630" lon="15.011528">
<ele>59.100000</ele>
<time>2009-10-22T13:28:01Z</time>
</trkpt>
<trkpt lat="38.141678" lon="15.011716">
<ele>58.800000</ele>
<time>2009-10-22T13:28:02Z</time>
</trkpt>
<trkpt lat="38.141731" lon="15.011907">
<ele>59.100000</ele>
<time>2009-10-22T13:28:03Z</time>
</trkpt>
<trkpt lat="38.141764" lon="15.012085">
<ele>58.900000</ele>
<time>2009-10-22T13:28:04Z</time>
</trkpt>
<trkpt lat="38.141800" lon="15.012256">
<ele>58.400000</ele>
<time>2009-10-22T13:28:05Z</time>
</trkpt>
<trkpt lat="38.141825" lon="15.012428">
<ele>57.900000</ele>
<time>2009-10-22T13:28:06Z</time>
</trkpt>
<trkpt lat="38.141842" lon="15.012601">
<ele>57.700000</ele>
<time>2009-10-22T13:28:07Z</time>
</trkpt>
<trkpt lat="38.141875" lon="15.012762">
<ele>58.100000</ele>
<time>2009-10-22T13:28:08Z</time>
</trkpt>
<trkpt lat="38.141914" lon="15.012914">
<ele>58.600000</ele>
<time>2009-10-22T13:28:09Z</time>
</trkpt>
<trkpt lat="38.141957" lon="15.013069">
<ele>60.300000</ele>
<time>2009-10-22T13:28:10Z</time>
</trkpt>
<trkpt lat="38.142002" lon="15.013219">
<ele>61.000000</ele>
<time>2009-10-22T13:28:11Z</time>
</trkpt>
<trkpt lat="38.142028" lon="15.013363">
<ele>61.300000</ele>
<time>2009-10-22T13:28:12Z</time>
</trkpt>
<trkpt lat="38.142042" lon="15.013500">
<ele>61.600000</ele>
<time>2009-10-22T13:28:13Z</time>
</trkpt>
<trkpt lat="38.142007" lon="15.013631">
<ele>60.500000</ele>
<time>2009-10-22T13:28:14Z</time>
</trkpt>
<trkpt lat="38.141915" lon="15.013780">
<ele>60.800000</ele>
<time>2009-10-22T13:28:15Z</time>
</trkpt>
<trkpt lat="38.141835" lon="15.013868">
<ele>61.700000</ele>
<time>2009-10-22T13:28:16Z</time>
</trkpt>
<trkpt lat="38.141748" lon="15.013990">
<ele>62.400000</ele>
<time>2009-10-22T13:28:17Z</time>
</trkpt>
<trkpt lat="38.141689" lon="15.014093">
<ele>63.300000</ele>
<time>2009-10-22T13:28:18Z</time>
</trkpt>
<trkpt lat="38.141660" lon="15.014215">
<ele>63.900000</ele>
<time>2009-10-22T13:28:19Z</time>
</trkpt>
<trkpt lat="38.141652" lon="15.014344">
<ele>64.800000</ele>
<time>2009-10-22T13:28:20Z</time>
</trkpt>
<trkpt lat="38.141659" lon="15.014489">
<ele>65.900000</ele>
<time>2009-10-22T13:28:21Z</time>
</trkpt>
<trkpt lat="38.141674" lon="15.014626">
<ele>67.400000</ele>
<time>2009-10-22T13:28:22Z</time>
</trkpt>
<trkpt lat="38.141668" lon="15.014761">
<ele>66.900000</ele>
<time>2009-10-22T13:28:23Z</time>
</trkpt>
<trkpt lat="38.141671" lon="15.014910">
<ele>66.600000</ele>
<time>2009-10-22T13:28:24Z</time>
</trkpt>
<trkpt lat="38.141672" lon="15.015073">
<ele>66.200000</ele>
<time>2009-10-22T13:28:25Z</time>
</trkpt>
<trkpt lat="38.141676" lon="15.015224">
<ele>65.800000</ele>
<time>2009-10-22T13:28:26Z</time>
</trkpt>
<trkpt lat="38.141676" lon="15.015377">
<ele>65.400000</ele>
<time>2009-10-22T13:28:27Z</time>
</trkpt>
<trkpt lat="38.141681" lon="15.015511">
<ele>65.100000</ele>
<time>2009-10-22T13:28:28Z</time>
</trkpt>
<trkpt lat="38.141694" lon="15.015627">
<ele>64.400000</ele>
<time>2009-10-22T13:28:29Z</time>
</trkpt>
<trkpt lat="38.141688" lon="15.015718">
<ele>63.200000</ele>
<time>2009-10-22T13:28:30Z</time>
</trkpt>
<trkpt lat="38.141648" lon="15.015798">
<ele>62.100000</ele>
<time>2009-10-22T13:28:31Z</time>
</trkpt>
<trkpt lat="38.141583" lon="15.015885">
<ele>60.900000</ele>
<time>2009-10-22T13:28:32Z</time>
</trkpt>
<trkpt lat="38.141505" lon="15.015957">
<ele>60.500000</ele>
<time>2009-10-22T13:28:33Z</time>
</trkpt>
<trkpt lat="38.141429" lon="15.016046">
<ele>60.300000</ele>
<time>2009-10-22T13:28:34Z</time>
</trkpt>
<trkpt lat="38.141355" lon="15.016140">
<ele>60.800000</ele>
<time>2009-10-22T13:28:35Z</time>
</trkpt>
<trkpt lat="38.141277" lon="15.016241">
<ele>61.700000</ele>
<time>2009-10-22T13:28:36Z</time>
</trkpt>
<trkpt lat="38.141204" lon="15.016341">
<ele>62.600000</ele>
<time>2009-10-22T13:28:37Z</time>
</trkpt>
<trkpt lat="38.141127" lon="15.016449">
<ele>62.800000</ele>
<time>2009-10-22T13:28:38Z</time>
</trkpt>
<trkpt lat="38.141065" lon="15.016568">
<ele>62.900000</ele>
<time>2009-10-22T13:28:39Z</time>
</trkpt>
<trkpt lat="38.141009" lon="15.016726">
<ele>62.400000</ele>
<time>2009-10-22T13:28:40Z</time>
</trkpt>
<trkpt lat="38.140980" lon="15.016884">
<ele>62.500000</ele>
<time>2009-10-22T13:28:41Z</time>
</trkpt>
<trkpt lat="38.140958" lon="15.017040">
<ele>62.300000</ele>
<time>2009-10-22T13:28:42Z</time>
</trkpt>
<trkpt lat="38.140929" lon="15.017195">
<ele>62.200000</ele>
<time>2009-10-22T13:28:43Z</time>
</trkpt>
<trkpt lat="38.140905" lon="15.017358">
<ele>61.500000</ele>
<time>2009-10-22T13:28:44Z</time>
</trkpt>
<trkpt lat="38.140873" lon="15.017516">
<ele>61.400000</ele>
<time>2009-10-22T13:28:45Z</time>
</trkpt>
<trkpt lat="38.140847" lon="15.017659">
<ele>61.000000</ele>
<time>2009-10-22T13:28:46Z</time>
</trkpt>
<trkpt lat="38.140818" lon="15.017793">
<ele>61.200000</ele>
<time>2009-10-22T13:28:47Z</time>
</trkpt>
<trkpt lat="38.140775" lon="15.017928">
<ele>61.000000</ele>
<time>2009-10-22T13:28:48Z</time>
</trkpt>
<trkpt lat="38.140715" lon="15.018055">
<ele>60.700000</ele>
<time>2009-10-22T13:28:49Z</time>
</trkpt>
<trkpt lat="38.140641" lon="15.018173">
<ele>61.100000</ele>
<time>2009-10-22T13:28:50Z</time>
</trkpt>
<trkpt lat="38.140547" lon="15.018289">
<ele>61.700000</ele>
<time>2009-10-22T13:28:51Z</time>
</trkpt>
<trkpt lat="38.140446" lon="15.018401">
<ele>61.600000</ele>
<time>2009-10-22T13:28:52Z</time>
</trkpt>
<trkpt lat="38.140353" lon="15.018507">
<ele>59.500000</ele>
<time>2009-10-22T13:28:53Z</time>
</trkpt>
<trkpt lat="38.140256" lon="15.018614">
<ele>59.600000</ele>
<time>2009-10-22T13:28:54Z</time>
</trkpt>
<trkpt lat="38.140164" lon="15.018727">
<ele>59.500000</ele>
<time>2009-10-22T13:28:55Z</time>
</trkpt>
<trkpt lat="38.140074" lon="15.018842">
<ele>58.200000</ele>
<time>2009-10-22T13:28:56Z</time>
</trkpt>
<trkpt lat="38.139971" lon="15.018949">
<ele>57.500000</ele>
<time>2009-10-22T13:28:57Z</time>
</trkpt>
<trkpt lat="38.139860" lon="15.019042">
<ele>55.800000</ele>
<time>2009-10-22T13:28:58Z</time>
</trkpt>
<trkpt lat="38.139748" lon="15.019138">
<ele>55.000000</ele>
<time>2009-10-22T13:28:59Z</time>
</trkpt>
<trkpt lat="38.139629" lon="15.019239">
<ele>54.300000</ele>
<time>2009-10-22T13:29:00Z</time>
</trkpt>
<trkpt lat="38.139504" lon="15.019339">
<ele>55.300000</ele>
<time>2009-10-22T13:29:01Z</time>
</trkpt>
<trkpt lat="38.139385" lon="15.019439">
<ele>55.800000</ele>
<time>2009-10-22T13:29:02Z</time>
</trkpt>
<trkpt lat="38.139266" lon="15.019537">
<ele>56.500000</ele>
<time>2009-10-22T13:29:03Z</time>
</trkpt>
<trkpt lat="38.139160" lon="15.019631">
<ele>57.200000</ele>
<time>2009-10-22T13:29:04Z</time>
</trkpt>
<trkpt lat="38.139067" lon="15.019732">
<ele>55.500000</ele>
<time>2009-10-22T13:29:05Z</time>
</trkpt>
<trkpt lat="38.138983" lon="15.019843">
<ele>54.300000</ele>
<time>2009-10-22T13:29:06Z</time>
</trkpt>
<trkpt lat="38.138887" lon="15.019975">
<ele>53.300000</ele>
<time>2009-10-22T13:29:07Z</time>
</trkpt>
<trkpt lat="38.138833" lon="15.020115">
<ele>53.900000</ele>
<time>2009-10-22T13:29:08Z</time>
</trkpt>
<trkpt lat="38.138763" lon="15.020292">
<ele>55.200000</ele>
<time>2009-10-22T13:29:09Z</time>
</trkpt>
<trkpt lat="38.138692" lon="15.020486">
<ele>56.700000</ele>
<time>2009-10-22T13:29:10Z</time>
</trkpt>
<trkpt lat="38.138615" lon="15.020673">
<ele>58.300000</ele>
<time>2009-10-22T13:29:11Z</time>
</trkpt>
<trkpt lat="38.138540" lon="15.020861">
<ele>58.900000</ele>
<time>2009-10-22T13:29:12Z</time>
</trkpt>
<trkpt lat="38.138473" lon="15.021054">
<ele>60.300000</ele>
<time>2009-10-22T13:29:13Z</time>
</trkpt>
<trkpt lat="38.138409" lon="15.021228">
<ele>60.800000</ele>
<time>2009-10-22T13:29:14Z</time>
</trkpt>
<trkpt lat="38.138343" lon="15.021402">
<ele>61.700000</ele>
<time>2009-10-22T13:29:15Z</time>
</trkpt>
<trkpt lat="38.138282" lon="15.021546">
<ele>63.900000</ele>
<time>2009-10-22T13:29:16Z</time>
</trkpt>
<trkpt lat="38.138240" lon="15.021683">
<ele>64.500000</ele>
<time>2009-10-22T13:29:17Z</time>
</trkpt>
<trkpt lat="38.138214" lon="15.021808">
<ele>64.900000</ele>
<time>2009-10-22T13:29:18Z</time>
</trkpt>
<trkpt lat="38.138226" lon="15.021935">
<ele>68.300000</ele>
<time>2009-10-22T13:29:19Z</time>
</trkpt>
<trkpt lat="38.138298" lon="15.022055">
<ele>69.900000</ele>
<time>2009-10-22T13:29:20Z</time>
</trkpt>
<trkpt lat="38.138381" lon="15.022124">
<ele>71.600000</ele>
<time>2009-10-22T13:29:21Z</time>
</trkpt>
<trkpt lat="38.138492" lon="15.022140">
<ele>73.900000</ele>
<time>2009-10-22T13:29:22Z</time>
</trkpt>
<trkpt lat="38.138604" lon="15.022139">
<ele>76.500000</ele>
<time>2009-10-22T13:29:23Z</time>
</trkpt>
<trkpt lat="38.138743" lon="15.022159">
<ele>76.500000</ele>
<time>2009-10-22T13:29:24Z</time>
</trkpt>
<trkpt lat="38.138827" lon="15.022216">
<ele>78.700000</ele>
<time>2009-10-22T13:29:25Z</time>
</trkpt>
<trkpt lat="38.138896" lon="15.022311">
<ele>80.300000</ele>
<time>2009-10-22T13:29:26Z</time>
</trkpt>
<trkpt lat="38.138980" lon="15.022425">
<ele>82.000000</ele>
<time>2009-10-22T13:29:27Z</time>
</trkpt>
<trkpt lat="38.139052" lon="15.022510">
<ele>83.800000</ele>
<time>2009-10-22T13:29:28Z</time>
</trkpt>
<trkpt lat="38.139126" lon="15.022565">
<ele>85.200000</ele>
<time>2009-10-22T13:29:29Z</time>
</trkpt>
<trkpt lat="38.139231" lon="15.022553">
<ele>87.200000</ele>
<time>2009-10-22T13:29:30Z</time>
</trkpt>
<trkpt lat="38.139326" lon="15.022526">
<ele>87.900000</ele>
<time>2009-10-22T13:29:31Z</time>
</trkpt>
<trkpt lat="38.139452" lon="15.022504">
<ele>89.000000</ele>
<time>2009-10-22T13:29:32Z</time>
</trkpt>
<trkpt lat="38.139572" lon="15.022523">
<ele>90.400000</ele>
<time>2009-10-22T13:29:33Z</time>
</trkpt>
<trkpt lat="38.139655" lon="15.022601">
<ele>94.700000</ele>
<time>2009-10-22T13:29:34Z</time>
</trkpt>
<trkpt lat="38.139733" lon="15.022706">
<ele>97.300000</ele>
<time>2009-10-22T13:29:35Z</time>
</trkpt>
<trkpt lat="38.139816" lon="15.022819">
<ele>97.700000</ele>
<time>2009-10-22T13:29:36Z</time>
</trkpt>
<trkpt lat="38.139917" lon="15.022911">
<ele>98.400000</ele>
<time>2009-10-22T13:29:37Z</time>
</trkpt>
<trkpt lat="38.140013" lon="15.022966">
<ele>99.500000</ele>
<time>2009-10-22T13:29:38Z</time>
</trkpt>
<trkpt lat="38.140130" lon="15.022981">
<ele>101.000000</ele>
<time>2009-10-22T13:29:39Z</time>
</trkpt>
<trkpt lat="38.140259" lon="15.022979">
<ele>102.300000</ele>
<time>2009-10-22T13:29:40Z</time>
</trkpt>
<trkpt lat="38.140381" lon="15.022997">
<ele>102.900000</ele>
<time>2009-10-22T13:29:41Z</time>
</trkpt>
<trkpt lat="38.140475" lon="15.023028">
<ele>103.100000</ele>
<time>2009-10-22T13:29:42Z</time>
</trkpt>
<trkpt lat="38.140570" lon="15.023075">
<ele>103.800000</ele>
<time>2009-10-22T13:29:43Z</time>
</trkpt>
<trkpt lat="38.140623" lon="15.023193">
<ele>107.300000</ele>
<time>2009-10-22T13:29:44Z</time>
</trkpt>
<trkpt lat="38.140695" lon="15.023304">
<ele>107.300000</ele>
<time>2009-10-22T13:29:45Z</time>
</trkpt>
<trkpt lat="38.140791" lon="15.023420">
<ele>107.200000</ele>
<time>2009-10-22T13:29:46Z</time>
</trkpt>
<trkpt lat="38.140886" lon="15.023512">
<ele>107.400000</ele>
<time>2009-10-22T13:29:47Z</time>
</trkpt>
<trkpt lat="38.140996" lon="15.023597">
<ele>107.700000</ele>
<time>2009-10-22T13:29:48Z</time>
</trkpt>
<trkpt lat="38.141131" lon="15.023625">
<ele>108.400000</ele>
<time>2009-10-22T13:29:49Z</time>
</trkpt>
<trkpt lat="38.141253" lon="15.023638">
<ele>108.600000</ele>
<time>2009-10-22T13:29:50Z</time>
</trkpt>
<trkpt lat="38.141346" lon="15.023674">
<ele>108.900000</ele>
<time>2009-10-22T13:29:51Z</time>
</trkpt>
<trkpt lat="38.141427" lon="15.023744">
<ele>109.200000</ele>
<time>2009-10-22T13:29:52Z</time>
</trkpt>
<trkpt lat="38.141482" lon="15.023875">
<ele>110.600000</ele>
<time>2009-10-22T13:29:53Z</time>
</trkpt>
<trkpt lat="38.141557" lon="15.023996">
<ele>111.200000</ele>
<time>2009-10-22T13:29:54Z</time>
</trkpt>
<trkpt lat="38.141626" lon="15.024115">
<ele>113.500000</ele>
<time>2009-10-22T13:29:55Z</time>
</trkpt>
<trkpt lat="38.141709" lon="15.024205">
<ele>113.700000</ele>
<time>2009-10-22T13:29:56Z</time>
</trkpt>
<trkpt lat="38.141796" lon="15.024285">
<ele>114.800000</ele>
<time>2009-10-22T13:29:57Z</time>
</trkpt>
<trkpt lat="38.141908" lon="15.024276">
<ele>114.500000</ele>
<time>2009-10-22T13:29:58Z</time>
</trkpt>
<trkpt lat="38.142037" lon="15.024251">
<ele>114.400000</ele>
<time>2009-10-22T13:29:59Z</time>
</trkpt>
<trkpt lat="38.142127" lon="15.024239">
<ele>114.300000</ele>
<time>2009-10-22T13:30:00Z</time>
</trkpt>
<trkpt lat="38.142232" lon="15.024273">
<ele>114.400000</ele>
<time>2009-10-22T13:30:01Z</time>
</trkpt>
<trkpt lat="38.142337" lon="15.024363">
<ele>114.100000</ele>
<time>2009-10-22T13:30:02Z</time>
</trkpt>
<trkpt lat="38.142403" lon="15.024477">
<ele>114.000000</ele>
<time>2009-10-22T13:30:03Z</time>
</trkpt>
<trkpt lat="38.142474" lon="15.024594">
<ele>114.900000</ele>
<time>2009-10-22T13:30:04Z</time>
</trkpt>
<trkpt lat="38.142571" lon="15.024684">
<ele>115.700000</ele>
<time>2009-10-22T13:30:05Z</time>
</trkpt>
<trkpt lat="38.142684" lon="15.024738">
<ele>116.200000</ele>
<time>2009-10-22T13:30:06Z</time>
</trkpt>
<trkpt lat="38.142813" lon="15.024769">
<ele>116.900000</ele>
<time>2009-10-22T13:30:07Z</time>
</trkpt>
<trkpt lat="38.142937" lon="15.024776">
<ele>117.800000</ele>
<time>2009-10-22T13:30:08Z</time>
</trkpt>
<trkpt lat="38.143058" lon="15.024809">
<ele>117.900000</ele>
<time>2009-10-22T13:30:09Z</time>
</trkpt>
<trkpt lat="38.143165" lon="15.024864">
<ele>118.000000</ele>
<time>2009-10-22T13:30:10Z</time>
</trkpt>
<trkpt lat="38.143227" lon="15.024977">
<ele>118.200000</ele>
<time>2009-10-22T13:30:11Z</time>
</trkpt>
<trkpt lat="38.143273" lon="15.025130">
<ele>120.700000</ele>
<time>2009-10-22T13:30:12Z</time>
</trkpt>
<trkpt lat="38.143275" lon="15.025235">
<ele>121.100000</ele>
<time>2009-10-22T13:30:13Z</time>
</trkpt>
<trkpt lat="38.143231" lon="15.025375">
<ele>119.900000</ele>
<time>2009-10-22T13:30:14Z</time>
</trkpt>
<trkpt lat="38.143173" lon="15.025509">
<ele>119.000000</ele>
<time>2009-10-22T13:30:15Z</time>
</trkpt>
<trkpt lat="38.143131" lon="15.025639">
<ele>118.400000</ele>
<time>2009-10-22T13:30:16Z</time>
</trkpt>
<trkpt lat="38.143076" lon="15.025780">
<ele>119.000000</ele>
<time>2009-10-22T13:30:17Z</time>
</trkpt>
<trkpt lat="38.142974" lon="15.025856">
<ele>119.600000</ele>
<time>2009-10-22T13:30:18Z</time>
</trkpt>
<trkpt lat="38.142881" lon="15.025924">
<ele>118.800000</ele>
<time>2009-10-22T13:30:19Z</time>
</trkpt>
<trkpt lat="38.142816" lon="15.026037">
<ele>119.400000</ele>
<time>2009-10-22T13:30:20Z</time>
</trkpt>
<trkpt lat="38.142761" lon="15.026193">
<ele>116.400000</ele>
<time>2009-10-22T13:30:21Z</time>
</trkpt>
<trkpt lat="38.142699" lon="15.026320">
<ele>113.600000</ele>
<time>2009-10-22T13:30:22Z</time>
</trkpt>
<trkpt lat="38.142639" lon="15.026468">
<ele>110.900000</ele>
<time>2009-10-22T13:30:23Z</time>
</trkpt>
<trkpt lat="38.142616" lon="15.026655">
<ele>108.100000</ele>
<time>2009-10-22T13:30:24Z</time>
</trkpt>
<trkpt lat="38.142609" lon="15.026858">
<ele>107.700000</ele>
<time>2009-10-22T13:30:25Z</time>
</trkpt>
<trkpt lat="38.142588" lon="15.027028">
<ele>105.400000</ele>
<time>2009-10-22T13:30:26Z</time>
</trkpt>
<trkpt lat="38.142564" lon="15.027194">
<ele>103.600000</ele>
<time>2009-10-22T13:30:27Z</time>
</trkpt>
<trkpt lat="38.142541" lon="15.027349">
<ele>102.600000</ele>
<time>2009-10-22T13:30:28Z</time>
</trkpt>
<trkpt lat="38.142519" lon="15.027495">
<ele>101.400000</ele>
<time>2009-10-22T13:30:29Z</time>
</trkpt>
<trkpt lat="38.142499" lon="15.027630">
<ele>100.500000</ele>
<time>2009-10-22T13:30:30Z</time>
</trkpt>
<trkpt lat="38.142470" lon="15.027767">
<ele>101.700000</ele>
<time>2009-10-22T13:30:31Z</time>
</trkpt>
<trkpt lat="38.142435" lon="15.027883">
<ele>104.700000</ele>
<time>2009-10-22T13:30:32Z</time>
</trkpt>
<trkpt lat="38.142389" lon="15.027984">
<ele>106.300000</ele>
<time>2009-10-22T13:30:33Z</time>
</trkpt>
<trkpt lat="38.142332" lon="15.028076">
<ele>109.100000</ele>
<time>2009-10-22T13:30:34Z</time>
</trkpt>
<trkpt lat="38.142244" lon="15.028162">
<ele>110.600000</ele>
<time>2009-10-22T13:30:35Z</time>
</trkpt>
<trkpt lat="38.142130" lon="15.028202">
<ele>111.700000</ele>
<time>2009-10-22T13:30:36Z</time>
</trkpt>
<trkpt lat="38.141995" lon="15.028228">
<ele>113.000000</ele>
<time>2009-10-22T13:30:37Z</time>
</trkpt>
<trkpt lat="38.141859" lon="15.028258">
<ele>114.700000</ele>
<time>2009-10-22T13:30:38Z</time>
</trkpt>
<trkpt lat="38.141720" lon="15.028302">
<ele>116.000000</ele>
<time>2009-10-22T13:30:39Z</time>
</trkpt>
<trkpt lat="38.141582" lon="15.028353">
<ele>115.100000</ele>
<time>2009-10-22T13:30:40Z</time>
</trkpt>
<trkpt lat="38.141441" lon="15.028420">
<ele>115.000000</ele>
<time>2009-10-22T13:30:41Z</time>
</trkpt>
<trkpt lat="38.141309" lon="15.028498">
<ele>115.100000</ele>
<time>2009-10-22T13:30:42Z</time>
</trkpt>
<trkpt lat="38.141178" lon="15.028574">
<ele>114.100000</ele>
<time>2009-10-22T13:30:43Z</time>
</trkpt>
<trkpt lat="38.141049" lon="15.028651">
<ele>112.300000</ele>
<time>2009-10-22T13:30:44Z</time>
</trkpt>
<trkpt lat="38.140927" lon="15.028741">
<ele>111.400000</ele>
<time>2009-10-22T13:30:45Z</time>
</trkpt>
<trkpt lat="38.140824" lon="15.028839">
<ele>109.800000</ele>
<time>2009-10-22T13:30:46Z</time>
</trkpt>
<trkpt lat="38.140723" lon="15.028955">
<ele>108.600000</ele>
<time>2009-10-22T13:30:47Z</time>
</trkpt>
<trkpt lat="38.140644" lon="15.029085">
<ele>110.100000</ele>
<time>2009-10-22T13:30:48Z</time>
</trkpt>
<trkpt lat="38.140552" lon="15.029208">
<ele>111.200000</ele>
<time>2009-10-22T13:30:49Z</time>
</trkpt>
<trkpt lat="38.140454" lon="15.029319">
<ele>112.200000</ele>
<time>2009-10-22T13:30:50Z</time>
</trkpt>
<trkpt lat="38.140354" lon="15.029443">
<ele>116.300000</ele>
<time>2009-10-22T13:30:51Z</time>
</trkpt>
<trkpt lat="38.140248" lon="15.029553">
<ele>119.000000</ele>
<time>2009-10-22T13:30:52Z</time>
</trkpt>
<trkpt lat="38.140138" lon="15.029655">
<ele>121.400000</ele>
<time>2009-10-22T13:30:53Z</time>
</trkpt>
<trkpt lat="38.140026" lon="15.029749">
<ele>122.900000</ele>
<time>2009-10-22T13:30:54Z</time>
</trkpt>
<trkpt lat="38.139920" lon="15.029842">
<ele>120.600000</ele>
<time>2009-10-22T13:30:55Z</time>
</trkpt>
<trkpt lat="38.139834" lon="15.029933">
<ele>119.200000</ele>
<time>2009-10-22T13:30:56Z</time>
</trkpt>
<trkpt lat="38.139762" lon="15.030048">
<ele>120.700000</ele>
<time>2009-10-22T13:30:57Z</time>
</trkpt>
<trkpt lat="38.139703" lon="15.030188">
<ele>119.200000</ele>
<time>2009-10-22T13:30:58Z</time>
</trkpt>
<trkpt lat="38.139656" lon="15.030387">
<ele>120.100000</ele>
<time>2009-10-22T13:30:59Z</time>
</trkpt>
<trkpt lat="38.139632" lon="15.030576">
<ele>120.000000</ele>
<time>2009-10-22T13:31:00Z</time>
</trkpt>
<trkpt lat="38.139592" lon="15.030727">
<ele>118.600000</ele>
<time>2009-10-22T13:31:01Z</time>
</trkpt>
<trkpt lat="38.139523" lon="15.030888">
<ele>119.600000</ele>
<time>2009-10-22T13:31:02Z</time>
</trkpt>
<trkpt lat="38.139454" lon="15.031031">
<ele>119.500000</ele>
<time>2009-10-22T13:31:03Z</time>
</trkpt>
<trkpt lat="38.139404" lon="15.031175">
<ele>119.300000</ele>
<time>2009-10-22T13:31:04Z</time>
</trkpt>
<trkpt lat="38.139370" lon="15.031327">
<ele>118.600000</ele>
<time>2009-10-22T13:31:05Z</time>
</trkpt>
<trkpt lat="38.139344" lon="15.031494">
<ele>118.600000</ele>
<time>2009-10-22T13:31:06Z</time>
</trkpt>
<trkpt lat="38.139319" lon="15.031657">
<ele>120.400000</ele>
<time>2009-10-22T13:31:07Z</time>
</trkpt>
<trkpt lat="38.139325" lon="15.031815">
<ele>122.200000</ele>
<time>2009-10-22T13:31:08Z</time>
</trkpt>
<trkpt lat="38.139346" lon="15.031963">
<ele>124.300000</ele>
<time>2009-10-22T13:31:09Z</time>
</trkpt>
<trkpt lat="38.139336" lon="15.032105">
<ele>125.900000</ele>
<time>2009-10-22T13:31:10Z</time>
</trkpt>
<trkpt lat="38.139315" lon="15.032243">
<ele>127.800000</ele>
<time>2009-10-22T13:31:11Z</time>
</trkpt>
<trkpt lat="38.139263" lon="15.032372">
<ele>129.500000</ele>
<time>2009-10-22T13:31:12Z</time>
</trkpt>
<trkpt lat="38.139201" lon="15.032495">
<ele>132.100000</ele>
<time>2009-10-22T13:31:13Z</time>
</trkpt>
<trkpt lat="38.139123" lon="15.032603">
<ele>133.000000</ele>
<time>2009-10-22T13:31:14Z</time>
</trkpt>
<trkpt lat="38.139017" lon="15.032704">
<ele>134.000000</ele>
<time>2009-10-22T13:31:15Z</time>
</trkpt>
<trkpt lat="38.138903" lon="15.032779">
<ele>135.400000</ele>
<time>2009-10-22T13:31:16Z</time>
</trkpt>
<trkpt lat="38.138810" lon="15.032856">
<ele>136.200000</ele>
<time>2009-10-22T13:31:17Z</time>
</trkpt>
<trkpt lat="38.138716" lon="15.032939">
<ele>137.200000</ele>
<time>2009-10-22T13:31:18Z</time>
</trkpt>
<trkpt lat="38.138616" lon="15.032999">
<ele>138.800000</ele>
<time>2009-10-22T13:31:19Z</time>
</trkpt>
<trkpt lat="38.138510" lon="15.033021">
<ele>139.700000</ele>
<time>2009-10-22T13:31:20Z</time>
</trkpt>
<trkpt lat="38.138389" lon="15.033036">
<ele>140.600000</ele>
<time>2009-10-22T13:31:21Z</time>
</trkpt>
<trkpt lat="38.138270" lon="15.033038">
<ele>141.600000</ele>
<time>2009-10-22T13:31:22Z</time>
</trkpt>
<trkpt lat="38.138150" lon="15.033046">
<ele>142.300000</ele>
<time>2009-10-22T13:31:23Z</time>
</trkpt>
<trkpt lat="38.138032" lon="15.033060">
<ele>142.700000</ele>
<time>2009-10-22T13:31:24Z</time>
</trkpt>
<trkpt lat="38.137909" lon="15.033061">
<ele>143.700000</ele>
<time>2009-10-22T13:31:25Z</time>
</trkpt>
<trkpt lat="38.137776" lon="15.033041">
<ele>144.000000</ele>
<time>2009-10-22T13:31:26Z</time>
</trkpt>
<trkpt lat="38.137655" lon="15.033012">
<ele>143.300000</ele>
<time>2009-10-22T13:31:27Z</time>
</trkpt>
<trkpt lat="38.137530" lon="15.032988">
<ele>144.600000</ele>
<time>2009-10-22T13:31:28Z</time>
</trkpt>
<trkpt lat="38.137424" lon="15.032966">
<ele>144.200000</ele>
<time>2009-10-22T13:31:29Z</time>
</trkpt>
<trkpt lat="38.137317" lon="15.032926">
<ele>143.600000</ele>
<time>2009-10-22T13:31:30Z</time>
</trkpt>
<trkpt lat="38.137218" lon="15.032865">
<ele>142.800000</ele>
<time>2009-10-22T13:31:31Z</time>
</trkpt>
<trkpt lat="38.137133" lon="15.032810">
<ele>141.900000</ele>
<time>2009-10-22T13:31:32Z</time>
</trkpt>
<trkpt lat="38.137028" lon="15.032757">
<ele>141.400000</ele>
<time>2009-10-22T13:31:33Z</time>
</trkpt>
<trkpt lat="38.136925" lon="15.032728">
<ele>141.800000</ele>
<time>2009-10-22T13:31:34Z</time>
</trkpt>
<trkpt lat="38.136811" lon="15.032713">
<ele>144.100000</ele>
<time>2009-10-22T13:31:35Z</time>
</trkpt>
<trkpt lat="38.136699" lon="15.032718">
<ele>146.100000</ele>
<time>2009-10-22T13:31:36Z</time>
</trkpt>
<trkpt lat="38.136596" lon="15.032749">
<ele>146.400000</ele>
<time>2009-10-22T13:31:37Z</time>
</trkpt>
<trkpt lat="38.136491" lon="15.032818">
<ele>145.700000</ele>
<time>2009-10-22T13:31:38Z</time>
</trkpt>
<trkpt lat="38.136393" lon="15.032906">
<ele>144.900000</ele>
<time>2009-10-22T13:31:39Z</time>
</trkpt>
<trkpt lat="38.136291" lon="15.033006">
<ele>142.100000</ele>
<time>2009-10-22T13:31:40Z</time>
</trkpt>
<trkpt lat="38.136195" lon="15.033087">
<ele>141.000000</ele>
<time>2009-10-22T13:31:41Z</time>
</trkpt>
<trkpt lat="38.136095" lon="15.033161">
<ele>141.000000</ele>
<time>2009-10-22T13:31:42Z</time>
</trkpt>
<trkpt lat="38.136005" lon="15.033226">
<ele>139.800000</ele>
<time>2009-10-22T13:31:43Z</time>
</trkpt>
<trkpt lat="38.135918" lon="15.033265">
<ele>139.100000</ele>
<time>2009-10-22T13:31:44Z</time>
</trkpt>
<trkpt lat="38.135857" lon="15.033316">
<ele>138.300000</ele>
<time>2009-10-22T13:31:45Z</time>
</trkpt>
<trkpt lat="38.135803" lon="15.033374">
<ele>135.900000</ele>
<time>2009-10-22T13:31:46Z</time>
</trkpt>
<trkpt lat="38.135765" lon="15.033455">
<ele>135.100000</ele>
<time>2009-10-22T13:31:47Z</time>
</trkpt>
<trkpt lat="38.135766" lon="15.033556">
<ele>136.400000</ele>
<time>2009-10-22T13:31:48Z</time>
</trkpt>
<trkpt lat="38.135797" lon="15.033663">
<ele>137.700000</ele>
<time>2009-10-22T13:31:49Z</time>
</trkpt>
<trkpt lat="38.135874" lon="15.033794">
<ele>140.400000</ele>
<time>2009-10-22T13:31:50Z</time>
</trkpt>
<trkpt lat="38.135895" lon="15.033961">
<ele>142.500000</ele>
<time>2009-10-22T13:31:51Z</time>
</trkpt>
<trkpt lat="38.135919" lon="15.034117">
<ele>143.100000</ele>
<time>2009-10-22T13:31:52Z</time>
</trkpt>
<trkpt lat="38.135872" lon="15.034246">
<ele>143.700000</ele>
<time>2009-10-22T13:31:53Z</time>
</trkpt>
<trkpt lat="38.135813" lon="15.034349">
<ele>149.100000</ele>
<time>2009-10-22T13:31:54Z</time>
</trkpt>
<trkpt lat="38.135810" lon="15.034461">
<ele>151.700000</ele>
<time>2009-10-22T13:31:55Z</time>
</trkpt>
<trkpt lat="38.135794" lon="15.034567">
<ele>152.700000</ele>
<time>2009-10-22T13:31:56Z</time>
</trkpt>
<trkpt lat="38.135816" lon="15.034700">
<ele>151.400000</ele>
<time>2009-10-22T13:31:57Z</time>
</trkpt>
<trkpt lat="38.135857" lon="15.034800">
<ele>154.300000</ele>
<time>2009-10-22T13:31:58Z</time>
</trkpt>
<trkpt lat="38.135936" lon="15.034887">
<ele>156.000000</ele>
<time>2009-10-22T13:31:59Z</time>
</trkpt>
<trkpt lat="38.136052" lon="15.034932">
<ele>158.400000</ele>
<time>2009-10-22T13:32:00Z</time>
</trkpt>
<trkpt lat="38.136196" lon="15.034975">
<ele>160.900000</ele>
<time>2009-10-22T13:32:01Z</time>
</trkpt>
<trkpt lat="38.136347" lon="15.034909">
<ele>162.900000</ele>
<time>2009-10-22T13:32:02Z</time>
</trkpt>
<trkpt lat="38.136463" lon="15.034860">
<ele>164.600000</ele>
<time>2009-10-22T13:32:03Z</time>
</trkpt>
<trkpt lat="38.136591" lon="15.034800">
<ele>166.300000</ele>
<time>2009-10-22T13:32:04Z</time>
</trkpt>
<trkpt lat="38.136712" lon="15.034755">
<ele>167.800000</ele>
<time>2009-10-22T13:32:05Z</time>
</trkpt>
<trkpt lat="38.136832" lon="15.034740">
<ele>169.000000</ele>
<time>2009-10-22T13:32:06Z</time>
</trkpt>
<trkpt lat="38.136955" lon="15.034764">
<ele>170.500000</ele>
<time>2009-10-22T13:32:07Z</time>
</trkpt>
<trkpt lat="38.137061" lon="15.034813">
<ele>171.600000</ele>
<time>2009-10-22T13:32:08Z</time>
</trkpt>
<trkpt lat="38.137167" lon="15.034869">
<ele>172.200000</ele>
<time>2009-10-22T13:32:09Z</time>
</trkpt>
<trkpt lat="38.137255" lon="15.034916">
<ele>173.000000</ele>
<time>2009-10-22T13:32:10Z</time>
</trkpt>
<trkpt lat="38.137324" lon="15.035035">
<ele>176.300000</ele>
<time>2009-10-22T13:32:11Z</time>
</trkpt>
<trkpt lat="38.137398" lon="15.035174">
<ele>178.700000</ele>
<time>2009-10-22T13:32:12Z</time>
</trkpt>
<trkpt lat="38.137414" lon="15.035304">
<ele>180.200000</ele>
<time>2009-10-22T13:32:13Z</time>
</trkpt>
<trkpt lat="38.137411" lon="15.035414">
<ele>179.500000</ele>
<time>2009-10-22T13:32:14Z</time>
</trkpt>
<trkpt lat="38.137417" lon="15.035546">
<ele>179.900000</ele>
<time>2009-10-22T13:32:15Z</time>
</trkpt>
<trkpt lat="38.137406" lon="15.035668">
<ele>178.500000</ele>
<time>2009-10-22T13:32:16Z</time>
</trkpt>
<trkpt lat="38.137429" lon="15.035768">
<ele>176.900000</ele>
<time>2009-10-22T13:32:17Z</time>
</trkpt>
<trkpt lat="38.137472" lon="15.035841">
<ele>177.600000</ele>
<time>2009-10-22T13:32:18Z</time>
</trkpt>
<trkpt lat="38.137602" lon="15.035877">
<ele>179.500000</ele>
<time>2009-10-22T13:32:20Z</time>
</trkpt>
<trkpt lat="38.137714" lon="15.035826">
<ele>178.700000</ele>
<time>2009-10-22T13:32:21Z</time>
</trkpt>
<trkpt lat="38.137837" lon="15.035777">
<ele>179.100000</ele>
<time>2009-10-22T13:32:22Z</time>
</trkpt>
<trkpt lat="38.137938" lon="15.035744">
<ele>180.900000</ele>
<time>2009-10-22T13:32:23Z</time>
</trkpt>
<trkpt lat="38.138045" lon="15.035710">
<ele>182.800000</ele>
<time>2009-10-22T13:32:24Z</time>
</trkpt>
<trkpt lat="38.138154" lon="15.035675">
<ele>184.000000</ele>
<time>2009-10-22T13:32:25Z</time>
</trkpt>
<trkpt lat="38.138253" lon="15.035622">
<ele>183.900000</ele>
<time>2009-10-22T13:32:26Z</time>
</trkpt>
<trkpt lat="38.138376" lon="15.035600">
<ele>183.500000</ele>
<time>2009-10-22T13:32:27Z</time>
</trkpt>
<trkpt lat="38.138501" lon="15.035591">
<ele>183.100000</ele>
<time>2009-10-22T13:32:28Z</time>
</trkpt>
<trkpt lat="38.138620" lon="15.035590">
<ele>183.200000</ele>
<time>2009-10-22T13:32:29Z</time>
</trkpt>
<trkpt lat="38.138722" lon="15.035599">
<ele>183.200000</ele>
<time>2009-10-22T13:32:30Z</time>
</trkpt>
<trkpt lat="38.138801" lon="15.035624">
<ele>183.300000</ele>
<time>2009-10-22T13:32:31Z</time>
</trkpt>
<trkpt lat="38.138865" lon="15.035689">
<ele>183.600000</ele>
<time>2009-10-22T13:32:32Z</time>
</trkpt>
<trkpt lat="38.138889" lon="15.035798">
<ele>184.800000</ele>
<time>2009-10-22T13:32:33Z</time>
</trkpt>
<trkpt lat="38.138843" lon="15.035895">
<ele>185.300000</ele>
<time>2009-10-22T13:32:34Z</time>
</trkpt>
<trkpt lat="38.138772" lon="15.035996">
<ele>183.700000</ele>
<time>2009-10-22T13:32:35Z</time>
</trkpt>
<trkpt lat="38.138690" lon="15.036076">
<ele>183.800000</ele>
<time>2009-10-22T13:32:36Z</time>
</trkpt>
<trkpt lat="38.138623" lon="15.036149">
<ele>183.600000</ele>
<time>2009-10-22T13:32:37Z</time>
</trkpt>
<trkpt lat="38.138546" lon="15.036224">
<ele>183.400000</ele>
<time>2009-10-22T13:32:38Z</time>
</trkpt>
<trkpt lat="38.138470" lon="15.036302">
<ele>185.300000</ele>
<time>2009-10-22T13:32:39Z</time>
</trkpt>
<trkpt lat="38.138392" lon="15.036381">
<ele>186.500000</ele>
<time>2009-10-22T13:32:40Z</time>
</trkpt>
<trkpt lat="38.138320" lon="15.036471">
<ele>187.400000</ele>
<time>2009-10-22T13:32:41Z</time>
</trkpt>
<trkpt lat="38.138264" lon="15.036572">
<ele>187.500000</ele>
<time>2009-10-22T13:32:42Z</time>
</trkpt>
<trkpt lat="38.138222" lon="15.036685">
<ele>188.000000</ele>
<time>2009-10-22T13:32:43Z</time>
</trkpt>
<trkpt lat="38.138202" lon="15.036828">
<ele>187.800000</ele>
<time>2009-10-22T13:32:44Z</time>
</trkpt>
<trkpt lat="38.138176" lon="15.036978">
<ele>187.600000</ele>
<time>2009-10-22T13:32:45Z</time>
</trkpt>
<trkpt lat="38.138124" lon="15.037108">
<ele>187.500000</ele>
<time>2009-10-22T13:32:46Z</time>
</trkpt>
<trkpt lat="38.138059" lon="15.037228">
<ele>187.200000</ele>
<time>2009-10-22T13:32:47Z</time>
</trkpt>
<trkpt lat="38.137959" lon="15.037342">
<ele>187.500000</ele>
<time>2009-10-22T13:32:48Z</time>
</trkpt>
<trkpt lat="38.137890" lon="15.037460">
<ele>189.600000</ele>
<time>2009-10-22T13:32:49Z</time>
</trkpt>
<trkpt lat="38.137793" lon="15.037594">
<ele>190.300000</ele>
<time>2009-10-22T13:32:50Z</time>
</trkpt>
<trkpt lat="38.137721" lon="15.037712">
<ele>191.700000</ele>
<time>2009-10-22T13:32:51Z</time>
</trkpt>
<trkpt lat="38.137663" lon="15.037840">
<ele>194.800000</ele>
<time>2009-10-22T13:32:52Z</time>
</trkpt>
<trkpt lat="38.137604" lon="15.037975">
<ele>194.700000</ele>
<time>2009-10-22T13:32:53Z</time>
</trkpt>
<trkpt lat="38.137549" lon="15.038157">
<ele>195.300000</ele>
<time>2009-10-22T13:32:54Z</time>
</trkpt>
<trkpt lat="38.137510" lon="15.038299">
<ele>196.000000</ele>
<time>2009-10-22T13:32:55Z</time>
</trkpt>
<trkpt lat="38.137483" lon="15.038437">
<ele>196.200000</ele>
<time>2009-10-22T13:32:56Z</time>
</trkpt>
<trkpt lat="38.137490" lon="15.038558">
<ele>196.600000</ele>
<time>2009-10-22T13:32:57Z</time>
</trkpt>
<trkpt lat="38.137529" lon="15.038675">
<ele>196.900000</ele>
<time>2009-10-22T13:32:58Z</time>
</trkpt>
<trkpt lat="38.137621" lon="15.038794">
<ele>197.800000</ele>
<time>2009-10-22T13:32:59Z</time>
</trkpt>
<trkpt lat="38.137722" lon="15.038931">
<ele>198.800000</ele>
<time>2009-10-22T13:33:00Z</time>
</trkpt>
<trkpt lat="38.137785" lon="15.039067">
<ele>200.100000</ele>
<time>2009-10-22T13:33:01Z</time>
</trkpt>
<trkpt lat="38.137834" lon="15.039213">
<ele>201.400000</ele>
<time>2009-10-22T13:33:02Z</time>
</trkpt>
<trkpt lat="38.137875" lon="15.039353">
<ele>200.800000</ele>
<time>2009-10-22T13:33:03Z</time>
</trkpt>
<trkpt lat="38.137917" lon="15.039492">
<ele>200.600000</ele>
<time>2009-10-22T13:33:04Z</time>
</trkpt>
<trkpt lat="38.137955" lon="15.039622">
<ele>200.300000</ele>
<time>2009-10-22T13:33:05Z</time>
</trkpt>
<trkpt lat="38.137994" lon="15.039752">
<ele>199.900000</ele>
<time>2009-10-22T13:33:06Z</time>
</trkpt>
<trkpt lat="38.138028" lon="15.039870">
<ele>199.900000</ele>
<time>2009-10-22T13:33:07Z</time>
</trkpt>
<trkpt lat="38.138056" lon="15.039979">
<ele>199.900000</ele>
<time>2009-10-22T13:33:08Z</time>
</trkpt>
<trkpt lat="38.138054" lon="15.040090">
<ele>198.100000</ele>
<time>2009-10-22T13:33:09Z</time>
</trkpt>
<trkpt lat="38.138036" lon="15.040201">
<ele>197.800000</ele>
<time>2009-10-22T13:33:10Z</time>
</trkpt>
<trkpt lat="38.137992" lon="15.040302">
<ele>197.800000</ele>
<time>2009-10-22T13:33:11Z</time>
</trkpt>
<trkpt lat="38.137943" lon="15.040418">
<ele>196.400000</ele>
<time>2009-10-22T13:33:12Z</time>
</trkpt>
<trkpt lat="38.137898" lon="15.040524">
<ele>196.400000</ele>
<time>2009-10-22T13:33:13Z</time>
</trkpt>
<trkpt lat="38.137851" lon="15.040622">
<ele>197.200000</ele>
<time>2009-10-22T13:33:14Z</time>
</trkpt>
<trkpt lat="38.137796" lon="15.040712">
<ele>195.100000</ele>
<time>2009-10-22T13:33:15Z</time>
</trkpt>
<trkpt lat="38.137742" lon="15.040787">
<ele>195.500000</ele>
<time>2009-10-22T13:33:16Z</time>
</trkpt>
<trkpt lat="38.137668" lon="15.040853">
<ele>195.100000</ele>
<time>2009-10-22T13:33:17Z</time>
</trkpt>
<trkpt lat="38.137622" lon="15.040926">
<ele>194.800000</ele>
<time>2009-10-22T13:33:18Z</time>
</trkpt>
<trkpt lat="38.137558" lon="15.040996">
<ele>195.800000</ele>
<time>2009-10-22T13:33:20Z</time>
</trkpt>
<trkpt lat="38.137519" lon="15.041108">
<ele>197.600000</ele>
<time>2009-10-22T13:33:22Z</time>
</trkpt>
<trkpt lat="38.137539" lon="15.041219">
<ele>198.500000</ele>
<time>2009-10-22T13:33:25Z</time>
</trkpt>
<trkpt lat="38.137597" lon="15.041279">
<ele>204.200000</ele>
<time>2009-10-22T13:33:28Z</time>
</trkpt>
<trkpt lat="38.137664" lon="15.041358">
<ele>205.500000</ele>
<time>2009-10-22T13:33:30Z</time>
</trkpt>
<trkpt lat="38.137750" lon="15.041426">
<ele>204.000000</ele>
<time>2009-10-22T13:33:32Z</time>
</trkpt>
<trkpt lat="38.137850" lon="15.041513">
<ele>202.900000</ele>
<time>2009-10-22T13:33:34Z</time>
</trkpt>
<trkpt lat="38.137908" lon="15.041567">
<ele>202.700000</ele>
<time>2009-10-22T13:33:35Z</time>
</trkpt>
<trkpt lat="38.138013" lon="15.041676">
<ele>201.800000</ele>
<time>2009-10-22T13:33:37Z</time>
</trkpt>
<trkpt lat="38.138111" lon="15.041790">
<ele>200.900000</ele>
<time>2009-10-22T13:33:39Z</time>
</trkpt>
<trkpt lat="38.138177" lon="15.041882">
<ele>199.800000</ele>
<time>2009-10-22T13:33:41Z</time>
</trkpt>
<trkpt lat="38.138210" lon="15.041960">
<ele>199.700000</ele>
<time>2009-10-22T13:33:43Z</time>
</trkpt>
<trkpt lat="38.138214" lon="15.042054">
<ele>198.300000</ele>
<time>2009-10-22T13:33:47Z</time>
</trkpt>
<trkpt lat="38.138206" lon="15.042144">
<ele>195.900000</ele>
<time>2009-10-22T13:33:51Z</time>
</trkpt>
<trkpt lat="38.138191" lon="15.042245">
<ele>194.400000</ele>
<time>2009-10-22T13:33:58Z</time>
</trkpt>
<trkpt lat="38.138164" lon="15.042343">
<ele>193.400000</ele>
<time>2009-10-22T13:34:02Z</time>
</trkpt>
<trkpt lat="38.138187" lon="15.042437">
<ele>193.000000</ele>
<time>2009-10-22T13:34:06Z</time>
</trkpt>
<trkpt lat="38.138252" lon="15.042491">
<ele>194.000000</ele>
<time>2009-10-22T13:34:10Z</time>
</trkpt>
<trkpt lat="38.138331" lon="15.042550">
<ele>195.100000</ele>
<time>2009-10-22T13:34:13Z</time>
</trkpt>
<trkpt lat="38.138388" lon="15.042611">
<ele>196.700000</ele>
<time>2009-10-22T13:34:15Z</time>
</trkpt>
<trkpt lat="38.138444" lon="15.042688">
<ele>197.800000</ele>
<time>2009-10-22T13:34:18Z</time>
</trkpt>
<trkpt lat="38.138523" lon="15.042689">
<ele>202.700000</ele>
<time>2009-10-22T13:34:34Z</time>
</trkpt>
<trkpt lat="38.138567" lon="15.042617">
<ele>202.400000</ele>
<time>2009-10-22T13:34:38Z</time>
</trkpt>
<trkpt lat="38.138577" lon="15.042527">
<ele>201.500000</ele>
<time>2009-10-22T13:35:32Z</time>
</trkpt>
<trkpt lat="38.138547" lon="15.042625">
<ele>201.200000</ele>
<time>2009-10-22T13:35:40Z</time>
</trkpt>
<trkpt lat="38.138577" lon="15.042740">
<ele>200.300000</ele>
<time>2009-10-22T13:35:44Z</time>
</trkpt>
<trkpt lat="38.138600" lon="15.042828">
<ele>199.300000</ele>
<time>2009-10-22T13:35:47Z</time>
</trkpt>
<trkpt lat="38.138657" lon="15.042882">
<ele>200.500000</ele>
<time>2009-10-22T13:35:52Z</time>
</trkpt>
<trkpt lat="38.138732" lon="15.042890">
<ele>201.800000</ele>
<time>2009-10-22T13:35:58Z</time>
</trkpt>
<trkpt lat="38.138732" lon="15.042763">
<ele>203.300000</ele>
<time>2009-10-22T14:58:08Z</time>
</trkpt>
<trkpt lat="38.138697" lon="15.042778">
<ele>108.800000</ele>
<time>2009-10-22T14:58:10Z</time>
</trkpt>
<trkpt lat="38.138737" lon="15.042852">
<ele>168.700000</ele>
<time>2009-10-22T14:58:11Z</time>
</trkpt>
<trkpt lat="38.138755" lon="15.042760">
<ele>174.600000</ele>
<time>2009-10-22T14:58:12Z</time>
</trkpt>
<trkpt lat="38.138712" lon="15.042852">
<ele>160.800000</ele>
<time>2009-10-22T14:58:13Z</time>
</trkpt>
<trkpt lat="38.138647" lon="15.042863">
<ele>173.500000</ele>
<time>2009-10-22T14:58:18Z</time>
</trkpt>
<trkpt lat="38.138702" lon="15.042917">
<ele>210.000000</ele>
<time>2009-10-22T14:59:29Z</time>
</trkpt>
<trkpt lat="38.138767" lon="15.043023">
<ele>252.100000</ele>
<time>2009-10-22T15:03:54Z</time>
</trkpt>
<trkpt lat="38.138683" lon="15.042997">
<ele>252.600000</ele>
<time>2009-10-22T15:03:54Z</time>
</trkpt>
<trkpt lat="38.138667" lon="15.042875">
<ele>196.500000</ele>
<time>2009-10-22T15:03:56Z</time>
</trkpt>
<trkpt lat="38.138769" lon="15.042819">
<ele>220.600000</ele>
<time>2009-10-22T15:04:29Z</time>
</trkpt>
<trkpt lat="38.138757" lon="15.042732">
<ele>220.200000</ele>
<time>2009-10-22T15:04:32Z</time>
</trkpt>
<trkpt lat="38.138695" lon="15.042637">
<ele>223.300000</ele>
<time>2009-10-22T15:04:36Z</time>
</trkpt>
<trkpt lat="38.138650" lon="15.042566">
<ele>225.500000</ele>
<time>2009-10-22T15:04:39Z</time>
</trkpt>
<trkpt lat="38.138666" lon="15.042480">
<ele>225.500000</ele>
<time>2009-10-22T15:04:42Z</time>
</trkpt>
<trkpt lat="38.138707" lon="15.042404">
<ele>224.600000</ele>
<time>2009-10-22T15:04:50Z</time>
</trkpt>
<trkpt lat="38.138646" lon="15.042306">
<ele>224.200000</ele>
<time>2009-10-22T15:04:53Z</time>
</trkpt>
<trkpt lat="38.138575" lon="15.042228">
<ele>223.700000</ele>
<time>2009-10-22T15:04:55Z</time>
</trkpt>
<trkpt lat="38.138482" lon="15.042137">
<ele>223.000000</ele>
<time>2009-10-22T15:04:57Z</time>
</trkpt>
<trkpt lat="38.138416" lon="15.042069">
<ele>222.200000</ele>
<time>2009-10-22T15:04:59Z</time>
</trkpt>
<trkpt lat="38.138344" lon="15.041994">
<ele>221.200000</ele>
<time>2009-10-22T15:05:01Z</time>
</trkpt>
<trkpt lat="38.138283" lon="15.041925">
<ele>220.400000</ele>
<time>2009-10-22T15:05:03Z</time>
</trkpt>
<trkpt lat="38.138228" lon="15.041855">
<ele>220.300000</ele>
<time>2009-10-22T15:05:05Z</time>
</trkpt>
<trkpt lat="38.138173" lon="15.041786">
<ele>221.600000</ele>
<time>2009-10-22T15:05:07Z</time>
</trkpt>
<trkpt lat="38.138117" lon="15.041694">
<ele>223.400000</ele>
<time>2009-10-22T15:05:10Z</time>
</trkpt>
<trkpt lat="38.138038" lon="15.041592">
<ele>223.900000</ele>
<time>2009-10-22T15:05:13Z</time>
</trkpt>
<trkpt lat="38.137971" lon="15.041515">
<ele>224.300000</ele>
<time>2009-10-22T15:05:16Z</time>
</trkpt>
<trkpt lat="38.137919" lon="15.041442">
<ele>226.100000</ele>
<time>2009-10-22T15:05:31Z</time>
</trkpt>
<trkpt lat="38.137837" lon="15.041345">
<ele>233.900000</ele>
<time>2009-10-22T15:05:34Z</time>
</trkpt>
<trkpt lat="38.137782" lon="15.041282">
<ele>238.100000</ele>
<time>2009-10-22T15:05:36Z</time>
</trkpt>
<trkpt lat="38.137725" lon="15.041214">
<ele>237.200000</ele>
<time>2009-10-22T15:05:38Z</time>
</trkpt>
<trkpt lat="38.137661" lon="15.041153">
<ele>235.800000</ele>
<time>2009-10-22T15:05:40Z</time>
</trkpt>
<trkpt lat="38.137620" lon="15.041058">
<ele>232.400000</ele>
<time>2009-10-22T15:05:47Z</time>
</trkpt>
<trkpt lat="38.137667" lon="15.040936">
<ele>231.100000</ele>
<time>2009-10-22T15:05:49Z</time>
</trkpt>
<trkpt lat="38.137740" lon="15.040803">
<ele>229.900000</ele>
<time>2009-10-22T15:05:51Z</time>
</trkpt>
<trkpt lat="38.137784" lon="15.040723">
<ele>229.400000</ele>
<time>2009-10-22T15:05:52Z</time>
</trkpt>
<trkpt lat="38.137826" lon="15.040640">
<ele>228.900000</ele>
<time>2009-10-22T15:05:53Z</time>
</trkpt>
<trkpt lat="38.137886" lon="15.040542">
<ele>229.200000</ele>
<time>2009-10-22T15:05:54Z</time>
</trkpt>
<trkpt lat="38.137937" lon="15.040453">
<ele>228.600000</ele>
<time>2009-10-22T15:05:55Z</time>
</trkpt>
<trkpt lat="38.137991" lon="15.040360">
<ele>228.200000</ele>
<time>2009-10-22T15:05:56Z</time>
</trkpt>
<trkpt lat="38.138039" lon="15.040264">
<ele>227.900000</ele>
<time>2009-10-22T15:05:57Z</time>
</trkpt>
<trkpt lat="38.138081" lon="15.040167">
<ele>227.700000</ele>
<time>2009-10-22T15:05:58Z</time>
</trkpt>
<trkpt lat="38.138113" lon="15.040078">
<ele>227.400000</ele>
<time>2009-10-22T15:05:59Z</time>
</trkpt>
<trkpt lat="38.138130" lon="15.039980">
<ele>227.000000</ele>
<time>2009-10-22T15:06:00Z</time>
</trkpt>
<trkpt lat="38.138130" lon="15.039882">
<ele>226.900000</ele>
<time>2009-10-22T15:06:01Z</time>
</trkpt>
<trkpt lat="38.138113" lon="15.039786">
<ele>226.900000</ele>
<time>2009-10-22T15:06:02Z</time>
</trkpt>
<trkpt lat="38.138080" lon="15.039678">
<ele>226.900000</ele>
<time>2009-10-22T15:06:03Z</time>
</trkpt>
<trkpt lat="38.138051" lon="15.039574">
<ele>226.500000</ele>
<time>2009-10-22T15:06:04Z</time>
</trkpt>
<trkpt lat="38.138020" lon="15.039459">
<ele>225.900000</ele>
<time>2009-10-22T15:06:05Z</time>
</trkpt>
<trkpt lat="38.137990" lon="15.039349">
<ele>225.400000</ele>
<time>2009-10-22T15:06:06Z</time>
</trkpt>
<trkpt lat="38.137958" lon="15.039237">
<ele>224.800000</ele>
<time>2009-10-22T15:06:07Z</time>
</trkpt>
<trkpt lat="38.137925" lon="15.039124">
<ele>224.300000</ele>
<time>2009-10-22T15:06:08Z</time>
</trkpt>
<trkpt lat="38.137890" lon="15.039011">
<ele>223.800000</ele>
<time>2009-10-22T15:06:09Z</time>
</trkpt>
<trkpt lat="38.137854" lon="15.038902">
<ele>223.200000</ele>
<time>2009-10-22T15:06:10Z</time>
</trkpt>
<trkpt lat="38.137813" lon="15.038795">
<ele>222.700000</ele>
<time>2009-10-22T15:06:11Z</time>
</trkpt>
<trkpt lat="38.137768" lon="15.038689">
<ele>222.200000</ele>
<time>2009-10-22T15:06:12Z</time>
</trkpt>
<trkpt lat="38.137721" lon="15.038583">
<ele>221.800000</ele>
<time>2009-10-22T15:06:13Z</time>
</trkpt>
<trkpt lat="38.137680" lon="15.038489">
<ele>221.300000</ele>
<time>2009-10-22T15:06:14Z</time>
</trkpt>
<trkpt lat="38.137647" lon="15.038386">
<ele>220.700000</ele>
<time>2009-10-22T15:06:15Z</time>
</trkpt>
<trkpt lat="38.137634" lon="15.038273">
<ele>220.500000</ele>
<time>2009-10-22T15:06:16Z</time>
</trkpt>
<trkpt lat="38.137644" lon="15.038152">
<ele>221.000000</ele>
<time>2009-10-22T15:06:17Z</time>
</trkpt>
<trkpt lat="38.137677" lon="15.038046">
<ele>220.800000</ele>
<time>2009-10-22T15:06:18Z</time>
</trkpt>
<trkpt lat="38.137725" lon="15.037929">
<ele>220.000000</ele>
<time>2009-10-22T15:06:19Z</time>
</trkpt>
<trkpt lat="38.137769" lon="15.037805">
<ele>219.300000</ele>
<time>2009-10-22T15:06:20Z</time>
</trkpt>
<trkpt lat="38.137818" lon="15.037691">
<ele>218.700000</ele>
<time>2009-10-22T15:06:21Z</time>
</trkpt>
<trkpt lat="38.137877" lon="15.037583">
<ele>218.200000</ele>
<time>2009-10-22T15:06:22Z</time>
</trkpt>
<trkpt lat="38.137938" lon="15.037483">
<ele>217.400000</ele>
<time>2009-10-22T15:06:23Z</time>
</trkpt>
<trkpt lat="38.138003" lon="15.037401">
<ele>216.600000</ele>
<time>2009-10-22T15:06:24Z</time>
</trkpt>
<trkpt lat="38.138065" lon="15.037308">
<ele>215.700000</ele>
<time>2009-10-22T15:06:25Z</time>
</trkpt>
<trkpt lat="38.138123" lon="15.037215">
<ele>214.900000</ele>
<time>2009-10-22T15:06:26Z</time>
</trkpt>
<trkpt lat="38.138182" lon="15.037121">
<ele>213.800000</ele>
<time>2009-10-22T15:06:27Z</time>
</trkpt>
<trkpt lat="38.138239" lon="15.037026">
<ele>212.900000</ele>
<time>2009-10-22T15:06:28Z</time>
</trkpt>
<trkpt lat="38.138281" lon="15.036932">
<ele>212.000000</ele>
<time>2009-10-22T15:06:29Z</time>
</trkpt>
<trkpt lat="38.138314" lon="15.036825">
<ele>211.000000</ele>
<time>2009-10-22T15:06:30Z</time>
</trkpt>
<trkpt lat="38.138339" lon="15.036704">
<ele>210.100000</ele>
<time>2009-10-22T15:06:31Z</time>
</trkpt>
<trkpt lat="38.138366" lon="15.036590">
<ele>209.200000</ele>
<time>2009-10-22T15:06:32Z</time>
</trkpt>
<trkpt lat="38.138397" lon="15.036471">
<ele>208.200000</ele>
<time>2009-10-22T15:06:33Z</time>
</trkpt>
<trkpt lat="38.138447" lon="15.036361">
<ele>207.500000</ele>
<time>2009-10-22T15:06:34Z</time>
</trkpt>
<trkpt lat="38.138515" lon="15.036263">
<ele>206.800000</ele>
<time>2009-10-22T15:06:35Z</time>
</trkpt>
<trkpt lat="38.138593" lon="15.036189">
<ele>205.700000</ele>
<time>2009-10-22T15:06:36Z</time>
</trkpt>
<trkpt lat="38.138666" lon="15.036115">
<ele>204.800000</ele>
<time>2009-10-22T15:06:37Z</time>
</trkpt>
<trkpt lat="38.138734" lon="15.036035">
<ele>203.900000</ele>
<time>2009-10-22T15:06:38Z</time>
</trkpt>
<trkpt lat="38.138791" lon="15.035958">
<ele>203.000000</ele>
<time>2009-10-22T15:06:39Z</time>
</trkpt>
<trkpt lat="38.138846" lon="15.035869">
<ele>202.100000</ele>
<time>2009-10-22T15:06:40Z</time>
</trkpt>
<trkpt lat="38.138877" lon="15.035779">
<ele>201.400000</ele>
<time>2009-10-22T15:06:41Z</time>
</trkpt>
<trkpt lat="38.138890" lon="15.035683">
<ele>200.500000</ele>
<time>2009-10-22T15:06:42Z</time>
</trkpt>
<trkpt lat="38.138799" lon="15.035589">
<ele>198.600000</ele>
<time>2009-10-22T15:06:44Z</time>
</trkpt>
<trkpt lat="38.138699" lon="15.035563">
<ele>197.700000</ele>
<time>2009-10-22T15:06:45Z</time>
</trkpt>
<trkpt lat="38.138580" lon="15.035553">
<ele>196.900000</ele>
<time>2009-10-22T15:06:46Z</time>
</trkpt>
<trkpt lat="38.138477" lon="15.035551">
<ele>196.200000</ele>
<time>2009-10-22T15:06:47Z</time>
</trkpt>
<trkpt lat="38.138372" lon="15.035551">
<ele>195.400000</ele>
<time>2009-10-22T15:06:48Z</time>
</trkpt>
<trkpt lat="38.138272" lon="15.035557">
<ele>194.600000</ele>
<time>2009-10-22T15:06:49Z</time>
</trkpt>
<trkpt lat="38.138163" lon="15.035572">
<ele>193.700000</ele>
<time>2009-10-22T15:06:50Z</time>
</trkpt>
<trkpt lat="38.138062" lon="15.035594">
<ele>192.800000</ele>
<time>2009-10-22T15:06:51Z</time>
</trkpt>
<trkpt lat="38.137961" lon="15.035621">
<ele>192.000000</ele>
<time>2009-10-22T15:06:52Z</time>
</trkpt>
<trkpt lat="38.137862" lon="15.035648">
<ele>191.200000</ele>
<time>2009-10-22T15:06:53Z</time>
</trkpt>
<trkpt lat="38.137763" lon="15.035675">
<ele>190.500000</ele>
<time>2009-10-22T15:06:54Z</time>
</trkpt>
<trkpt lat="38.137674" lon="15.035699">
<ele>189.800000</ele>
<time>2009-10-22T15:06:55Z</time>
</trkpt>
<trkpt lat="38.137580" lon="15.035724">
<ele>189.200000</ele>
<time>2009-10-22T15:06:56Z</time>
</trkpt>
<trkpt lat="38.137509" lon="15.035735">
<ele>188.700000</ele>
<time>2009-10-22T15:06:57Z</time>
</trkpt>
<trkpt lat="38.137430" lon="15.035735">
<ele>187.700000</ele>
<time>2009-10-22T15:06:58Z</time>
</trkpt>
<trkpt lat="38.137363" lon="15.035690">
<ele>186.800000</ele>
<time>2009-10-22T15:06:59Z</time>
</trkpt>
<trkpt lat="38.137315" lon="15.035615">
<ele>185.900000</ele>
<time>2009-10-22T15:07:00Z</time>
</trkpt>
<trkpt lat="38.137290" lon="15.035522">
<ele>185.000000</ele>
<time>2009-10-22T15:07:01Z</time>
</trkpt>
<trkpt lat="38.137271" lon="15.035406">
<ele>184.100000</ele>
<time>2009-10-22T15:07:02Z</time>
</trkpt>
<trkpt lat="38.137271" lon="15.035307">
<ele>183.500000</ele>
<time>2009-10-22T15:07:03Z</time>
</trkpt>
<trkpt lat="38.137278" lon="15.035200">
<ele>183.000000</ele>
<time>2009-10-22T15:07:04Z</time>
</trkpt>
<trkpt lat="38.137280" lon="15.035093">
<ele>182.700000</ele>
<time>2009-10-22T15:07:05Z</time>
</trkpt>
<trkpt lat="38.137265" lon="15.034996">
<ele>182.300000</ele>
<time>2009-10-22T15:07:06Z</time>
</trkpt>
<trkpt lat="38.137162" lon="15.034864">
<ele>181.600000</ele>
<time>2009-10-22T15:07:08Z</time>
</trkpt>
<trkpt lat="38.137064" lon="15.034821">
<ele>181.300000</ele>
<time>2009-10-22T15:07:09Z</time>
</trkpt>
<trkpt lat="38.136940" lon="15.034773">
<ele>180.500000</ele>
<time>2009-10-22T15:07:10Z</time>
</trkpt>
<trkpt lat="38.136840" lon="15.034731">
<ele>180.000000</ele>
<time>2009-10-22T15:07:11Z</time>
</trkpt>
<trkpt lat="38.136737" lon="15.034696">
<ele>179.800000</ele>
<time>2009-10-22T15:07:12Z</time>
</trkpt>
<trkpt lat="38.136634" lon="15.034677">
<ele>179.200000</ele>
<time>2009-10-22T15:07:13Z</time>
</trkpt>
<trkpt lat="38.136532" lon="15.034669">
<ele>178.800000</ele>
<time>2009-10-22T15:07:14Z</time>
</trkpt>
<trkpt lat="38.136417" lon="15.034685">
<ele>178.200000</ele>
<time>2009-10-22T15:07:15Z</time>
</trkpt>
<trkpt lat="38.136342" lon="15.034736">
<ele>177.000000</ele>
<time>2009-10-22T15:07:16Z</time>
</trkpt>
<trkpt lat="38.136249" lon="15.034766">
<ele>176.500000</ele>
<time>2009-10-22T15:07:17Z</time>
</trkpt>
<trkpt lat="38.136152" lon="15.034778">
<ele>175.700000</ele>
<time>2009-10-22T15:07:18Z</time>
</trkpt>
<trkpt lat="38.136069" lon="15.034767">
<ele>175.000000</ele>
<time>2009-10-22T15:07:19Z</time>
</trkpt>
<trkpt lat="38.135969" lon="15.034733">
<ele>174.200000</ele>
<time>2009-10-22T15:07:20Z</time>
</trkpt>
<trkpt lat="38.135886" lon="15.034676">
<ele>173.400000</ele>
<time>2009-10-22T15:07:21Z</time>
</trkpt>
<trkpt lat="38.135825" lon="15.034605">
<ele>172.900000</ele>
<time>2009-10-22T15:07:22Z</time>
</trkpt>
<trkpt lat="38.135782" lon="15.034508">
<ele>172.300000</ele>
<time>2009-10-22T15:07:23Z</time>
</trkpt>
<trkpt lat="38.135769" lon="15.034399">
<ele>171.600000</ele>
<time>2009-10-22T15:07:24Z</time>
</trkpt>
<trkpt lat="38.135782" lon="15.034288">
<ele>170.700000</ele>
<time>2009-10-22T15:07:25Z</time>
</trkpt>
<trkpt lat="38.135825" lon="15.034174">
<ele>169.400000</ele>
<time>2009-10-22T15:07:26Z</time>
</trkpt>
<trkpt lat="38.135907" lon="15.034073">
<ele>168.500000</ele>
<time>2009-10-22T15:07:27Z</time>
</trkpt>
<trkpt lat="38.135981" lon="15.033970">
<ele>167.500000</ele>
<time>2009-10-22T15:07:28Z</time>
</trkpt>
<trkpt lat="38.136028" lon="15.033871">
<ele>166.800000</ele>
<time>2009-10-22T15:07:29Z</time>
</trkpt>
<trkpt lat="38.136043" lon="15.033771">
<ele>165.900000</ele>
<time>2009-10-22T15:07:30Z</time>
</trkpt>
<trkpt lat="38.136037" lon="15.033665">
<ele>165.400000</ele>
<time>2009-10-22T15:07:31Z</time>
</trkpt>
<trkpt lat="38.135974" lon="15.033517">
<ele>163.700000</ele>
<time>2009-10-22T15:07:33Z</time>
</trkpt>
<trkpt lat="38.135963" lon="15.033366">
<ele>162.900000</ele>
<time>2009-10-22T15:07:35Z</time>
</trkpt>
<trkpt lat="38.136057" lon="15.033284">
<ele>161.400000</ele>
<time>2009-10-22T15:07:37Z</time>
</trkpt>
<trkpt lat="38.136157" lon="15.033239">
<ele>160.900000</ele>
<time>2009-10-22T15:07:38Z</time>
</trkpt>
<trkpt lat="38.136261" lon="15.033196">
<ele>160.400000</ele>
<time>2009-10-22T15:07:39Z</time>
</trkpt>
<trkpt lat="38.136358" lon="15.033135">
<ele>160.000000</ele>
<time>2009-10-22T15:07:40Z</time>
</trkpt>
<trkpt lat="38.136457" lon="15.033061">
<ele>159.800000</ele>
<time>2009-10-22T15:07:41Z</time>
</trkpt>
<trkpt lat="38.136565" lon="15.032984">
<ele>160.100000</ele>
<time>2009-10-22T15:07:42Z</time>
</trkpt>
<trkpt lat="38.136666" lon="15.032912">
<ele>160.300000</ele>
<time>2009-10-22T15:07:43Z</time>
</trkpt>
<trkpt lat="38.136768" lon="15.032846">
<ele>160.500000</ele>
<time>2009-10-22T15:07:44Z</time>
</trkpt>
<trkpt lat="38.136865" lon="15.032801">
<ele>160.600000</ele>
<time>2009-10-22T15:07:45Z</time>
</trkpt>
<trkpt lat="38.136980" lon="15.032775">
<ele>160.700000</ele>
<time>2009-10-22T15:07:46Z</time>
</trkpt>
<trkpt lat="38.137087" lon="15.032770">
<ele>160.400000</ele>
<time>2009-10-22T15:07:47Z</time>
</trkpt>
<trkpt lat="38.137187" lon="15.032780">
<ele>159.800000</ele>
<time>2009-10-22T15:07:48Z</time>
</trkpt>
<trkpt lat="38.137284" lon="15.032813">
<ele>159.300000</ele>
<time>2009-10-22T15:07:49Z</time>
</trkpt>
<trkpt lat="38.137373" lon="15.032865">
<ele>158.600000</ele>
<time>2009-10-22T15:07:50Z</time>
</trkpt>
<trkpt lat="38.137458" lon="15.032916">
<ele>158.900000</ele>
<time>2009-10-22T15:07:51Z</time>
</trkpt>
<trkpt lat="38.137548" lon="15.032955">
<ele>158.500000</ele>
<time>2009-10-22T15:07:52Z</time>
</trkpt>
<trkpt lat="38.137652" lon="15.032977">
<ele>158.000000</ele>
<time>2009-10-22T15:07:53Z</time>
</trkpt>
<trkpt lat="38.137750" lon="15.032987">
<ele>157.400000</ele>
<time>2009-10-22T15:07:54Z</time>
</trkpt>
<trkpt lat="38.137850" lon="15.032999">
<ele>156.700000</ele>
<time>2009-10-22T15:07:55Z</time>
</trkpt>
<trkpt lat="38.137950" lon="15.033012">
<ele>156.200000</ele>
<time>2009-10-22T15:07:56Z</time>
</trkpt>
<trkpt lat="38.138050" lon="15.033025">
<ele>155.600000</ele>
<time>2009-10-22T15:07:57Z</time>
</trkpt>
<trkpt lat="38.138150" lon="15.033030">
<ele>155.000000</ele>
<time>2009-10-22T15:07:58Z</time>
</trkpt>
<trkpt lat="38.138251" lon="15.033021">
<ele>154.500000</ele>
<time>2009-10-22T15:07:59Z</time>
</trkpt>
<trkpt lat="38.138352" lon="15.033005">
<ele>154.000000</ele>
<time>2009-10-22T15:08:00Z</time>
</trkpt>
<trkpt lat="38.138452" lon="15.032991">
<ele>153.400000</ele>
<time>2009-10-22T15:08:01Z</time>
</trkpt>
<trkpt lat="38.138550" lon="15.032973">
<ele>152.800000</ele>
<time>2009-10-22T15:08:02Z</time>
</trkpt>
<trkpt lat="38.138639" lon="15.032958">
<ele>152.200000</ele>
<time>2009-10-22T15:08:03Z</time>
</trkpt>
<trkpt lat="38.138730" lon="15.032931">
<ele>151.500000</ele>
<time>2009-10-22T15:08:04Z</time>
</trkpt>
<trkpt lat="38.138823" lon="15.032887">
<ele>152.100000</ele>
<time>2009-10-22T15:08:05Z</time>
</trkpt>
<trkpt lat="38.138904" lon="15.032822">
<ele>152.400000</ele>
<time>2009-10-22T15:08:06Z</time>
</trkpt>
<trkpt lat="38.138983" lon="15.032750">
<ele>152.900000</ele>
<time>2009-10-22T15:08:07Z</time>
</trkpt>
<trkpt lat="38.139071" lon="15.032671">
<ele>152.100000</ele>
<time>2009-10-22T15:08:08Z</time>
</trkpt>
<trkpt lat="38.139155" lon="15.032597">
<ele>152.000000</ele>
<time>2009-10-22T15:08:09Z</time>
</trkpt>
<trkpt lat="38.139237" lon="15.032522">
<ele>151.200000</ele>
<time>2009-10-22T15:08:10Z</time>
</trkpt>
<trkpt lat="38.139297" lon="15.032445">
<ele>150.000000</ele>
<time>2009-10-22T15:08:11Z</time>
</trkpt>
<trkpt lat="38.139357" lon="15.032352">
<ele>149.000000</ele>
<time>2009-10-22T15:08:12Z</time>
</trkpt>
<trkpt lat="38.139414" lon="15.032235">
<ele>147.900000</ele>
<time>2009-10-22T15:08:13Z</time>
</trkpt>
<trkpt lat="38.139457" lon="15.032119">
<ele>147.000000</ele>
<time>2009-10-22T15:08:14Z</time>
</trkpt>
<trkpt lat="38.139480" lon="15.031993">
<ele>146.000000</ele>
<time>2009-10-22T15:08:15Z</time>
</trkpt>
<trkpt lat="38.139494" lon="15.031865">
<ele>145.300000</ele>
<time>2009-10-22T15:08:16Z</time>
</trkpt>
<trkpt lat="38.139506" lon="15.031736">
<ele>144.700000</ele>
<time>2009-10-22T15:08:17Z</time>
</trkpt>
<trkpt lat="38.139510" lon="15.031603">
<ele>144.100000</ele>
<time>2009-10-22T15:08:18Z</time>
</trkpt>
<trkpt lat="38.139518" lon="15.031459">
<ele>143.700000</ele>
<time>2009-10-22T15:08:19Z</time>
</trkpt>
<trkpt lat="38.139530" lon="15.031325">
<ele>143.400000</ele>
<time>2009-10-22T15:08:20Z</time>
</trkpt>
<trkpt lat="38.139555" lon="15.031191">
<ele>143.100000</ele>
<time>2009-10-22T15:08:21Z</time>
</trkpt>
<trkpt lat="38.139585" lon="15.031070">
<ele>142.600000</ele>
<time>2009-10-22T15:08:22Z</time>
</trkpt>
<trkpt lat="38.139630" lon="15.030947">
<ele>142.000000</ele>
<time>2009-10-22T15:08:23Z</time>
</trkpt>
<trkpt lat="38.139689" lon="15.030820">
<ele>141.600000</ele>
<time>2009-10-22T15:08:24Z</time>
</trkpt>
<trkpt lat="38.139744" lon="15.030703">
<ele>141.200000</ele>
<time>2009-10-22T15:08:25Z</time>
</trkpt>
<trkpt lat="38.139789" lon="15.030593">
<ele>140.800000</ele>
<time>2009-10-22T15:08:26Z</time>
</trkpt>
<trkpt lat="38.139829" lon="15.030470">
<ele>140.300000</ele>
<time>2009-10-22T15:08:27Z</time>
</trkpt>
<trkpt lat="38.139862" lon="15.030335">
<ele>139.800000</ele>
<time>2009-10-22T15:08:28Z</time>
</trkpt>
<trkpt lat="38.139894" lon="15.030205">
<ele>139.300000</ele>
<time>2009-10-22T15:08:29Z</time>
</trkpt>
<trkpt lat="38.139929" lon="15.030078">
<ele>138.900000</ele>
<time>2009-10-22T15:08:30Z</time>
</trkpt>
<trkpt lat="38.139976" lon="15.029965">
<ele>138.500000</ele>
<time>2009-10-22T15:08:31Z</time>
</trkpt>
<trkpt lat="38.140037" lon="15.029858">
<ele>138.200000</ele>
<time>2009-10-22T15:08:32Z</time>
</trkpt>
<trkpt lat="38.140110" lon="15.029765">
<ele>137.600000</ele>
<time>2009-10-22T15:08:33Z</time>
</trkpt>
<trkpt lat="38.140191" lon="15.029687">
<ele>137.200000</ele>
<time>2009-10-22T15:08:34Z</time>
</trkpt>
<trkpt lat="38.140269" lon="15.029621">
<ele>136.800000</ele>
<time>2009-10-22T15:08:35Z</time>
</trkpt>
<trkpt lat="38.140350" lon="15.029550">
<ele>136.500000</ele>
<time>2009-10-22T15:08:36Z</time>
</trkpt>
<trkpt lat="38.140439" lon="15.029473">
<ele>136.000000</ele>
<time>2009-10-22T15:08:37Z</time>
</trkpt>
<trkpt lat="38.140521" lon="15.029398">
<ele>135.600000</ele>
<time>2009-10-22T15:08:38Z</time>
</trkpt>
<trkpt lat="38.140602" lon="15.029316">
<ele>135.200000</ele>
<time>2009-10-22T15:08:39Z</time>
</trkpt>
<trkpt lat="38.140681" lon="15.029228">
<ele>134.900000</ele>
<time>2009-10-22T15:08:40Z</time>
</trkpt>
<trkpt lat="38.140755" lon="15.029137">
<ele>134.600000</ele>
<time>2009-10-22T15:08:41Z</time>
</trkpt>
<trkpt lat="38.140827" lon="15.029038">
<ele>134.100000</ele>
<time>2009-10-22T15:08:42Z</time>
</trkpt>
<trkpt lat="38.140886" lon="15.028935">
<ele>133.500000</ele>
<time>2009-10-22T15:08:43Z</time>
</trkpt>
<trkpt lat="38.140955" lon="15.028839">
<ele>133.000000</ele>
<time>2009-10-22T15:08:44Z</time>
</trkpt>
<trkpt lat="38.141041" lon="15.028740">
<ele>132.500000</ele>
<time>2009-10-22T15:08:45Z</time>
</trkpt>
<trkpt lat="38.141128" lon="15.028657">
<ele>132.100000</ele>
<time>2009-10-22T15:08:46Z</time>
</trkpt>
<trkpt lat="38.141209" lon="15.028591">
<ele>131.700000</ele>
<time>2009-10-22T15:08:47Z</time>
</trkpt>
<trkpt lat="38.141301" lon="15.028527">
<ele>131.400000</ele>
<time>2009-10-22T15:08:48Z</time>
</trkpt>
<trkpt lat="38.141392" lon="15.028464">
<ele>131.100000</ele>
<time>2009-10-22T15:08:49Z</time>
</trkpt>
<trkpt lat="38.141482" lon="15.028406">
<ele>130.800000</ele>
<time>2009-10-22T15:08:50Z</time>
</trkpt>
<trkpt lat="38.141564" lon="15.028353">
<ele>130.700000</ele>
<time>2009-10-22T15:08:51Z</time>
</trkpt>
<trkpt lat="38.141656" lon="15.028302">
<ele>130.500000</ele>
<time>2009-10-22T15:08:52Z</time>
</trkpt>
<trkpt lat="38.141746" lon="15.028256">
<ele>130.000000</ele>
<time>2009-10-22T15:08:53Z</time>
</trkpt>
<trkpt lat="38.141839" lon="15.028215">
<ele>129.700000</ele>
<time>2009-10-22T15:08:54Z</time>
</trkpt>
<trkpt lat="38.141933" lon="15.028177">
<ele>129.600000</ele>
<time>2009-10-22T15:08:55Z</time>
</trkpt>
<trkpt lat="38.142020" lon="15.028140">
<ele>129.100000</ele>
<time>2009-10-22T15:08:56Z</time>
</trkpt>
<trkpt lat="38.142098" lon="15.028107">
<ele>128.600000</ele>
<time>2009-10-22T15:08:57Z</time>
</trkpt>
<trkpt lat="38.142184" lon="15.028073">
<ele>128.300000</ele>
<time>2009-10-22T15:08:58Z</time>
</trkpt>
<trkpt lat="38.142268" lon="15.028045">
<ele>127.600000</ele>
<time>2009-10-22T15:08:59Z</time>
</trkpt>
<trkpt lat="38.142353" lon="15.028012">
<ele>127.400000</ele>
<time>2009-10-22T15:09:00Z</time>
</trkpt>
<trkpt lat="38.142430" lon="15.027965">
<ele>127.300000</ele>
<time>2009-10-22T15:09:01Z</time>
</trkpt>
<trkpt lat="38.142499" lon="15.027900">
<ele>127.100000</ele>
<time>2009-10-22T15:09:02Z</time>
</trkpt>
<trkpt lat="38.142558" lon="15.027817">
<ele>127.400000</ele>
<time>2009-10-22T15:09:03Z</time>
</trkpt>
<trkpt lat="38.142600" lon="15.027725">
<ele>127.300000</ele>
<time>2009-10-22T15:09:04Z</time>
</trkpt>
<trkpt lat="38.142629" lon="15.027625">
<ele>126.900000</ele>
<time>2009-10-22T15:09:05Z</time>
</trkpt>
<trkpt lat="38.142647" lon="15.027502">
<ele>126.400000</ele>
<time>2009-10-22T15:09:06Z</time>
</trkpt>
<trkpt lat="38.142664" lon="15.027370">
<ele>125.800000</ele>
<time>2009-10-22T15:09:07Z</time>
</trkpt>
<trkpt lat="38.142676" lon="15.027232">
<ele>125.200000</ele>
<time>2009-10-22T15:09:08Z</time>
</trkpt>
<trkpt lat="38.142692" lon="15.027097">
<ele>124.600000</ele>
<time>2009-10-22T15:09:09Z</time>
</trkpt>
<trkpt lat="38.142708" lon="15.026957">
<ele>124.100000</ele>
<time>2009-10-22T15:09:10Z</time>
</trkpt>
<trkpt lat="38.142723" lon="15.026815">
<ele>123.700000</ele>
<time>2009-10-22T15:09:11Z</time>
</trkpt>
<trkpt lat="38.142746" lon="15.026670">
<ele>123.300000</ele>
<time>2009-10-22T15:09:12Z</time>
</trkpt>
<trkpt lat="38.142766" lon="15.026526">
<ele>122.800000</ele>
<time>2009-10-22T15:09:13Z</time>
</trkpt>
<trkpt lat="38.142792" lon="15.026383">
<ele>122.200000</ele>
<time>2009-10-22T15:09:14Z</time>
</trkpt>
<trkpt lat="38.142829" lon="15.026243">
<ele>121.600000</ele>
<time>2009-10-22T15:09:15Z</time>
</trkpt>
<trkpt lat="38.142866" lon="15.026108">
<ele>121.100000</ele>
<time>2009-10-22T15:09:16Z</time>
</trkpt>
<trkpt lat="38.142902" lon="15.025988">
<ele>120.600000</ele>
<time>2009-10-22T15:09:17Z</time>
</trkpt>
<trkpt lat="38.142938" lon="15.025878">
<ele>120.200000</ele>
<time>2009-10-22T15:09:18Z</time>
</trkpt>
<trkpt lat="38.142977" lon="15.025781">
<ele>119.700000</ele>
<time>2009-10-22T15:09:19Z</time>
</trkpt>
<trkpt lat="38.143038" lon="15.025694">
<ele>119.400000</ele>
<time>2009-10-22T15:09:20Z</time>
</trkpt>
<trkpt lat="38.143098" lon="15.025628">
<ele>119.000000</ele>
<time>2009-10-22T15:09:21Z</time>
</trkpt>
<trkpt lat="38.143161" lon="15.025563">
<ele>118.600000</ele>
<time>2009-10-22T15:09:22Z</time>
</trkpt>
<trkpt lat="38.143206" lon="15.025483">
<ele>118.400000</ele>
<time>2009-10-22T15:09:23Z</time>
</trkpt>
<trkpt lat="38.143230" lon="15.025388">
<ele>118.200000</ele>
<time>2009-10-22T15:09:24Z</time>
</trkpt>
<trkpt lat="38.143243" lon="15.025292">
<ele>117.800000</ele>
<time>2009-10-22T15:09:25Z</time>
</trkpt>
<trkpt lat="38.143246" lon="15.025190">
<ele>117.200000</ele>
<time>2009-10-22T15:09:26Z</time>
</trkpt>
<trkpt lat="38.143247" lon="15.025093">
<ele>116.400000</ele>
<time>2009-10-22T15:09:27Z</time>
</trkpt>
<trkpt lat="38.143226" lon="15.024922">
<ele>115.500000</ele>
<time>2009-10-22T15:09:29Z</time>
</trkpt>
<trkpt lat="38.143191" lon="15.024842">
<ele>115.000000</ele>
<time>2009-10-22T15:09:30Z</time>
</trkpt>
<trkpt lat="38.143136" lon="15.024775">
<ele>114.100000</ele>
<time>2009-10-22T15:09:31Z</time>
</trkpt>
<trkpt lat="38.143044" lon="15.024711">
<ele>113.700000</ele>
<time>2009-10-22T15:09:32Z</time>
</trkpt>
<trkpt lat="38.142959" lon="15.024668">
<ele>113.500000</ele>
<time>2009-10-22T15:09:33Z</time>
</trkpt>
<trkpt lat="38.142860" lon="15.024637">
<ele>113.100000</ele>
<time>2009-10-22T15:09:34Z</time>
</trkpt>
<trkpt lat="38.142765" lon="15.024617">
<ele>112.800000</ele>
<time>2009-10-22T15:09:35Z</time>
</trkpt>
<trkpt lat="38.142658" lon="15.024597">
<ele>112.000000</ele>
<time>2009-10-22T15:09:36Z</time>
</trkpt>
<trkpt lat="38.142549" lon="15.024562">
<ele>111.100000</ele>
<time>2009-10-22T15:09:37Z</time>
</trkpt>
<trkpt lat="38.142454" lon="15.024505">
<ele>110.500000</ele>
<time>2009-10-22T15:09:38Z</time>
</trkpt>
<trkpt lat="38.142356" lon="15.024428">
<ele>110.300000</ele>
<time>2009-10-22T15:09:39Z</time>
</trkpt>
<trkpt lat="38.142285" lon="15.024344">
<ele>110.000000</ele>
<time>2009-10-22T15:09:40Z</time>
</trkpt>
<trkpt lat="38.142219" lon="15.024248">
<ele>109.500000</ele>
<time>2009-10-22T15:09:41Z</time>
</trkpt>
<trkpt lat="38.142151" lon="15.024174">
<ele>109.400000</ele>
<time>2009-10-22T15:09:42Z</time>
</trkpt>
<trkpt lat="38.142069" lon="15.024133">
<ele>109.000000</ele>
<time>2009-10-22T15:09:43Z</time>
</trkpt>
<trkpt lat="38.141977" lon="15.024122">
<ele>108.400000</ele>
<time>2009-10-22T15:09:44Z</time>
</trkpt>
<trkpt lat="38.141875" lon="15.024124">
<ele>108.100000</ele>
<time>2009-10-22T15:09:45Z</time>
</trkpt>
<trkpt lat="38.141780" lon="15.024115">
<ele>107.800000</ele>
<time>2009-10-22T15:09:46Z</time>
</trkpt>
<trkpt lat="38.141685" lon="15.024087">
<ele>107.500000</ele>
<time>2009-10-22T15:09:47Z</time>
</trkpt>
<trkpt lat="38.141598" lon="15.024038">
<ele>107.100000</ele>
<time>2009-10-22T15:09:48Z</time>
</trkpt>
<trkpt lat="38.141519" lon="15.023965">
<ele>106.800000</ele>
<time>2009-10-22T15:09:49Z</time>
</trkpt>
<trkpt lat="38.141445" lon="15.023871">
<ele>106.200000</ele>
<time>2009-10-22T15:09:50Z</time>
</trkpt>
<trkpt lat="38.141379" lon="15.023777">
<ele>105.600000</ele>
<time>2009-10-22T15:09:51Z</time>
</trkpt>
<trkpt lat="38.141314" lon="15.023684">
<ele>104.900000</ele>
<time>2009-10-22T15:09:52Z</time>
</trkpt>
<trkpt lat="38.141253" lon="15.023603">
<ele>104.300000</ele>
<time>2009-10-22T15:09:53Z</time>
</trkpt>
<trkpt lat="38.141171" lon="15.023533">
<ele>104.000000</ele>
<time>2009-10-22T15:09:54Z</time>
</trkpt>
<trkpt lat="38.141079" lon="15.023495">
<ele>103.400000</ele>
<time>2009-10-22T15:09:55Z</time>
</trkpt>
<trkpt lat="38.140985" lon="15.023469">
<ele>103.000000</ele>
<time>2009-10-22T15:09:56Z</time>
</trkpt>
<trkpt lat="38.140881" lon="15.023432">
<ele>102.500000</ele>
<time>2009-10-22T15:09:57Z</time>
</trkpt>
<trkpt lat="38.140791" lon="15.023381">
<ele>102.200000</ele>
<time>2009-10-22T15:09:58Z</time>
</trkpt>
<trkpt lat="38.140709" lon="15.023315">
<ele>101.800000</ele>
<time>2009-10-22T15:09:59Z</time>
</trkpt>
<trkpt lat="38.140632" lon="15.023236">
<ele>101.400000</ele>
<time>2009-10-22T15:10:00Z</time>
</trkpt>
<trkpt lat="38.140562" lon="15.023143">
<ele>101.100000</ele>
<time>2009-10-22T15:10:01Z</time>
</trkpt>
<trkpt lat="38.140505" lon="15.023058">
<ele>100.700000</ele>
<time>2009-10-22T15:10:02Z</time>
</trkpt>
<trkpt lat="38.140437" lon="15.022978">
<ele>100.200000</ele>
<time>2009-10-22T15:10:03Z</time>
</trkpt>
<trkpt lat="38.140351" lon="15.022925">
<ele>99.700000</ele>
<time>2009-10-22T15:10:04Z</time>
</trkpt>
<trkpt lat="38.140255" lon="15.022901">
<ele>99.300000</ele>
<time>2009-10-22T15:10:05Z</time>
</trkpt>
<trkpt lat="38.140146" lon="15.022878">
<ele>98.700000</ele>
<time>2009-10-22T15:10:06Z</time>
</trkpt>
<trkpt lat="38.140032" lon="15.022854">
<ele>98.200000</ele>
<time>2009-10-22T15:10:07Z</time>
</trkpt>
<trkpt lat="38.139925" lon="15.022830">
<ele>97.400000</ele>
<time>2009-10-22T15:10:08Z</time>
</trkpt>
<trkpt lat="38.139824" lon="15.022792">
<ele>96.900000</ele>
<time>2009-10-22T15:10:09Z</time>
</trkpt>
<trkpt lat="38.139740" lon="15.022732">
<ele>96.600000</ele>
<time>2009-10-22T15:10:10Z</time>
</trkpt>
<trkpt lat="38.139665" lon="15.022647">
<ele>96.400000</ele>
<time>2009-10-22T15:10:11Z</time>
</trkpt>
<trkpt lat="38.139597" lon="15.022553">
<ele>96.000000</ele>
<time>2009-10-22T15:10:12Z</time>
</trkpt>
<trkpt lat="38.139537" lon="15.022469">
<ele>95.700000</ele>
<time>2009-10-22T15:10:13Z</time>
</trkpt>
<trkpt lat="38.139456" lon="15.022408">
<ele>95.100000</ele>
<time>2009-10-22T15:10:14Z</time>
</trkpt>
<trkpt lat="38.139364" lon="15.022378">
<ele>94.300000</ele>
<time>2009-10-22T15:10:15Z</time>
</trkpt>
<trkpt lat="38.139269" lon="15.022376">
<ele>93.800000</ele>
<time>2009-10-22T15:10:16Z</time>
</trkpt>
<trkpt lat="38.139175" lon="15.022385">
<ele>93.400000</ele>
<time>2009-10-22T15:10:17Z</time>
</trkpt>
<trkpt lat="38.139082" lon="15.022394">
<ele>93.000000</ele>
<time>2009-10-22T15:10:18Z</time>
</trkpt>
<trkpt lat="38.139011" lon="15.022394">
<ele>92.600000</ele>
<time>2009-10-22T15:10:19Z</time>
</trkpt>
<trkpt lat="38.138932" lon="15.022356">
<ele>92.500000</ele>
<time>2009-10-22T15:10:20Z</time>
</trkpt>
<trkpt lat="38.138861" lon="15.022285">
<ele>92.300000</ele>
<time>2009-10-22T15:10:21Z</time>
</trkpt>
<trkpt lat="38.138806" lon="15.022200">
<ele>92.200000</ele>
<time>2009-10-22T15:10:22Z</time>
</trkpt>
<trkpt lat="38.138749" lon="15.022112">
<ele>91.700000</ele>
<time>2009-10-22T15:10:23Z</time>
</trkpt>
<trkpt lat="38.138681" lon="15.022015">
<ele>91.400000</ele>
<time>2009-10-22T15:10:24Z</time>
</trkpt>
<trkpt lat="38.138604" lon="15.021946">
<ele>91.100000</ele>
<time>2009-10-22T15:10:25Z</time>
</trkpt>
<trkpt lat="38.138524" lon="15.021918">
<ele>91.000000</ele>
<time>2009-10-22T15:10:26Z</time>
</trkpt>
<trkpt lat="38.138438" lon="15.021928">
<ele>90.500000</ele>
<time>2009-10-22T15:10:27Z</time>
</trkpt>
<trkpt lat="38.138366" lon="15.021904">
<ele>90.300000</ele>
<time>2009-10-22T15:10:28Z</time>
</trkpt>
<trkpt lat="38.138300" lon="15.021848">
<ele>89.900000</ele>
<time>2009-10-22T15:10:29Z</time>
</trkpt>
<trkpt lat="38.138254" lon="15.021766">
<ele>89.200000</ele>
<time>2009-10-22T15:10:30Z</time>
</trkpt>
<trkpt lat="38.138221" lon="15.021659">
<ele>88.500000</ele>
<time>2009-10-22T15:10:31Z</time>
</trkpt>
<trkpt lat="38.138233" lon="15.021525">
<ele>87.900000</ele>
<time>2009-10-22T15:10:32Z</time>
</trkpt>
<trkpt lat="38.138280" lon="15.021399">
<ele>87.300000</ele>
<time>2009-10-22T15:10:33Z</time>
</trkpt>
<trkpt lat="38.138350" lon="15.021270">
<ele>88.000000</ele>
<time>2009-10-22T15:10:34Z</time>
</trkpt>
<trkpt lat="38.138416" lon="15.021140">
<ele>88.300000</ele>
<time>2009-10-22T15:10:35Z</time>
</trkpt>
<trkpt lat="38.138473" lon="15.021014">
<ele>88.500000</ele>
<time>2009-10-22T15:10:36Z</time>
</trkpt>
<trkpt lat="38.138530" lon="15.020886">
<ele>88.500000</ele>
<time>2009-10-22T15:10:37Z</time>
</trkpt>
<trkpt lat="38.138589" lon="15.020760">
<ele>88.300000</ele>
<time>2009-10-22T15:10:38Z</time>
</trkpt>
<trkpt lat="38.138651" lon="15.020637">
<ele>88.200000</ele>
<time>2009-10-22T15:10:39Z</time>
</trkpt>
<trkpt lat="38.138713" lon="15.020514">
<ele>88.100000</ele>
<time>2009-10-22T15:10:40Z</time>
</trkpt>
<trkpt lat="38.138774" lon="15.020393">
<ele>87.900000</ele>
<time>2009-10-22T15:10:41Z</time>
</trkpt>
<trkpt lat="38.138836" lon="15.020271">
<ele>87.700000</ele>
<time>2009-10-22T15:10:42Z</time>
</trkpt>
<trkpt lat="38.138897" lon="15.020148">
<ele>87.500000</ele>
<time>2009-10-22T15:10:43Z</time>
</trkpt>
<trkpt lat="38.138954" lon="15.020024">
<ele>87.300000</ele>
<time>2009-10-22T15:10:44Z</time>
</trkpt>
<trkpt lat="38.139012" lon="15.019902">
<ele>87.100000</ele>
<time>2009-10-22T15:10:45Z</time>
</trkpt>
<trkpt lat="38.139073" lon="15.019785">
<ele>87.000000</ele>
<time>2009-10-22T15:10:46Z</time>
</trkpt>
<trkpt lat="38.139131" lon="15.019686">
<ele>86.700000</ele>
<time>2009-10-22T15:10:47Z</time>
</trkpt>
<trkpt lat="38.139212" lon="15.019591">
<ele>86.800000</ele>
<time>2009-10-22T15:10:48Z</time>
</trkpt>
<trkpt lat="38.139297" lon="15.019507">
<ele>86.800000</ele>
<time>2009-10-22T15:10:49Z</time>
</trkpt>
<trkpt lat="38.139383" lon="15.019432">
<ele>86.600000</ele>
<time>2009-10-22T15:10:50Z</time>
</trkpt>
<trkpt lat="38.139471" lon="15.019356">
<ele>86.500000</ele>
<time>2009-10-22T15:10:51Z</time>
</trkpt>
<trkpt lat="38.139572" lon="15.019276">
<ele>86.400000</ele>
<time>2009-10-22T15:10:52Z</time>
</trkpt>
<trkpt lat="38.139664" lon="15.019199">
<ele>86.300000</ele>
<time>2009-10-22T15:10:53Z</time>
</trkpt>
<trkpt lat="38.139757" lon="15.019122">
<ele>86.300000</ele>
<time>2009-10-22T15:10:54Z</time>
</trkpt>
<trkpt lat="38.139851" lon="15.019046">
<ele>86.200000</ele>
<time>2009-10-22T15:10:55Z</time>
</trkpt>
<trkpt lat="38.139943" lon="15.018971">
<ele>86.300000</ele>
<time>2009-10-22T15:10:56Z</time>
</trkpt>
<trkpt lat="38.140032" lon="15.018896">
<ele>86.400000</ele>
<time>2009-10-22T15:10:57Z</time>
</trkpt>
<trkpt lat="38.140112" lon="15.018824">
<ele>86.500000</ele>
<time>2009-10-22T15:10:58Z</time>
</trkpt>
<trkpt lat="38.140197" lon="15.018745">
<ele>86.600000</ele>
<time>2009-10-22T15:10:59Z</time>
</trkpt>
<trkpt lat="38.140274" lon="15.018661">
<ele>86.600000</ele>
<time>2009-10-22T15:11:00Z</time>
</trkpt>
<trkpt lat="38.140346" lon="15.018572">
<ele>86.600000</ele>
<time>2009-10-22T15:11:01Z</time>
</trkpt>
<trkpt lat="38.140414" lon="15.018481">
<ele>86.500000</ele>
<time>2009-10-22T15:11:02Z</time>
</trkpt>
<trkpt lat="38.140486" lon="15.018390">
<ele>86.300000</ele>
<time>2009-10-22T15:11:03Z</time>
</trkpt>
<trkpt lat="38.140569" lon="15.018303">
<ele>86.400000</ele>
<time>2009-10-22T15:11:04Z</time>
</trkpt>
<trkpt lat="38.140646" lon="15.018215">
<ele>86.200000</ele>
<time>2009-10-22T15:11:05Z</time>
</trkpt>
<trkpt lat="38.140716" lon="15.018128">
<ele>85.900000</ele>
<time>2009-10-22T15:11:06Z</time>
</trkpt>
<trkpt lat="38.140776" lon="15.018050">
<ele>85.400000</ele>
<time>2009-10-22T15:11:07Z</time>
</trkpt>
<trkpt lat="38.140833" lon="15.017960">
<ele>84.500000</ele>
<time>2009-10-22T15:11:08Z</time>
</trkpt>
<trkpt lat="38.140889" lon="15.017864">
<ele>84.000000</ele>
<time>2009-10-22T15:11:09Z</time>
</trkpt>
<trkpt lat="38.140929" lon="15.017756">
<ele>83.200000</ele>
<time>2009-10-22T15:11:10Z</time>
</trkpt>
<trkpt lat="38.140958" lon="15.017642">
<ele>82.500000</ele>
<time>2009-10-22T15:11:11Z</time>
</trkpt>
<trkpt lat="38.140986" lon="15.017514">
<ele>81.700000</ele>
<time>2009-10-22T15:11:12Z</time>
</trkpt>
<trkpt lat="38.141009" lon="15.017391">
<ele>81.000000</ele>
<time>2009-10-22T15:11:13Z</time>
</trkpt>
<trkpt lat="38.141034" lon="15.017268">
<ele>80.300000</ele>
<time>2009-10-22T15:11:14Z</time>
</trkpt>
<trkpt lat="38.141058" lon="15.017141">
<ele>79.500000</ele>
<time>2009-10-22T15:11:15Z</time>
</trkpt>
<trkpt lat="38.141082" lon="15.017014">
<ele>78.700000</ele>
<time>2009-10-22T15:11:16Z</time>
</trkpt>
<trkpt lat="38.141102" lon="15.016885">
<ele>78.000000</ele>
<time>2009-10-22T15:11:17Z</time>
</trkpt>
<trkpt lat="38.141119" lon="15.016755">
<ele>77.200000</ele>
<time>2009-10-22T15:11:18Z</time>
</trkpt>
<trkpt lat="38.141144" lon="15.016627">
<ele>76.400000</ele>
<time>2009-10-22T15:11:19Z</time>
</trkpt>
<trkpt lat="38.141183" lon="15.016504">
<ele>75.700000</ele>
<time>2009-10-22T15:11:20Z</time>
</trkpt>
<trkpt lat="38.141224" lon="15.016385">
<ele>74.900000</ele>
<time>2009-10-22T15:11:21Z</time>
</trkpt>
<trkpt lat="38.141276" lon="15.016286">
<ele>74.100000</ele>
<time>2009-10-22T15:11:22Z</time>
</trkpt>
<trkpt lat="38.141344" lon="15.016193">
<ele>73.300000</ele>
<time>2009-10-22T15:11:23Z</time>
</trkpt>
<trkpt lat="38.141407" lon="15.016100">
<ele>72.400000</ele>
<time>2009-10-22T15:11:24Z</time>
</trkpt>
<trkpt lat="38.141471" lon="15.016012">
<ele>71.400000</ele>
<time>2009-10-22T15:11:25Z</time>
</trkpt>
<trkpt lat="38.141534" lon="15.015920">
<ele>70.500000</ele>
<time>2009-10-22T15:11:26Z</time>
</trkpt>
<trkpt lat="38.141596" lon="15.015830">
<ele>69.500000</ele>
<time>2009-10-22T15:11:27Z</time>
</trkpt>
<trkpt lat="38.141656" lon="15.015744">
<ele>68.600000</ele>
<time>2009-10-22T15:11:28Z</time>
</trkpt>
<trkpt lat="38.141700" lon="15.015680">
<ele>67.800000</ele>
<time>2009-10-22T15:11:29Z</time>
</trkpt>
<trkpt lat="38.141757" lon="15.015551">
<ele>66.600000</ele>
<time>2009-10-22T15:11:31Z</time>
</trkpt>
<trkpt lat="38.141762" lon="15.015368">
<ele>65.300000</ele>
<time>2009-10-22T15:11:33Z</time>
</trkpt>
<trkpt lat="38.141761" lon="15.015254">
<ele>64.700000</ele>
<time>2009-10-22T15:11:34Z</time>
</trkpt>
<trkpt lat="38.141757" lon="15.015125">
<ele>64.200000</ele>
<time>2009-10-22T15:11:35Z</time>
</trkpt>
<trkpt lat="38.141753" lon="15.014988">
<ele>63.900000</ele>
<time>2009-10-22T15:11:36Z</time>
</trkpt>
<trkpt lat="38.141748" lon="15.014844">
<ele>63.600000</ele>
<time>2009-10-22T15:11:37Z</time>
</trkpt>
<trkpt lat="38.141745" lon="15.014704">
<ele>63.100000</ele>
<time>2009-10-22T15:11:38Z</time>
</trkpt>
<trkpt lat="38.141742" lon="15.014562">
<ele>62.600000</ele>
<time>2009-10-22T15:11:39Z</time>
</trkpt>
<trkpt lat="38.141738" lon="15.014420">
<ele>62.200000</ele>
<time>2009-10-22T15:11:40Z</time>
</trkpt>
<trkpt lat="38.141736" lon="15.014275">
<ele>61.900000</ele>
<time>2009-10-22T15:11:41Z</time>
</trkpt>
<trkpt lat="38.141738" lon="15.014135">
<ele>61.600000</ele>
<time>2009-10-22T15:11:42Z</time>
</trkpt>
<trkpt lat="38.141742" lon="15.014025">
<ele>61.400000</ele>
<time>2009-10-22T15:11:43Z</time>
</trkpt>
<trkpt lat="38.141746" lon="15.013921">
<ele>61.000000</ele>
<time>2009-10-22T15:11:44Z</time>
</trkpt>
<trkpt lat="38.141756" lon="15.013825">
<ele>60.800000</ele>
<time>2009-10-22T15:11:45Z</time>
</trkpt>
<trkpt lat="38.141782" lon="15.013727">
<ele>60.500000</ele>
<time>2009-10-22T15:11:46Z</time>
</trkpt>
<trkpt lat="38.141839" lon="15.013620">
<ele>60.000000</ele>
<time>2009-10-22T15:11:47Z</time>
</trkpt>
<trkpt lat="38.141916" lon="15.013518">
<ele>59.800000</ele>
<time>2009-10-22T15:11:48Z</time>
</trkpt>
<trkpt lat="38.141981" lon="15.013421">
<ele>59.400000</ele>
<time>2009-10-22T15:11:49Z</time>
</trkpt>
<trkpt lat="38.142029" lon="15.013317">
<ele>59.200000</ele>
<time>2009-10-22T15:11:50Z</time>
</trkpt>
<trkpt lat="38.142078" lon="15.013215">
<ele>59.000000</ele>
<time>2009-10-22T15:11:51Z</time>
</trkpt>
<trkpt lat="38.142084" lon="15.013107">
<ele>58.800000</ele>
<time>2009-10-22T15:11:52Z</time>
</trkpt>
<trkpt lat="38.142059" lon="15.012988">
<ele>58.300000</ele>
<time>2009-10-22T15:11:53Z</time>
</trkpt>
<trkpt lat="38.141988" lon="15.012862">
<ele>57.800000</ele>
<time>2009-10-22T15:11:54Z</time>
</trkpt>
<trkpt lat="38.141919" lon="15.012719">
<ele>57.400000</ele>
<time>2009-10-22T15:11:55Z</time>
</trkpt>
<trkpt lat="38.141868" lon="15.012588">
<ele>57.100000</ele>
<time>2009-10-22T15:11:56Z</time>
</trkpt>
<trkpt lat="38.141823" lon="15.012454">
<ele>56.700000</ele>
<time>2009-10-22T15:11:57Z</time>
</trkpt>
<trkpt lat="38.141786" lon="15.012319">
<ele>56.300000</ele>
<time>2009-10-22T15:11:58Z</time>
</trkpt>
<trkpt lat="38.141762" lon="15.012178">
<ele>56.000000</ele>
<time>2009-10-22T15:11:59Z</time>
</trkpt>
<trkpt lat="38.141749" lon="15.012031">
<ele>55.900000</ele>
<time>2009-10-22T15:12:00Z</time>
</trkpt>
<trkpt lat="38.141732" lon="15.011879">
<ele>56.200000</ele>
<time>2009-10-22T15:12:01Z</time>
</trkpt>
<trkpt lat="38.141705" lon="15.011739">
<ele>56.200000</ele>
<time>2009-10-22T15:12:02Z</time>
</trkpt>
<trkpt lat="38.141673" lon="15.011601">
<ele>56.300000</ele>
<time>2009-10-22T15:12:03Z</time>
</trkpt>
<trkpt lat="38.141641" lon="15.011465">
<ele>56.400000</ele>
<time>2009-10-22T15:12:04Z</time>
</trkpt>
<trkpt lat="38.141599" lon="15.011338">
<ele>56.300000</ele>
<time>2009-10-22T15:12:05Z</time>
</trkpt>
<trkpt lat="38.141549" lon="15.011211">
<ele>56.100000</ele>
<time>2009-10-22T15:12:06Z</time>
</trkpt>
<trkpt lat="38.141499" lon="15.011078">
<ele>55.700000</ele>
<time>2009-10-22T15:12:07Z</time>
</trkpt>
<trkpt lat="38.141443" lon="15.010934">
<ele>55.300000</ele>
<time>2009-10-22T15:12:08Z</time>
</trkpt>
<trkpt lat="38.141396" lon="15.010791">
<ele>55.100000</ele>
<time>2009-10-22T15:12:09Z</time>
</trkpt>
<trkpt lat="38.141349" lon="15.010649">
<ele>54.800000</ele>
<time>2009-10-22T15:12:10Z</time>
</trkpt>
<trkpt lat="38.141303" lon="15.010509">
<ele>54.600000</ele>
<time>2009-10-22T15:12:11Z</time>
</trkpt>
<trkpt lat="38.141259" lon="15.010369">
<ele>54.400000</ele>
<time>2009-10-22T15:12:12Z</time>
</trkpt>
<trkpt lat="38.141213" lon="15.010232">
<ele>54.200000</ele>
<time>2009-10-22T15:12:13Z</time>
</trkpt>
<trkpt lat="38.141172" lon="15.010104">
<ele>53.900000</ele>
<time>2009-10-22T15:12:14Z</time>
</trkpt>
<trkpt lat="38.141128" lon="15.009971">
<ele>53.700000</ele>
<time>2009-10-22T15:12:15Z</time>
</trkpt>
<trkpt lat="38.141086" lon="15.009840">
<ele>53.400000</ele>
<time>2009-10-22T15:12:16Z</time>
</trkpt>
<trkpt lat="38.141045" lon="15.009714">
<ele>53.100000</ele>
<time>2009-10-22T15:12:17Z</time>
</trkpt>
<trkpt lat="38.141016" lon="15.009599">
<ele>52.900000</ele>
<time>2009-10-22T15:12:18Z</time>
</trkpt>
<trkpt lat="38.140995" lon="15.009476">
<ele>52.600000</ele>
<time>2009-10-22T15:12:19Z</time>
</trkpt>
<trkpt lat="38.140990" lon="15.009363">
<ele>52.400000</ele>
<time>2009-10-22T15:12:20Z</time>
</trkpt>
<trkpt lat="38.140977" lon="15.009231">
<ele>53.500000</ele>
<time>2009-10-22T15:12:21Z</time>
</trkpt>
<trkpt lat="38.140958" lon="15.009123">
<ele>54.200000</ele>
<time>2009-10-22T15:12:22Z</time>
</trkpt>
<trkpt lat="38.140919" lon="15.009036">
<ele>54.500000</ele>
<time>2009-10-22T15:12:23Z</time>
</trkpt>
<trkpt lat="38.140832" lon="15.008973">
<ele>54.900000</ele>
<time>2009-10-22T15:12:24Z</time>
</trkpt>
<trkpt lat="38.140725" lon="15.008954">
<ele>54.400000</ele>
<time>2009-10-22T15:12:25Z</time>
</trkpt>
<trkpt lat="38.140604" lon="15.008950">
<ele>54.300000</ele>
<time>2009-10-22T15:12:26Z</time>
</trkpt>
<trkpt lat="38.140498" lon="15.008955">
<ele>54.000000</ele>
<time>2009-10-22T15:12:27Z</time>
</trkpt>
<trkpt lat="38.140380" lon="15.008965">
<ele>54.100000</ele>
<time>2009-10-22T15:12:28Z</time>
</trkpt>
<trkpt lat="38.140284" lon="15.008978">
<ele>53.700000</ele>
<time>2009-10-22T15:12:29Z</time>
</trkpt>
<trkpt lat="38.140181" lon="15.008977">
<ele>53.600000</ele>
<time>2009-10-22T15:12:30Z</time>
</trkpt>
<trkpt lat="38.140095" lon="15.008953">
<ele>53.500000</ele>
<time>2009-10-22T15:12:31Z</time>
</trkpt>
<trkpt lat="38.140005" lon="15.008906">
<ele>53.400000</ele>
<time>2009-10-22T15:12:32Z</time>
</trkpt>
<trkpt lat="38.139911" lon="15.008843">
<ele>53.300000</ele>
<time>2009-10-22T15:12:33Z</time>
</trkpt>
<trkpt lat="38.139811" lon="15.008776">
<ele>53.300000</ele>
<time>2009-10-22T15:12:34Z</time>
</trkpt>
<trkpt lat="38.139715" lon="15.008713">
<ele>53.200000</ele>
<time>2009-10-22T15:12:35Z</time>
</trkpt>
<trkpt lat="38.139618" lon="15.008650">
<ele>53.100000</ele>
<time>2009-10-22T15:12:36Z</time>
</trkpt>
<trkpt lat="38.139518" lon="15.008586">
<ele>53.200000</ele>
<time>2009-10-22T15:12:37Z</time>
</trkpt>
<trkpt lat="38.139418" lon="15.008525">
<ele>53.200000</ele>
<time>2009-10-22T15:12:38Z</time>
</trkpt>
<trkpt lat="38.139319" lon="15.008465">
<ele>53.200000</ele>
<time>2009-10-22T15:12:39Z</time>
</trkpt>
<trkpt lat="38.139223" lon="15.008405">
<ele>53.300000</ele>
<time>2009-10-22T15:12:40Z</time>
</trkpt>
<trkpt lat="38.139128" lon="15.008344">
<ele>53.300000</ele>
<time>2009-10-22T15:12:41Z</time>
</trkpt>
<trkpt lat="38.139044" lon="15.008286">
<ele>53.300000</ele>
<time>2009-10-22T15:12:42Z</time>
</trkpt>
<trkpt lat="38.138962" lon="15.008211">
<ele>53.400000</ele>
<time>2009-10-22T15:12:43Z</time>
</trkpt>
<trkpt lat="38.138901" lon="15.008129">
<ele>53.700000</ele>
<time>2009-10-22T15:12:44Z</time>
</trkpt>
<trkpt lat="38.138856" lon="15.008040">
<ele>53.800000</ele>
<time>2009-10-22T15:12:45Z</time>
</trkpt>
<trkpt lat="38.138828" lon="15.007955">
<ele>54.100000</ele>
<time>2009-10-22T15:12:46Z</time>
</trkpt>
<trkpt lat="38.138810" lon="15.007857">
<ele>54.200000</ele>
<time>2009-10-22T15:12:47Z</time>
</trkpt>
<trkpt lat="38.138787" lon="15.007766">
<ele>54.400000</ele>
<time>2009-10-22T15:12:48Z</time>
</trkpt>
<trkpt lat="38.138763" lon="15.007674">
<ele>54.400000</ele>
<time>2009-10-22T15:12:49Z</time>
</trkpt>
<trkpt lat="38.138738" lon="15.007582">
<ele>54.600000</ele>
<time>2009-10-22T15:12:50Z</time>
</trkpt>
<trkpt lat="38.138710" lon="15.007488">
<ele>54.800000</ele>
<time>2009-10-22T15:12:51Z</time>
</trkpt>
<trkpt lat="38.138684" lon="15.007393">
<ele>55.100000</ele>
<time>2009-10-22T15:12:52Z</time>
</trkpt>
<trkpt lat="38.138654" lon="15.007298">
<ele>55.500000</ele>
<time>2009-10-22T15:12:53Z</time>
</trkpt>
<trkpt lat="38.138627" lon="15.007192">
<ele>56.500000</ele>
<time>2009-10-22T15:12:54Z</time>
</trkpt>
<trkpt lat="38.138598" lon="15.007093">
<ele>56.700000</ele>
<time>2009-10-22T15:12:55Z</time>
</trkpt>
<trkpt lat="38.138569" lon="15.006990">
<ele>57.100000</ele>
<time>2009-10-22T15:12:56Z</time>
</trkpt>
<trkpt lat="38.138542" lon="15.006886">
<ele>57.100000</ele>
<time>2009-10-22T15:12:57Z</time>
</trkpt>
<trkpt lat="38.138510" lon="15.006781">
<ele>56.600000</ele>
<time>2009-10-22T15:12:58Z</time>
</trkpt>
<trkpt lat="38.138483" lon="15.006675">
<ele>56.400000</ele>
<time>2009-10-22T15:12:59Z</time>
</trkpt>
<trkpt lat="38.138450" lon="15.006571">
<ele>56.100000</ele>
<time>2009-10-22T15:13:00Z</time>
</trkpt>
<trkpt lat="38.138418" lon="15.006468">
<ele>55.400000</ele>
<time>2009-10-22T15:13:01Z</time>
</trkpt>
<trkpt lat="38.138389" lon="15.006366">
<ele>54.900000</ele>
<time>2009-10-22T15:13:02Z</time>
</trkpt>
<trkpt lat="38.138363" lon="15.006276">
<ele>54.300000</ele>
<time>2009-10-22T15:13:03Z</time>
</trkpt>
<trkpt lat="38.138348" lon="15.006172">
<ele>52.900000</ele>
<time>2009-10-22T15:13:04Z</time>
</trkpt>
<trkpt lat="38.138371" lon="15.006048">
<ele>51.600000</ele>
<time>2009-10-22T15:13:05Z</time>
</trkpt>
<trkpt lat="38.138409" lon="15.005948">
<ele>51.600000</ele>
<time>2009-10-22T15:13:06Z</time>
</trkpt>
<trkpt lat="38.138459" lon="15.005871">
<ele>50.100000</ele>
<time>2009-10-22T15:13:07Z</time>
</trkpt>
<trkpt lat="38.138567" lon="15.005817">
<ele>49.500000</ele>
<time>2009-10-22T15:13:08Z</time>
</trkpt>
<trkpt lat="38.138695" lon="15.005757">
<ele>50.700000</ele>
<time>2009-10-22T15:13:09Z</time>
</trkpt>
<trkpt lat="38.138785" lon="15.005685">
<ele>50.300000</ele>
<time>2009-10-22T15:13:10Z</time>
</trkpt>
<trkpt lat="38.138875" lon="15.005617">
<ele>50.400000</ele>
<time>2009-10-22T15:13:11Z</time>
</trkpt>
<trkpt lat="38.138952" lon="15.005557">
<ele>50.400000</ele>
<time>2009-10-22T15:13:12Z</time>
</trkpt>
<trkpt lat="38.139027" lon="15.005494">
<ele>50.700000</ele>
<time>2009-10-22T15:13:13Z</time>
</trkpt>
<trkpt lat="38.139094" lon="15.005439">
<ele>50.600000</ele>
<time>2009-10-22T15:13:14Z</time>
</trkpt>
<trkpt lat="38.139175" lon="15.005373">
<ele>50.500000</ele>
<time>2009-10-22T15:13:15Z</time>
</trkpt>
<trkpt lat="38.139247" lon="15.005310">
<ele>50.400000</ele>
<time>2009-10-22T15:13:16Z</time>
</trkpt>
<trkpt lat="38.139303" lon="15.005242">
<ele>50.100000</ele>
<time>2009-10-22T15:13:17Z</time>
</trkpt>
<trkpt lat="38.139352" lon="15.005157">
<ele>49.600000</ele>
<time>2009-10-22T15:13:18Z</time>
</trkpt>
<trkpt lat="38.139384" lon="15.005051">
<ele>49.200000</ele>
<time>2009-10-22T15:13:19Z</time>
</trkpt>
<trkpt lat="38.139396" lon="15.004940">
<ele>48.800000</ele>
<time>2009-10-22T15:13:20Z</time>
</trkpt>
<trkpt lat="38.139399" lon="15.004811">
<ele>48.300000</ele>
<time>2009-10-22T15:13:21Z</time>
</trkpt>
<trkpt lat="38.139404" lon="15.004689">
<ele>47.900000</ele>
<time>2009-10-22T15:13:22Z</time>
</trkpt>
<trkpt lat="38.139399" lon="15.004562">
<ele>47.700000</ele>
<time>2009-10-22T15:13:23Z</time>
</trkpt>
<trkpt lat="38.139386" lon="15.004438">
<ele>47.400000</ele>
<time>2009-10-22T15:13:24Z</time>
</trkpt>
<trkpt lat="38.139359" lon="15.004323">
<ele>47.100000</ele>
<time>2009-10-22T15:13:25Z</time>
</trkpt>
<trkpt lat="38.139316" lon="15.004197">
<ele>46.800000</ele>
<time>2009-10-22T15:13:26Z</time>
</trkpt>
<trkpt lat="38.139271" lon="15.004072">
<ele>46.400000</ele>
<time>2009-10-22T15:13:27Z</time>
</trkpt>
<trkpt lat="38.139224" lon="15.003934">
<ele>45.500000</ele>
<time>2009-10-22T15:13:28Z</time>
</trkpt>
<trkpt lat="38.139182" lon="15.003807">
<ele>44.900000</ele>
<time>2009-10-22T15:13:29Z</time>
</trkpt>
<trkpt lat="38.139143" lon="15.003691">
<ele>44.600000</ele>
<time>2009-10-22T15:13:30Z</time>
</trkpt>
<trkpt lat="38.139097" lon="15.003573">
<ele>44.100000</ele>
<time>2009-10-22T15:13:31Z</time>
</trkpt>
<trkpt lat="38.139060" lon="15.003465">
<ele>43.400000</ele>
<time>2009-10-22T15:13:32Z</time>
</trkpt>
<trkpt lat="38.139022" lon="15.003337">
<ele>42.600000</ele>
<time>2009-10-22T15:13:33Z</time>
</trkpt>
<trkpt lat="38.138985" lon="15.003217">
<ele>42.500000</ele>
<time>2009-10-22T15:13:34Z</time>
</trkpt>
<trkpt lat="38.138943" lon="15.003091">
<ele>41.700000</ele>
<time>2009-10-22T15:13:35Z</time>
</trkpt>
<trkpt lat="38.138902" lon="15.002968">
<ele>41.300000</ele>
<time>2009-10-22T15:13:36Z</time>
</trkpt>
<trkpt lat="38.138862" lon="15.002840">
<ele>41.500000</ele>
<time>2009-10-22T15:13:37Z</time>
</trkpt>
<trkpt lat="38.138822" lon="15.002715">
<ele>41.400000</ele>
<time>2009-10-22T15:13:38Z</time>
</trkpt>
<trkpt lat="38.138790" lon="15.002597">
<ele>41.500000</ele>
<time>2009-10-22T15:13:39Z</time>
</trkpt>
<trkpt lat="38.138759" lon="15.002462">
<ele>41.400000</ele>
<time>2009-10-22T15:13:40Z</time>
</trkpt>
<trkpt lat="38.138727" lon="15.002333">
<ele>41.200000</ele>
<time>2009-10-22T15:13:41Z</time>
</trkpt>
<trkpt lat="38.138695" lon="15.002218">
<ele>41.100000</ele>
<time>2009-10-22T15:13:42Z</time>
</trkpt>
<trkpt lat="38.138649" lon="15.002099">
<ele>41.100000</ele>
<time>2009-10-22T15:13:43Z</time>
</trkpt>
<trkpt lat="38.138591" lon="15.001987">
<ele>41.100000</ele>
<time>2009-10-22T15:13:44Z</time>
</trkpt>
<trkpt lat="38.138518" lon="15.001889">
<ele>41.100000</ele>
<time>2009-10-22T15:13:45Z</time>
</trkpt>
<trkpt lat="38.138430" lon="15.001786">
<ele>41.300000</ele>
<time>2009-10-22T15:13:46Z</time>
</trkpt>
<trkpt lat="38.138352" lon="15.001686">
<ele>41.500000</ele>
<time>2009-10-22T15:13:47Z</time>
</trkpt>
<trkpt lat="38.138282" lon="15.001579">
<ele>41.600000</ele>
<time>2009-10-22T15:13:48Z</time>
</trkpt>
<trkpt lat="38.138223" lon="15.001460">
<ele>41.700000</ele>
<time>2009-10-22T15:13:49Z</time>
</trkpt>
<trkpt lat="38.138173" lon="15.001332">
<ele>41.400000</ele>
<time>2009-10-22T15:13:50Z</time>
</trkpt>
<trkpt lat="38.138132" lon="15.001197">
<ele>40.900000</ele>
<time>2009-10-22T15:13:51Z</time>
</trkpt>
<trkpt lat="38.138103" lon="15.001046">
<ele>40.400000</ele>
<time>2009-10-22T15:13:52Z</time>
</trkpt>
<trkpt lat="38.138095" lon="15.000886">
<ele>40.700000</ele>
<time>2009-10-22T15:13:53Z</time>
</trkpt>
<trkpt lat="38.138106" lon="15.000723">
<ele>40.900000</ele>
<time>2009-10-22T15:13:54Z</time>
</trkpt>
<trkpt lat="38.138136" lon="15.000555">
<ele>40.800000</ele>
<time>2009-10-22T15:13:55Z</time>
</trkpt>
<trkpt lat="38.138177" lon="15.000403">
<ele>40.200000</ele>
<time>2009-10-22T15:13:56Z</time>
</trkpt>
<trkpt lat="38.138238" lon="15.000256">
<ele>39.600000</ele>
<time>2009-10-22T15:13:57Z</time>
</trkpt>
<trkpt lat="38.138313" lon="15.000122">
<ele>39.100000</ele>
<time>2009-10-22T15:13:58Z</time>
</trkpt>
<trkpt lat="38.138396" lon="14.999994">
<ele>38.300000</ele>
<time>2009-10-22T15:13:59Z</time>
</trkpt>
<trkpt lat="38.138479" lon="14.999864">
<ele>37.800000</ele>
<time>2009-10-22T15:14:00Z</time>
</trkpt>
<trkpt lat="38.138564" lon="14.999734">
<ele>37.400000</ele>
<time>2009-10-22T15:14:01Z</time>
</trkpt>
<trkpt lat="38.138650" lon="14.999606">
<ele>36.900000</ele>
<time>2009-10-22T15:14:02Z</time>
</trkpt>
<trkpt lat="38.138727" lon="14.999473">
<ele>36.500000</ele>
<time>2009-10-22T15:14:03Z</time>
</trkpt>
<trkpt lat="38.138802" lon="14.999340">
<ele>36.200000</ele>
<time>2009-10-22T15:14:04Z</time>
</trkpt>
<trkpt lat="38.138879" lon="14.999205">
<ele>35.900000</ele>
<time>2009-10-22T15:14:05Z</time>
</trkpt>
<trkpt lat="38.138955" lon="14.999071">
<ele>35.600000</ele>
<time>2009-10-22T15:14:06Z</time>
</trkpt>
<trkpt lat="38.139032" lon="14.998938">
<ele>35.200000</ele>
<time>2009-10-22T15:14:07Z</time>
</trkpt>
<trkpt lat="38.139107" lon="14.998805">
<ele>34.900000</ele>
<time>2009-10-22T15:14:08Z</time>
</trkpt>
<trkpt lat="38.139184" lon="14.998670">
<ele>34.600000</ele>
<time>2009-10-22T15:14:09Z</time>
</trkpt>
<trkpt lat="38.139260" lon="14.998536">
<ele>34.200000</ele>
<time>2009-10-22T15:14:10Z</time>
</trkpt>
<trkpt lat="38.139337" lon="14.998403">
<ele>33.900000</ele>
<time>2009-10-22T15:14:11Z</time>
</trkpt>
<trkpt lat="38.139414" lon="14.998270">
<ele>33.600000</ele>
<time>2009-10-22T15:14:12Z</time>
</trkpt>
<trkpt lat="38.139489" lon="14.998135">
<ele>33.300000</ele>
<time>2009-10-22T15:14:13Z</time>
</trkpt>
<trkpt lat="38.139565" lon="14.998001">
<ele>32.900000</ele>
<time>2009-10-22T15:14:14Z</time>
</trkpt>
<trkpt lat="38.139642" lon="14.997868">
<ele>32.600000</ele>
<time>2009-10-22T15:14:15Z</time>
</trkpt>
<trkpt lat="38.139411" lon="14.997670">
<ele>33.000000</ele>
<time>2009-10-22T15:14:16Z</time>
</trkpt>
<trkpt lat="38.139270" lon="14.997269">
<ele>35.700000</ele>
<time>2009-10-22T15:14:17Z</time>
</trkpt>
<trkpt lat="38.139172" lon="14.997197">
<ele>39.100000</ele>
<time>2009-10-22T15:14:18Z</time>
</trkpt>
<trkpt lat="38.139071" lon="14.997109">
<ele>40.100000</ele>
<time>2009-10-22T15:14:19Z</time>
</trkpt>
<trkpt lat="38.139003" lon="14.996989">
<ele>40.200000</ele>
<time>2009-10-22T15:14:20Z</time>
</trkpt>
<trkpt lat="38.138865" lon="14.996881">
<ele>40.100000</ele>
<time>2009-10-22T15:14:21Z</time>
</trkpt>
<trkpt lat="38.138767" lon="14.996868">
<ele>30.100000</ele>
<time>2009-10-22T15:14:23Z</time>
</trkpt>
<trkpt lat="38.138697" lon="14.996703">
<ele>30.200000</ele>
<time>2009-10-22T15:14:25Z</time>
</trkpt>
<trkpt lat="38.138688" lon="14.996603">
<ele>30.500000</ele>
<time>2009-10-22T15:14:26Z</time>
</trkpt>
<trkpt lat="38.138679" lon="14.996463">
<ele>32.200000</ele>
<time>2009-10-22T15:14:27Z</time>
</trkpt>
<trkpt lat="38.138667" lon="14.996329">
<ele>32.700000</ele>
<time>2009-10-22T15:14:28Z</time>
</trkpt>
<trkpt lat="38.138657" lon="14.996198">
<ele>32.900000</ele>
<time>2009-10-22T15:14:29Z</time>
</trkpt>
<trkpt lat="38.138644" lon="14.996060">
<ele>33.700000</ele>
<time>2009-10-22T15:14:30Z</time>
</trkpt>
<trkpt lat="38.138628" lon="14.995911">
<ele>34.300000</ele>
<time>2009-10-22T15:14:31Z</time>
</trkpt>
<trkpt lat="38.138619" lon="14.995785">
<ele>34.400000</ele>
<time>2009-10-22T15:14:32Z</time>
</trkpt>
<trkpt lat="38.138608" lon="14.995646">
<ele>34.200000</ele>
<time>2009-10-22T15:14:33Z</time>
</trkpt>
<trkpt lat="38.138600" lon="14.995516">
<ele>33.700000</ele>
<time>2009-10-22T15:14:34Z</time>
</trkpt>
<trkpt lat="38.138586" lon="14.995374">
<ele>33.700000</ele>
<time>2009-10-22T15:14:35Z</time>
</trkpt>
<trkpt lat="38.138574" lon="14.995229">
<ele>33.500000</ele>
<time>2009-10-22T15:14:36Z</time>
</trkpt>
<trkpt lat="38.138556" lon="14.995069">
<ele>33.400000</ele>
<time>2009-10-22T15:14:37Z</time>
</trkpt>
<trkpt lat="38.138541" lon="14.994916">
<ele>33.400000</ele>
<time>2009-10-22T15:14:38Z</time>
</trkpt>
<trkpt lat="38.138525" lon="14.994775">
<ele>33.400000</ele>
<time>2009-10-22T15:14:39Z</time>
</trkpt>
<trkpt lat="38.138514" lon="14.994640">
<ele>32.200000</ele>
<time>2009-10-22T15:14:40Z</time>
</trkpt>
<trkpt lat="38.138511" lon="14.994527">
<ele>30.800000</ele>
<time>2009-10-22T15:14:41Z</time>
</trkpt>
<trkpt lat="38.138518" lon="14.994431">
<ele>30.300000</ele>
<time>2009-10-22T15:14:42Z</time>
</trkpt>
<trkpt lat="38.138546" lon="14.994343">
<ele>29.400000</ele>
<time>2009-10-22T15:14:43Z</time>
</trkpt>
<trkpt lat="38.138611" lon="14.994278">
<ele>28.200000</ele>
<time>2009-10-22T15:14:44Z</time>
</trkpt>
<trkpt lat="38.138708" lon="14.994229">
<ele>27.200000</ele>
<time>2009-10-22T15:14:45Z</time>
</trkpt>
<trkpt lat="38.138814" lon="14.994192">
<ele>26.200000</ele>
<time>2009-10-22T15:14:46Z</time>
</trkpt>
<trkpt lat="38.138914" lon="14.994160">
<ele>25.600000</ele>
<time>2009-10-22T15:14:47Z</time>
</trkpt>
<trkpt lat="38.139010" lon="14.994121">
<ele>25.200000</ele>
<time>2009-10-22T15:14:48Z</time>
</trkpt>
<trkpt lat="38.139098" lon="14.994064">
<ele>25.300000</ele>
<time>2009-10-22T15:14:49Z</time>
</trkpt>
<trkpt lat="38.139160" lon="14.993983">
<ele>24.800000</ele>
<time>2009-10-22T15:14:50Z</time>
</trkpt>
<trkpt lat="38.139217" lon="14.993893">
<ele>24.900000</ele>
<time>2009-10-22T15:14:51Z</time>
</trkpt>
<trkpt lat="38.139265" lon="14.993789">
<ele>25.000000</ele>
<time>2009-10-22T15:14:52Z</time>
</trkpt>
<trkpt lat="38.139312" lon="14.993668">
<ele>25.000000</ele>
<time>2009-10-22T15:14:53Z</time>
</trkpt>
<trkpt lat="38.139336" lon="14.993544">
<ele>25.300000</ele>
<time>2009-10-22T15:14:54Z</time>
</trkpt>
<trkpt lat="38.139342" lon="14.993401">
<ele>25.500000</ele>
<time>2009-10-22T15:14:55Z</time>
</trkpt>
<trkpt lat="38.139329" lon="14.993264">
<ele>26.200000</ele>
<time>2009-10-22T15:14:56Z</time>
</trkpt>
<trkpt lat="38.139306" lon="14.993124">
<ele>26.900000</ele>
<time>2009-10-22T15:14:57Z</time>
</trkpt>
<trkpt lat="38.139292" lon="14.992997">
<ele>27.400000</ele>
<time>2009-10-22T15:14:58Z</time>
</trkpt>
<trkpt lat="38.139272" lon="14.992862">
<ele>27.900000</ele>
<time>2009-10-22T15:14:59Z</time>
</trkpt>
<trkpt lat="38.139250" lon="14.992734">
<ele>28.300000</ele>
<time>2009-10-22T15:15:00Z</time>
</trkpt>
<trkpt lat="38.139220" lon="14.992610">
<ele>28.200000</ele>
<time>2009-10-22T15:15:01Z</time>
</trkpt>
<trkpt lat="38.139192" lon="14.992503">
<ele>28.500000</ele>
<time>2009-10-22T15:15:02Z</time>
</trkpt>
<trkpt lat="38.139153" lon="14.992393">
<ele>28.600000</ele>
<time>2009-10-22T15:15:03Z</time>
</trkpt>
<trkpt lat="38.139110" lon="14.992301">
<ele>28.700000</ele>
<time>2009-10-22T15:15:04Z</time>
</trkpt>
<trkpt lat="38.139059" lon="14.992192">
<ele>28.800000</ele>
<time>2009-10-22T15:15:05Z</time>
</trkpt>
<trkpt lat="38.139017" lon="14.992087">
<ele>28.600000</ele>
<time>2009-10-22T15:15:06Z</time>
</trkpt>
<trkpt lat="38.138969" lon="14.991982">
<ele>28.400000</ele>
<time>2009-10-22T15:15:07Z</time>
</trkpt>
<trkpt lat="38.138916" lon="14.991883">
<ele>28.300000</ele>
<time>2009-10-22T15:15:08Z</time>
</trkpt>
<trkpt lat="38.138871" lon="14.991778">
<ele>28.600000</ele>
<time>2009-10-22T15:15:09Z</time>
</trkpt>
<trkpt lat="38.138831" lon="14.991686">
<ele>28.700000</ele>
<time>2009-10-22T15:15:10Z</time>
</trkpt>
<trkpt lat="38.138787" lon="14.991590">
<ele>28.700000</ele>
<time>2009-10-22T15:15:11Z</time>
</trkpt>
<trkpt lat="38.138728" lon="14.991427">
<ele>30.900000</ele>
<time>2009-10-22T15:15:13Z</time>
</trkpt>
<trkpt lat="38.138723" lon="14.991335">
<ele>32.200000</ele>
<time>2009-10-22T15:15:14Z</time>
</trkpt>
<trkpt lat="38.138780" lon="14.991166">
<ele>31.600000</ele>
<time>2009-10-22T15:15:16Z</time>
</trkpt>
<trkpt lat="38.138832" lon="14.991076">
<ele>32.800000</ele>
<time>2009-10-22T15:15:17Z</time>
</trkpt>
<trkpt lat="38.138880" lon="14.990972">
<ele>33.400000</ele>
<time>2009-10-22T15:15:18Z</time>
</trkpt>
<trkpt lat="38.138917" lon="14.990884">
<ele>33.400000</ele>
<time>2009-10-22T15:15:19Z</time>
</trkpt>
<trkpt lat="38.138954" lon="14.990756">
<ele>33.400000</ele>
<time>2009-10-22T15:15:21Z</time>
</trkpt>
<trkpt lat="38.138954" lon="14.990654">
<ele>33.900000</ele>
<time>2009-10-22T15:15:23Z</time>
</trkpt>
<trkpt lat="38.138955" lon="14.990501">
<ele>35.800000</ele>
<time>2009-10-22T15:15:25Z</time>
</trkpt>
<trkpt lat="38.138951" lon="14.990409">
<ele>37.800000</ele>
<time>2009-10-22T15:15:26Z</time>
</trkpt>
<trkpt lat="38.138947" lon="14.990306">
<ele>38.800000</ele>
<time>2009-10-22T15:15:27Z</time>
</trkpt>
<trkpt lat="38.138946" lon="14.990211">
<ele>39.500000</ele>
<time>2009-10-22T15:15:28Z</time>
</trkpt>
<trkpt lat="38.138954" lon="14.990111">
<ele>39.700000</ele>
<time>2009-10-22T15:15:29Z</time>
</trkpt>
<trkpt lat="38.138975" lon="14.990016">
<ele>40.000000</ele>
<time>2009-10-22T15:15:30Z</time>
</trkpt>
<trkpt lat="38.139010" lon="14.989931">
<ele>40.200000</ele>
<time>2009-10-22T15:15:31Z</time>
</trkpt>
<trkpt lat="38.139072" lon="14.989789">
<ele>40.700000</ele>
<time>2009-10-22T15:15:33Z</time>
</trkpt>
<trkpt lat="38.139142" lon="14.989643">
<ele>41.000000</ele>
<time>2009-10-22T15:15:35Z</time>
</trkpt>
<trkpt lat="38.139181" lon="14.989556">
<ele>41.100000</ele>
<time>2009-10-22T15:15:36Z</time>
</trkpt>
<trkpt lat="38.139219" lon="14.989479">
<ele>41.400000</ele>
<time>2009-10-22T15:15:37Z</time>
</trkpt>
<trkpt lat="38.139256" lon="14.989400">
<ele>41.800000</ele>
<time>2009-10-22T15:15:38Z</time>
</trkpt>
<trkpt lat="38.139292" lon="14.989320">
<ele>42.100000</ele>
<time>2009-10-22T15:15:39Z</time>
</trkpt>
<trkpt lat="38.139363" lon="14.989183">
<ele>42.600000</ele>
<time>2009-10-22T15:15:41Z</time>
</trkpt>
<trkpt lat="38.139426" lon="14.989075">
<ele>42.800000</ele>
<time>2009-10-22T15:15:43Z</time>
</trkpt>
<trkpt lat="38.139474" lon="14.988992">
<ele>42.800000</ele>
<time>2009-10-22T15:15:45Z</time>
</trkpt>
<trkpt lat="38.139524" lon="14.988919">
<ele>43.100000</ele>
<time>2009-10-22T15:15:48Z</time>
</trkpt>
<trkpt lat="38.139616" lon="14.988828">
<ele>43.200000</ele>
<time>2009-10-22T15:15:51Z</time>
</trkpt>
<trkpt lat="38.139704" lon="14.988737">
<ele>43.700000</ele>
<time>2009-10-22T15:15:53Z</time>
</trkpt>
<trkpt lat="38.139793" lon="14.988637">
<ele>44.200000</ele>
<time>2009-10-22T15:15:55Z</time>
</trkpt>
<trkpt lat="38.139882" lon="14.988511">
<ele>44.400000</ele>
<time>2009-10-22T15:15:57Z</time>
</trkpt>
<trkpt lat="38.139940" lon="14.988440">
<ele>44.600000</ele>
<time>2009-10-22T15:15:58Z</time>
</trkpt>
<trkpt lat="38.139993" lon="14.988367">
<ele>45.000000</ele>
<time>2009-10-22T15:15:59Z</time>
</trkpt>
<trkpt lat="38.140050" lon="14.988288">
<ele>45.500000</ele>
<time>2009-10-22T15:16:00Z</time>
</trkpt>
<trkpt lat="38.140135" lon="14.988214">
<ele>46.100000</ele>
<time>2009-10-22T15:16:01Z</time>
</trkpt>
<trkpt lat="38.140222" lon="14.988135">
<ele>46.600000</ele>
<time>2009-10-22T15:16:02Z</time>
</trkpt>
<trkpt lat="38.140297" lon="14.988059">
<ele>47.300000</ele>
<time>2009-10-22T15:16:03Z</time>
</trkpt>
<trkpt lat="38.140370" lon="14.987993">
<ele>48.000000</ele>
<time>2009-10-22T15:16:04Z</time>
</trkpt>
<trkpt lat="38.140442" lon="14.987921">
<ele>48.600000</ele>
<time>2009-10-22T15:16:05Z</time>
</trkpt>
<trkpt lat="38.140499" lon="14.987859">
<ele>49.300000</ele>
<time>2009-10-22T15:16:06Z</time>
</trkpt>
<trkpt lat="38.140560" lon="14.987793">
<ele>49.900000</ele>
<time>2009-10-22T15:16:07Z</time>
</trkpt>
<trkpt lat="38.140623" lon="14.987725">
<ele>50.400000</ele>
<time>2009-10-22T15:16:08Z</time>
</trkpt>
<trkpt lat="38.140688" lon="14.987655">
<ele>51.000000</ele>
<time>2009-10-22T15:16:09Z</time>
</trkpt>
<trkpt lat="38.140741" lon="14.987576">
<ele>51.600000</ele>
<time>2009-10-22T15:16:10Z</time>
</trkpt>
<trkpt lat="38.140773" lon="14.987488">
<ele>52.000000</ele>
<time>2009-10-22T15:16:11Z</time>
</trkpt>
<trkpt lat="38.140790" lon="14.987397">
<ele>52.400000</ele>
<time>2009-10-22T15:16:12Z</time>
</trkpt>
<trkpt lat="38.140804" lon="14.987302">
<ele>52.800000</ele>
<time>2009-10-22T15:16:13Z</time>
</trkpt>
<trkpt lat="38.140822" lon="14.987190">
<ele>53.200000</ele>
<time>2009-10-22T15:16:14Z</time>
</trkpt>
<trkpt lat="38.140840" lon="14.987069">
<ele>53.700000</ele>
<time>2009-10-22T15:16:15Z</time>
</trkpt>
<trkpt lat="38.140862" lon="14.986940">
<ele>53.900000</ele>
<time>2009-10-22T15:16:16Z</time>
</trkpt>
<trkpt lat="38.140884" lon="14.986815">
<ele>54.300000</ele>
<time>2009-10-22T15:16:17Z</time>
</trkpt>
<trkpt lat="38.140904" lon="14.986689">
<ele>54.800000</ele>
<time>2009-10-22T15:16:18Z</time>
</trkpt>
<trkpt lat="38.140921" lon="14.986562">
<ele>55.500000</ele>
<time>2009-10-22T15:16:19Z</time>
</trkpt>
<trkpt lat="38.140938" lon="14.986436">
<ele>56.000000</ele>
<time>2009-10-22T15:16:20Z</time>
</trkpt>
<trkpt lat="38.140955" lon="14.986313">
<ele>56.600000</ele>
<time>2009-10-22T15:16:21Z</time>
</trkpt>
<trkpt lat="38.140958" lon="14.986185">
<ele>57.200000</ele>
<time>2009-10-22T15:16:22Z</time>
</trkpt>
<trkpt lat="38.140938" lon="14.986058">
<ele>57.900000</ele>
<time>2009-10-22T15:16:23Z</time>
</trkpt>
<trkpt lat="38.140905" lon="14.985942">
<ele>58.800000</ele>
<time>2009-10-22T15:16:24Z</time>
</trkpt>
<trkpt lat="38.140864" lon="14.985809">
<ele>59.200000</ele>
<time>2009-10-22T15:16:25Z</time>
</trkpt>
<trkpt lat="38.140824" lon="14.985665">
<ele>59.800000</ele>
<time>2009-10-22T15:16:26Z</time>
</trkpt>
<trkpt lat="38.140790" lon="14.985534">
<ele>60.500000</ele>
<time>2009-10-22T15:16:27Z</time>
</trkpt>
<trkpt lat="38.140752" lon="14.985394">
<ele>61.500000</ele>
<time>2009-10-22T15:16:28Z</time>
</trkpt>
<trkpt lat="38.140715" lon="14.985257">
<ele>62.600000</ele>
<time>2009-10-22T15:16:29Z</time>
</trkpt>
<trkpt lat="38.140680" lon="14.985127">
<ele>63.500000</ele>
<time>2009-10-22T15:16:30Z</time>
</trkpt>
<trkpt lat="38.140652" lon="14.985011">
<ele>64.100000</ele>
<time>2009-10-22T15:16:31Z</time>
</trkpt>
<trkpt lat="38.140622" lon="14.984878">
<ele>65.000000</ele>
<time>2009-10-22T15:16:32Z</time>
</trkpt>
<trkpt lat="38.140600" lon="14.984784">
<ele>65.300000</ele>
<time>2009-10-22T15:16:33Z</time>
</trkpt>
<trkpt lat="38.140583" lon="14.984644">
<ele>67.000000</ele>
<time>2009-10-22T15:16:34Z</time>
</trkpt>
<trkpt lat="38.140566" lon="14.984519">
<ele>67.600000</ele>
<time>2009-10-22T15:16:35Z</time>
</trkpt>
<trkpt lat="38.140548" lon="14.984386">
<ele>69.000000</ele>
<time>2009-10-22T15:16:36Z</time>
</trkpt>
<trkpt lat="38.140530" lon="14.984259">
<ele>69.800000</ele>
<time>2009-10-22T15:16:37Z</time>
</trkpt>
<trkpt lat="38.140508" lon="14.984131">
<ele>70.700000</ele>
<time>2009-10-22T15:16:38Z</time>
</trkpt>
<trkpt lat="38.140485" lon="14.983998">
<ele>71.500000</ele>
<time>2009-10-22T15:16:39Z</time>
</trkpt>
<trkpt lat="38.140467" lon="14.983869">
<ele>71.800000</ele>
<time>2009-10-22T15:16:40Z</time>
</trkpt>
<trkpt lat="38.140448" lon="14.983744">
<ele>72.100000</ele>
<time>2009-10-22T15:16:41Z</time>
</trkpt>
<trkpt lat="38.140430" lon="14.983619">
<ele>72.600000</ele>
<time>2009-10-22T15:16:42Z</time>
</trkpt>
<trkpt lat="38.140413" lon="14.983513">
<ele>72.900000</ele>
<time>2009-10-22T15:16:43Z</time>
</trkpt>
<trkpt lat="38.140402" lon="14.983426">
<ele>73.200000</ele>
<time>2009-10-22T15:16:44Z</time>
</trkpt>
<trkpt lat="38.140391" lon="14.983332">
<ele>73.300000</ele>
<time>2009-10-22T15:16:45Z</time>
</trkpt>
<trkpt lat="38.140383" lon="14.983204">
<ele>73.400000</ele>
<time>2009-10-22T15:16:47Z</time>
</trkpt>
<trkpt lat="38.140379" lon="14.983094">
<ele>74.200000</ele>
<time>2009-10-22T15:16:49Z</time>
</trkpt>
<trkpt lat="38.140386" lon="14.983001">
<ele>74.100000</ele>
<time>2009-10-22T15:16:51Z</time>
</trkpt>
<trkpt lat="38.140405" lon="14.982874">
<ele>74.200000</ele>
<time>2009-10-22T15:16:53Z</time>
</trkpt>
<trkpt lat="38.140440" lon="14.982716">
<ele>74.600000</ele>
<time>2009-10-22T15:16:55Z</time>
</trkpt>
<trkpt lat="38.140470" lon="14.982626">
<ele>74.800000</ele>
<time>2009-10-22T15:16:56Z</time>
</trkpt>
<trkpt lat="38.140502" lon="14.982537">
<ele>74.700000</ele>
<time>2009-10-22T15:16:57Z</time>
</trkpt>
<trkpt lat="38.140536" lon="14.982429">
<ele>74.800000</ele>
<time>2009-10-22T15:16:58Z</time>
</trkpt>
<trkpt lat="38.140567" lon="14.982311">
<ele>75.000000</ele>
<time>2009-10-22T15:16:59Z</time>
</trkpt>
<trkpt lat="38.140594" lon="14.982201">
<ele>75.000000</ele>
<time>2009-10-22T15:17:00Z</time>
</trkpt>
<trkpt lat="38.140624" lon="14.982086">
<ele>75.400000</ele>
<time>2009-10-22T15:17:01Z</time>
</trkpt>
<trkpt lat="38.140661" lon="14.981975">
<ele>75.600000</ele>
<time>2009-10-22T15:17:02Z</time>
</trkpt>
<trkpt lat="38.140705" lon="14.981868">
<ele>75.800000</ele>
<time>2009-10-22T15:17:03Z</time>
</trkpt>
<trkpt lat="38.140758" lon="14.981766">
<ele>76.000000</ele>
<time>2009-10-22T15:17:04Z</time>
</trkpt>
<trkpt lat="38.140823" lon="14.981674">
<ele>76.000000</ele>
<time>2009-10-22T15:17:05Z</time>
</trkpt>
<trkpt lat="38.140900" lon="14.981588">
<ele>76.100000</ele>
<time>2009-10-22T15:17:06Z</time>
</trkpt>
<trkpt lat="38.140987" lon="14.981499">
<ele>76.300000</ele>
<time>2009-10-22T15:17:07Z</time>
</trkpt>
<trkpt lat="38.141073" lon="14.981402">
<ele>76.500000</ele>
<time>2009-10-22T15:17:08Z</time>
</trkpt>
<trkpt lat="38.141157" lon="14.981309">
<ele>76.800000</ele>
<time>2009-10-22T15:17:09Z</time>
</trkpt>
<trkpt lat="38.141241" lon="14.981210">
<ele>77.100000</ele>
<time>2009-10-22T15:17:10Z</time>
</trkpt>
<trkpt lat="38.141330" lon="14.981110">
<ele>77.400000</ele>
<time>2009-10-22T15:17:11Z</time>
</trkpt>
<trkpt lat="38.141418" lon="14.981009">
<ele>77.700000</ele>
<time>2009-10-22T15:17:12Z</time>
</trkpt>
<trkpt lat="38.141509" lon="14.980908">
<ele>78.100000</ele>
<time>2009-10-22T15:17:13Z</time>
</trkpt>
<trkpt lat="38.141601" lon="14.980809">
<ele>78.400000</ele>
<time>2009-10-22T15:17:14Z</time>
</trkpt>
<trkpt lat="38.141689" lon="14.980708">
<ele>78.800000</ele>
<time>2009-10-22T15:17:15Z</time>
</trkpt>
<trkpt lat="38.141776" lon="14.980613">
<ele>79.200000</ele>
<time>2009-10-22T15:17:16Z</time>
</trkpt>
<trkpt lat="38.141857" lon="14.980516">
<ele>79.500000</ele>
<time>2009-10-22T15:17:17Z</time>
</trkpt>
<trkpt lat="38.141933" lon="14.980417">
<ele>79.800000</ele>
<time>2009-10-22T15:17:18Z</time>
</trkpt>
<trkpt lat="38.142004" lon="14.980314">
<ele>80.000000</ele>
<time>2009-10-22T15:17:19Z</time>
</trkpt>
<trkpt lat="38.142071" lon="14.980209">
<ele>80.200000</ele>
<time>2009-10-22T15:17:20Z</time>
</trkpt>
<trkpt lat="38.142132" lon="14.980110">
<ele>80.600000</ele>
<time>2009-10-22T15:17:21Z</time>
</trkpt>
<trkpt lat="38.142197" lon="14.980006">
<ele>80.800000</ele>
<time>2009-10-22T15:17:22Z</time>
</trkpt>
<trkpt lat="38.142260" lon="14.979905">
<ele>81.100000</ele>
<time>2009-10-22T15:17:23Z</time>
</trkpt>
<trkpt lat="38.142310" lon="14.979801">
<ele>80.900000</ele>
<time>2009-10-22T15:17:24Z</time>
</trkpt>
<trkpt lat="38.142347" lon="14.979701">
<ele>81.100000</ele>
<time>2009-10-22T15:17:25Z</time>
</trkpt>
<trkpt lat="38.142379" lon="14.979589">
<ele>81.200000</ele>
<time>2009-10-22T15:17:26Z</time>
</trkpt>
<trkpt lat="38.142398" lon="14.979472">
<ele>81.200000</ele>
<time>2009-10-22T15:17:27Z</time>
</trkpt>
<trkpt lat="38.142414" lon="14.979354">
<ele>81.200000</ele>
<time>2009-10-22T15:17:28Z</time>
</trkpt>
<trkpt lat="38.142444" lon="14.979237">
<ele>81.400000</ele>
<time>2009-10-22T15:17:29Z</time>
</trkpt>
<trkpt lat="38.142499" lon="14.979138">
<ele>81.500000</ele>
<time>2009-10-22T15:17:30Z</time>
</trkpt>
<trkpt lat="38.142565" lon="14.979069">
<ele>81.400000</ele>
<time>2009-10-22T15:17:31Z</time>
</trkpt>
<trkpt lat="38.142667" lon="14.979020">
<ele>81.500000</ele>
<time>2009-10-22T15:17:32Z</time>
</trkpt>
<trkpt lat="38.142769" lon="14.978961">
<ele>81.700000</ele>
<time>2009-10-22T15:17:33Z</time>
</trkpt>
<trkpt lat="38.142848" lon="14.978877">
<ele>81.700000</ele>
<time>2009-10-22T15:17:34Z</time>
</trkpt>
<trkpt lat="38.142914" lon="14.978766">
<ele>81.700000</ele>
<time>2009-10-22T15:17:35Z</time>
</trkpt>
<trkpt lat="38.142960" lon="14.978645">
<ele>81.800000</ele>
<time>2009-10-22T15:17:36Z</time>
</trkpt>
<trkpt lat="38.142998" lon="14.978515">
<ele>81.800000</ele>
<time>2009-10-22T15:17:37Z</time>
</trkpt>
<trkpt lat="38.143044" lon="14.978385">
<ele>81.800000</ele>
<time>2009-10-22T15:17:38Z</time>
</trkpt>
<trkpt lat="38.143096" lon="14.978260">
<ele>81.800000</ele>
<time>2009-10-22T15:17:39Z</time>
</trkpt>
<trkpt lat="38.143153" lon="14.978141">
<ele>81.800000</ele>
<time>2009-10-22T15:17:40Z</time>
</trkpt>
<trkpt lat="38.143197" lon="14.978029">
<ele>81.800000</ele>
<time>2009-10-22T15:17:41Z</time>
</trkpt>
<trkpt lat="38.143227" lon="14.977906">
<ele>81.900000</ele>
<time>2009-10-22T15:17:42Z</time>
</trkpt>
<trkpt lat="38.143237" lon="14.977776">
<ele>81.800000</ele>
<time>2009-10-22T15:17:43Z</time>
</trkpt>
<trkpt lat="38.143235" lon="14.977648">
<ele>81.800000</ele>
<time>2009-10-22T15:17:44Z</time>
</trkpt>
<trkpt lat="38.143208" lon="14.977518">
<ele>81.700000</ele>
<time>2009-10-22T15:17:45Z</time>
</trkpt>
<trkpt lat="38.143171" lon="14.977389">
<ele>81.500000</ele>
<time>2009-10-22T15:17:46Z</time>
</trkpt>
<trkpt lat="38.143118" lon="14.977268">
<ele>81.200000</ele>
<time>2009-10-22T15:17:47Z</time>
</trkpt>
<trkpt lat="38.143046" lon="14.977138">
<ele>81.200000</ele>
<time>2009-10-22T15:17:48Z</time>
</trkpt>
<trkpt lat="38.142979" lon="14.977019">
<ele>80.800000</ele>
<time>2009-10-22T15:17:49Z</time>
</trkpt>
<trkpt lat="38.142918" lon="14.976892">
<ele>81.000000</ele>
<time>2009-10-22T15:17:50Z</time>
</trkpt>
<trkpt lat="38.142854" lon="14.976771">
<ele>80.500000</ele>
<time>2009-10-22T15:17:51Z</time>
</trkpt>
<trkpt lat="38.142790" lon="14.976646">
<ele>80.200000</ele>
<time>2009-10-22T15:17:52Z</time>
</trkpt>
<trkpt lat="38.142728" lon="14.976526">
<ele>79.600000</ele>
<time>2009-10-22T15:17:53Z</time>
</trkpt>
<trkpt lat="38.142667" lon="14.976409">
<ele>79.000000</ele>
<time>2009-10-22T15:17:54Z</time>
</trkpt>
<trkpt lat="38.142607" lon="14.976294">
<ele>78.400000</ele>
<time>2009-10-22T15:17:55Z</time>
</trkpt>
<trkpt lat="38.142547" lon="14.976180">
<ele>77.900000</ele>
<time>2009-10-22T15:17:56Z</time>
</trkpt>
<trkpt lat="38.142493" lon="14.976068">
<ele>77.400000</ele>
<time>2009-10-22T15:17:57Z</time>
</trkpt>
<trkpt lat="38.142444" lon="14.975970">
<ele>76.500000</ele>
<time>2009-10-22T15:17:58Z</time>
</trkpt>
<trkpt lat="38.142401" lon="14.975871">
<ele>75.900000</ele>
<time>2009-10-22T15:17:59Z</time>
</trkpt>
<trkpt lat="38.142358" lon="14.975750">
<ele>75.400000</ele>
<time>2009-10-22T15:18:00Z</time>
</trkpt>
<trkpt lat="38.142325" lon="14.975634">
<ele>75.000000</ele>
<time>2009-10-22T15:18:01Z</time>
</trkpt>
<trkpt lat="38.142297" lon="14.975517">
<ele>74.600000</ele>
<time>2009-10-22T15:18:02Z</time>
</trkpt>
<trkpt lat="38.142273" lon="14.975393">
<ele>74.200000</ele>
<time>2009-10-22T15:18:03Z</time>
</trkpt>
<trkpt lat="38.142247" lon="14.975244">
<ele>74.800000</ele>
<time>2009-10-22T15:18:04Z</time>
</trkpt>
<trkpt lat="38.142232" lon="14.975104">
<ele>74.900000</ele>
<time>2009-10-22T15:18:05Z</time>
</trkpt>
<trkpt lat="38.142214" lon="14.974952">
<ele>76.300000</ele>
<time>2009-10-22T15:18:06Z</time>
</trkpt>
<trkpt lat="38.142194" lon="14.974796">
<ele>77.100000</ele>
<time>2009-10-22T15:18:07Z</time>
</trkpt>
<trkpt lat="38.142176" lon="14.974647">
<ele>77.800000</ele>
<time>2009-10-22T15:18:08Z</time>
</trkpt>
<trkpt lat="38.142156" lon="14.974484">
<ele>78.200000</ele>
<time>2009-10-22T15:18:09Z</time>
</trkpt>
<trkpt lat="38.142140" lon="14.974332">
<ele>78.200000</ele>
<time>2009-10-22T15:18:10Z</time>
</trkpt>
<trkpt lat="38.142127" lon="14.974182">
<ele>78.200000</ele>
<time>2009-10-22T15:18:11Z</time>
</trkpt>
<trkpt lat="38.142115" lon="14.974030">
<ele>78.400000</ele>
<time>2009-10-22T15:18:12Z</time>
</trkpt>
<trkpt lat="38.142104" lon="14.973886">
<ele>78.600000</ele>
<time>2009-10-22T15:18:13Z</time>
</trkpt>
<trkpt lat="38.142091" lon="14.973736">
<ele>78.900000</ele>
<time>2009-10-22T15:18:14Z</time>
</trkpt>
<trkpt lat="38.142082" lon="14.973587">
<ele>79.100000</ele>
<time>2009-10-22T15:18:15Z</time>
</trkpt>
<trkpt lat="38.142070" lon="14.973441">
<ele>79.300000</ele>
<time>2009-10-22T15:18:16Z</time>
</trkpt>
<trkpt lat="38.142061" lon="14.973296">
<ele>79.000000</ele>
<time>2009-10-22T15:18:17Z</time>
</trkpt>
<trkpt lat="38.142055" lon="14.973141">
<ele>78.500000</ele>
<time>2009-10-22T15:18:18Z</time>
</trkpt>
<trkpt lat="38.142054" lon="14.972982">
<ele>78.600000</ele>
<time>2009-10-22T15:18:19Z</time>
</trkpt>
<trkpt lat="38.142052" lon="14.972848">
<ele>78.800000</ele>
<time>2009-10-22T15:18:20Z</time>
</trkpt>
<trkpt lat="38.142058" lon="14.972732">
<ele>79.900000</ele>
<time>2009-10-22T15:18:21Z</time>
</trkpt>
<trkpt lat="38.142066" lon="14.972598">
<ele>80.400000</ele>
<time>2009-10-22T15:18:22Z</time>
</trkpt>
<trkpt lat="38.142071" lon="14.972464">
<ele>81.200000</ele>
<time>2009-10-22T15:18:23Z</time>
</trkpt>
<trkpt lat="38.142079" lon="14.972331">
<ele>81.500000</ele>
<time>2009-10-22T15:18:24Z</time>
</trkpt>
<trkpt lat="38.142086" lon="14.972203">
<ele>81.600000</ele>
<time>2009-10-22T15:18:25Z</time>
</trkpt>
<trkpt lat="38.142081" lon="14.972083">
<ele>82.900000</ele>
<time>2009-10-22T15:18:26Z</time>
</trkpt>
<trkpt lat="38.142064" lon="14.971993">
<ele>82.800000</ele>
<time>2009-10-22T15:18:27Z</time>
</trkpt>
<trkpt lat="38.142017" lon="14.971912">
<ele>83.200000</ele>
<time>2009-10-22T15:18:28Z</time>
</trkpt>
<trkpt lat="38.141952" lon="14.971858">
<ele>83.500000</ele>
<time>2009-10-22T15:18:29Z</time>
</trkpt>
<trkpt lat="38.141867" lon="14.971835">
<ele>83.600000</ele>
<time>2009-10-22T15:18:30Z</time>
</trkpt>
<trkpt lat="38.141757" lon="14.971804">
<ele>83.300000</ele>
<time>2009-10-22T15:18:31Z</time>
</trkpt>
<trkpt lat="38.141650" lon="14.971767">
<ele>83.500000</ele>
<time>2009-10-22T15:18:32Z</time>
</trkpt>
<trkpt lat="38.141542" lon="14.971720">
<ele>84.100000</ele>
<time>2009-10-22T15:18:33Z</time>
</trkpt>
<trkpt lat="38.141448" lon="14.971657">
<ele>84.700000</ele>
<time>2009-10-22T15:18:34Z</time>
</trkpt>
<trkpt lat="38.141374" lon="14.971581">
<ele>84.900000</ele>
<time>2009-10-22T15:18:35Z</time>
</trkpt>
<trkpt lat="38.141304" lon="14.971485">
<ele>85.300000</ele>
<time>2009-10-22T15:18:36Z</time>
</trkpt>
<trkpt lat="38.141238" lon="14.971385">
<ele>85.700000</ele>
<time>2009-10-22T15:18:37Z</time>
</trkpt>
<trkpt lat="38.141181" lon="14.971302">
<ele>86.000000</ele>
<time>2009-10-22T15:18:38Z</time>
</trkpt>
<trkpt lat="38.141124" lon="14.971217">
<ele>85.900000</ele>
<time>2009-10-22T15:18:39Z</time>
</trkpt>
<trkpt lat="38.141074" lon="14.971138">
<ele>85.900000</ele>
<time>2009-10-22T15:18:40Z</time>
</trkpt>
<trkpt lat="38.141032" lon="14.971062">
<ele>85.900000</ele>
<time>2009-10-22T15:18:41Z</time>
</trkpt>
<trkpt lat="38.140991" lon="14.970988">
<ele>85.800000</ele>
<time>2009-10-22T15:18:42Z</time>
</trkpt>
<trkpt lat="38.140949" lon="14.970913">
<ele>85.800000</ele>
<time>2009-10-22T15:18:43Z</time>
</trkpt>
<trkpt lat="38.140909" lon="14.970840">
<ele>85.800000</ele>
<time>2009-10-22T15:18:44Z</time>
</trkpt>
<trkpt lat="38.140867" lon="14.970760">
<ele>86.100000</ele>
<time>2009-10-22T15:18:45Z</time>
</trkpt>
<trkpt lat="38.140823" lon="14.970683">
<ele>86.200000</ele>
<time>2009-10-22T15:18:46Z</time>
</trkpt>
<trkpt lat="38.140781" lon="14.970610">
<ele>86.200000</ele>
<time>2009-10-22T15:18:47Z</time>
</trkpt>
<trkpt lat="38.140740" lon="14.970540">
<ele>86.500000</ele>
<time>2009-10-22T15:18:48Z</time>
</trkpt>
<trkpt lat="38.140658" lon="14.970399">
<ele>87.000000</ele>
<time>2009-10-22T15:18:50Z</time>
</trkpt>
<trkpt lat="38.140615" lon="14.970327">
<ele>87.000000</ele>
<time>2009-10-22T15:18:51Z</time>
</trkpt>
<trkpt lat="38.140530" lon="14.970188">
<ele>87.200000</ele>
<time>2009-10-22T15:18:53Z</time>
</trkpt>
<trkpt lat="38.140448" lon="14.970041">
<ele>87.400000</ele>
<time>2009-10-22T15:18:55Z</time>
</trkpt>
<trkpt lat="38.140406" lon="14.969969">
<ele>87.700000</ele>
<time>2009-10-22T15:18:56Z</time>
</trkpt>
<trkpt lat="38.140364" lon="14.969895">
<ele>87.800000</ele>
<time>2009-10-22T15:18:57Z</time>
</trkpt>
<trkpt lat="38.140320" lon="14.969824">
<ele>87.800000</ele>
<time>2009-10-22T15:18:58Z</time>
</trkpt>
<trkpt lat="38.140279" lon="14.969749">
<ele>87.900000</ele>
<time>2009-10-22T15:18:59Z</time>
</trkpt>
<trkpt lat="38.140234" lon="14.969672">
<ele>87.800000</ele>
<time>2009-10-22T15:19:00Z</time>
</trkpt>
<trkpt lat="38.140189" lon="14.969595">
<ele>87.700000</ele>
<time>2009-10-22T15:19:01Z</time>
</trkpt>
<trkpt lat="38.140147" lon="14.969520">
<ele>87.300000</ele>
<time>2009-10-22T15:19:02Z</time>
</trkpt>
<trkpt lat="38.140077" lon="14.969398">
<ele>86.400000</ele>
<time>2009-10-22T15:19:04Z</time>
</trkpt>
<trkpt lat="38.140029" lon="14.969308">
<ele>84.700000</ele>
<time>2009-10-22T15:19:06Z</time>
</trkpt>
<trkpt lat="38.140018" lon="14.969201">
<ele>86.000000</ele>
<time>2009-10-22T15:19:09Z</time>
</trkpt>
<trkpt lat="38.140068" lon="14.969106">
<ele>86.100000</ele>
<time>2009-10-22T15:19:11Z</time>
</trkpt>
<trkpt lat="38.140144" lon="14.969036">
<ele>85.700000</ele>
<time>2009-10-22T15:19:13Z</time>
</trkpt>
<trkpt lat="38.140216" lon="14.968993">
<ele>85.100000</ele>
<time>2009-10-22T15:19:14Z</time>
</trkpt>
<trkpt lat="38.140342" lon="14.968909">
<ele>83.800000</ele>
<time>2009-10-22T15:19:16Z</time>
</trkpt>
<trkpt lat="38.140395" lon="14.968855">
<ele>83.700000</ele>
<time>2009-10-22T15:19:17Z</time>
</trkpt>
<trkpt lat="38.140473" lon="14.968724">
<ele>82.500000</ele>
<time>2009-10-22T15:19:19Z</time>
</trkpt>
<trkpt lat="38.140490" lon="14.968565">
<ele>81.700000</ele>
<time>2009-10-22T15:19:21Z</time>
</trkpt>
<trkpt lat="38.140550" lon="14.968436">
<ele>80.300000</ele>
<time>2009-10-22T15:19:23Z</time>
</trkpt>
<trkpt lat="38.140665" lon="14.968368">
<ele>78.300000</ele>
<time>2009-10-22T15:19:25Z</time>
</trkpt>
<trkpt lat="38.140792" lon="14.968302">
<ele>75.700000</ele>
<time>2009-10-22T15:19:27Z</time>
</trkpt>
<trkpt lat="38.140865" lon="14.968259">
<ele>75.200000</ele>
<time>2009-10-22T15:19:28Z</time>
</trkpt>
<trkpt lat="38.140968" lon="14.968187">
<ele>74.200000</ele>
<time>2009-10-22T15:19:30Z</time>
</trkpt>
<trkpt lat="38.141036" lon="14.968154">
<ele>73.700000</ele>
<time>2009-10-22T15:19:31Z</time>
</trkpt>
<trkpt lat="38.141153" lon="14.968097">
<ele>72.300000</ele>
<time>2009-10-22T15:19:33Z</time>
</trkpt>
<trkpt lat="38.141225" lon="14.968078">
<ele>72.000000</ele>
<time>2009-10-22T15:19:34Z</time>
</trkpt>
<trkpt lat="38.141347" lon="14.968060">
<ele>71.800000</ele>
<time>2009-10-22T15:19:36Z</time>
</trkpt>
<trkpt lat="38.141481" lon="14.968073">
<ele>71.900000</ele>
<time>2009-10-22T15:19:38Z</time>
</trkpt>
<trkpt lat="38.141549" lon="14.968093">
<ele>71.900000</ele>
<time>2009-10-22T15:19:39Z</time>
</trkpt>
<trkpt lat="38.141673" lon="14.968163">
<ele>72.200000</ele>
<time>2009-10-22T15:19:41Z</time>
</trkpt>
<trkpt lat="38.141774" lon="14.968204">
<ele>72.400000</ele>
<time>2009-10-22T15:19:43Z</time>
</trkpt>
<trkpt lat="38.141854" lon="14.968194">
<ele>72.100000</ele>
<time>2009-10-22T15:19:45Z</time>
</trkpt>
<trkpt lat="38.141941" lon="14.968140">
<ele>72.700000</ele>
<time>2009-10-22T15:19:47Z</time>
</trkpt>
<trkpt lat="38.142015" lon="14.968073">
<ele>72.000000</ele>
<time>2009-10-22T15:19:49Z</time>
</trkpt>
<trkpt lat="38.142088" lon="14.967992">
<ele>71.000000</ele>
<time>2009-10-22T15:19:51Z</time>
</trkpt>
<trkpt lat="38.142137" lon="14.967882">
<ele>70.200000</ele>
<time>2009-10-22T15:19:53Z</time>
</trkpt>
<trkpt lat="38.142107" lon="14.967765">
<ele>68.900000</ele>
<time>2009-10-22T15:19:55Z</time>
</trkpt>
<trkpt lat="38.142050" lon="14.967628">
<ele>66.300000</ele>
<time>2009-10-22T15:19:57Z</time>
</trkpt>
<trkpt lat="38.141999" lon="14.967446">
<ele>64.000000</ele>
<time>2009-10-22T15:19:59Z</time>
</trkpt>
<trkpt lat="38.141962" lon="14.967288">
<ele>64.200000</ele>
<time>2009-10-22T15:20:01Z</time>
</trkpt>
<trkpt lat="38.141947" lon="14.967195">
<ele>65.000000</ele>
<time>2009-10-22T15:20:02Z</time>
</trkpt>
<trkpt lat="38.141892" lon="14.967020">
<ele>66.000000</ele>
<time>2009-10-22T15:20:04Z</time>
</trkpt>
<trkpt lat="38.141886" lon="14.966852">
<ele>64.000000</ele>
<time>2009-10-22T15:20:06Z</time>
</trkpt>
<trkpt lat="38.141894" lon="14.966708">
<ele>62.900000</ele>
<time>2009-10-22T15:20:08Z</time>
</trkpt>
<trkpt lat="38.141965" lon="14.966587">
<ele>62.500000</ele>
<time>2009-10-22T15:20:10Z</time>
</trkpt>
<trkpt lat="38.142024" lon="14.966476">
<ele>62.100000</ele>
<time>2009-10-22T15:20:12Z</time>
</trkpt>
<trkpt lat="38.142075" lon="14.966376">
<ele>61.600000</ele>
<time>2009-10-22T15:20:14Z</time>
</trkpt>
<trkpt lat="38.142131" lon="14.966304">
<ele>61.200000</ele>
<time>2009-10-22T15:20:16Z</time>
</trkpt>
<trkpt lat="38.142198" lon="14.966262">
<ele>60.400000</ele>
<time>2009-10-22T15:20:20Z</time>
</trkpt>
<trkpt lat="38.142283" lon="14.966281">
<ele>59.900000</ele>
<time>2009-10-22T15:20:23Z</time>
</trkpt>
<trkpt lat="38.142345" lon="14.966343">
<ele>59.200000</ele>
<time>2009-10-22T15:20:25Z</time>
</trkpt>
<trkpt lat="38.142433" lon="14.966457">
<ele>60.400000</ele>
<time>2009-10-22T15:20:27Z</time>
</trkpt>
<trkpt lat="38.142525" lon="14.966551">
<ele>60.900000</ele>
<time>2009-10-22T15:20:29Z</time>
</trkpt>
<trkpt lat="38.142626" lon="14.966607">
<ele>60.700000</ele>
<time>2009-10-22T15:20:31Z</time>
</trkpt>
<trkpt lat="38.142731" lon="14.966659">
<ele>61.000000</ele>
<time>2009-10-22T15:20:33Z</time>
</trkpt>
<trkpt lat="38.142812" lon="14.966731">
<ele>61.500000</ele>
<time>2009-10-22T15:20:35Z</time>
</trkpt>
<trkpt lat="38.142882" lon="14.966813">
<ele>60.400000</ele>
<time>2009-10-22T15:20:37Z</time>
</trkpt>
<trkpt lat="38.142953" lon="14.966894">
<ele>60.800000</ele>
<time>2009-10-22T15:20:39Z</time>
</trkpt>
<trkpt lat="38.143005" lon="14.966965">
<ele>53.700000</ele>
<time>2009-10-22T15:20:45Z</time>
</trkpt>
<trkpt lat="38.143080" lon="14.967024">
<ele>49.700000</ele>
<time>2009-10-22T15:20:50Z</time>
</trkpt>
<trkpt lat="38.143137" lon="14.967073">
<ele>52.700000</ele>
<time>2009-10-22T15:20:57Z</time>
</trkpt>
<trkpt lat="38.143208" lon="14.967145">
<ele>54.400000</ele>
<time>2009-10-22T15:21:02Z</time>
</trkpt>
<trkpt lat="38.143279" lon="14.967198">
<ele>54.200000</ele>
<time>2009-10-22T15:21:04Z</time>
</trkpt>
<trkpt lat="38.143345" lon="14.967258">
<ele>53.300000</ele>
<time>2009-10-22T15:21:06Z</time>
</trkpt>
<trkpt lat="38.143417" lon="14.967312">
<ele>53.600000</ele>
<time>2009-10-22T15:21:08Z</time>
</trkpt>
<trkpt lat="38.143486" lon="14.967373">
<ele>51.700000</ele>
<time>2009-10-22T15:21:10Z</time>
</trkpt>
<trkpt lat="38.143563" lon="14.967428">
<ele>52.200000</ele>
<time>2009-10-22T15:21:12Z</time>
</trkpt>
<trkpt lat="38.143646" lon="14.967481">
<ele>54.300000</ele>
<time>2009-10-22T15:21:14Z</time>
</trkpt>
<trkpt lat="38.143741" lon="14.967557">
<ele>54.400000</ele>
<time>2009-10-22T15:21:17Z</time>
</trkpt>
<trkpt lat="38.143811" lon="14.967606">
<ele>53.900000</ele>
<time>2009-10-22T15:21:19Z</time>
</trkpt>
<trkpt lat="38.143876" lon="14.967650">
<ele>52.000000</ele>
<time>2009-10-22T15:21:21Z</time>
</trkpt>
<trkpt lat="38.143966" lon="14.967686">
<ele>54.700000</ele>
<time>2009-10-22T15:21:23Z</time>
</trkpt>
<trkpt lat="38.144051" lon="14.967739">
<ele>57.300000</ele>
<time>2009-10-22T15:21:25Z</time>
</trkpt>
<trkpt lat="38.144151" lon="14.967799">
<ele>58.900000</ele>
<time>2009-10-22T15:21:27Z</time>
</trkpt>
<trkpt lat="38.144236" lon="14.967869">
<ele>58.000000</ele>
<time>2009-10-22T15:21:29Z</time>
</trkpt>
<trkpt lat="38.144340" lon="14.967950">
<ele>57.700000</ele>
<time>2009-10-22T15:21:31Z</time>
</trkpt>
<trkpt lat="38.144444" lon="14.968028">
<ele>57.200000</ele>
<time>2009-10-22T15:21:33Z</time>
</trkpt>
<trkpt lat="38.144556" lon="14.968091">
<ele>56.500000</ele>
<time>2009-10-22T15:21:35Z</time>
</trkpt>
<trkpt lat="38.144659" lon="14.968163">
<ele>56.800000</ele>
<time>2009-10-22T15:21:37Z</time>
</trkpt>
<trkpt lat="38.144752" lon="14.968224">
<ele>58.400000</ele>
<time>2009-10-22T15:21:39Z</time>
</trkpt>
<trkpt lat="38.144853" lon="14.968304">
<ele>58.700000</ele>
<time>2009-10-22T15:21:41Z</time>
</trkpt>
<trkpt lat="38.144945" lon="14.968377">
<ele>57.800000</ele>
<time>2009-10-22T15:21:43Z</time>
</trkpt>
<trkpt lat="38.145027" lon="14.968440">
<ele>55.600000</ele>
<time>2009-10-22T15:21:45Z</time>
</trkpt>
<trkpt lat="38.145115" lon="14.968517">
<ele>56.100000</ele>
<time>2009-10-22T15:21:47Z</time>
</trkpt>
<trkpt lat="38.145208" lon="14.968578">
<ele>56.000000</ele>
<time>2009-10-22T15:21:49Z</time>
</trkpt>
<trkpt lat="38.145282" lon="14.968651">
<ele>53.000000</ele>
<time>2009-10-22T15:21:51Z</time>
</trkpt>
<trkpt lat="38.145360" lon="14.968704">
<ele>52.300000</ele>
<time>2009-10-22T15:21:53Z</time>
</trkpt>
<trkpt lat="38.145424" lon="14.968746">
<ele>52.900000</ele>
<time>2009-10-22T15:21:54Z</time>
</trkpt>
<trkpt lat="38.145486" lon="14.968793">
<ele>53.400000</ele>
<time>2009-10-22T15:21:55Z</time>
</trkpt>
<trkpt lat="38.145593" lon="14.968874">
<ele>52.900000</ele>
<time>2009-10-22T15:21:57Z</time>
</trkpt>
<trkpt lat="38.145693" lon="14.968947">
<ele>52.600000</ele>
<time>2009-10-22T15:21:59Z</time>
</trkpt>
<trkpt lat="38.145810" lon="14.969035">
<ele>51.700000</ele>
<time>2009-10-22T15:22:01Z</time>
</trkpt>
<trkpt lat="38.145928" lon="14.969114">
<ele>50.800000</ele>
<time>2009-10-22T15:22:03Z</time>
</trkpt>
<trkpt lat="38.146011" lon="14.969180">
<ele>50.400000</ele>
<time>2009-10-22T15:22:05Z</time>
</trkpt>
<trkpt lat="38.146033" lon="14.969277">
<ele>44.400000</ele>
<time>2009-10-22T15:22:08Z</time>
</trkpt>
<trkpt lat="38.146022" lon="14.969394">
<ele>42.000000</ele>
<time>2009-10-22T15:22:11Z</time>
</trkpt>
<trkpt lat="38.145988" lon="14.969494">
<ele>40.400000</ele>
<time>2009-10-22T15:22:13Z</time>
</trkpt>
<trkpt lat="38.145927" lon="14.969609">
<ele>39.000000</ele>
<time>2009-10-22T15:22:15Z</time>
</trkpt>
<trkpt lat="38.145886" lon="14.969723">
<ele>39.300000</ele>
<time>2009-10-22T15:22:17Z</time>
</trkpt>
<trkpt lat="38.145867" lon="14.969858">
<ele>36.500000</ele>
<time>2009-10-22T15:22:19Z</time>
</trkpt>
<trkpt lat="38.145892" lon="14.969987">
<ele>34.000000</ele>
<time>2009-10-22T15:22:21Z</time>
</trkpt>
<trkpt lat="38.145927" lon="14.970132">
<ele>32.700000</ele>
<time>2009-10-22T15:22:23Z</time>
</trkpt>
<trkpt lat="38.145954" lon="14.970278">
<ele>31.200000</ele>
<time>2009-10-22T15:22:25Z</time>
</trkpt>
<trkpt lat="38.145964" lon="14.970397">
<ele>30.500000</ele>
<time>2009-10-22T15:22:27Z</time>
</trkpt>
<trkpt lat="38.146009" lon="14.970496">
<ele>29.800000</ele>
<time>2009-10-22T15:22:29Z</time>
</trkpt>
<trkpt lat="38.146119" lon="14.970561">
<ele>28.700000</ele>
<time>2009-10-22T15:22:31Z</time>
</trkpt>
<trkpt lat="38.146252" lon="14.970621">
<ele>28.200000</ele>
<time>2009-10-22T15:22:33Z</time>
</trkpt>
<trkpt lat="38.146328" lon="14.970653">
<ele>28.000000</ele>
<time>2009-10-22T15:22:34Z</time>
</trkpt>
<trkpt lat="38.146396" lon="14.970689">
<ele>28.900000</ele>
<time>2009-10-22T15:22:35Z</time>
</trkpt>
<trkpt lat="38.146468" lon="14.970726">
<ele>30.700000</ele>
<time>2009-10-22T15:22:36Z</time>
</trkpt>
<trkpt lat="38.146541" lon="14.970764">
<ele>32.500000</ele>
<time>2009-10-22T15:22:37Z</time>
</trkpt>
<trkpt lat="38.146611" lon="14.970801">
<ele>33.300000</ele>
<time>2009-10-22T15:22:38Z</time>
</trkpt>
<trkpt lat="38.146717" lon="14.970865">
<ele>34.000000</ele>
<time>2009-10-22T15:22:40Z</time>
</trkpt>
<trkpt lat="38.146781" lon="14.970912">
<ele>34.300000</ele>
<time>2009-10-22T15:22:41Z</time>
</trkpt>
<trkpt lat="38.146834" lon="14.970960">
<ele>33.500000</ele>
<time>2009-10-22T15:22:42Z</time>
</trkpt>
<trkpt lat="38.146939" lon="14.971065">
<ele>32.900000</ele>
<time>2009-10-22T15:22:44Z</time>
</trkpt>
<trkpt lat="38.146994" lon="14.971139">
<ele>32.600000</ele>
<time>2009-10-22T15:22:45Z</time>
</trkpt>
<trkpt lat="38.147050" lon="14.971217">
<ele>32.200000</ele>
<time>2009-10-22T15:22:46Z</time>
</trkpt>
<trkpt lat="38.147117" lon="14.971304">
<ele>31.800000</ele>
<time>2009-10-22T15:22:47Z</time>
</trkpt>
<trkpt lat="38.147174" lon="14.971392">
<ele>32.600000</ele>
<time>2009-10-22T15:22:48Z</time>
</trkpt>
<trkpt lat="38.147229" lon="14.971477">
<ele>32.900000</ele>
<time>2009-10-22T15:22:49Z</time>
</trkpt>
<trkpt lat="38.147262" lon="14.971574">
<ele>31.300000</ele>
<time>2009-10-22T15:22:50Z</time>
</trkpt>
<trkpt lat="38.147311" lon="14.971659">
<ele>29.700000</ele>
<time>2009-10-22T15:22:51Z</time>
</trkpt>
<trkpt lat="38.147359" lon="14.971741">
<ele>28.500000</ele>
<time>2009-10-22T15:22:52Z</time>
</trkpt>
<trkpt lat="38.147397" lon="14.971834">
<ele>27.700000</ele>
<time>2009-10-22T15:22:53Z</time>
</trkpt>
<trkpt lat="38.147443" lon="14.971911">
<ele>25.600000</ele>
<time>2009-10-22T15:22:54Z</time>
</trkpt>
<trkpt lat="38.147488" lon="14.971989">
<ele>24.700000</ele>
<time>2009-10-22T15:22:55Z</time>
</trkpt>
<trkpt lat="38.147547" lon="14.972056">
<ele>25.000000</ele>
<time>2009-10-22T15:22:56Z</time>
</trkpt>
<trkpt lat="38.147598" lon="14.972133">
<ele>24.300000</ele>
<time>2009-10-22T15:22:57Z</time>
</trkpt>
<trkpt lat="38.147643" lon="14.972209">
<ele>22.300000</ele>
<time>2009-10-22T15:22:58Z</time>
</trkpt>
<trkpt lat="38.147724" lon="14.972329">
<ele>22.300000</ele>
<time>2009-10-22T15:23:00Z</time>
</trkpt>
<trkpt lat="38.147778" lon="14.972414">
<ele>22.900000</ele>
<time>2009-10-22T15:23:02Z</time>
</trkpt>
<trkpt lat="38.147873" lon="14.972380">
<ele>18.400000</ele>
<time>2009-10-22T15:23:12Z</time>
</trkpt>
<trkpt lat="38.147925" lon="14.972304">
<ele>18.600000</ele>
<time>2009-10-22T15:23:14Z</time>
</trkpt>
<trkpt lat="38.147968" lon="14.972196">
<ele>18.800000</ele>
<time>2009-10-22T15:23:16Z</time>
</trkpt>
<trkpt lat="38.148028" lon="14.972036">
<ele>19.300000</ele>
<time>2009-10-22T15:23:18Z</time>
</trkpt>
<trkpt lat="38.148066" lon="14.971947">
<ele>19.900000</ele>
<time>2009-10-22T15:23:19Z</time>
</trkpt>
<trkpt lat="38.148100" lon="14.971862">
<ele>20.300000</ele>
<time>2009-10-22T15:23:20Z</time>
</trkpt>
<trkpt lat="38.148134" lon="14.971771">
<ele>21.400000</ele>
<time>2009-10-22T15:23:21Z</time>
</trkpt>
<trkpt lat="38.148179" lon="14.971603">
<ele>22.700000</ele>
<time>2009-10-22T15:23:23Z</time>
</trkpt>
<trkpt lat="38.148229" lon="14.971461">
<ele>23.500000</ele>
<time>2009-10-22T15:23:25Z</time>
</trkpt>
<trkpt lat="38.148279" lon="14.971318">
<ele>24.000000</ele>
<time>2009-10-22T15:23:27Z</time>
</trkpt>
<trkpt lat="38.148339" lon="14.971199">
<ele>24.500000</ele>
<time>2009-10-22T15:23:29Z</time>
</trkpt>
<trkpt lat="38.148392" lon="14.971080">
<ele>25.000000</ele>
<time>2009-10-22T15:23:31Z</time>
</trkpt>
<trkpt lat="38.148454" lon="14.970962">
<ele>25.600000</ele>
<time>2009-10-22T15:23:33Z</time>
</trkpt>
<trkpt lat="38.148530" lon="14.970885">
<ele>26.100000</ele>
<time>2009-10-22T15:23:35Z</time>
</trkpt>
<trkpt lat="38.148629" lon="14.970903">
<ele>26.300000</ele>
<time>2009-10-22T15:23:37Z</time>
</trkpt>
<trkpt lat="38.148732" lon="14.970981">
<ele>26.500000</ele>
<time>2009-10-22T15:23:39Z</time>
</trkpt>
<trkpt lat="38.148794" lon="14.971029">
<ele>26.400000</ele>
<time>2009-10-22T15:23:40Z</time>
</trkpt>
<trkpt lat="38.148862" lon="14.971080">
<ele>26.100000</ele>
<time>2009-10-22T15:23:41Z</time>
</trkpt>
<trkpt lat="38.148922" lon="14.971129">
<ele>24.600000</ele>
<time>2009-10-22T15:23:42Z</time>
</trkpt>
<trkpt lat="38.148984" lon="14.971177">
<ele>23.500000</ele>
<time>2009-10-22T15:23:43Z</time>
</trkpt>
<trkpt lat="38.149046" lon="14.971227">
<ele>22.100000</ele>
<time>2009-10-22T15:23:44Z</time>
</trkpt>
<trkpt lat="38.149115" lon="14.971275">
<ele>21.700000</ele>
<time>2009-10-22T15:23:45Z</time>
</trkpt>
<trkpt lat="38.149181" lon="14.971324">
<ele>21.500000</ele>
<time>2009-10-22T15:23:46Z</time>
</trkpt>
<trkpt lat="38.149251" lon="14.971370">
<ele>21.600000</ele>
<time>2009-10-22T15:23:47Z</time>
</trkpt>
<trkpt lat="38.149318" lon="14.971418">
<ele>21.300000</ele>
<time>2009-10-22T15:23:48Z</time>
</trkpt>
<trkpt lat="38.149383" lon="14.971466">
<ele>21.000000</ele>
<time>2009-10-22T15:23:49Z</time>
</trkpt>
<trkpt lat="38.149449" lon="14.971511">
<ele>20.600000</ele>
<time>2009-10-22T15:23:50Z</time>
</trkpt>
<trkpt lat="38.149557" lon="14.971581">
<ele>20.400000</ele>
<time>2009-10-22T15:23:52Z</time>
</trkpt>
<trkpt lat="38.149467" lon="14.971618">
<ele>-2.600000</ele>
<time>2009-10-22T15:24:56Z</time>
</trkpt>
<trkpt lat="38.149536" lon="14.971672">
<ele>0.200000</ele>
<time>2009-10-22T15:24:59Z</time>
</trkpt>
<trkpt lat="38.149602" lon="14.971744">
<ele>-0.200000</ele>
<time>2009-10-22T15:25:01Z</time>
</trkpt>
<trkpt lat="38.149670" lon="14.971825">
<ele>1.200000</ele>
<time>2009-10-22T15:25:03Z</time>
</trkpt>
<trkpt lat="38.149747" lon="14.971870">
<ele>0.600000</ele>
<time>2009-10-22T15:25:04Z</time>
</trkpt>
<trkpt lat="38.149843" lon="14.971920">
<ele>0.600000</ele>
<time>2009-10-22T15:25:05Z</time>
</trkpt>
<trkpt lat="38.149925" lon="14.971962">
<ele>2.100000</ele>
<time>2009-10-22T15:25:06Z</time>
</trkpt>
<trkpt lat="38.150013" lon="14.971996">
<ele>3.800000</ele>
<time>2009-10-22T15:25:07Z</time>
</trkpt>
<trkpt lat="38.150098" lon="14.972040">
<ele>5.500000</ele>
<time>2009-10-22T15:25:08Z</time>
</trkpt>
<trkpt lat="38.150170" lon="14.972082">
<ele>5.600000</ele>
<time>2009-10-22T15:25:09Z</time>
</trkpt>
<trkpt lat="38.150299" lon="14.972162">
<ele>6.100000</ele>
<time>2009-10-22T15:25:11Z</time>
</trkpt>
<trkpt lat="38.150364" lon="14.972199">
<ele>6.300000</ele>
<time>2009-10-22T15:25:12Z</time>
</trkpt>
<trkpt lat="38.150465" lon="14.972255">
<ele>7.300000</ele>
<time>2009-10-22T15:25:14Z</time>
</trkpt>
<trkpt lat="38.150554" lon="14.972300">
<ele>7.200000</ele>
<time>2009-10-22T15:25:16Z</time>
</trkpt>
<trkpt lat="38.150652" lon="14.972275">
<ele>8.400000</ele>
<time>2009-10-22T15:25:18Z</time>
</trkpt>
<trkpt lat="38.150728" lon="14.972179">
<ele>10.200000</ele>
<time>2009-10-22T15:25:20Z</time>
</trkpt>
<trkpt lat="38.150788" lon="14.972077">
<ele>11.400000</ele>
<time>2009-10-22T15:25:22Z</time>
</trkpt>
<trkpt lat="38.150839" lon="14.972000">
<ele>12.900000</ele>
<time>2009-10-22T15:25:24Z</time>
</trkpt>
<trkpt lat="38.150885" lon="14.971911">
<ele>13.600000</ele>
<time>2009-10-22T15:25:26Z</time>
</trkpt>
<trkpt lat="38.150936" lon="14.971812">
<ele>13.600000</ele>
<time>2009-10-22T15:25:28Z</time>
</trkpt>
<trkpt lat="38.151000" lon="14.971683">
<ele>13.000000</ele>
<time>2009-10-22T15:25:30Z</time>
</trkpt>
<trkpt lat="38.151047" lon="14.971611">
<ele>12.800000</ele>
<time>2009-10-22T15:25:31Z</time>
</trkpt>
<trkpt lat="38.151092" lon="14.971531">
<ele>12.500000</ele>
<time>2009-10-22T15:25:32Z</time>
</trkpt>
<trkpt lat="38.151175" lon="14.971372">
<ele>12.000000</ele>
<time>2009-10-22T15:25:34Z</time>
</trkpt>
<trkpt lat="38.151222" lon="14.971301">
<ele>11.900000</ele>
<time>2009-10-22T15:25:35Z</time>
</trkpt>
<trkpt lat="38.151299" lon="14.971173">
<ele>11.600000</ele>
<time>2009-10-22T15:25:37Z</time>
</trkpt>
<trkpt lat="38.151354" lon="14.971095">
<ele>11.700000</ele>
<time>2009-10-22T15:25:38Z</time>
</trkpt>
<trkpt lat="38.151406" lon="14.970939">
<ele>11.700000</ele>
<time>2009-10-22T15:25:40Z</time>
</trkpt>
<trkpt lat="38.151445" lon="14.970776">
<ele>12.700000</ele>
<time>2009-10-22T15:25:42Z</time>
</trkpt>
<trkpt lat="38.151494" lon="14.970628">
<ele>13.500000</ele>
<time>2009-10-22T15:25:44Z</time>
</trkpt>
<trkpt lat="38.151572" lon="14.970490">
<ele>13.500000</ele>
<time>2009-10-22T15:25:46Z</time>
</trkpt>
<trkpt lat="38.151610" lon="14.970410">
<ele>13.200000</ele>
<time>2009-10-22T15:25:47Z</time>
</trkpt>
<trkpt lat="38.151652" lon="14.970334">
<ele>13.000000</ele>
<time>2009-10-22T15:25:48Z</time>
</trkpt>
<trkpt lat="38.151695" lon="14.970252">
<ele>13.100000</ele>
<time>2009-10-22T15:25:49Z</time>
</trkpt>
<trkpt lat="38.151737" lon="14.970165">
<ele>13.300000</ele>
<time>2009-10-22T15:25:50Z</time>
</trkpt>
<trkpt lat="38.151788" lon="14.970071">
<ele>13.200000</ele>
<time>2009-10-22T15:25:51Z</time>
</trkpt>
<trkpt lat="38.151813" lon="14.969969">
<ele>13.200000</ele>
<time>2009-10-22T15:25:52Z</time>
</trkpt>
<trkpt lat="38.151847" lon="14.969865">
<ele>13.400000</ele>
<time>2009-10-22T15:25:53Z</time>
</trkpt>
<trkpt lat="38.151886" lon="14.969766">
<ele>13.700000</ele>
<time>2009-10-22T15:25:54Z</time>
</trkpt>
<trkpt lat="38.151919" lon="14.969679">
<ele>14.100000</ele>
<time>2009-10-22T15:25:55Z</time>
</trkpt>
<trkpt lat="38.151954" lon="14.969586">
<ele>14.700000</ele>
<time>2009-10-22T15:25:56Z</time>
</trkpt>
<trkpt lat="38.151981" lon="14.969497">
<ele>15.400000</ele>
<time>2009-10-22T15:25:57Z</time>
</trkpt>
<trkpt lat="38.152032" lon="14.969359">
<ele>16.700000</ele>
<time>2009-10-22T15:25:59Z</time>
</trkpt>
<trkpt lat="38.152076" lon="14.969245">
<ele>16.700000</ele>
<time>2009-10-22T15:26:01Z</time>
</trkpt>
<trkpt lat="38.152133" lon="14.969147">
<ele>15.100000</ele>
<time>2009-10-22T15:26:03Z</time>
</trkpt>
<trkpt lat="38.152177" lon="14.969057">
<ele>14.700000</ele>
<time>2009-10-22T15:26:05Z</time>
</trkpt>
<trkpt lat="38.152233" lon="14.968962">
<ele>13.700000</ele>
<time>2009-10-22T15:26:12Z</time>
</trkpt>
<trkpt lat="38.152279" lon="14.968865">
<ele>13.000000</ele>
<time>2009-10-22T15:26:15Z</time>
</trkpt>
<trkpt lat="38.152329" lon="14.968784">
<ele>11.300000</ele>
<time>2009-10-22T15:26:17Z</time>
</trkpt>
<trkpt lat="38.152375" lon="14.968702">
<ele>10.700000</ele>
<time>2009-10-22T15:26:19Z</time>
</trkpt>
<trkpt lat="38.152416" lon="14.968628">
<ele>10.100000</ele>
<time>2009-10-22T15:26:21Z</time>
</trkpt>
<trkpt lat="38.152462" lon="14.968534">
<ele>10.000000</ele>
<time>2009-10-22T15:26:23Z</time>
</trkpt>
<trkpt lat="38.152504" lon="14.968436">
<ele>9.900000</ele>
<time>2009-10-22T15:26:25Z</time>
</trkpt>
<trkpt lat="38.152564" lon="14.968311">
<ele>9.200000</ele>
<time>2009-10-22T15:26:27Z</time>
</trkpt>
<trkpt lat="38.152630" lon="14.968193">
<ele>7.600000</ele>
<time>2009-10-22T15:26:29Z</time>
</trkpt>
<trkpt lat="38.152674" lon="14.968042">
<ele>8.500000</ele>
<time>2009-10-22T15:26:31Z</time>
</trkpt>
<trkpt lat="38.152725" lon="14.967884">
<ele>9.400000</ele>
<time>2009-10-22T15:26:33Z</time>
</trkpt>
<trkpt lat="38.152778" lon="14.967760">
<ele>10.200000</ele>
<time>2009-10-22T15:26:35Z</time>
</trkpt>
<trkpt lat="38.152816" lon="14.967664">
<ele>10.800000</ele>
<time>2009-10-22T15:26:37Z</time>
</trkpt>
<trkpt lat="38.152838" lon="14.967561">
<ele>17.200000</ele>
<time>2009-10-22T15:26:42Z</time>
</trkpt>
<trkpt lat="38.152901" lon="14.967479">
<ele>15.400000</ele>
<time>2009-10-22T15:26:47Z</time>
</trkpt>
<trkpt lat="38.152963" lon="14.967367">
<ele>15.000000</ele>
<time>2009-10-22T15:26:49Z</time>
</trkpt>
<trkpt lat="38.152999" lon="14.967293">
<ele>15.000000</ele>
<time>2009-10-22T15:26:50Z</time>
</trkpt>
<trkpt lat="38.153028" lon="14.967191">
<ele>14.800000</ele>
<time>2009-10-22T15:26:51Z</time>
</trkpt>
<trkpt lat="38.153067" lon="14.967106">
<ele>14.800000</ele>
<time>2009-10-22T15:26:52Z</time>
</trkpt>
<trkpt lat="38.153109" lon="14.967023">
<ele>14.700000</ele>
<time>2009-10-22T15:26:53Z</time>
</trkpt>
<trkpt lat="38.153142" lon="14.966945">
<ele>15.800000</ele>
<time>2009-10-22T15:26:54Z</time>
</trkpt>
<trkpt lat="38.153195" lon="14.966779">
<ele>16.400000</ele>
<time>2009-10-22T15:26:56Z</time>
</trkpt>
<trkpt lat="38.153312" lon="14.966689">
<ele>15.500000</ele>
<time>2009-10-22T15:26:58Z</time>
</trkpt>
<trkpt lat="38.153341" lon="14.966565">
<ele>14.700000</ele>
<time>2009-10-22T15:27:00Z</time>
</trkpt>
<trkpt lat="38.153393" lon="14.966472">
<ele>13.000000</ele>
<time>2009-10-22T15:27:02Z</time>
</trkpt>
<trkpt lat="38.153446" lon="14.966377">
<ele>11.100000</ele>
<time>2009-10-22T15:27:04Z</time>
</trkpt>
<trkpt lat="38.153531" lon="14.966255">
<ele>9.900000</ele>
<time>2009-10-22T15:27:06Z</time>
</trkpt>
<trkpt lat="38.153589" lon="14.966207">
<ele>9.800000</ele>
<time>2009-10-22T15:27:07Z</time>
</trkpt>
<trkpt lat="38.153655" lon="14.966142">
<ele>9.700000</ele>
<time>2009-10-22T15:27:08Z</time>
</trkpt>
<trkpt lat="38.153714" lon="14.966078">
<ele>9.900000</ele>
<time>2009-10-22T15:27:09Z</time>
</trkpt>
<trkpt lat="38.153777" lon="14.966012">
<ele>10.000000</ele>
<time>2009-10-22T15:27:10Z</time>
</trkpt>
<trkpt lat="38.153843" lon="14.965942">
<ele>9.800000</ele>
<time>2009-10-22T15:27:11Z</time>
</trkpt>
<trkpt lat="38.153912" lon="14.965873">
<ele>9.700000</ele>
<time>2009-10-22T15:27:12Z</time>
</trkpt>
<trkpt lat="38.153976" lon="14.965802">
<ele>9.600000</ele>
<time>2009-10-22T15:27:13Z</time>
</trkpt>
<trkpt lat="38.154036" lon="14.965735">
<ele>9.500000</ele>
<time>2009-10-22T15:27:14Z</time>
</trkpt>
<trkpt lat="38.154089" lon="14.965685">
<ele>9.700000</ele>
<time>2009-10-22T15:27:15Z</time>
</trkpt>
<trkpt lat="38.154174" lon="14.965600">
<ele>9.800000</ele>
<time>2009-10-22T15:27:17Z</time>
</trkpt>
<trkpt lat="38.154262" lon="14.965491">
<ele>11.900000</ele>
<time>2009-10-22T15:27:19Z</time>
</trkpt>
<trkpt lat="38.154376" lon="14.965398">
<ele>11.600000</ele>
<time>2009-10-22T15:27:21Z</time>
</trkpt>
<trkpt lat="38.154453" lon="14.965348">
<ele>13.200000</ele>
<time>2009-10-22T15:27:23Z</time>
</trkpt>
<trkpt lat="38.154507" lon="14.965300">
<ele>16.500000</ele>
<time>2009-10-22T15:27:25Z</time>
</trkpt>
<trkpt lat="38.154614" lon="14.965233">
<ele>19.900000</ele>
<time>2009-10-22T15:27:28Z</time>
</trkpt>
<trkpt lat="38.154741" lon="14.965137">
<ele>21.300000</ele>
<time>2009-10-22T15:27:30Z</time>
</trkpt>
<trkpt lat="38.154815" lon="14.965102">
<ele>22.100000</ele>
<time>2009-10-22T15:27:31Z</time>
</trkpt>
<trkpt lat="38.154890" lon="14.965073">
<ele>22.500000</ele>
<time>2009-10-22T15:27:32Z</time>
</trkpt>
<trkpt lat="38.154963" lon="14.965044">
<ele>22.200000</ele>
<time>2009-10-22T15:27:33Z</time>
</trkpt>
<trkpt lat="38.155089" lon="14.964997">
<ele>23.400000</ele>
<time>2009-10-22T15:27:35Z</time>
</trkpt>
<trkpt lat="38.155199" lon="14.964955">
<ele>21.600000</ele>
<time>2009-10-22T15:27:37Z</time>
</trkpt>
<trkpt lat="38.155308" lon="14.964907">
<ele>22.400000</ele>
<time>2009-10-22T15:27:39Z</time>
</trkpt>
<trkpt lat="38.155426" lon="14.964844">
<ele>27.600000</ele>
<time>2009-10-22T15:27:41Z</time>
</trkpt>
<trkpt lat="38.155545" lon="14.964772">
<ele>29.500000</ele>
<time>2009-10-22T15:27:43Z</time>
</trkpt>
<trkpt lat="38.155666" lon="14.964676">
<ele>30.300000</ele>
<time>2009-10-22T15:27:45Z</time>
</trkpt>
<trkpt lat="38.155728" lon="14.964615">
<ele>30.000000</ele>
<time>2009-10-22T15:27:46Z</time>
</trkpt>
<trkpt lat="38.155808" lon="14.964546">
<ele>29.200000</ele>
<time>2009-10-22T15:27:47Z</time>
</trkpt>
<trkpt lat="38.155880" lon="14.964458">
<ele>28.800000</ele>
<time>2009-10-22T15:27:48Z</time>
</trkpt>
<trkpt lat="38.155951" lon="14.964372">
<ele>28.300000</ele>
<time>2009-10-22T15:27:49Z</time>
</trkpt>
<trkpt lat="38.156021" lon="14.964280">
<ele>27.700000</ele>
<time>2009-10-22T15:27:50Z</time>
</trkpt>
<trkpt lat="38.156096" lon="14.964179">
<ele>27.400000</ele>
<time>2009-10-22T15:27:51Z</time>
</trkpt>
<trkpt lat="38.156168" lon="14.964089">
<ele>27.200000</ele>
<time>2009-10-22T15:27:52Z</time>
</trkpt>
<trkpt lat="38.156234" lon="14.964005">
<ele>27.200000</ele>
<time>2009-10-22T15:27:53Z</time>
</trkpt>
<trkpt lat="38.156308" lon="14.963928">
<ele>26.800000</ele>
<time>2009-10-22T15:27:54Z</time>
</trkpt>
<trkpt lat="38.156390" lon="14.963842">
<ele>26.200000</ele>
<time>2009-10-22T15:27:55Z</time>
</trkpt>
<trkpt lat="38.156473" lon="14.963749">
<ele>25.600000</ele>
<time>2009-10-22T15:27:56Z</time>
</trkpt>
<trkpt lat="38.156551" lon="14.963655">
<ele>25.300000</ele>
<time>2009-10-22T15:27:57Z</time>
</trkpt>
<trkpt lat="38.156630" lon="14.963557">
<ele>25.200000</ele>
<time>2009-10-22T15:27:58Z</time>
</trkpt>
<trkpt lat="38.156710" lon="14.963461">
<ele>25.000000</ele>
<time>2009-10-22T15:27:59Z</time>
</trkpt>
<trkpt lat="38.156791" lon="14.963357">
<ele>24.200000</ele>
<time>2009-10-22T15:28:00Z</time>
</trkpt>
<trkpt lat="38.156875" lon="14.963255">
<ele>23.600000</ele>
<time>2009-10-22T15:28:01Z</time>
</trkpt>
<trkpt lat="38.156956" lon="14.963155">
<ele>23.300000</ele>
<time>2009-10-22T15:28:02Z</time>
</trkpt>
<trkpt lat="38.157038" lon="14.963055">
<ele>22.900000</ele>
<time>2009-10-22T15:28:03Z</time>
</trkpt>
<trkpt lat="38.157120" lon="14.962954">
<ele>22.600000</ele>
<time>2009-10-22T15:28:04Z</time>
</trkpt>
<trkpt lat="38.157213" lon="14.962842">
<ele>22.500000</ele>
<time>2009-10-22T15:28:05Z</time>
</trkpt>
<trkpt lat="38.157301" lon="14.962736">
<ele>22.100000</ele>
<time>2009-10-22T15:28:06Z</time>
</trkpt>
<trkpt lat="38.157400" lon="14.962618">
<ele>21.600000</ele>
<time>2009-10-22T15:28:07Z</time>
</trkpt>
<trkpt lat="38.157493" lon="14.962505">
<ele>20.900000</ele>
<time>2009-10-22T15:28:08Z</time>
</trkpt>
<trkpt lat="38.157586" lon="14.962391">
<ele>20.400000</ele>
<time>2009-10-22T15:28:09Z</time>
</trkpt>
<trkpt lat="38.157683" lon="14.962276">
<ele>19.900000</ele>
<time>2009-10-22T15:28:10Z</time>
</trkpt>
<trkpt lat="38.157784" lon="14.962151">
<ele>19.400000</ele>
<time>2009-10-22T15:28:11Z</time>
</trkpt>
<trkpt lat="38.157882" lon="14.962032">
<ele>18.800000</ele>
<time>2009-10-22T15:28:12Z</time>
</trkpt>
<trkpt lat="38.157981" lon="14.961911">
<ele>18.300000</ele>
<time>2009-10-22T15:28:13Z</time>
</trkpt>
<trkpt lat="38.158079" lon="14.961792">
<ele>17.800000</ele>
<time>2009-10-22T15:28:14Z</time>
</trkpt>
<trkpt lat="38.158179" lon="14.961673">
<ele>17.200000</ele>
<time>2009-10-22T15:28:15Z</time>
</trkpt>
<trkpt lat="38.158277" lon="14.961556">
<ele>16.700000</ele>
<time>2009-10-22T15:28:16Z</time>
</trkpt>
<trkpt lat="38.158367" lon="14.961447">
<ele>16.300000</ele>
<time>2009-10-22T15:28:17Z</time>
</trkpt>
<trkpt lat="38.158464" lon="14.961336">
<ele>16.100000</ele>
<time>2009-10-22T15:28:18Z</time>
</trkpt>
<trkpt lat="38.158560" lon="14.961227">
<ele>15.500000</ele>
<time>2009-10-22T15:28:19Z</time>
</trkpt>
<trkpt lat="38.158660" lon="14.961121">
<ele>14.700000</ele>
<time>2009-10-22T15:28:20Z</time>
</trkpt>
<trkpt lat="38.158748" lon="14.961023">
<ele>14.500000</ele>
<time>2009-10-22T15:28:21Z</time>
</trkpt>
<trkpt lat="38.158847" lon="14.960928">
<ele>14.100000</ele>
<time>2009-10-22T15:28:22Z</time>
</trkpt>
<trkpt lat="38.158933" lon="14.960838">
<ele>13.600000</ele>
<time>2009-10-22T15:28:23Z</time>
</trkpt>
<trkpt lat="38.159023" lon="14.960741">
<ele>13.400000</ele>
<time>2009-10-22T15:28:24Z</time>
</trkpt>
<trkpt lat="38.159112" lon="14.960648">
<ele>12.900000</ele>
<time>2009-10-22T15:28:25Z</time>
</trkpt>
<trkpt lat="38.159194" lon="14.960552">
<ele>12.500000</ele>
<time>2009-10-22T15:28:26Z</time>
</trkpt>
<trkpt lat="38.159271" lon="14.960452">
<ele>12.100000</ele>
<time>2009-10-22T15:28:27Z</time>
</trkpt>
<trkpt lat="38.159346" lon="14.960351">
<ele>12.000000</ele>
<time>2009-10-22T15:28:28Z</time>
</trkpt>
<trkpt lat="38.159410" lon="14.960262">
<ele>11.600000</ele>
<time>2009-10-22T15:28:29Z</time>
</trkpt>
<trkpt lat="38.159473" lon="14.960165">
<ele>11.400000</ele>
<time>2009-10-22T15:28:30Z</time>
</trkpt>
<trkpt lat="38.159521" lon="14.960087">
<ele>11.100000</ele>
<time>2009-10-22T15:28:31Z</time>
</trkpt>
<trkpt lat="38.159569" lon="14.960008">
<ele>10.700000</ele>
<time>2009-10-22T15:28:32Z</time>
</trkpt>
<trkpt lat="38.159617" lon="14.959921">
<ele>10.700000</ele>
<time>2009-10-22T15:28:33Z</time>
</trkpt>
<trkpt lat="38.159666" lon="14.959844">
<ele>10.400000</ele>
<time>2009-10-22T15:28:34Z</time>
</trkpt>
<trkpt lat="38.159725" lon="14.959719">
<ele>9.700000</ele>
<time>2009-10-22T15:28:36Z</time>
</trkpt>
<trkpt lat="38.159796" lon="14.959566">
<ele>9.600000</ele>
<time>2009-10-22T15:28:38Z</time>
</trkpt>
<trkpt lat="38.159834" lon="14.959485">
<ele>9.600000</ele>
<time>2009-10-22T15:28:39Z</time>
</trkpt>
<trkpt lat="38.159889" lon="14.959388">
<ele>9.600000</ele>
<time>2009-10-22T15:28:40Z</time>
</trkpt>
<trkpt lat="38.159950" lon="14.959270">
<ele>10.000000</ele>
<time>2009-10-22T15:28:41Z</time>
</trkpt>
<trkpt lat="38.160008" lon="14.959153">
<ele>9.600000</ele>
<time>2009-10-22T15:28:42Z</time>
</trkpt>
<trkpt lat="38.160071" lon="14.959034">
<ele>9.300000</ele>
<time>2009-10-22T15:28:43Z</time>
</trkpt>
<trkpt lat="38.160160" lon="14.958898">
<ele>9.200000</ele>
<time>2009-10-22T15:28:44Z</time>
</trkpt>
<trkpt lat="38.160249" lon="14.958776">
<ele>8.900000</ele>
<time>2009-10-22T15:28:45Z</time>
</trkpt>
<trkpt lat="38.160350" lon="14.958650">
<ele>8.800000</ele>
<time>2009-10-22T15:28:46Z</time>
</trkpt>
<trkpt lat="38.160441" lon="14.958543">
<ele>9.000000</ele>
<time>2009-10-22T15:28:47Z</time>
</trkpt>
<trkpt lat="38.160538" lon="14.958432">
<ele>9.300000</ele>
<time>2009-10-22T15:28:48Z</time>
</trkpt>
<trkpt lat="38.160641" lon="14.958328">
<ele>9.500000</ele>
<time>2009-10-22T15:28:49Z</time>
</trkpt>
<trkpt lat="38.160733" lon="14.958233">
<ele>9.600000</ele>
<time>2009-10-22T15:28:50Z</time>
</trkpt>
<trkpt lat="38.160833" lon="14.958132">
<ele>9.700000</ele>
<time>2009-10-22T15:28:51Z</time>
</trkpt>
<trkpt lat="38.160943" lon="14.958024">
<ele>9.700000</ele>
<time>2009-10-22T15:28:52Z</time>
</trkpt>
<trkpt lat="38.161048" lon="14.957920">
<ele>9.800000</ele>
<time>2009-10-22T15:28:53Z</time>
</trkpt>
<trkpt lat="38.161162" lon="14.957808">
<ele>10.100000</ele>
<time>2009-10-22T15:28:54Z</time>
</trkpt>
<trkpt lat="38.161276" lon="14.957690">
<ele>10.200000</ele>
<time>2009-10-22T15:28:55Z</time>
</trkpt>
<trkpt lat="38.161387" lon="14.957578">
<ele>10.100000</ele>
<time>2009-10-22T15:28:56Z</time>
</trkpt>
<trkpt lat="38.161500" lon="14.957468">
<ele>9.800000</ele>
<time>2009-10-22T15:28:57Z</time>
</trkpt>
<trkpt lat="38.161603" lon="14.957365">
<ele>9.900000</ele>
<time>2009-10-22T15:28:58Z</time>
</trkpt>
<trkpt lat="38.161709" lon="14.957256">
<ele>9.700000</ele>
<time>2009-10-22T15:28:59Z</time>
</trkpt>
<trkpt lat="38.161817" lon="14.957144">
<ele>9.500000</ele>
<time>2009-10-22T15:29:00Z</time>
</trkpt>
<trkpt lat="38.161925" lon="14.957033">
<ele>9.200000</ele>
<time>2009-10-22T15:29:01Z</time>
</trkpt>
<trkpt lat="38.162031" lon="14.956922">
<ele>8.900000</ele>
<time>2009-10-22T15:29:02Z</time>
</trkpt>
<trkpt lat="38.162142" lon="14.956814">
<ele>9.100000</ele>
<time>2009-10-22T15:29:03Z</time>
</trkpt>
<trkpt lat="38.162252" lon="14.956707">
<ele>9.300000</ele>
<time>2009-10-22T15:29:04Z</time>
</trkpt>
<trkpt lat="38.162359" lon="14.956603">
<ele>9.400000</ele>
<time>2009-10-22T15:29:05Z</time>
</trkpt>
<trkpt lat="38.162458" lon="14.956508">
<ele>9.500000</ele>
<time>2009-10-22T15:29:06Z</time>
</trkpt>
<trkpt lat="38.162568" lon="14.956416">
<ele>9.500000</ele>
<time>2009-10-22T15:29:07Z</time>
</trkpt>
<trkpt lat="38.162685" lon="14.956336">
<ele>9.800000</ele>
<time>2009-10-22T15:29:08Z</time>
</trkpt>
<trkpt lat="38.162808" lon="14.956265">
<ele>9.400000</ele>
<time>2009-10-22T15:29:09Z</time>
</trkpt>
<trkpt lat="38.162944" lon="14.956196">
<ele>9.500000</ele>
<time>2009-10-22T15:29:10Z</time>
</trkpt>
<trkpt lat="38.163083" lon="14.956135">
<ele>8.900000</ele>
<time>2009-10-22T15:29:11Z</time>
</trkpt>
<trkpt lat="38.163219" lon="14.956078">
<ele>9.100000</ele>
<time>2009-10-22T15:29:12Z</time>
</trkpt>
<trkpt lat="38.163354" lon="14.956021">
<ele>9.800000</ele>
<time>2009-10-22T15:29:13Z</time>
</trkpt>
<trkpt lat="38.163487" lon="14.955955">
<ele>9.000000</ele>
<time>2009-10-22T15:29:14Z</time>
</trkpt>
<trkpt lat="38.163607" lon="14.955898">
<ele>8.800000</ele>
<time>2009-10-22T15:29:15Z</time>
</trkpt>
<trkpt lat="38.163730" lon="14.955837">
<ele>8.100000</ele>
<time>2009-10-22T15:29:16Z</time>
</trkpt>
<trkpt lat="38.163843" lon="14.955784">
<ele>7.900000</ele>
<time>2009-10-22T15:29:17Z</time>
</trkpt>
<trkpt lat="38.163951" lon="14.955729">
<ele>7.300000</ele>
<time>2009-10-22T15:29:18Z</time>
</trkpt>
<trkpt lat="38.164066" lon="14.955678">
<ele>7.500000</ele>
<time>2009-10-22T15:29:19Z</time>
</trkpt>
<trkpt lat="38.164178" lon="14.955626">
<ele>7.600000</ele>
<time>2009-10-22T15:29:20Z</time>
</trkpt>
<trkpt lat="38.164292" lon="14.955574">
<ele>7.100000</ele>
<time>2009-10-22T15:29:21Z</time>
</trkpt>
<trkpt lat="38.164425" lon="14.955528">
<ele>8.400000</ele>
<time>2009-10-22T15:29:22Z</time>
</trkpt>
<trkpt lat="38.164534" lon="14.955463">
<ele>8.400000</ele>
<time>2009-10-22T15:29:23Z</time>
</trkpt>
<trkpt lat="38.164642" lon="14.955370">
<ele>8.200000</ele>
<time>2009-10-22T15:29:24Z</time>
</trkpt>
<trkpt lat="38.164731" lon="14.955259">
<ele>8.200000</ele>
<time>2009-10-22T15:29:25Z</time>
</trkpt>
<trkpt lat="38.164835" lon="14.955140">
<ele>8.300000</ele>
<time>2009-10-22T15:29:26Z</time>
</trkpt>
<trkpt lat="38.164942" lon="14.955012">
<ele>8.900000</ele>
<time>2009-10-22T15:29:27Z</time>
</trkpt>
<trkpt lat="38.165045" lon="14.954884">
<ele>9.100000</ele>
<time>2009-10-22T15:29:28Z</time>
</trkpt>
<trkpt lat="38.165149" lon="14.954754">
<ele>9.400000</ele>
<time>2009-10-22T15:29:29Z</time>
</trkpt>
<trkpt lat="38.165253" lon="14.954621">
<ele>10.000000</ele>
<time>2009-10-22T15:29:30Z</time>
</trkpt>
<trkpt lat="38.165357" lon="14.954492">
<ele>10.600000</ele>
<time>2009-10-22T15:29:31Z</time>
</trkpt>
<trkpt lat="38.165458" lon="14.954359">
<ele>11.100000</ele>
<time>2009-10-22T15:29:32Z</time>
</trkpt>
<trkpt lat="38.165558" lon="14.954228">
<ele>11.400000</ele>
<time>2009-10-22T15:29:33Z</time>
</trkpt>
<trkpt lat="38.165647" lon="14.954088">
<ele>12.000000</ele>
<time>2009-10-22T15:29:34Z</time>
</trkpt>
<trkpt lat="38.165730" lon="14.953942">
<ele>11.700000</ele>
<time>2009-10-22T15:29:35Z</time>
</trkpt>
<trkpt lat="38.165799" lon="14.953799">
<ele>11.400000</ele>
<time>2009-10-22T15:29:36Z</time>
</trkpt>
<trkpt lat="38.165861" lon="14.953660">
<ele>11.100000</ele>
<time>2009-10-22T15:29:37Z</time>
</trkpt>
<trkpt lat="38.165926" lon="14.953520">
<ele>10.800000</ele>
<time>2009-10-22T15:29:38Z</time>
</trkpt>
<trkpt lat="38.165984" lon="14.953394">
<ele>10.300000</ele>
<time>2009-10-22T15:29:39Z</time>
</trkpt>
<trkpt lat="38.166046" lon="14.953283">
<ele>9.900000</ele>
<time>2009-10-22T15:29:40Z</time>
</trkpt>
<trkpt lat="38.166123" lon="14.953185">
<ele>9.600000</ele>
<time>2009-10-22T15:29:41Z</time>
</trkpt>
<trkpt lat="38.166200" lon="14.953110">
<ele>9.300000</ele>
<time>2009-10-22T15:29:42Z</time>
</trkpt>
<trkpt lat="38.166288" lon="14.953037">
<ele>8.900000</ele>
<time>2009-10-22T15:29:43Z</time>
</trkpt>
<trkpt lat="38.166365" lon="14.952975">
<ele>8.700000</ele>
<time>2009-10-22T15:29:44Z</time>
</trkpt>
<trkpt lat="38.166440" lon="14.952918">
<ele>8.300000</ele>
<time>2009-10-22T15:29:45Z</time>
</trkpt>
<trkpt lat="38.166513" lon="14.952854">
<ele>8.000000</ele>
<time>2009-10-22T15:29:46Z</time>
</trkpt>
<trkpt lat="38.166629" lon="14.952698">
<ele>7.800000</ele>
<time>2009-10-22T15:29:48Z</time>
</trkpt>
<trkpt lat="38.166679" lon="14.952610">
<ele>7.900000</ele>
<time>2009-10-22T15:29:49Z</time>
</trkpt>
<trkpt lat="38.166713" lon="14.952516">
<ele>7.600000</ele>
<time>2009-10-22T15:29:50Z</time>
</trkpt>
<trkpt lat="38.166759" lon="14.952420">
<ele>7.500000</ele>
<time>2009-10-22T15:29:51Z</time>
</trkpt>
<trkpt lat="38.166809" lon="14.952313">
<ele>7.400000</ele>
<time>2009-10-22T15:29:52Z</time>
</trkpt>
<trkpt lat="38.166852" lon="14.952212">
<ele>7.000000</ele>
<time>2009-10-22T15:29:53Z</time>
</trkpt>
<trkpt lat="38.166895" lon="14.952105">
<ele>6.800000</ele>
<time>2009-10-22T15:29:54Z</time>
</trkpt>
<trkpt lat="38.166951" lon="14.951986">
<ele>6.400000</ele>
<time>2009-10-22T15:29:55Z</time>
</trkpt>
<trkpt lat="38.166999" lon="14.951872">
<ele>6.100000</ele>
<time>2009-10-22T15:29:56Z</time>
</trkpt>
<trkpt lat="38.167055" lon="14.951759">
<ele>6.000000</ele>
<time>2009-10-22T15:29:57Z</time>
</trkpt>
<trkpt lat="38.167110" lon="14.951643">
<ele>5.800000</ele>
<time>2009-10-22T15:29:58Z</time>
</trkpt>
<trkpt lat="38.167163" lon="14.951528">
<ele>5.700000</ele>
<time>2009-10-22T15:29:59Z</time>
</trkpt>
<trkpt lat="38.167223" lon="14.951417">
<ele>5.600000</ele>
<time>2009-10-22T15:30:00Z</time>
</trkpt>
<trkpt lat="38.167286" lon="14.951301">
<ele>5.400000</ele>
<time>2009-10-22T15:30:01Z</time>
</trkpt>
<trkpt lat="38.167355" lon="14.951195">
<ele>5.200000</ele>
<time>2009-10-22T15:30:02Z</time>
</trkpt>
<trkpt lat="38.167434" lon="14.951090">
<ele>5.300000</ele>
<time>2009-10-22T15:30:03Z</time>
</trkpt>
<trkpt lat="38.167505" lon="14.950983">
<ele>5.200000</ele>
<time>2009-10-22T15:30:04Z</time>
</trkpt>
<trkpt lat="38.167579" lon="14.950879">
<ele>5.200000</ele>
<time>2009-10-22T15:30:05Z</time>
</trkpt>
<trkpt lat="38.167659" lon="14.950783">
<ele>5.300000</ele>
<time>2009-10-22T15:30:06Z</time>
</trkpt>
<trkpt lat="38.167742" lon="14.950693">
<ele>5.400000</ele>
<time>2009-10-22T15:30:07Z</time>
</trkpt>
<trkpt lat="38.167826" lon="14.950606">
<ele>5.500000</ele>
<time>2009-10-22T15:30:08Z</time>
</trkpt>
<trkpt lat="38.167912" lon="14.950522">
<ele>5.400000</ele>
<time>2009-10-22T15:30:09Z</time>
</trkpt>
<trkpt lat="38.167994" lon="14.950446">
<ele>5.800000</ele>
<time>2009-10-22T15:30:10Z</time>
</trkpt>
<trkpt lat="38.168078" lon="14.950367">
<ele>5.800000</ele>
<time>2009-10-22T15:30:11Z</time>
</trkpt>
<trkpt lat="38.168158" lon="14.950289">
<ele>5.800000</ele>
<time>2009-10-22T15:30:12Z</time>
</trkpt>
<trkpt lat="38.168227" lon="14.950215">
<ele>5.900000</ele>
<time>2009-10-22T15:30:13Z</time>
</trkpt>
<trkpt lat="38.168300" lon="14.950136">
<ele>6.000000</ele>
<time>2009-10-22T15:30:14Z</time>
</trkpt>
<trkpt lat="38.168366" lon="14.950056">
<ele>6.100000</ele>
<time>2009-10-22T15:30:15Z</time>
</trkpt>
<trkpt lat="38.168464" lon="14.949934">
<ele>6.300000</ele>
<time>2009-10-22T15:30:17Z</time>
</trkpt>
<trkpt lat="38.168536" lon="14.949845">
<ele>6.500000</ele>
<time>2009-10-22T15:30:19Z</time>
</trkpt>
<trkpt lat="38.168620" lon="14.949747">
<ele>6.500000</ele>
<time>2009-10-22T15:30:21Z</time>
</trkpt>
<trkpt lat="38.168737" lon="14.949625">
<ele>6.600000</ele>
<time>2009-10-22T15:30:23Z</time>
</trkpt>
<trkpt lat="38.168810" lon="14.949556">
<ele>6.700000</ele>
<time>2009-10-22T15:30:24Z</time>
</trkpt>
<trkpt lat="38.168881" lon="14.949490">
<ele>6.600000</ele>
<time>2009-10-22T15:30:25Z</time>
</trkpt>
<trkpt lat="38.168965" lon="14.949419">
<ele>6.500000</ele>
<time>2009-10-22T15:30:26Z</time>
</trkpt>
<trkpt lat="38.169034" lon="14.949361">
<ele>6.500000</ele>
<time>2009-10-22T15:30:27Z</time>
</trkpt>
<trkpt lat="38.169097" lon="14.949304">
<ele>6.300000</ele>
<time>2009-10-22T15:30:28Z</time>
</trkpt>
<trkpt lat="38.169162" lon="14.949245">
<ele>6.200000</ele>
<time>2009-10-22T15:30:29Z</time>
</trkpt>
<trkpt lat="38.169224" lon="14.949192">
<ele>6.200000</ele>
<time>2009-10-22T15:30:30Z</time>
</trkpt>
<trkpt lat="38.169288" lon="14.949131">
<ele>6.300000</ele>
<time>2009-10-22T15:30:32Z</time>
</trkpt>
<trkpt lat="38.169361" lon="14.949070">
<ele>6.500000</ele>
<time>2009-10-22T15:30:34Z</time>
</trkpt>
<trkpt lat="38.169445" lon="14.949001">
<ele>6.800000</ele>
<time>2009-10-22T15:30:36Z</time>
</trkpt>
<trkpt lat="38.169512" lon="14.948949">
<ele>6.900000</ele>
<time>2009-10-22T15:30:37Z</time>
</trkpt>
<trkpt lat="38.169579" lon="14.948892">
<ele>7.000000</ele>
<time>2009-10-22T15:30:38Z</time>
</trkpt>
<trkpt lat="38.169646" lon="14.948834">
<ele>7.000000</ele>
<time>2009-10-22T15:30:39Z</time>
</trkpt>
<trkpt lat="38.169712" lon="14.948776">
<ele>7.100000</ele>
<time>2009-10-22T15:30:40Z</time>
</trkpt>
<trkpt lat="38.169779" lon="14.948719">
<ele>7.200000</ele>
<time>2009-10-22T15:30:41Z</time>
</trkpt>
<trkpt lat="38.169839" lon="14.948665">
<ele>7.200000</ele>
<time>2009-10-22T15:30:42Z</time>
</trkpt>
<trkpt lat="38.169916" lon="14.948603">
<ele>7.500000</ele>
<time>2009-10-22T15:30:44Z</time>
</trkpt>
<trkpt lat="38.169985" lon="14.948543">
<ele>7.900000</ele>
<time>2009-10-22T15:30:46Z</time>
</trkpt>
<trkpt lat="38.170088" lon="14.948463">
<ele>8.100000</ele>
<time>2009-10-22T15:30:48Z</time>
</trkpt>
<trkpt lat="38.170163" lon="14.948403">
<ele>8.200000</ele>
<time>2009-10-22T15:30:49Z</time>
</trkpt>
<trkpt lat="38.170241" lon="14.948343">
<ele>8.300000</ele>
<time>2009-10-22T15:30:50Z</time>
</trkpt>
<trkpt lat="38.170328" lon="14.948275">
<ele>8.200000</ele>
<time>2009-10-22T15:30:51Z</time>
</trkpt>
<trkpt lat="38.170421" lon="14.948207">
<ele>8.200000</ele>
<time>2009-10-22T15:30:52Z</time>
</trkpt>
<trkpt lat="38.170509" lon="14.948145">
<ele>8.400000</ele>
<time>2009-10-22T15:30:53Z</time>
</trkpt>
<trkpt lat="38.170586" lon="14.948086">
<ele>8.400000</ele>
<time>2009-10-22T15:30:54Z</time>
</trkpt>
<trkpt lat="38.170670" lon="14.948027">
<ele>8.600000</ele>
<time>2009-10-22T15:30:55Z</time>
</trkpt>
<trkpt lat="38.170743" lon="14.947973">
<ele>8.700000</ele>
<time>2009-10-22T15:30:56Z</time>
</trkpt>
<trkpt lat="38.170820" lon="14.947917">
<ele>8.800000</ele>
<time>2009-10-22T15:30:57Z</time>
</trkpt>
<trkpt lat="38.170882" lon="14.947870">
<ele>8.900000</ele>
<time>2009-10-22T15:30:58Z</time>
</trkpt>
<trkpt lat="38.170967" lon="14.947806">
<ele>9.300000</ele>
<time>2009-10-22T15:31:00Z</time>
</trkpt>
<trkpt lat="38.171034" lon="14.947755">
<ele>9.500000</ele>
<time>2009-10-22T15:31:02Z</time>
</trkpt>
<trkpt lat="38.171151" lon="14.947668">
<ele>9.500000</ele>
<time>2009-10-22T15:31:04Z</time>
</trkpt>
<trkpt lat="38.171219" lon="14.947620">
<ele>9.600000</ele>
<time>2009-10-22T15:31:05Z</time>
</trkpt>
<trkpt lat="38.171282" lon="14.947574">
<ele>9.700000</ele>
<time>2009-10-22T15:31:06Z</time>
</trkpt>
<trkpt lat="38.171347" lon="14.947525">
<ele>9.900000</ele>
<time>2009-10-22T15:31:07Z</time>
</trkpt>
<trkpt lat="38.171414" lon="14.947477">
<ele>9.900000</ele>
<time>2009-10-22T15:31:08Z</time>
</trkpt>
<trkpt lat="38.171481" lon="14.947429">
<ele>10.100000</ele>
<time>2009-10-22T15:31:09Z</time>
</trkpt>
<trkpt lat="38.171551" lon="14.947381">
<ele>10.300000</ele>
<time>2009-10-22T15:31:10Z</time>
</trkpt>
<trkpt lat="38.171621" lon="14.947329">
<ele>10.300000</ele>
<time>2009-10-22T15:31:11Z</time>
</trkpt>
<trkpt lat="38.171703" lon="14.947269">
<ele>10.400000</ele>
<time>2009-10-22T15:31:12Z</time>
</trkpt>
<trkpt lat="38.171793" lon="14.947203">
<ele>10.500000</ele>
<time>2009-10-22T15:31:13Z</time>
</trkpt>
<trkpt lat="38.171886" lon="14.947135">
<ele>10.600000</ele>
<time>2009-10-22T15:31:14Z</time>
</trkpt>
<trkpt lat="38.171962" lon="14.947079">
<ele>10.700000</ele>
<time>2009-10-22T15:31:15Z</time>
</trkpt>
<trkpt lat="38.172047" lon="14.947019">
<ele>10.700000</ele>
<time>2009-10-22T15:31:16Z</time>
</trkpt>
<trkpt lat="38.172128" lon="14.946958">
<ele>10.700000</ele>
<time>2009-10-22T15:31:17Z</time>
</trkpt>
<trkpt lat="38.172209" lon="14.946900">
<ele>10.800000</ele>
<time>2009-10-22T15:31:18Z</time>
</trkpt>
<trkpt lat="38.172280" lon="14.946844">
<ele>10.800000</ele>
<time>2009-10-22T15:31:19Z</time>
</trkpt>
<trkpt lat="38.172356" lon="14.946785">
<ele>11.000000</ele>
<time>2009-10-22T15:31:20Z</time>
</trkpt>
<trkpt lat="38.172431" lon="14.946728">
<ele>11.200000</ele>
<time>2009-10-22T15:31:21Z</time>
</trkpt>
<trkpt lat="38.172506" lon="14.946672">
<ele>11.300000</ele>
<time>2009-10-22T15:31:22Z</time>
</trkpt>
<trkpt lat="38.172571" lon="14.946622">
<ele>11.500000</ele>
<time>2009-10-22T15:31:23Z</time>
</trkpt>
<trkpt lat="38.172642" lon="14.946570">
<ele>11.600000</ele>
<time>2009-10-22T15:31:24Z</time>
</trkpt>
<trkpt lat="38.172710" lon="14.946516">
<ele>11.800000</ele>
<time>2009-10-22T15:31:25Z</time>
</trkpt>
<trkpt lat="38.172776" lon="14.946464">
<ele>12.000000</ele>
<time>2009-10-22T15:31:26Z</time>
</trkpt>
<trkpt lat="38.172840" lon="14.946414">
<ele>12.100000</ele>
<time>2009-10-22T15:31:27Z</time>
</trkpt>
<trkpt lat="38.172900" lon="14.946367">
<ele>12.300000</ele>
<time>2009-10-22T15:31:28Z</time>
</trkpt>
<trkpt lat="38.172998" lon="14.946298">
<ele>12.600000</ele>
<time>2009-10-22T15:31:30Z</time>
</trkpt>
<trkpt lat="38.173102" lon="14.946240">
<ele>11.900000</ele>
<time>2009-10-22T15:31:32Z</time>
</trkpt>
<trkpt lat="38.173236" lon="14.946166">
<ele>11.900000</ele>
<time>2009-10-22T15:31:34Z</time>
</trkpt>
<trkpt lat="38.173363" lon="14.946075">
<ele>12.100000</ele>
<time>2009-10-22T15:31:36Z</time>
</trkpt>
<trkpt lat="38.173429" lon="14.946026">
<ele>12.300000</ele>
<time>2009-10-22T15:31:37Z</time>
</trkpt>
<trkpt lat="38.173498" lon="14.945979">
<ele>12.400000</ele>
<time>2009-10-22T15:31:38Z</time>
</trkpt>
<trkpt lat="38.173569" lon="14.945934">
<ele>12.600000</ele>
<time>2009-10-22T15:31:39Z</time>
</trkpt>
<trkpt lat="38.173641" lon="14.945890">
<ele>12.800000</ele>
<time>2009-10-22T15:31:40Z</time>
</trkpt>
<trkpt lat="38.173717" lon="14.945851">
<ele>12.500000</ele>
<time>2009-10-22T15:31:41Z</time>
</trkpt>
<trkpt lat="38.173795" lon="14.945827">
<ele>12.300000</ele>
<time>2009-10-22T15:31:42Z</time>
</trkpt>
<trkpt lat="38.173873" lon="14.945816">
<ele>12.000000</ele>
<time>2009-10-22T15:31:43Z</time>
</trkpt>
<trkpt lat="38.173954" lon="14.945814">
<ele>11.700000</ele>
<time>2009-10-22T15:31:44Z</time>
</trkpt>
<trkpt lat="38.174035" lon="14.945817">
<ele>11.800000</ele>
<time>2009-10-22T15:31:45Z</time>
</trkpt>
<trkpt lat="38.174114" lon="14.945823">
<ele>11.900000</ele>
<time>2009-10-22T15:31:46Z</time>
</trkpt>
<trkpt lat="38.174194" lon="14.945831">
<ele>12.000000</ele>
<time>2009-10-22T15:31:47Z</time>
</trkpt>
<trkpt lat="38.174265" lon="14.945838">
<ele>11.600000</ele>
<time>2009-10-22T15:31:48Z</time>
</trkpt>
<trkpt lat="38.174340" lon="14.945845">
<ele>11.400000</ele>
<time>2009-10-22T15:31:49Z</time>
</trkpt>
<trkpt lat="38.174417" lon="14.945855">
<ele>11.300000</ele>
<time>2009-10-22T15:31:50Z</time>
</trkpt>
<trkpt lat="38.174492" lon="14.945865">
<ele>11.300000</ele>
<time>2009-10-22T15:31:51Z</time>
</trkpt>
<trkpt lat="38.174567" lon="14.945872">
<ele>11.300000</ele>
<time>2009-10-22T15:31:52Z</time>
</trkpt>
<trkpt lat="38.174645" lon="14.945877">
<ele>11.700000</ele>
<time>2009-10-22T15:31:53Z</time>
</trkpt>
<trkpt lat="38.174724" lon="14.945884">
<ele>12.100000</ele>
<time>2009-10-22T15:31:54Z</time>
</trkpt>
<trkpt lat="38.174800" lon="14.945888">
<ele>12.600000</ele>
<time>2009-10-22T15:31:55Z</time>
</trkpt>
<trkpt lat="38.174877" lon="14.945889">
<ele>13.100000</ele>
<time>2009-10-22T15:31:56Z</time>
</trkpt>
<trkpt lat="38.174954" lon="14.945888">
<ele>13.400000</ele>
<time>2009-10-22T15:31:57Z</time>
</trkpt>
<trkpt lat="38.175032" lon="14.945879">
<ele>14.000000</ele>
<time>2009-10-22T15:31:58Z</time>
</trkpt>
<trkpt lat="38.175122" lon="14.945858">
<ele>14.200000</ele>
<time>2009-10-22T15:31:59Z</time>
</trkpt>
<trkpt lat="38.175204" lon="14.945824">
<ele>14.400000</ele>
<time>2009-10-22T15:32:00Z</time>
</trkpt>
<trkpt lat="38.175282" lon="14.945775">
<ele>14.800000</ele>
<time>2009-10-22T15:32:01Z</time>
</trkpt>
<trkpt lat="38.175356" lon="14.945716">
<ele>15.200000</ele>
<time>2009-10-22T15:32:02Z</time>
</trkpt>
<trkpt lat="38.175429" lon="14.945651">
<ele>15.500000</ele>
<time>2009-10-22T15:32:03Z</time>
</trkpt>
<trkpt lat="38.175499" lon="14.945586">
<ele>15.800000</ele>
<time>2009-10-22T15:32:04Z</time>
</trkpt>
<trkpt lat="38.175568" lon="14.945520">
<ele>16.000000</ele>
<time>2009-10-22T15:32:05Z</time>
</trkpt>
<trkpt lat="38.175637" lon="14.945452">
<ele>16.200000</ele>
<time>2009-10-22T15:32:06Z</time>
</trkpt>
<trkpt lat="38.175694" lon="14.945387">
<ele>16.500000</ele>
<time>2009-10-22T15:32:07Z</time>
</trkpt>
<trkpt lat="38.175750" lon="14.945317">
<ele>16.800000</ele>
<time>2009-10-22T15:32:08Z</time>
</trkpt>
<trkpt lat="38.175801" lon="14.945246">
<ele>17.100000</ele>
<time>2009-10-22T15:32:09Z</time>
</trkpt>
<trkpt lat="38.175884" lon="14.945115">
<ele>17.300000</ele>
<time>2009-10-22T15:32:11Z</time>
</trkpt>
<trkpt lat="38.175929" lon="14.945047">
<ele>17.400000</ele>
<time>2009-10-22T15:32:12Z</time>
</trkpt>
<trkpt lat="38.175983" lon="14.944973">
<ele>17.400000</ele>
<time>2009-10-22T15:32:13Z</time>
</trkpt>
<trkpt lat="38.176085" lon="14.944842">
<ele>17.400000</ele>
<time>2009-10-22T15:32:15Z</time>
</trkpt>
<trkpt lat="38.176137" lon="14.944776">
<ele>17.500000</ele>
<time>2009-10-22T15:32:16Z</time>
</trkpt>
<trkpt lat="38.176244" lon="14.944647">
<ele>17.700000</ele>
<time>2009-10-22T15:32:18Z</time>
</trkpt>
<trkpt lat="38.176298" lon="14.944585">
<ele>17.900000</ele>
<time>2009-10-22T15:32:19Z</time>
</trkpt>
<trkpt lat="38.176406" lon="14.944465">
<ele>18.300000</ele>
<time>2009-10-22T15:32:21Z</time>
</trkpt>
<trkpt lat="38.176516" lon="14.944370">
<ele>18.600000</ele>
<time>2009-10-22T15:32:23Z</time>
</trkpt>
<trkpt lat="38.176620" lon="14.944292">
<ele>18.600000</ele>
<time>2009-10-22T15:32:25Z</time>
</trkpt>
<trkpt lat="38.176724" lon="14.944220">
<ele>18.700000</ele>
<time>2009-10-22T15:32:27Z</time>
</trkpt>
<trkpt lat="38.176808" lon="14.944153">
<ele>18.900000</ele>
<time>2009-10-22T15:32:29Z</time>
</trkpt>
<trkpt lat="38.176894" lon="14.944129">
<ele>19.100000</ele>
<time>2009-10-22T15:32:31Z</time>
</trkpt>
<trkpt lat="38.176964" lon="14.944195">
<ele>19.100000</ele>
<time>2009-10-22T15:32:33Z</time>
</trkpt>
<trkpt lat="38.177015" lon="14.944308">
<ele>18.600000</ele>
<time>2009-10-22T15:32:35Z</time>
</trkpt>
<trkpt lat="38.177065" lon="14.944424">
<ele>18.500000</ele>
<time>2009-10-22T15:32:37Z</time>
</trkpt>
<trkpt lat="38.177112" lon="14.944504">
<ele>18.100000</ele>
<time>2009-10-22T15:32:39Z</time>
</trkpt>
<trkpt lat="38.177196" lon="14.944526">
<ele>17.800000</ele>
<time>2009-10-22T15:32:43Z</time>
</trkpt>
<trkpt lat="38.177271" lon="14.944481">
<ele>17.500000</ele>
<time>2009-10-22T15:32:47Z</time>
</trkpt>
<trkpt lat="38.177330" lon="14.944392">
<ele>18.700000</ele>
<time>2009-10-22T15:41:10Z</time>
</trkpt>
<trkpt lat="38.177345" lon="14.944287">
<ele>18.300000</ele>
<time>2009-10-22T15:41:13Z</time>
</trkpt>
<trkpt lat="38.177329" lon="14.944200">
<ele>17.800000</ele>
<time>2009-10-22T15:41:15Z</time>
</trkpt>
<trkpt lat="38.177290" lon="14.944118">
<ele>17.200000</ele>
<time>2009-10-22T15:41:17Z</time>
</trkpt>
<trkpt lat="38.177235" lon="14.944035">
<ele>16.800000</ele>
<time>2009-10-22T15:41:19Z</time>
</trkpt>
<trkpt lat="38.177186" lon="14.943954">
<ele>16.700000</ele>
<time>2009-10-22T15:41:21Z</time>
</trkpt>
<trkpt lat="38.177158" lon="14.943843">
<ele>16.100000</ele>
<time>2009-10-22T15:41:24Z</time>
</trkpt>
<trkpt lat="38.177201" lon="14.943734">
<ele>14.900000</ele>
<time>2009-10-22T15:41:27Z</time>
</trkpt>
<trkpt lat="38.177246" lon="14.943651">
<ele>14.100000</ele>
<time>2009-10-22T15:41:29Z</time>
</trkpt>
<trkpt lat="38.177282" lon="14.943572">
<ele>12.700000</ele>
<time>2009-10-22T15:41:34Z</time>
</trkpt>
<trkpt lat="38.177238" lon="14.943464">
<ele>11.600000</ele>
<time>2009-10-22T15:41:43Z</time>
</trkpt>
<trkpt lat="38.177201" lon="14.943393">
<ele>11.400000</ele>
<time>2009-10-22T15:41:45Z</time>
</trkpt>
<trkpt lat="38.177159" lon="14.943301">
<ele>10.700000</ele>
<time>2009-10-22T15:41:49Z</time>
</trkpt>
<trkpt lat="38.177103" lon="14.943207">
<ele>10.500000</ele>
<time>2009-10-22T15:41:53Z</time>
</trkpt>
<trkpt lat="38.177053" lon="14.943124">
<ele>10.800000</ele>
<time>2009-10-22T15:41:57Z</time>
</trkpt>
<trkpt lat="38.176957" lon="14.942958">
<ele>10.500000</ele>
<time>2009-10-22T15:42:36Z</time>
</trkpt>
<trkpt lat="38.176888" lon="14.942980">
<ele>10.800000</ele>
<time>2009-10-22T15:42:40Z</time>
</trkpt>
<trkpt lat="38.176822" lon="14.943034">
<ele>10.500000</ele>
<time>2009-10-22T15:42:44Z</time>
</trkpt>
<trkpt lat="38.176734" lon="14.943099">
<ele>11.900000</ele>
<time>2009-10-22T15:42:47Z</time>
</trkpt>
<trkpt lat="38.176666" lon="14.943170">
<ele>14.100000</ele>
<time>2009-10-22T15:42:51Z</time>
</trkpt>
<trkpt lat="38.176599" lon="14.943232">
<ele>16.300000</ele>
<time>2009-10-22T15:42:57Z</time>
</trkpt>
<trkpt lat="38.176544" lon="14.943287">
<ele>17.100000</ele>
<time>2009-10-22T15:42:59Z</time>
</trkpt>
<trkpt lat="38.176472" lon="14.943346">
<ele>18.500000</ele>
<time>2009-10-22T15:43:01Z</time>
</trkpt>
<trkpt lat="38.176401" lon="14.943394">
<ele>19.600000</ele>
<time>2009-10-22T15:43:03Z</time>
</trkpt>
<trkpt lat="38.176330" lon="14.943435">
<ele>20.500000</ele>
<time>2009-10-22T15:43:05Z</time>
</trkpt>
<trkpt lat="38.176233" lon="14.943496">
<ele>22.300000</ele>
<time>2009-10-22T15:43:08Z</time>
</trkpt>
<trkpt lat="38.176163" lon="14.943553">
<ele>22.400000</ele>
<time>2009-10-22T15:43:10Z</time>
</trkpt>
<trkpt lat="38.176085" lon="14.943608">
<ele>21.500000</ele>
<time>2009-10-22T15:43:12Z</time>
</trkpt>
<trkpt lat="38.176010" lon="14.943661">
<ele>19.600000</ele>
<time>2009-10-22T15:43:14Z</time>
</trkpt>
<trkpt lat="38.175935" lon="14.943718">
<ele>18.900000</ele>
<time>2009-10-22T15:43:16Z</time>
</trkpt>
<trkpt lat="38.175851" lon="14.943788">
<ele>17.900000</ele>
<time>2009-10-22T15:43:18Z</time>
</trkpt>
<trkpt lat="38.175763" lon="14.943854">
<ele>17.100000</ele>
<time>2009-10-22T15:43:20Z</time>
</trkpt>
<trkpt lat="38.175685" lon="14.943916">
<ele>17.300000</ele>
<time>2009-10-22T15:43:22Z</time>
</trkpt>
<trkpt lat="38.175607" lon="14.943976">
<ele>16.900000</ele>
<time>2009-10-22T15:43:24Z</time>
</trkpt>
<trkpt lat="38.175533" lon="14.944041">
<ele>16.700000</ele>
<time>2009-10-22T15:43:26Z</time>
</trkpt>
<trkpt lat="38.175443" lon="14.944109">
<ele>17.100000</ele>
<time>2009-10-22T15:43:29Z</time>
</trkpt>
<trkpt lat="38.175375" lon="14.944168">
<ele>17.000000</ele>
<time>2009-10-22T15:43:32Z</time>
</trkpt>
<trkpt lat="38.175308" lon="14.944233">
<ele>17.000000</ele>
<time>2009-10-22T15:43:35Z</time>
</trkpt>
<trkpt lat="38.175247" lon="14.944280">
<ele>18.300000</ele>
<time>2009-10-22T15:43:39Z</time>
</trkpt>
<trkpt lat="38.175156" lon="14.944263">
<ele>21.400000</ele>
<time>2009-10-22T15:43:53Z</time>
</trkpt>
<trkpt lat="38.175114" lon="14.944187">
<ele>19.800000</ele>
<time>2009-10-22T15:43:55Z</time>
</trkpt>
<trkpt lat="38.175078" lon="14.944110">
<ele>18.200000</ele>
<time>2009-10-22T15:43:57Z</time>
</trkpt>
<trkpt lat="38.175032" lon="14.944011">
<ele>17.100000</ele>
<time>2009-10-22T15:43:59Z</time>
</trkpt>
<trkpt lat="38.174983" lon="14.943892">
<ele>16.000000</ele>
<time>2009-10-22T15:44:01Z</time>
</trkpt>
<trkpt lat="38.174907" lon="14.943768">
<ele>16.500000</ele>
<time>2009-10-22T15:44:03Z</time>
</trkpt>
<trkpt lat="38.174838" lon="14.943635">
<ele>15.800000</ele>
<time>2009-10-22T15:44:05Z</time>
</trkpt>
<trkpt lat="38.174780" lon="14.943527">
<ele>14.800000</ele>
<time>2009-10-22T15:44:07Z</time>
</trkpt>
<trkpt lat="38.174720" lon="14.943399">
<ele>13.400000</ele>
<time>2009-10-22T15:44:09Z</time>
</trkpt>
<trkpt lat="38.174638" lon="14.943263">
<ele>11.600000</ele>
<time>2009-10-22T15:44:11Z</time>
</trkpt>
<trkpt lat="38.174578" lon="14.943163">
<ele>11.400000</ele>
<time>2009-10-22T15:44:13Z</time>
</trkpt>
<trkpt lat="38.174536" lon="14.943072">
<ele>10.100000</ele>
<time>2009-10-22T15:44:15Z</time>
</trkpt>
<trkpt lat="38.174508" lon="14.942935">
<ele>9.300000</ele>
<time>2009-10-22T15:44:17Z</time>
</trkpt>
<trkpt lat="38.174482" lon="14.942806">
<ele>8.400000</ele>
<time>2009-10-22T15:44:19Z</time>
</trkpt>
<trkpt lat="38.174408" lon="14.942677">
<ele>10.000000</ele>
<time>2009-10-22T15:44:21Z</time>
</trkpt>
<trkpt lat="38.174384" lon="14.942581">
<ele>12.100000</ele>
<time>2009-10-22T15:44:23Z</time>
</trkpt>
<trkpt lat="38.174388" lon="14.942479">
<ele>12.400000</ele>
<time>2009-10-22T15:44:28Z</time>
</trkpt>
<trkpt lat="38.174376" lon="14.942391">
<ele>12.400000</ele>
<time>2009-10-22T15:44:32Z</time>
</trkpt>
<trkpt lat="38.174383" lon="14.942266">
<ele>11.700000</ele>
<time>2009-10-22T15:44:43Z</time>
</trkpt>
<trkpt lat="38.174339" lon="14.942180">
<ele>10.600000</ele>
<time>2009-10-22T15:44:45Z</time>
</trkpt>
<trkpt lat="38.174303" lon="14.942069">
<ele>10.600000</ele>
<time>2009-10-22T15:44:47Z</time>
</trkpt>
<trkpt lat="38.174296" lon="14.941979">
<ele>10.800000</ele>
<time>2009-10-22T15:44:49Z</time>
</trkpt>
<trkpt lat="38.174228" lon="14.941836">
<ele>11.900000</ele>
<time>2009-10-22T15:44:52Z</time>
</trkpt>
<trkpt lat="38.174172" lon="14.941702">
<ele>14.500000</ele>
<time>2009-10-22T15:44:54Z</time>
</trkpt>
<trkpt lat="38.174135" lon="14.941573">
<ele>14.500000</ele>
<time>2009-10-22T15:44:56Z</time>
</trkpt>
<trkpt lat="38.174108" lon="14.941438">
<ele>13.100000</ele>
<time>2009-10-22T15:44:58Z</time>
</trkpt>
<trkpt lat="38.174093" lon="14.941286">
<ele>12.200000</ele>
<time>2009-10-22T15:45:00Z</time>
</trkpt>
<trkpt lat="38.174060" lon="14.941174">
<ele>9.800000</ele>
<time>2009-10-22T15:45:02Z</time>
</trkpt>
<trkpt lat="38.174040" lon="14.941068">
<ele>9.600000</ele>
<time>2009-10-22T15:45:04Z</time>
</trkpt>
<trkpt lat="38.174007" lon="14.940949">
<ele>9.700000</ele>
<time>2009-10-22T15:45:06Z</time>
</trkpt>
<trkpt lat="38.173984" lon="14.940828">
<ele>11.100000</ele>
<time>2009-10-22T15:45:08Z</time>
</trkpt>
<trkpt lat="38.173949" lon="14.940693">
<ele>12.000000</ele>
<time>2009-10-22T15:45:10Z</time>
</trkpt>
<trkpt lat="38.173914" lon="14.940559">
<ele>13.100000</ele>
<time>2009-10-22T15:45:12Z</time>
</trkpt>
<trkpt lat="38.173884" lon="14.940446">
<ele>12.200000</ele>
<time>2009-10-22T15:45:14Z</time>
</trkpt>
<trkpt lat="38.173827" lon="14.940339">
<ele>12.300000</ele>
<time>2009-10-22T15:45:16Z</time>
</trkpt>
<trkpt lat="38.173721" lon="14.940210">
<ele>12.900000</ele>
<time>2009-10-22T15:45:18Z</time>
</trkpt>
<trkpt lat="38.173614" lon="14.940120">
<ele>13.900000</ele>
<time>2009-10-22T15:45:20Z</time>
</trkpt>
<trkpt lat="38.173546" lon="14.940092">
<ele>14.400000</ele>
<time>2009-10-22T15:45:21Z</time>
</trkpt>
<trkpt lat="38.173414" lon="14.940075">
<ele>15.200000</ele>
<time>2009-10-22T15:45:23Z</time>
</trkpt>
<trkpt lat="38.173346" lon="14.940069">
<ele>15.900000</ele>
<time>2009-10-22T15:45:24Z</time>
</trkpt>
<trkpt lat="38.173265" lon="14.940060">
<ele>16.600000</ele>
<time>2009-10-22T15:45:25Z</time>
</trkpt>
<trkpt lat="38.173137" lon="14.940053">
<ele>17.700000</ele>
<time>2009-10-22T15:45:27Z</time>
</trkpt>
<trkpt lat="38.173070" lon="14.940056">
<ele>18.300000</ele>
<time>2009-10-22T15:45:28Z</time>
</trkpt>
<trkpt lat="38.172959" lon="14.940107">
<ele>20.400000</ele>
<time>2009-10-22T15:45:30Z</time>
</trkpt>
<trkpt lat="38.172895" lon="14.940153">
<ele>21.500000</ele>
<time>2009-10-22T15:45:31Z</time>
</trkpt>
<trkpt lat="38.172783" lon="14.940241">
<ele>23.000000</ele>
<time>2009-10-22T15:45:33Z</time>
</trkpt>
<trkpt lat="38.172673" lon="14.940332">
<ele>24.400000</ele>
<time>2009-10-22T15:45:35Z</time>
</trkpt>
<trkpt lat="38.172567" lon="14.940437">
<ele>27.000000</ele>
<time>2009-10-22T15:45:37Z</time>
</trkpt>
<trkpt lat="38.172483" lon="14.940488">
<ele>27.300000</ele>
<time>2009-10-22T15:45:39Z</time>
</trkpt>
<trkpt lat="38.172406" lon="14.940452">
<ele>29.000000</ele>
<time>2009-10-22T15:45:41Z</time>
</trkpt>
<trkpt lat="38.172400" lon="14.940339">
<ele>29.800000</ele>
<time>2009-10-22T15:45:43Z</time>
</trkpt>
<trkpt lat="38.172477" lon="14.940190">
<ele>29.100000</ele>
<time>2009-10-22T15:45:45Z</time>
</trkpt>
<trkpt lat="38.172544" lon="14.940125">
<ele>28.400000</ele>
<time>2009-10-22T15:45:46Z</time>
</trkpt>
<trkpt lat="38.172614" lon="14.940059">
<ele>28.300000</ele>
<time>2009-10-22T15:45:47Z</time>
</trkpt>
<trkpt lat="38.172679" lon="14.939993">
<ele>28.400000</ele>
<time>2009-10-22T15:45:48Z</time>
</trkpt>
<trkpt lat="38.172746" lon="14.939926">
<ele>28.700000</ele>
<time>2009-10-22T15:45:49Z</time>
</trkpt>
<trkpt lat="38.172824" lon="14.939865">
<ele>29.900000</ele>
<time>2009-10-22T15:45:50Z</time>
</trkpt>
<trkpt lat="38.172899" lon="14.939803">
<ele>31.100000</ele>
<time>2009-10-22T15:45:51Z</time>
</trkpt>
<trkpt lat="38.172962" lon="14.939736">
<ele>31.300000</ele>
<time>2009-10-22T15:45:52Z</time>
</trkpt>
<trkpt lat="38.173027" lon="14.939676">
<ele>31.400000</ele>
<time>2009-10-22T15:45:53Z</time>
</trkpt>
<trkpt lat="38.173099" lon="14.939642">
<ele>31.600000</ele>
<time>2009-10-22T15:45:54Z</time>
</trkpt>
<trkpt lat="38.173172" lon="14.939632">
<ele>32.200000</ele>
<time>2009-10-22T15:45:55Z</time>
</trkpt>
<trkpt lat="38.173250" lon="14.939645">
<ele>32.800000</ele>
<time>2009-10-22T15:45:56Z</time>
</trkpt>
<trkpt lat="38.173326" lon="14.939662">
<ele>33.500000</ele>
<time>2009-10-22T15:45:57Z</time>
</trkpt>
<trkpt lat="38.173406" lon="14.939677">
<ele>34.300000</ele>
<time>2009-10-22T15:45:58Z</time>
</trkpt>
<trkpt lat="38.173488" lon="14.939689">
<ele>34.900000</ele>
<time>2009-10-22T15:45:59Z</time>
</trkpt>
<trkpt lat="38.173569" lon="14.939693">
<ele>35.500000</ele>
<time>2009-10-22T15:46:00Z</time>
</trkpt>
<trkpt lat="38.173645" lon="14.939697">
<ele>36.000000</ele>
<time>2009-10-22T15:46:01Z</time>
</trkpt>
<trkpt lat="38.173775" lon="14.939704">
<ele>37.500000</ele>
<time>2009-10-22T15:46:03Z</time>
</trkpt>
<trkpt lat="38.173856" lon="14.939681">
<ele>38.700000</ele>
<time>2009-10-22T15:46:05Z</time>
</trkpt>
<trkpt lat="38.173898" lon="14.939614">
<ele>39.600000</ele>
<time>2009-10-22T15:46:07Z</time>
</trkpt>
<trkpt lat="38.173792" lon="14.939576">
<ele>41.300000</ele>
<time>2009-10-22T15:46:13Z</time>
</trkpt>
<trkpt lat="38.173718" lon="14.939578">
<ele>41.500000</ele>
<time>2009-10-22T15:46:14Z</time>
</trkpt>
<trkpt lat="38.173642" lon="14.939577">
<ele>41.800000</ele>
<time>2009-10-22T15:46:15Z</time>
</trkpt>
<trkpt lat="38.173556" lon="14.939571">
<ele>42.200000</ele>
<time>2009-10-22T15:46:16Z</time>
</trkpt>
<trkpt lat="38.173473" lon="14.939563">
<ele>42.500000</ele>
<time>2009-10-22T15:46:17Z</time>
</trkpt>
<trkpt lat="38.173373" lon="14.939539">
<ele>42.700000</ele>
<time>2009-10-22T15:46:18Z</time>
</trkpt>
<trkpt lat="38.173262" lon="14.939491">
<ele>42.500000</ele>
<time>2009-10-22T15:46:19Z</time>
</trkpt>
<trkpt lat="38.173174" lon="14.939452">
<ele>42.700000</ele>
<time>2009-10-22T15:46:20Z</time>
</trkpt>
<trkpt lat="38.173088" lon="14.939429">
<ele>43.500000</ele>
<time>2009-10-22T15:46:21Z</time>
</trkpt>
<trkpt lat="38.173001" lon="14.939424">
<ele>43.400000</ele>
<time>2009-10-22T15:46:22Z</time>
</trkpt>
<trkpt lat="38.172914" lon="14.939453">
<ele>43.700000</ele>
<time>2009-10-22T15:46:23Z</time>
</trkpt>
<trkpt lat="38.172822" lon="14.939498">
<ele>43.600000</ele>
<time>2009-10-22T15:46:24Z</time>
</trkpt>
<trkpt lat="38.172738" lon="14.939549">
<ele>43.100000</ele>
<time>2009-10-22T15:46:25Z</time>
</trkpt>
<trkpt lat="38.172662" lon="14.939602">
<ele>43.800000</ele>
<time>2009-10-22T15:46:26Z</time>
</trkpt>
<trkpt lat="38.172597" lon="14.939645">
<ele>44.000000</ele>
<time>2009-10-22T15:46:27Z</time>
</trkpt>
<trkpt lat="38.172523" lon="14.939674">
<ele>43.900000</ele>
<time>2009-10-22T15:46:29Z</time>
</trkpt>
<trkpt lat="38.172442" lon="14.939667">
<ele>46.100000</ele>
<time>2009-10-22T15:46:31Z</time>
</trkpt>
<trkpt lat="38.172367" lon="14.939667">
<ele>48.400000</ele>
<time>2009-10-22T15:46:33Z</time>
</trkpt>
<trkpt lat="38.172272" lon="14.939728">
<ele>50.600000</ele>
<time>2009-10-22T15:46:36Z</time>
</trkpt>
<trkpt lat="38.172191" lon="14.939778">
<ele>52.800000</ele>
<time>2009-10-22T15:46:38Z</time>
</trkpt>
<trkpt lat="38.172109" lon="14.939823">
<ele>54.900000</ele>
<time>2009-10-22T15:46:40Z</time>
</trkpt>
<trkpt lat="38.172032" lon="14.939834">
<ele>57.800000</ele>
<time>2009-10-22T15:46:42Z</time>
</trkpt>
<trkpt lat="38.171991" lon="14.939742">
<ele>60.400000</ele>
<time>2009-10-22T15:46:45Z</time>
</trkpt>
<trkpt lat="38.172030" lon="14.939647">
<ele>61.500000</ele>
<time>2009-10-22T15:46:47Z</time>
</trkpt>
<trkpt lat="38.172078" lon="14.939558">
<ele>61.600000</ele>
<time>2009-10-22T15:46:49Z</time>
</trkpt>
<trkpt lat="38.172145" lon="14.939485">
<ele>62.200000</ele>
<time>2009-10-22T15:46:51Z</time>
</trkpt>
<trkpt lat="38.172205" lon="14.939439">
<ele>63.000000</ele>
<time>2009-10-22T15:46:53Z</time>
</trkpt>
<trkpt lat="38.172301" lon="14.939367">
<ele>64.000000</ele>
<time>2009-10-22T15:46:56Z</time>
</trkpt>
<trkpt lat="38.172377" lon="14.939317">
<ele>64.500000</ele>
<time>2009-10-22T15:46:58Z</time>
</trkpt>
<trkpt lat="38.172459" lon="14.939252">
<ele>65.500000</ele>
<time>2009-10-22T15:47:00Z</time>
</trkpt>
<trkpt lat="38.172516" lon="14.939160">
<ele>66.200000</ele>
<time>2009-10-22T15:47:02Z</time>
</trkpt>
<trkpt lat="38.172559" lon="14.939071">
<ele>66.800000</ele>
<time>2009-10-22T15:47:04Z</time>
</trkpt>
<trkpt lat="38.172595" lon="14.938971">
<ele>67.100000</ele>
<time>2009-10-22T15:47:06Z</time>
</trkpt>
<trkpt lat="38.172633" lon="14.938864">
<ele>67.200000</ele>
<time>2009-10-22T15:47:08Z</time>
</trkpt>
<trkpt lat="38.172673" lon="14.938785">
<ele>67.700000</ele>
<time>2009-10-22T15:47:10Z</time>
</trkpt>
<trkpt lat="38.172720" lon="14.938699">
<ele>68.700000</ele>
<time>2009-10-22T15:47:13Z</time>
</trkpt>
<trkpt lat="38.172777" lon="14.938596">
<ele>69.300000</ele>
<time>2009-10-22T15:47:16Z</time>
</trkpt>
<trkpt lat="38.172812" lon="14.938507">
<ele>69.500000</ele>
<time>2009-10-22T15:47:18Z</time>
</trkpt>
<trkpt lat="38.172858" lon="14.938398">
<ele>70.600000</ele>
<time>2009-10-22T15:47:20Z</time>
</trkpt>
<trkpt lat="38.172899" lon="14.938297">
<ele>72.200000</ele>
<time>2009-10-22T15:47:22Z</time>
</trkpt>
<trkpt lat="38.172942" lon="14.938195">
<ele>73.800000</ele>
<time>2009-10-22T15:47:24Z</time>
</trkpt>
<trkpt lat="38.172942" lon="14.938091">
<ele>76.100000</ele>
<time>2009-10-22T15:47:27Z</time>
</trkpt>
<trkpt lat="38.172873" lon="14.938050">
<ele>77.000000</ele>
<time>2009-10-22T15:47:29Z</time>
</trkpt>
<trkpt lat="38.172801" lon="14.938070">
<ele>78.400000</ele>
<time>2009-10-22T15:47:31Z</time>
</trkpt>
<trkpt lat="38.172741" lon="14.938137">
<ele>80.000000</ele>
<time>2009-10-22T15:47:33Z</time>
</trkpt>
<trkpt lat="38.172668" lon="14.938235">
<ele>81.000000</ele>
<time>2009-10-22T15:47:35Z</time>
</trkpt>
<trkpt lat="38.172597" lon="14.938351">
<ele>82.000000</ele>
<time>2009-10-22T15:47:37Z</time>
</trkpt>
<trkpt lat="38.172517" lon="14.938482">
<ele>83.100000</ele>
<time>2009-10-22T15:47:39Z</time>
</trkpt>
<trkpt lat="38.172442" lon="14.938616">
<ele>84.500000</ele>
<time>2009-10-22T15:47:41Z</time>
</trkpt>
<trkpt lat="38.172381" lon="14.938742">
<ele>85.800000</ele>
<time>2009-10-22T15:47:43Z</time>
</trkpt>
<trkpt lat="38.172334" lon="14.938843">
<ele>88.300000</ele>
<time>2009-10-22T15:47:45Z</time>
</trkpt>
<trkpt lat="38.172275" lon="14.938905">
<ele>89.600000</ele>
<time>2009-10-22T15:47:47Z</time>
</trkpt>
<trkpt lat="38.172208" lon="14.938910">
<ele>91.800000</ele>
<time>2009-10-22T15:47:49Z</time>
</trkpt>
<trkpt lat="38.172158" lon="14.938816">
<ele>93.800000</ele>
<time>2009-10-22T15:47:52Z</time>
</trkpt>
<trkpt lat="38.172151" lon="14.938716">
<ele>95.400000</ele>
<time>2009-10-22T15:47:54Z</time>
</trkpt>
<trkpt lat="38.172151" lon="14.938612">
<ele>96.800000</ele>
<time>2009-10-22T15:47:56Z</time>
</trkpt>
<trkpt lat="38.172163" lon="14.938494">
<ele>98.400000</ele>
<time>2009-10-22T15:47:58Z</time>
</trkpt>
<trkpt lat="38.172157" lon="14.938359">
<ele>100.400000</ele>
<time>2009-10-22T15:48:00Z</time>
</trkpt>
<trkpt lat="38.172150" lon="14.938231">
<ele>102.400000</ele>
<time>2009-10-22T15:48:02Z</time>
</trkpt>
<trkpt lat="38.172148" lon="14.938119">
<ele>104.100000</ele>
<time>2009-10-22T15:48:04Z</time>
</trkpt>
<trkpt lat="38.172166" lon="14.938023">
<ele>105.400000</ele>
<time>2009-10-22T15:48:06Z</time>
</trkpt>
<trkpt lat="38.172197" lon="14.937933">
<ele>106.500000</ele>
<time>2009-10-22T15:48:08Z</time>
</trkpt>
<trkpt lat="38.172243" lon="14.937840">
<ele>107.200000</ele>
<time>2009-10-22T15:48:10Z</time>
</trkpt>
<trkpt lat="38.172288" lon="14.937746">
<ele>108.000000</ele>
<time>2009-10-22T15:48:12Z</time>
</trkpt>
<trkpt lat="38.172336" lon="14.937649">
<ele>108.700000</ele>
<time>2009-10-22T15:48:14Z</time>
</trkpt>
<trkpt lat="38.172378" lon="14.937552">
<ele>109.100000</ele>
<time>2009-10-22T15:48:16Z</time>
</trkpt>
<trkpt lat="38.172434" lon="14.937465">
<ele>110.300000</ele>
<time>2009-10-22T15:48:18Z</time>
</trkpt>
<trkpt lat="38.172484" lon="14.937384">
<ele>111.300000</ele>
<time>2009-10-22T15:48:20Z</time>
</trkpt>
<trkpt lat="38.172516" lon="14.937281">
<ele>113.500000</ele>
<time>2009-10-22T15:48:23Z</time>
</trkpt>
<trkpt lat="38.172541" lon="14.937193">
<ele>115.500000</ele>
<time>2009-10-22T15:48:27Z</time>
</trkpt>
<trkpt lat="38.172577" lon="14.937079">
<ele>115.900000</ele>
<time>2009-10-22T15:48:30Z</time>
</trkpt>
<trkpt lat="38.172624" lon="14.936989">
<ele>116.400000</ele>
<time>2009-10-22T15:48:32Z</time>
</trkpt>
<trkpt lat="38.172658" lon="14.936903">
<ele>117.300000</ele>
<time>2009-10-22T15:48:34Z</time>
</trkpt>
<trkpt lat="38.172671" lon="14.936785">
<ele>117.300000</ele>
<time>2009-10-22T15:48:37Z</time>
</trkpt>
<trkpt lat="38.172661" lon="14.936674">
<ele>117.700000</ele>
<time>2009-10-22T15:48:39Z</time>
</trkpt>
<trkpt lat="38.172651" lon="14.936564">
<ele>118.600000</ele>
<time>2009-10-22T15:48:41Z</time>
</trkpt>
<trkpt lat="38.172670" lon="14.936466">
<ele>120.800000</ele>
<time>2009-10-22T15:48:43Z</time>
</trkpt>
<trkpt lat="38.172677" lon="14.936364">
<ele>122.100000</ele>
<time>2009-10-22T15:48:45Z</time>
</trkpt>
<trkpt lat="38.172684" lon="14.936261">
<ele>123.500000</ele>
<time>2009-10-22T15:48:47Z</time>
</trkpt>
<trkpt lat="38.172687" lon="14.936161">
<ele>124.700000</ele>
<time>2009-10-22T15:48:49Z</time>
</trkpt>
<trkpt lat="38.172685" lon="14.936045">
<ele>126.300000</ele>
<time>2009-10-22T15:48:52Z</time>
</trkpt>
<trkpt lat="38.172631" lon="14.935984">
<ele>128.300000</ele>
<time>2009-10-22T15:48:56Z</time>
</trkpt>
<trkpt lat="38.172573" lon="14.936057">
<ele>128.700000</ele>
<time>2009-10-22T15:48:58Z</time>
</trkpt>
<trkpt lat="38.172515" lon="14.936145">
<ele>129.700000</ele>
<time>2009-10-22T15:49:00Z</time>
</trkpt>
<trkpt lat="38.172457" lon="14.936232">
<ele>130.700000</ele>
<time>2009-10-22T15:49:02Z</time>
</trkpt>
<trkpt lat="38.172400" lon="14.936334">
<ele>131.700000</ele>
<time>2009-10-22T15:49:05Z</time>
</trkpt>
<trkpt lat="38.172317" lon="14.936379">
<ele>133.800000</ele>
<time>2009-10-22T15:49:12Z</time>
</trkpt>
<trkpt lat="38.172388" lon="14.936330">
<ele>136.300000</ele>
<time>2009-10-22T15:49:32Z</time>
</trkpt>
<trkpt lat="38.172437" lon="14.936249">
<ele>132.800000</ele>
<time>2009-10-22T15:49:37Z</time>
</trkpt>
<trkpt lat="38.172486" lon="14.936169">
<ele>129.800000</ele>
<time>2009-10-22T15:49:40Z</time>
</trkpt>
<trkpt lat="38.172539" lon="14.936064">
<ele>126.700000</ele>
<time>2009-10-22T15:49:43Z</time>
</trkpt>
<trkpt lat="38.172590" lon="14.935975">
<ele>124.400000</ele>
<time>2009-10-22T15:49:46Z</time>
</trkpt>
<trkpt lat="38.172682" lon="14.935996">
<ele>123.800000</ele>
<time>2009-10-22T15:49:57Z</time>
</trkpt>
<trkpt lat="38.172686" lon="14.936083">
<ele>123.400000</ele>
<time>2009-10-22T15:50:00Z</time>
</trkpt>
<trkpt lat="38.172674" lon="14.936181">
<ele>122.800000</ele>
<time>2009-10-22T15:50:03Z</time>
</trkpt>
<trkpt lat="38.172672" lon="14.936315">
<ele>121.800000</ele>
<time>2009-10-22T15:50:06Z</time>
</trkpt>
<trkpt lat="38.172667" lon="14.936418">
<ele>120.900000</ele>
<time>2009-10-22T15:50:08Z</time>
</trkpt>
<trkpt lat="38.172661" lon="14.936513">
<ele>120.100000</ele>
<time>2009-10-22T15:50:10Z</time>
</trkpt>
<trkpt lat="38.172653" lon="14.936608">
<ele>119.100000</ele>
<time>2009-10-22T15:50:12Z</time>
</trkpt>
<trkpt lat="38.172655" lon="14.936734">
<ele>117.600000</ele>
<time>2009-10-22T15:50:15Z</time>
</trkpt>
<trkpt lat="38.172647" lon="14.936836">
<ele>116.700000</ele>
<time>2009-10-22T15:50:17Z</time>
</trkpt>
<trkpt lat="38.172623" lon="14.936941">
<ele>116.400000</ele>
<time>2009-10-22T15:50:19Z</time>
</trkpt>
<trkpt lat="38.172590" lon="14.937042">
<ele>115.800000</ele>
<time>2009-10-22T15:50:21Z</time>
</trkpt>
<trkpt lat="38.172556" lon="14.937136">
<ele>115.200000</ele>
<time>2009-10-22T15:50:23Z</time>
</trkpt>
<trkpt lat="38.172525" lon="14.937227">
<ele>114.800000</ele>
<time>2009-10-22T15:50:25Z</time>
</trkpt>
<trkpt lat="38.172496" lon="14.937318">
<ele>113.800000</ele>
<time>2009-10-22T15:50:28Z</time>
</trkpt>
<trkpt lat="38.172463" lon="14.937401">
<ele>113.900000</ele>
<time>2009-10-22T15:50:30Z</time>
</trkpt>
<trkpt lat="38.172423" lon="14.937489">
<ele>112.400000</ele>
<time>2009-10-22T15:50:33Z</time>
</trkpt>
<trkpt lat="38.172376" lon="14.937579">
<ele>111.100000</ele>
<time>2009-10-22T15:50:35Z</time>
</trkpt>
<trkpt lat="38.172315" lon="14.937689">
<ele>109.700000</ele>
<time>2009-10-22T15:50:37Z</time>
</trkpt>
<trkpt lat="38.172245" lon="14.937804">
<ele>108.600000</ele>
<time>2009-10-22T15:50:39Z</time>
</trkpt>
<trkpt lat="38.172179" lon="14.937913">
<ele>107.900000</ele>
<time>2009-10-22T15:50:41Z</time>
</trkpt>
<trkpt lat="38.172143" lon="14.938014">
<ele>106.900000</ele>
<time>2009-10-22T15:50:43Z</time>
</trkpt>
<trkpt lat="38.172115" lon="14.938123">
<ele>108.800000</ele>
<time>2009-10-22T15:50:45Z</time>
</trkpt>
<trkpt lat="38.172116" lon="14.938208">
<ele>107.100000</ele>
<time>2009-10-22T15:50:48Z</time>
</trkpt>
<trkpt lat="38.172120" lon="14.938333">
<ele>105.300000</ele>
<time>2009-10-22T15:50:51Z</time>
</trkpt>
<trkpt lat="38.172131" lon="14.938436">
<ele>104.100000</ele>
<time>2009-10-22T15:50:53Z</time>
</trkpt>
<trkpt lat="38.172142" lon="14.938537">
<ele>102.700000</ele>
<time>2009-10-22T15:50:55Z</time>
</trkpt>
<trkpt lat="38.172151" lon="14.938636">
<ele>101.300000</ele>
<time>2009-10-22T15:50:57Z</time>
</trkpt>
<trkpt lat="38.172152" lon="14.938736">
<ele>100.000000</ele>
<time>2009-10-22T15:50:59Z</time>
</trkpt>
<trkpt lat="38.172151" lon="14.938833">
<ele>98.500000</ele>
<time>2009-10-22T15:51:01Z</time>
</trkpt>
<trkpt lat="38.172153" lon="14.938925">
<ele>96.500000</ele>
<time>2009-10-22T15:51:04Z</time>
</trkpt>
<trkpt lat="38.172091" lon="14.938986">
<ele>95.000000</ele>
<time>2009-10-22T15:51:09Z</time>
</trkpt>
<trkpt lat="38.172019" lon="14.938990">
<ele>93.400000</ele>
<time>2009-10-22T15:51:13Z</time>
</trkpt>
<trkpt lat="38.171945" lon="14.938992">
<ele>90.300000</ele>
<time>2009-10-22T15:51:22Z</time>
</trkpt>
<trkpt lat="38.171810" lon="14.938975">
<ele>65.300000</ele>
<time>2009-10-25T09:27:53Z</time>
</trkpt>
<trkpt lat="38.171687" lon="14.940642">
<ele>107.200000</ele>
<time>2009-10-25T09:27:56Z</time>
</trkpt>
<trkpt lat="38.171798" lon="14.940458">
<ele>112.800000</ele>
<time>2009-10-25T09:27:56Z</time>
</trkpt>
<trkpt lat="38.171865" lon="14.940288">
<ele>120.300000</ele>
<time>2009-10-25T09:27:57Z</time>
</trkpt>
<trkpt lat="38.171882" lon="14.940182">
<ele>119.200000</ele>
<time>2009-10-25T09:27:58Z</time>
</trkpt>
<trkpt lat="38.171968" lon="14.939190">
<ele>93.900000</ele>
<time>2009-10-25T09:27:59Z</time>
</trkpt>
<trkpt lat="38.171975" lon="14.939072">
<ele>90.400000</ele>
<time>2009-10-25T09:28:01Z</time>
</trkpt>
<trkpt lat="38.171996" lon="14.938976">
<ele>85.300000</ele>
<time>2009-10-25T09:28:12Z</time>
</trkpt>
<trkpt lat="38.172073" lon="14.938964">
<ele>86.300000</ele>
<time>2009-10-25T09:28:14Z</time>
</trkpt>
<trkpt lat="38.172142" lon="14.938978">
<ele>85.800000</ele>
<time>2009-10-25T09:28:16Z</time>
</trkpt>
<trkpt lat="38.172248" lon="14.938993">
<ele>84.100000</ele>
<time>2009-10-25T09:28:22Z</time>
</trkpt>
</trkseg>
</trk>
</gpx>